# Wetter Temperatur Luftdruck Luftfeuchtigkeit Sichtweite Windgeschwindigkeit Windrichtung Zeit
1 Clouds 23 1015 88 10000 3.1 140 10:18 08.04.2020
2 Clouds 23 1016 83 10000 2.1 150 09:42 08.04.2020
3 Clouds 23 1016 83 10000 2.1 150 09:21 08.04.2020
4 Clouds 23 1017 88 10000 3.1 120 08:59 08.04.2020
5 Clouds 23 1017 88 10000 3.1 120 08:41 08.04.2020
6 Clouds 23 1017 88 10000 3.1 120 08:21 08.04.2020
7 Clouds 23 1018 88 10000 1.5 90 07:43 08.04.2020
8 Clouds 23 1018 88 10000 1.5 90 07:22 08.04.2020
9 Clouds 23 1018 88 10000 2.6 100 06:43 08.04.2020
10 Clouds 24 1019 83 10000 2.1 90 05:49 08.04.2020
11 Clouds 24 1018 78 10000 2.1 100 03:22 08.04.2020
12 Clouds 24 1017 73 10000 3.1 140 02:38 08.04.2020
13 Clouds 24 1017 73 10000 3.1 140 02:18 08.04.2020
14 Clouds 25 1017 69 10000 4.6 130 01:30 08.04.2020
15 Clouds 26 1017 69 10000 4.1 130 00:52 08.04.2020
16 Clouds 26 1017 69 10000 4.1 130 00:33 08.04.2020
17 Clouds 26 1017 65 10000 3.6 110 23:58 07.04.2020
18 Clouds 26 1017 65 10000 3.6 110 23:38 07.04.2020
19 Clouds 27 1017 65 10000 3.6 110 23:19 07.04.2020
20 Clouds 27 1017 65 10000 3.6 110 23:19 07.04.2020
21 Clouds 26 1018 69 10000 4.1 110 22:56 07.04.2020
22 Clouds 26 1018 69 10000 4.1 110 22:38 07.04.2020
23 Clouds 26 1018 69 10000 4.1 110 22:18 07.04.2020
24 Clouds 26 1018 74 10000 4.6 130 21:43 07.04.2020
25 Clouds 26 1018 74 10000 4.6 130 21:23 07.04.2020
26 Clouds 27 1019 69 10000 4.6 120 20:59 07.04.2020
27 Clouds 27 1019 69 10000 4.6 120 20:41 07.04.2020
28 Clouds 27 1019 69 10000 4.6 120 20:21 07.04.2020
29 Rain 24 1020 83 10000 4.1 150 19:58 07.04.2020
30 Rain 25 1020 83 10000 4.1 150 19:38 07.04.2020
31 Clouds 24 1020 83 10000 5.1 130 19:20 07.04.2020
32 Clouds 26 1020 83 10000 5.1 130 18:59 07.04.2020
33 Clouds 25 1020 83 10000 5.1 130 18:40 07.04.2020
34 Clouds 25 1020 83 10000 5.1 130 18:40 07.04.2020
35 Clouds 24 1020 83 10000 5.1 130 18:21 07.04.2020
36 Clouds 27 1020 69 10000 5.1 120 17:47 07.04.2020
37 Clouds 27 1020 69 10000 5.1 120 17:24 07.04.2020
38 Clouds 25 1020 78 10000 3.6 120 16:58 07.04.2020
39 Clouds 26 1020 78 10000 3.6 120 16:40 07.04.2020
40 Clouds 26 1020 78 10000 4.1 120 16:22 07.04.2020
41 Clouds 25 1020 78 10000 4.1 120 15:43 07.04.2020
42 Clouds 25 1019 83 10000 2.6 90 15:24 07.04.2020
43 Clouds 24 1019 83 10000 2.6 90 14:43 07.04.2020
44 Clouds 24 1019 83 10000 2.6 90 14:23 07.04.2020
45 Clouds 23 1018 83 10000 2.1 90 13:58 07.04.2020
46 Clouds 23 1018 83 10000 2.1 90 13:39 07.04.2020
47 Clouds 23 1018 83 10000 2.1 90 13:19 07.04.2020
48 Clouds 23 1018 83 10000 2.1 100 12:56 07.04.2020
49 Clouds 23 1018 83 10000 2.1 100 12:37 07.04.2020
50 Clouds 23 1018 83 10000 2.1 100 12:18 07.04.2020
51 Rain 23 1017 83 10000 3.6 110 11:45 07.04.2020
52 Rain 23 1017 83 10000 3.6 110 11:27 07.04.2020
53 Clouds 23 1017 83 10000 2.1 120 10:59 07.04.2020
54 Clouds 23 1017 83 10000 2.1 120 10:39 07.04.2020
55 Clouds 23 1017 83 10000 2.1 120 10:19 07.04.2020
56 Clouds 23 1018 83 10000 3.6 100 09:46 07.04.2020
57 Clouds 23 1018 83 10000 3.6 100 09:20 07.04.2020
58 Clouds 23 1018 83 10000 3.6 110 08:59 07.04.2020
59 Clouds 23 1018 83 10000 3.6 110 08:39 07.04.2020
60 Clouds 23 1018 83 10000 3.6 110 08:19 07.04.2020
61 Clouds 23 1018 83 10000 4.6 120 07:44 07.04.2020
62 Clouds 23 1018 83 10000 4.6 120 07:26 07.04.2020
63 Clouds 23 1019 83 10000 4.6 100 06:51 07.04.2020
64 Clouds 23 1019 83 10000 4.6 100 06:25 07.04.2020
65 Rain 24 1019 78 10000 4.1 100 05:46 07.04.2020
66 Rain 24 1019 78 10000 4.1 100 05:22 07.04.2020
67 Clouds 23 1018 83 10000 5.1 110 03:32 07.04.2020
68 Clouds 23 1017 83 10000 4.1 110 02:59 07.04.2020
69 Clouds 24 1017 78 10000 5.1 100 01:58 07.04.2020
70 Clouds 24 1017 78 10000 5.1 100 01:32 07.04.2020
71 Clouds 24 1017 78 10000 5.1 100 00:29 07.04.2020
72 Clouds 24 1017 78 10000 5.1 100 23:57 06.04.2020
73 Clouds 24 1017 78 10000 5.1 100 23:38 06.04.2020
74 Clouds 24 1017 78 10000 5.1 100 23:20 06.04.2020
75 Clouds 24 1017 78 10000 5.1 140 22:41 06.04.2020
76 Clouds 25 1017 78 10000 5.1 140 22:22 06.04.2020
77 Clouds 24 1017 88 10000 3.1 160 21:58 06.04.2020
78 Clouds 24 1017 88 10000 3.1 160 21:40 06.04.2020
79 Clouds 23 1017 88 10000 3.1 160 21:19 06.04.2020
80 Clouds 23 1018 94 10000 2.6 140 20:56 06.04.2020
81 Clouds 23 1018 94 10000 2.6 140 20:38 06.04.2020
82 Clouds 23 1018 94 10000 2.6 140 20:19 06.04.2020
83 Rain 23 1018 94 4000 1.5 80 19:42 06.04.2020
84 Rain 23 1018 94 4000 1.5 80 19:23 06.04.2020
85 Rain 24 1019 94 6000 2.1 30 18:59 06.04.2020
86 Rain 24 1019 94 6000 2.1 30 18:41 06.04.2020
87 Rain 24 1019 94 6000 2.1 30 18:23 06.04.2020
88 Rain 24 1018 94 7000 2.1 80 17:55 06.04.2020
89 Rain 24 1018 94 7000 2.1 80 17:36 06.04.2020
90 Rain 24 1018 94 7000 2.1 80 17:36 06.04.2020
91 Rain 24 1018 94 7000 2.1 80 17:18 06.04.2020
92 Rain 23 1018 94 7000 3.1 170 16:44 06.04.2020
93 Rain 23 1018 94 7000 3.1 170 16:26 06.04.2020
94 Clouds 24 1017 73 10000 3.1 130 14:45 06.04.2020
95 Clouds 24 1017 73 10000 3.1 130 14:45 06.04.2020
96 Clouds 24 1017 73 10000 3.1 130 14:45 06.04.2020
97 Clouds 24 1017 73 10000 3.1 130 14:45 06.04.2020
98 Clouds 24 1017 73 10000 3.1 130 14:45 06.04.2020
99 Clouds 24 1016 73 10000 2.6 140 13:43 06.04.2020
100 Clouds 24 1016 73 10000 2.6 140 13:20 06.04.2020
101 Clouds 24 1016 73 10000 2.6 140 13:20 06.04.2020
102 Clouds 24 1016 69 10000 4.6 150 12:26 06.04.2020
103 Clouds 24 1016 69 10000 4.6 150 12:26 06.04.2020
104 Clouds 24 1016 69 10000 4.6 150 12:26 06.04.2020
105 Clouds 24 1016 69 10000 4.6 150 12:26 06.04.2020
106 Clouds 24 1016 69 10000 2.1 90 11:55 06.04.2020
107 Clouds 24 1016 69 10000 2.1 90 11:33 06.04.2020
108 Clouds 24 1016 69 10000 2.1 90 11:33 06.04.2020
109 Clouds 24 1016 69 10000 2.1 90 11:33 06.04.2020
110 Clouds 23 1016 69 10000 2.1 160 10:52 06.04.2020
111 Clouds 23 1016 69 10000 2.1 160 10:52 06.04.2020
112 Clouds 23 1016 69 10000 2.1 160 10:52 06.04.2020
113 Clouds 23 1016 69 10000 2.1 160 10:52 06.04.2020
114 Clouds 23 1016 69 10000 2.1 160 10:52 06.04.2020
115 Clouds 23 1016 69 10000 2.1 160 10:22 06.04.2020
116 Clouds 23 1016 69 10000 2.1 160 10:22 06.04.2020
117 Clouds 24 1016 64 10000 3.1 150 09:51 06.04.2020
118 Clouds 24 1016 64 10000 3.1 150 09:51 06.04.2020
119 Clouds 24 1016 64 10000 3.1 150 09:23 06.04.2020
120 Clouds 23 1015 72 0 0.89 124 08:55 06.04.2020
121 Clouds 23 1015 72 0 0.89 124 08:33 06.04.2020
122 Clouds 24 1017 64 10000 4.1 140 07:54 06.04.2020
123 Clouds 24 1017 64 10000 4.1 130 06:57 06.04.2020
124 Clouds 24 1017 64 10000 4.1 130 06:25 06.04.2020
125 Clouds 24 1017 60 10000 3.6 130 04:32 06.04.2020
126 Clouds 24 1016 60 10000 3.6 140 03:18 06.04.2020
127 Clouds 24 1016 60 10000 4.6 140 02:44 06.04.2020
128 Clouds 24 1016 64 10000 5.1 130 01:47 06.04.2020
129 Clouds 24 1016 61 10000 5.1 150 00:46 06.04.2020
130 Clouds 24 1016 61 10000 5.1 150 00:46 06.04.2020
131 Clouds 24 1016 61 10000 5.1 150 00:24 06.04.2020
132 Clouds 25 1015 57 10000 5.7 140 23:46 05.04.2020
133 Clouds 25 1015 57 10000 5.7 140 23:27 05.04.2020
134 Clouds 25 1015 57 10000 5.7 140 23:26 05.04.2020
135 Clouds 25 1015 57 10000 5.7 140 23:26 05.04.2020
136 Clouds 25 1015 57 10000 5.7 140 23:26 05.04.2020
137 Clouds 26 1016 54 10000 4.6 50 22:56 05.04.2020
138 Clouds 26 1016 54 10000 4.6 50 22:38 05.04.2020
139 Clouds 26 1016 54 10000 4.6 50 22:38 05.04.2020
140 Clouds 26 1016 54 10000 4.6 50 22:38 05.04.2020
141 Clouds 26 1016 54 10000 4.6 50 22:38 05.04.2020
142 Clouds 27 1016 54 10000 4.6 50 22:18 05.04.2020
143 Clouds 27 1016 57 10000 3.6 30 21:47 05.04.2020
144 Clouds 27 1016 57 10000 3.6 30 21:26 05.04.2020
145 Clouds 27 1016 57 10000 3.6 30 21:03 05.04.2020
146 Clouds 27 1016 57 10000 3.6 30 21:03 05.04.2020
147 Clouds 27 1016 57 10000 3.6 30 21:03 05.04.2020
148 Clouds 27 1016 57 10000 3.6 30 21:03 05.04.2020
149 Clouds 27 1016 57 10000 3.6 30 21:03 05.04.2020
150 Clouds 27 1017 57 10000 3.1 30 20:20 05.04.2020
151 Clouds 27 1017 57 10000 3.1 30 20:20 05.04.2020
152 Clouds 27 1017 57 10000 3.1 30 20:20 05.04.2020
153 Clouds 28 1017 51 10000 2.6 110 19:38 05.04.2020
154 Clouds 28 1017 51 10000 2.6 110 19:20 05.04.2020
155 Clouds 27 1017 51 10000 3.6 100 18:44 05.04.2020
156 Clouds 27 1017 51 10000 3.6 100 18:44 05.04.2020
157 Clouds 27 1017 51 10000 3.6 100 18:44 05.04.2020
158 Clouds 27 1017 51 10000 3.6 100 18:44 05.04.2020
159 Clouds 27 1017 51 10000 3.6 100 18:44 05.04.2020
160 Clouds 27 1017 54 10000 3.1 110 17:57 05.04.2020
161 Clouds 27 1017 54 10000 3.1 110 17:38 05.04.2020
162 Clouds 27 1017 54 10000 3.1 110 17:19 05.04.2020
163 Clouds 27 1017 54 10000 3.1 110 17:19 05.04.2020
164 Clouds 27 1017 54 10000 3.1 110 17:19 05.04.2020
165 Clouds 27 1017 54 10000 3.1 110 17:19 05.04.2020
166 Clouds 27 1017 54 10000 3.1 110 17:17 05.04.2020
167 Clouds 26 1017 57 10000 3.1 120 16:20 05.04.2020
168 Clouds 25 1016 65 10000 2.1 100 15:52 05.04.2020
169 Clouds 25 1016 65 10000 2.1 100 15:33 05.04.2020
170 Clouds 24 1016 83 10000 2.6 121 14:50 05.04.2020
171 Clouds 24 1016 83 10000 1.94 134 14:26 05.04.2020
172 Clouds 21 1015 88 10000 1 0 13:43 05.04.2020
173 Clouds 19 1014 88 10000 1 0 12:49 05.04.2020
174 Clouds 19 1014 88 10000 1 0 12:49 05.04.2020
175 Clouds 18 1014 88 10000 0.5 0 11:41 05.04.2020
176 Clouds 18 1014 88 10000 0.5 0 11:21 05.04.2020
177 Clouds 24 1013 58 0 2.77 140 10:49 05.04.2020
178 Clouds 18 1014 82 10000 1 0 10:24 05.04.2020
179 Clouds 18 1014 82 10000 1 0 09:57 05.04.2020
180 Clouds 18 1014 82 10000 1 0 09:31 05.04.2020
181 Clouds 18 1014 82 10000 1 0 09:02 05.04.2020
182 Clouds 18 1014 82 10000 1 0 09:02 05.04.2020
183 Clouds 18 1014 82 10000 1 0 09:02 05.04.2020
184 Clouds 19 1016 82 10000 0.5 0 07:31 05.04.2020
185 Clouds 22 1015 72 0 3.05 73 04:36 05.04.2020
186 Clouds 23 1016 64 10000 1.5 70 03:30 05.04.2020
187 Clouds 23 1015 60 10000 2.1 70 02:49 05.04.2020
188 Clouds 23 1015 60 10000 2.6 40 01:46 05.04.2020
189 Clouds 23 1015 60 10000 2.6 40 01:25 05.04.2020
190 Clouds 24 1014 57 10000 3.1 30 00:43 05.04.2020
191 Clouds 24 1014 57 10000 3.1 30 00:21 05.04.2020
192 Clouds 25 1014 57 10000 3.6 20 23:43 04.04.2020
193 Clouds 25 1014 57 10000 3.6 20 23:23 04.04.2020
194 Clouds 25 1015 57 10000 4.6 40 22:57 04.04.2020
195 Clouds 25 1015 57 10000 4.6 40 22:39 04.04.2020
196 Clouds 25 1015 57 10000 4.6 40 22:21 04.04.2020
197 Clouds 25 1015 61 10000 4.1 20 21:58 04.04.2020
198 Clouds 25 1015 61 10000 4.1 20 21:39 04.04.2020
199 Clouds 25 1015 61 10000 4.1 20 21:19 04.04.2020
200 Clouds 25 1015 57 10000 3.1 60 20:56 04.04.2020
201 Clouds 25 1015 57 10000 3.1 60 20:37 04.04.2020
202 Clouds 25 1015 57 10000 3.1 60 20:19 04.04.2020
203 Clear 25 1014 67 0 2.24 46 19:55 04.04.2020
204 Clear 26 1014 66 0 1.34 18 19:36 04.04.2020
205 Clouds 25 1017 57 10000 3.1 20 19:18 04.04.2020
206 Clouds 25 1017 57 10000 3.1 20 18:54 04.04.2020
207 Clouds 25 1017 57 10000 3.1 20 18:36 04.04.2020
208 Clear 25 1015 65 0 2.24 46 18:18 04.04.2020
209 Clear 25 1016 65 0 1.34 20 17:39 04.04.2020
210 Clouds 25 1016 57 10000 1.5 50 17:19 04.04.2020
211 Clouds 25 1016 57 10000 1.5 50 16:46 04.04.2020
212 Clouds 25 1016 57 10000 1.5 50 16:27 04.04.2020
213 Clouds 24 1016 64 10000 1 0 15:59 04.04.2020
214 Clouds 24 1016 64 10000 1 0 15:39 04.04.2020
215 Clouds 24 1016 64 10000 1 0 15:20 04.04.2020
216 Clouds 23 1015 73 10000 0.5 0 14:56 04.04.2020
217 Clouds 22 1015 73 10000 0.5 0 14:37 04.04.2020
218 Clear 19 1014 87 10000 2.05 356 14:18 04.04.2020
219 Clear 18 1014 87 10000 2.05 356 13:42 04.04.2020
220 Clear 15 1014 87 10000 2.05 356 13:22 04.04.2020
221 Clear 15 1014 87 10000 2.05 356 13:22 04.04.2020
222 Clear 15 1014 87 10000 2.05 356 12:58 04.04.2020
223 Clear 15 1014 87 10000 2.05 356 12:40 04.04.2020
224 Clear 15 1014 87 10000 2.05 356 12:21 04.04.2020
225 Clear 16 1014 82 10000 2.36 335 11:42 04.04.2020
226 Clear 15 1014 87 10000 1 0 11:23 04.04.2020
227 Clear 15 1014 87 10000 1 0 10:59 04.04.2020
228 Clear 15 1014 87 10000 1 0 10:41 04.04.2020
229 Clear 15 1014 87 10000 1 0 10:23 04.04.2020
230 Clear 16 1015 82 10000 1 0 09:57 04.04.2020
231 Clear 16 1015 82 10000 1 0 09:39 04.04.2020
232 Clear 16 1015 82 10000 1 0 09:20 04.04.2020
233 Clear 16 1015 82 10000 1 0 08:44 04.04.2020
234 Clear 16 1015 82 10000 1 0 08:23 04.04.2020
235 Clear 17 1015 77 10000 0.5 0 07:59 04.04.2020
236 Clear 17 1015 77 10000 0.5 0 07:39 04.04.2020
237 Clear 17 1015 77 10000 0.5 0 07:21 04.04.2020
238 Clear 17 1016 77 10000 1 0 06:38 04.04.2020
239 Clear 20 1016 72 10000 1.5 40 05:52 04.04.2020
240 Clear 20 1016 72 10000 1.5 40 05:52 04.04.2020
241 Clear 20 1016 72 10000 1.5 40 05:33 04.04.2020
242 Clear 22 1016 60 10000 1 0 04:34 04.04.2020
243 Clear 22 1016 56 10000 1.5 20 03:57 04.04.2020
244 Clear 22 1016 56 10000 1.5 20 03:36 04.04.2020
245 Clear 23 1015 53 10000 1 360 02:46 04.04.2020
246 Clear 23 1015 53 10000 1 360 02:25 04.04.2020
247 Clouds 23 1015 53 10000 1.5 20 01:31 04.04.2020
248 Clouds 23 1015 50 10000 3.1 20 00:59 04.04.2020
249 Clouds 24 1015 50 10000 3.1 20 00:35 04.04.2020
250 Clouds 24 1014 50 10000 4.1 360 23:59 03.04.2020
251 Clouds 24 1014 50 10000 4.1 360 23:38 03.04.2020
252 Clouds 24 1014 50 10000 4.1 360 23:19 03.04.2020
253 Clouds 24 1015 50 10000 4.1 10 22:41 03.04.2020
254 Clouds 24 1015 50 10000 4.1 10 22:19 03.04.2020
255 Clouds 24 1015 50 10000 4.6 20 21:57 03.04.2020
256 Clouds 24 1015 50 10000 4.6 20 21:38 03.04.2020
257 Clouds 24 1015 50 10000 4.6 20 21:20 03.04.2020
258 Clouds 24 1016 53 10000 3.6 20 20:55 03.04.2020
259 Clouds 24 1016 53 10000 3.6 20 20:36 03.04.2020
260 Clouds 24 1016 53 10000 3.6 20 20:18 03.04.2020
261 Clouds 25 1017 50 10000 3.1 10 19:55 03.04.2020
262 Clouds 24 1017 50 10000 3.1 10 19:36 03.04.2020
263 Clouds 25 1017 50 10000 3.1 10 19:18 03.04.2020
264 Clouds 25 1017 50 10000 4.1 10 18:57 03.04.2020
265 Clouds 25 1017 50 10000 4.1 10 18:39 03.04.2020
266 Clouds 25 1017 50 10000 4.1 10 18:39 03.04.2020
267 Clouds 25 1017 50 10000 4.1 10 18:21 03.04.2020
268 Clouds 24 1017 53 10000 3.1 360 17:41 03.04.2020
269 Clouds 24 1017 53 10000 3.1 360 17:19 03.04.2020
270 Clouds 24 1017 53 10000 3.1 50 16:55 03.04.2020
271 Clouds 24 1017 53 10000 3.1 50 16:36 03.04.2020
272 Clouds 24 1017 53 10000 3.1 50 16:18 03.04.2020
273 Clouds 23 1016 53 10000 2.1 70 15:41 03.04.2020
274 Clouds 23 1016 53 10000 2.1 70 15:22 03.04.2020
275 Clouds 21 1016 88 10000 4.2 9 14:58 03.04.2020
276 Clear 23 1015 63 0 1.34 53 14:40 03.04.2020
277 Clouds 20 1015 87 10000 4.13 16 14:21 03.04.2020
278 Clouds 20 1015 87 10000 4.13 16 13:46 03.04.2020
279 Clouds 16 1015 87 10000 4.13 16 13:27 03.04.2020
280 Clouds 22 1015 56 10000 1.5 40 12:57 03.04.2020
281 Clouds 22 1015 56 10000 1.5 40 12:39 03.04.2020
282 Clouds 22 1015 56 10000 1.5 40 12:18 03.04.2020
283 Clouds 22 1015 56 10000 1.5 40 11:55 03.04.2020
284 Clouds 22 1015 56 10000 1.5 40 11:55 03.04.2020
285 Clouds 21 1015 56 10000 1.5 40 11:37 03.04.2020
286 Clouds 21 1015 56 10000 1.5 40 11:18 03.04.2020
287 Clear 21 1013 74 0 3.81 15 10:56 03.04.2020
288 Clear 21 1013 74 0 3.81 15 10:37 03.04.2020
289 Clear 21 1013 74 0 3.81 15 10:37 03.04.2020
290 Clear 21 1013 74 0 3.81 15 10:18 03.04.2020
291 Clear 21 1013 74 0 3.81 15 10:18 03.04.2020
292 Clear 21 1013 72 0 3.81 15 09:54 03.04.2020
293 Clear 21 1013 73 0 0.89 78 09:36 03.04.2020
294 Clear 21 1013 73 0 0.89 78 09:36 03.04.2020
295 Clear 21 1013 72 0 0.45 100 09:18 03.04.2020
296 Clear 22 1013 71 0 0.89 53 08:41 03.04.2020
297 Clear 22 1013 67 0 4.54 35 08:22 03.04.2020
298 Clear 21 1014 68 0 4.55 35 07:50 03.04.2020
299 Clear 22 1014 68 0 4.54 35 07:32 03.04.2020
300 Clear 22 1014 67 0 0.89 44 06:55 03.04.2020
301 Clear 22 1014 68 0 1.34 46 06:25 03.04.2020
302 Clear 22 1015 69 0 0.89 82 05:42 03.04.2020
303 Clouds 22 1015 56 10000 1.5 40 03:47 03.04.2020
304 Clouds 22 1015 56 10000 1.5 40 03:29 03.04.2020
305 Clouds 22 1015 56 0 3.1 30 02:29 03.04.2020
306 Clear 23 1014 53 10000 3.1 30 01:23 03.04.2020
307 Clouds 24 1014 50 10000 3.6 40 00:41 03.04.2020
308 Clouds 24 1014 50 10000 3.6 40 00:20 03.04.2020
309 Clouds 24 1014 50 10000 4.6 30 23:42 02.04.2020
310 Clouds 24 1014 50 10000 4.6 30 23:23 02.04.2020
311 Clouds 24 1014 50 10000 4.6 30 22:59 02.04.2020
312 Clouds 24 1014 50 10000 4.6 30 22:41 02.04.2020
313 Clouds 24 1014 50 10000 4.6 30 22:20 02.04.2020
314 Clouds 25 1015 47 10000 4.1 10 21:54 02.04.2020
315 Clouds 25 1015 47 10000 4.1 10 21:36 02.04.2020
316 Clouds 25 1015 47 10000 4.1 10 21:18 02.04.2020
317 Clouds 25 1015 50 10000 3.6 40 20:42 02.04.2020
318 Clouds 25 1015 50 10000 4.1 40 20:22 02.04.2020
319 Clouds 25 1015 50 10000 4.1 40 19:45 02.04.2020
320 Clouds 25 1015 50 10000 4.1 40 19:21 02.04.2020
321 Clouds 25 1016 47 10000 3.6 30 19:00 02.04.2020
322 Clouds 25 1016 47 10000 3.6 30 18:41 02.04.2020
323 Clouds 24 1016 53 10000 4.6 50 18:20 02.04.2020
324 Clouds 24 1016 53 10000 4.6 50 17:57 02.04.2020
325 Clouds 24 1016 53 10000 4.6 50 17:39 02.04.2020
326 Clouds 24 1016 53 10000 4.6 50 17:20 02.04.2020
327 Clouds 24 1015 50 10000 4.1 40 16:55 02.04.2020
328 Clouds 24 1015 50 10000 4.1 40 16:37 02.04.2020
329 Clouds 24 1015 50 10000 4.1 40 16:19 02.04.2020
330 Clouds 23 1015 53 10000 4.1 50 15:44 02.04.2020
331 Clouds 23 1014 64 10000 4.1 50 15:21 02.04.2020
332 Clouds 22 1014 64 10000 4.1 50 14:59 02.04.2020
333 Clouds 22 1014 64 10000 4.1 50 14:40 02.04.2020
334 Clouds 22 1014 64 10000 4.1 50 14:20 02.04.2020
335 Clouds 22 1014 64 10000 2.6 50 13:57 02.04.2020
336 Clouds 22 1014 64 10000 2.6 50 13:38 02.04.2020
337 Clouds 22 1014 64 10000 2.6 50 13:38 02.04.2020
338 Clouds 21 1014 64 10000 2.6 50 13:20 02.04.2020
339 Clouds 22 1013 60 10000 3.6 40 12:55 02.04.2020
340 Clouds 22 1013 60 10000 3.6 40 12:55 02.04.2020
341 Clouds 22 1013 60 10000 3.6 40 12:36 02.04.2020
342 Clouds 22 1013 60 10000 3.6 40 12:18 02.04.2020
343 Clouds 22 1013 60 10000 4.6 50 11:55 02.04.2020
344 Clouds 22 1013 60 10000 4.6 50 11:55 02.04.2020
345 Clouds 22 1013 60 10000 4.6 50 11:36 02.04.2020
346 Clouds 22 1013 60 10000 4.6 50 11:18 02.04.2020
347 Clouds 22 1013 64 10000 3.6 40 10:54 02.04.2020
348 Clouds 22 1013 64 10000 3.6 40 10:36 02.04.2020
349 Clouds 22 1013 64 10000 3.6 40 10:36 02.04.2020
350 Clouds 22 1013 64 10000 3.6 40 10:18 02.04.2020
351 Clouds 22 1013 64 10000 4.1 30 09:42 02.04.2020
352 Clouds 22 1013 64 10000 4.1 30 09:24 02.04.2020
353 Clouds 23 1013 60 10000 4.6 30 08:58 02.04.2020
354 Clouds 23 1013 60 10000 4.6 30 08:39 02.04.2020
355 Clouds 23 1013 60 10000 4.6 30 08:19 02.04.2020
356 Clouds 23 1013 60 10000 4.6 40 07:42 02.04.2020
357 Clouds 23 1013 60 10000 4.6 40 07:19 02.04.2020
358 Clouds 23 1013 64 10000 4.1 20 06:46 02.04.2020
359 Clouds 23 1013 64 10000 4.1 20 06:20 02.04.2020
360 Clouds 23 1012 69 10000 4.1 20 05:41 02.04.2020
361 Clouds 24 1011 69 10000 5.1 350 02:59 02.04.2020
362 Clouds 25 1010 73 10000 5.7 360 01:30 02.04.2020
363 Clouds 26 1009 69 10000 5.7 330 00:42 02.04.2020
364 Clouds 26 1009 69 10000 5.7 330 00:24 02.04.2020
365 Clouds 27 1009 69 10000 6.2 320 23:41 01.04.2020
366 Clouds 27 1009 69 10000 6.2 320 23:20 01.04.2020
367 Clouds 27 1009 69 10000 6.2 330 22:58 01.04.2020
368 Clouds 27 1009 69 10000 6.2 330 22:39 01.04.2020
369 Clouds 26 1009 69 10000 7.2 310 22:20 01.04.2020
370 Clouds 27 1009 69 10000 7.2 310 21:42 01.04.2020
371 Clouds 27 1009 83 10000 5.1 300 21:19 01.04.2020
372 Clouds 27 1009 83 10000 5.1 300 20:57 01.04.2020
373 Clouds 27 1009 83 10000 5.1 300 20:39 01.04.2020
374 Clouds 27 1010 83 10000 4.1 300 20:20 01.04.2020
375 Clouds 27 1010 83 10000 4.1 300 19:58 01.04.2020
376 Clouds 26 1010 83 10000 4.1 300 19:40 01.04.2020
377 Clouds 27 1010 83 10000 4.1 300 19:19 01.04.2020
378 Rain 25 1011 83 10000 5.7 280 18:42 01.04.2020
379 Rain 24 1011 83 10000 5.7 280 18:24 01.04.2020
380 Clouds 23 1009 82 0 1.34 293 17:57 01.04.2020
381 Clouds 24 1009 81 0 3.13 269 17:38 01.04.2020
382 Clouds 28 1009 74 10000 6.7 260 17:19 01.04.2020
383 Clouds 28 1009 74 10000 6.7 260 16:58 01.04.2020
384 Clouds 28 1009 74 10000 6.7 260 16:39 01.04.2020
385 Clouds 27 1009 74 10000 6.7 260 16:21 01.04.2020
386 Clouds 27 1009 78 10000 7.2 250 15:57 01.04.2020
387 Clouds 27 1009 78 10000 7.2 250 15:37 01.04.2020
388 Clouds 26 1009 83 10000 4.1 250 15:18 01.04.2020
389 Clouds 26 1009 83 10000 4.1 250 14:41 01.04.2020
390 Clouds 26 1009 80 0 8.33 257 14:23 01.04.2020
391 Clouds 25 1008 81 0 8.33 257 13:59 01.04.2020
392 Clouds 24 1008 81 0 8.33 257 13:40 01.04.2020
393 Clouds 26 1009 75 0 8.33 257 13:20 01.04.2020
394 Clouds 26 1009 75 0 8.33 257 13:20 01.04.2020
395 Clouds 26 1009 75 0 8.33 257 12:59 01.04.2020
396 Clouds 26 1009 75 0 8.33 257 12:40 01.04.2020
397 Clouds 24 1009 83 10000 4.1 240 12:22 01.04.2020
398 Clouds 24 1009 83 10000 4.1 240 11:57 01.04.2020
399 Clouds 24 1009 83 10000 4.1 240 11:37 01.04.2020
400 Clouds 24 1009 83 10000 4.1 240 11:37 01.04.2020
401 Clouds 24 1008 81 0 8.91 234 11:19 01.04.2020
402 Clouds 24 1008 81 0 8.91 234 10:39 01.04.2020
403 Clouds 24 1008 81 0 8.91 234 10:21 01.04.2020
404 Clouds 24 1008 81 0 8.91 234 09:59 01.04.2020
405 Clouds 24 1008 81 0 8.91 234 09:40 01.04.2020
406 Clouds 24 1008 81 0 8.91 234 09:40 01.04.2020
407 Clouds 24 1008 81 0 8.89 240 09:20 01.04.2020
408 Clouds 24 1008 81 0 7.74 217 08:44 01.04.2020
409 Clouds 24 1008 81 0 7.74 217 08:44 01.04.2020
410 Clouds 24 1008 81 0 7.74 217 08:20 01.04.2020
411 Clouds 24 1009 81 0 7.74 217 07:58 01.04.2020
412 Clouds 24 1009 81 0 7.74 217 07:40 01.04.2020
413 Clouds 24 1009 81 0 7.74 217 07:19 01.04.2020
414 Clouds 23 1009 82 0 0.45 242 06:41 01.04.2020
415 Clouds 23 1009 82 0 3.69 243 06:20 01.04.2020
416 Clouds 23 1012 78 10000 1.5 250 05:24 01.04.2020
417 Clouds 24 1011 73 10000 2.1 280 03:39 01.04.2020
418 Clouds 25 1012 69 10000 2.6 270 02:59 01.04.2020
419 Clear 25 1010 80 0 0.45 240 02:31 01.04.2020
420 Clouds 26 1012 74 10000 5.7 210 01:46 01.04.2020
421 Clouds 26 1012 74 10000 5.7 210 01:24 01.04.2020
422 Clear 27 1010 76 0 1.34 266 00:47 01.04.2020
423 Clouds 28 1011 65 10000 5.7 190 00:21 01.04.2020
424 Clouds 28 1011 65 10000 5.7 190 23:54 31.03.2020
425 Clouds 28 1011 65 10000 5.7 190 23:36 31.03.2020
426 Clouds 28 1011 65 10000 5.7 190 23:18 31.03.2020
427 Clouds 28 1012 61 10000 5.7 200 22:40 31.03.2020
428 Clouds 28 1012 61 10000 5.7 200 22:20 31.03.2020
429 Clouds 28 1012 61 10000 4.6 190 21:57 31.03.2020
430 Clouds 28 1012 61 10000 4.6 190 21:39 31.03.2020
431 Clouds 28 1012 61 10000 4.6 190 21:20 31.03.2020
432 Clouds 25 1013 71 0 4.61 173 20:56 31.03.2020
433 Clouds 25 1013 71 0 4.61 173 20:37 31.03.2020
434 Clouds 28 1014 61 10000 4.6 210 20:18 31.03.2020
435 Clouds 28 1014 61 10000 4.6 210 19:43 31.03.2020
436 Clouds 28 1014 61 10000 4.6 210 19:25 31.03.2020
437 Clouds 28 1015 58 10000 4.6 210 18:59 31.03.2020
438 Clouds 28 1015 58 10000 4.6 210 18:41 31.03.2020
439 Clouds 28 1015 58 10000 4.6 210 18:19 31.03.2020
440 Clouds 27 1016 65 10000 4.6 220 17:55 31.03.2020
441 Clouds 27 1016 65 10000 4.6 220 17:37 31.03.2020
442 Clouds 27 1016 65 10000 4.6 220 17:37 31.03.2020
443 Clouds 27 1016 65 10000 4.6 220 17:37 31.03.2020
444 Clouds 26 1016 65 10000 4.6 220 17:19 31.03.2020
445 Clouds 27 1016 69 10000 4.1 220 16:41 31.03.2020
446 Clouds 26 1016 69 10000 4.1 220 16:20 31.03.2020
447 Clouds 26 1016 83 10000 2.1 230 15:58 31.03.2020
448 Clouds 26 1016 83 10000 2.1 230 15:58 31.03.2020
449 Clouds 25 1016 83 10000 2.1 230 15:40 31.03.2020
450 Clouds 24 1016 94 10000 1.5 220 15:22 31.03.2020
451 Clouds 24 1016 94 10000 1.5 220 14:58 31.03.2020
452 Clouds 24 1016 94 10000 1.5 220 14:39 31.03.2020
453 Clouds 23 1016 94 10000 1.5 220 14:21 31.03.2020
454 Clouds 22 1016 88 10000 0.5 0 13:43 31.03.2020
455 Clouds 22 1016 88 10000 0.5 0 13:20 31.03.2020
456 Clouds 21 1015 88 10000 4.37 179 12:57 31.03.2020
457 Clouds 21 1015 88 10000 4.37 179 12:39 31.03.2020
458 Clouds 21 1015 88 10000 4.28 153 12:19 31.03.2020
459 Clouds 21 1015 94 10000 1 0 11:40 31.03.2020
460 Clouds 21 1015 94 10000 1 0 11:20 31.03.2020
461 Clouds 22 1015 88 10000 0.5 0 10:58 31.03.2020
462 Clouds 22 1015 88 10000 0.5 0 10:58 31.03.2020
463 Clouds 22 1015 88 10000 0.5 0 10:40 31.03.2020
464 Clouds 22 1015 88 10000 0.5 0 10:21 31.03.2020
465 Clouds 22 1015 88 10000 2.6 170 09:57 31.03.2020
466 Clouds 22 1015 88 10000 2.6 170 09:39 31.03.2020
467 Clouds 22 1015 88 10000 2.6 170 09:21 31.03.2020
468 Clouds 22 1016 94 10000 1 0 08:57 31.03.2020
469 Clouds 22 1016 94 10000 1 0 08:38 31.03.2020
470 Clouds 22 1016 94 10000 1 0 08:38 31.03.2020
471 Clouds 22 1016 94 10000 1 0 08:19 31.03.2020
472 Clouds 22 1017 88 10000 2.6 140 07:55 31.03.2020
473 Clouds 22 1017 88 10000 2.6 140 07:55 31.03.2020
474 Clouds 22 1017 88 10000 2.6 140 07:37 31.03.2020
475 Clouds 22 1017 88 10000 2.6 140 07:18 31.03.2020
476 Clear 22 1017 88 10000 1 150 06:42 31.03.2020
477 -273 0 0 0 0 0 05:57 31.03.2020
478 Clear 23 1018 88 10000 4.34 110 05:38 31.03.2020
479 Clear 24 1018 73 10000 2.6 110 03:27 31.03.2020
480 Clouds 25 1018 69 10000 3.6 110 01:48 31.03.2020
481 Clouds 25 1018 69 10000 3.6 110 01:27 31.03.2020
482 Clear 26 1017 75 0 0.45 55 00:44 31.03.2020
483 Clear 26 1017 73 0 1.34 67 00:23 31.03.2020
484 Clouds 26 1017 73 0 0.89 68 23:41 30.03.2020
485 Clouds 26 1019 69 10000 5.1 30 23:20 30.03.2020
486 Clouds 26 1019 69 10000 5.1 30 22:58 30.03.2020
487 Clouds 26 1019 69 10000 5.1 30 22:58 30.03.2020
488 Clouds 26 1019 69 10000 5.1 30 22:39 30.03.2020
489 Clouds 26 1019 69 10000 5.1 30 22:19 30.03.2020
490 Clouds 26 1019 69 10000 4.1 360 21:57 30.03.2020
491 Clouds 26 1019 69 10000 4.1 360 21:38 30.03.2020
492 Clouds 27 1019 69 10000 4.1 360 21:20 30.03.2020
493 Clouds 27 1020 61 10000 2.6 300 20:58 30.03.2020
494 Clouds 28 1020 61 10000 2.6 300 20:39 30.03.2020
495 Clouds 28 1020 61 10000 2.6 300 20:20 30.03.2020
496 Clouds 28 1021 58 10000 3.1 200 19:56 30.03.2020
497 Clouds 29 1021 58 10000 3.1 200 19:37 30.03.2020
498 Clouds 29 1021 58 10000 3.1 200 19:19 30.03.2020
499 Clouds 28 1021 61 10000 2.6 180 18:42 30.03.2020
500 Clouds 28 1021 61 10000 2.6 180 18:42 30.03.2020
501 Clouds 28 1021 61 10000 2.6 180 18:24 30.03.2020
502 Clouds 27 1022 74 10000 2.6 60 17:58 30.03.2020
503 Clouds 26 1022 74 10000 2.6 60 17:39 30.03.2020
504 Clouds 27 1022 61 10000 3.1 100 17:19 30.03.2020
505 Clouds 27 1022 61 10000 3.1 100 16:57 30.03.2020
506 Clouds 27 1022 61 10000 3.1 100 16:39 30.03.2020
507 Clouds 27 1022 69 10000 2.6 100 16:20 30.03.2020
508 Clouds 27 1022 69 10000 2.6 100 16:20 30.03.2020
509 Clouds 27 1022 69 10000 2.6 100 15:55 30.03.2020
510 Clouds 26 1022 69 10000 2.6 100 15:37 30.03.2020
511 Clouds 25 1022 88 10000 1 70 15:19 30.03.2020
512 Clouds 25 1022 88 10000 1 70 14:55 30.03.2020
513 Clouds 25 1022 88 10000 1 70 14:37 30.03.2020
514 Clouds 24 1021 88 10000 1 0 14:18 30.03.2020
515 Clouds 23 1021 88 10000 1 0 13:54 30.03.2020
516 Clouds 22 1021 88 10000 1 0 13:36 30.03.2020
517 Clouds 21 1021 88 10000 1 0 13:18 30.03.2020
518 Clouds 22 1020 88 10000 1.5 130 12:41 30.03.2020
519 Clouds 22 1020 88 10000 1.5 130 12:20 30.03.2020
520 Clouds 23 1020 83 10000 2.1 120 11:57 30.03.2020
521 Clouds 23 1020 83 10000 2.1 120 11:39 30.03.2020
522 Clouds 23 1020 83 10000 2.1 120 11:20 30.03.2020
523 Clouds 23 1019 81 0 5.55 129 10:41 30.03.2020
524 Clouds 23 1019 81 0 5.55 129 10:22 30.03.2020
525 Clouds 23 1019 81 0 5.55 129 09:57 30.03.2020
526 Clouds 23 1019 81 0 5.55 129 09:57 30.03.2020
527 Clouds 23 1019 81 0 5.55 129 09:38 30.03.2020
528 Clouds 24 1021 83 10000 4.1 110 09:19 30.03.2020
529 Clouds 24 1021 83 10000 4.1 110 08:42 30.03.2020
530 Clouds 24 1021 83 10000 4.1 110 08:22 30.03.2020
531 Clouds 24 1021 83 10000 4.1 110 07:50 30.03.2020
532 Clouds 24 1021 83 10000 4.1 110 07:31 30.03.2020
533 Clouds 24 1022 78 10000 3.6 120 06:57 30.03.2020
534 Clouds 24 1022 78 10000 3.6 120 06:32 30.03.2020
535 Clouds 24 1022 78 10000 3.6 120 05:54 30.03.2020
536 Clouds 25 1022 78 10000 3.6 120 05:22 30.03.2020
537 Clouds 24 1022 83 10000 3.6 120 04:23 30.03.2020
538 Clouds 24 1021 83 10000 3.6 120 03:44 30.03.2020
539 Clouds 25 1021 73 10000 4.1 110 02:39 30.03.2020
540 Clear 25 1020 78 0 0.89 115 01:44 30.03.2020
541 Clouds 26 1020 65 10000 5.1 130 00:49 30.03.2020
542 Clouds 27 1020 65 10000 5.1 130 00:22 30.03.2020
543 Clear 27 1020 58 10000 4.1 140 23:42 29.03.2020
544 Clouds 28 1021 54 10000 5.1 120 23:23 29.03.2020
545 Clouds 28 1021 54 10000 5.1 120 22:57 29.03.2020
546 Clouds 28 1021 54 10000 5.1 120 22:38 29.03.2020
547 Clouds 28 1021 54 10000 5.1 120 22:19 29.03.2020
548 Clouds 28 1021 54 10000 5.7 140 21:55 29.03.2020
549 Clouds 28 1021 54 10000 5.7 140 21:36 29.03.2020
550 Clouds 28 1022 54 10000 4.6 140 21:18 29.03.2020
551 Clouds 28 1022 54 10000 4.6 140 20:54 29.03.2020
552 Clouds 28 1022 54 10000 4.6 140 20:36 29.03.2020
553 Clouds 28 1022 54 10000 4.6 140 20:18 29.03.2020
554 Clouds 28 1022 54 10000 4.6 140 19:41 29.03.2020
555 Clouds 28 1023 54 10000 5.1 130 19:23 29.03.2020
556 Clouds 28 1023 65 10000 5.1 140 18:57 29.03.2020
557 Clouds 28 1023 65 10000 5.1 140 18:39 29.03.2020
558 Clouds 28 1023 65 10000 5.1 140 18:20 29.03.2020
559 Clouds 28 1023 65 10000 5.7 130 17:56 29.03.2020
560 Clouds 28 1023 65 10000 5.7 130 17:38 29.03.2020
561 Clouds 28 1023 65 10000 5.7 130 17:20 29.03.2020
562 Clouds 27 1022 72 0 2.24 122 16:57 29.03.2020
563 Clouds 27 1022 73 0 1.79 122 16:38 29.03.2020
564 Clouds 27 1022 75 0 0.89 172 16:19 29.03.2020
565 Clouds 26 1022 73 10000 4.1 120 15:43 29.03.2020
566 Clouds 26 1022 73 10000 4.1 120 15:25 29.03.2020
567 Clouds 25 1021 83 10000 2.1 110 14:59 29.03.2020
568 Clouds 25 1021 83 10000 2.1 110 14:40 29.03.2020
569 Clouds 25 1021 83 10000 2.1 110 14:40 29.03.2020
570 Clouds 25 1021 83 10000 2.1 110 14:20 29.03.2020
571 Clouds 24 1020 83 10000 3.6 120 13:58 29.03.2020
572 Clouds 24 1020 83 10000 3.6 120 13:40 29.03.2020
573 Clouds 23 1020 83 10000 3.6 120 13:20 29.03.2020
574 Clouds 23 1020 83 10000 3.6 120 12:57 29.03.2020
575 Clouds 23 1020 83 10000 3.6 129 12:37 29.03.2020
576 Clouds 23 1020 83 10000 3.6 129 12:19 29.03.2020
577 Clouds 23 1020 83 10000 3.6 129 12:19 29.03.2020
578 Clouds 23 1019 88 10000 2.6 120 11:55 29.03.2020
579 Clouds 23 1019 88 10000 2.6 120 11:37 29.03.2020
580 Clouds 23 1019 88 10000 3.1 120 11:18 29.03.2020
581 Clouds 23 1019 88 10000 3.1 120 10:38 29.03.2020
582 Clouds 23 1019 88 10000 3.1 120 10:19 29.03.2020
583 Clouds 24 1019 83 10000 3.1 110 09:41 29.03.2020
584 Clouds 24 1019 83 10000 3.1 110 09:22 29.03.2020
585 Clouds 24 1018 81 0 6.73 111 08:56 29.03.2020
586 Clouds 23 1018 81 0 6.73 111 08:38 29.03.2020
587 Clouds 24 1020 83 10000 4.1 120 08:19 29.03.2020
588 Clouds 24 1020 83 10000 4.1 120 07:42 29.03.2020
589 Clouds 24 1020 83 10000 4.1 120 07:21 29.03.2020
590 Clouds 24 1020 78 10000 3.6 120 05:50 29.03.2020
591 Clouds 24 1020 78 10000 4.1 140 04:29 29.03.2020
592 Clear 24 1019 80 0 1.79 90 03:31 29.03.2020
593 Clouds 25 1019 73 10000 2.6 120 01:51 29.03.2020
594 Clouds 25 1018 69 10000 5.7 120 01:23 29.03.2020
595 Clouds 25 1018 69 10000 5.7 120 00:58 29.03.2020
596 Clouds 25 1018 69 10000 5.7 120 00:33 29.03.2020
597 Clouds 26 1018 65 10000 5.7 130 23:56 28.03.2020
598 Clouds 26 1018 65 10000 5.7 130 23:38 28.03.2020
599 Clouds 27 1018 65 10000 5.7 130 23:18 28.03.2020
600 Clouds 27 1018 61 10000 6.2 120 22:39 28.03.2020
601 Clouds 27 1019 58 10000 6.2 120 22:21 28.03.2020
602 Clouds 27 1019 58 10000 6.2 120 21:55 28.03.2020
603 Clouds 27 1019 58 10000 6.2 120 21:37 28.03.2020
604 Clouds 27 1019 58 10000 6.2 120 21:18 28.03.2020
605 Clouds 27 1019 58 10000 7.2 140 20:42 28.03.2020
606 Clouds 27 1019 58 10000 7.2 140 20:23 28.03.2020
607 Clouds 27 1020 61 10000 6.7 140 19:57 28.03.2020
608 Clouds 27 1020 61 10000 6.7 140 19:39 28.03.2020
609 Clouds 27 1020 61 10000 6.7 140 19:20 28.03.2020
610 Clouds 27 1020 61 10000 6.7 140 19:20 28.03.2020
611 Clouds 27 1020 61 10000 6.2 140 18:58 28.03.2020
612 Clouds 27 1020 61 10000 6.2 140 18:38 28.03.2020
613 Clouds 27 1020 61 10000 6.2 140 18:19 28.03.2020
614 Clouds 27 1020 61 10000 6.2 140 18:19 28.03.2020
615 Clouds 26 1021 61 10000 6.2 120 17:39 28.03.2020
616 Clouds 26 1021 61 10000 6.2 120 17:20 28.03.2020
617 Clouds 26 1020 61 10000 7.2 120 16:43 28.03.2020
618 Clouds 26 1020 61 10000 7.2 120 16:20 28.03.2020
619 Clouds 25 1020 65 10000 6.2 100 15:58 28.03.2020
620 Clouds 25 1020 65 10000 6.2 100 15:39 28.03.2020
621 Clouds 25 1020 65 10000 6.2 100 15:19 28.03.2020
622 Clouds 25 1020 65 10000 5.7 110 14:43 28.03.2020
623 Clouds 25 1020 65 10000 5.7 110 14:23 28.03.2020
624 Clouds 24 1019 73 10000 3.1 100 13:59 28.03.2020
625 Clouds 24 1019 73 10000 3.1 100 13:38 28.03.2020
626 Clouds 24 1019 73 10000 3.1 100 13:19 28.03.2020
627 Clouds 23 1018 73 10000 1.5 100 12:39 28.03.2020
628 Clouds 22 1018 73 10000 1.5 100 12:21 28.03.2020
629 Clouds 22 1017 73 10000 2.6 100 11:42 28.03.2020
630 Clouds 22 1017 73 10000 2.6 100 11:21 28.03.2020
631 Clouds 23 1017 69 10000 3.6 110 10:55 28.03.2020
632 Clouds 23 1017 69 10000 3.6 110 10:36 28.03.2020
633 Clouds 23 1017 69 10000 3.6 110 10:18 28.03.2020
634 Clouds 22 1017 73 10000 2.1 100 09:40 28.03.2020
635 Clouds 22 1017 73 10000 2.1 100 09:22 28.03.2020
636 Clouds 22 1018 73 10000 2.1 90 08:45 28.03.2020
637 Clouds 23 1018 73 10000 2.1 90 08:25 28.03.2020
638 Clouds 23 1018 73 10000 2.1 70 07:58 28.03.2020
639 Clouds 23 1018 73 10000 2.1 70 07:40 28.03.2020
640 Clouds 22 1019 68 10000 1.5 80 06:53 28.03.2020
641 Clouds 22 1019 68 10000 1.5 80 06:26 28.03.2020
642 Clouds 23 1019 64 10000 3.1 110 05:30 28.03.2020
643 Clouds 23 1019 64 10000 3.1 110 05:30 28.03.2020
644 Clouds 23 1019 64 10000 3.6 100 04:58 28.03.2020
645 Clouds 23 1019 64 10000 3.6 100 04:39 28.03.2020
646 Clouds 23 1018 64 10000 4.1 90 02:51 28.03.2020
647 Clouds 24 1018 60 10000 4.6 90 01:47 28.03.2020
648 Clouds 24 1018 60 10000 4.1 100 01:23 28.03.2020
649 Clouds 24 1018 60 10000 4.1 100 00:49 28.03.2020
650 Clouds 24 1018 60 10000 4.1 100 00:24 28.03.2020
651 Clouds 24 1017 57 10000 4.6 80 23:44 27.03.2020
652 Clouds 25 1017 57 10000 4.6 80 23:25 27.03.2020
653 Clouds 25 1017 57 10000 5.7 40 22:57 27.03.2020
654 Clouds 25 1017 57 10000 5.7 40 22:39 27.03.2020
655 Clouds 25 1017 57 10000 5.7 40 22:20 27.03.2020
656 Clouds 25 1017 61 10000 5.1 50 21:57 27.03.2020
657 Clouds 25 1017 61 10000 5.1 50 21:38 27.03.2020
658 Clouds 25 1017 61 10000 5.1 50 21:20 27.03.2020
659 Clouds 25 1018 61 10000 5.1 50 20:55 27.03.2020
660 Clouds 25 1018 61 10000 5.1 50 20:37 27.03.2020
661 Clouds 26 1018 51 10000 4.6 70 20:18 27.03.2020
662 Clouds 26 1018 51 10000 4.6 70 19:42 27.03.2020
663 Clouds 26 1018 51 10000 4.6 70 19:22 27.03.2020
664 Clouds 25 1018 61 10000 4.6 70 18:56 27.03.2020
665 Clouds 25 1018 61 10000 4.6 70 18:38 27.03.2020
666 Clouds 26 1018 61 10000 4.6 70 18:19 27.03.2020
667 Clouds 26 1018 61 10000 4.6 70 18:19 27.03.2020
668 Clouds 26 1018 61 10000 4.6 70 17:40 27.03.2020
669 Clouds 26 1018 61 10000 4.6 70 17:20 27.03.2020
670 Clouds 25 1018 65 10000 4.1 80 16:54 27.03.2020
671 Clouds 25 1018 65 10000 4.1 80 16:36 27.03.2020
672 Clouds 25 1018 65 10000 4.1 80 16:36 27.03.2020
673 Clouds 25 1018 65 10000 4.1 80 16:18 27.03.2020
674 Clouds 25 1018 69 10000 4.6 70 15:41 27.03.2020
675 Clouds 25 1018 69 10000 4.6 70 15:23 27.03.2020
676 Clouds 24 1018 73 10000 4.1 90 14:46 27.03.2020
677 Clouds 24 1017 78 10000 2.6 90 14:25 27.03.2020
678 Clouds 24 1017 78 10000 2.6 90 13:56 27.03.2020
679 Clouds 23 1017 78 10000 2.6 90 13:37 27.03.2020
680 Clouds 23 1017 78 10000 2.6 90 13:18 27.03.2020
681 Clouds 23 1016 83 10000 2.6 90 12:49 27.03.2020
682 Clouds 22 1016 83 10000 2.6 90 12:21 27.03.2020
683 Clouds 23 1016 78 10000 2.6 90 11:59 27.03.2020
684 Clouds 23 1016 78 10000 2.6 90 11:59 27.03.2020
685 Clouds 23 1016 78 10000 2.6 90 11:59 27.03.2020
686 Clouds 23 1016 78 10000 2.6 90 11:59 27.03.2020
687 Clouds 23 1016 78 10000 2.6 90 11:40 27.03.2020
688 Clouds 23 1016 78 10000 2.6 90 11:22 27.03.2020
689 Clouds 23 1016 83 10000 2.6 90 10:54 27.03.2020
690 Clouds 23 1016 83 10000 2.6 90 10:36 27.03.2020
691 Clouds 23 1016 83 10000 2.6 90 10:36 27.03.2020
692 Clouds 23 1016 83 10000 2.6 90 10:18 27.03.2020
693 Clear 23 1015 85 0 5.89 56 09:54 27.03.2020
694 Clear 23 1015 80 0 5.89 56 09:36 27.03.2020
695 Clear 23 1015 80 0 5.89 56 09:18 27.03.2020
696 Clear 23 1015 80 0 5.89 56 08:54 27.03.2020
697 Clear 23 1015 80 0 5.89 56 08:36 27.03.2020
698 Clear 23 1015 80 0 4.61 21 08:18 27.03.2020
699 Clear 23 1015 80 0 4.61 21 07:41 27.03.2020
700 Clear 23 1015 80 0 4.61 21 07:21 27.03.2020
701 Clear 23 1016 80 0 4.61 21 06:41 27.03.2020
702 Clear 24 1016 80 0 4.61 21 05:57 27.03.2020
703 Clouds 24 1017 83 10000 1.5 50 03:34 27.03.2020
704 Clouds 25 1015 78 10000 2.1 40 01:56 27.03.2020
705 Clouds 25 1015 78 10000 2.1 40 01:19 27.03.2020
706 Clouds 25 1015 78 10000 4.6 40 00:41 27.03.2020
707 Clouds 25 1015 78 10000 4.6 40 00:19 27.03.2020
708 Clouds 26 1015 74 10000 3.6 20 23:37 26.03.2020
709 Clouds 26 1015 74 10000 3.6 20 23:18 26.03.2020
710 Clouds 27 1015 69 10000 4.6 10 22:56 26.03.2020
711 Clouds 27 1015 69 10000 4.6 10 22:36 26.03.2020
712 Clouds 27 1015 69 10000 4.6 10 22:18 26.03.2020
713 Clouds 27 1016 69 10000 5.1 20 21:40 26.03.2020
714 Clouds 27 1016 69 10000 5.1 20 21:21 26.03.2020
715 Clouds 27 1016 69 10000 5.1 10 20:59 26.03.2020
716 Clouds 27 1016 69 10000 5.1 10 20:39 26.03.2020
717 Clouds 27 1016 69 10000 5.1 10 20:21 26.03.2020
718 Clouds 27 1017 74 10000 5.7 20 19:58 26.03.2020
719 Clouds 27 1017 74 10000 5.7 20 19:39 26.03.2020
720 Clouds 27 1017 74 10000 5.7 20 19:20 26.03.2020
721 Clouds 27 1017 74 10000 5.7 20 19:20 26.03.2020
722 Clouds 27 1017 69 10000 5.1 20 18:58 26.03.2020
723 Clouds 27 1017 69 10000 5.1 20 18:39 26.03.2020
724 Clouds 27 1017 69 10000 5.1 20 18:21 26.03.2020
725 Clouds 28 1017 65 10000 4.1 350 17:44 26.03.2020
726 Clouds 28 1017 65 10000 4.1 350 17:19 26.03.2020
727 Clouds 27 1017 74 10000 5.1 340 16:47 26.03.2020
728 Clouds 27 1017 74 10000 4.6 320 16:28 26.03.2020
729 Clouds 27 1017 74 10000 4.6 320 15:59 26.03.2020
730 Clouds 27 1017 74 10000 4.6 320 15:41 26.03.2020
731 Rain 27 1016 77 0 4.17 295 15:22 26.03.2020
732 Rain 26 1016 78 0 4.17 295 14:58 26.03.2020
733 Rain 26 1016 79 0 4.17 295 14:39 26.03.2020
734 Clear 24 1016 94 10000 2.6 250 14:19 26.03.2020
735 Clear 23 1016 94 10000 2.6 250 13:44 26.03.2020
736 Clear 23 1016 94 10000 2.6 250 13:24 26.03.2020
737 Clouds 23 1015 88 10000 2.1 290 12:57 26.03.2020
738 Clouds 23 1015 88 10000 2.1 290 12:38 26.03.2020
739 Clouds 23 1015 88 10000 2.1 290 12:19 26.03.2020
740 Clouds 22 1015 94 10000 1.5 280 11:45 26.03.2020
741 Clouds 22 1015 94 10000 1.5 280 11:22 26.03.2020
742 Clouds 22 1015 94 10000 1.5 280 10:56 26.03.2020
743 Clouds 22 1015 94 10000 1.5 280 10:37 26.03.2020
744 Clouds 22 1015 94 10000 1.5 280 10:37 26.03.2020
745 Clouds 22 1015 94 10000 1.5 280 10:19 26.03.2020
746 Clouds 23 1015 94 10000 2.1 260 09:43 26.03.2020
747 Clouds 23 1015 94 10000 2.1 260 09:19 26.03.2020
748 Clouds 22 1015 94 10000 2.1 240 08:54 26.03.2020
749 Clouds 22 1015 94 10000 2.1 240 08:36 26.03.2020
750 Clouds 22 1015 94 10000 2.1 240 08:18 26.03.2020
751 Clouds 23 1015 88 10000 2.1 260 07:41 26.03.2020
752 Clouds 23 1015 88 10000 2.1 260 07:20 26.03.2020
753 Clouds 23 1016 88 10000 2.1 250 06:47 26.03.2020
754 Clouds 23 1016 94 10000 1.5 250 05:52 26.03.2020
755 Clouds 24 1016 88 10000 1 0 03:58 26.03.2020
756 Clouds 24 1016 88 10000 1 0 03:35 26.03.2020
757 Clouds 25 1016 78 10000 3.1 200 02:53 26.03.2020
758 Clouds 25 1015 78 10000 4.1 200 01:44 26.03.2020
759 Clouds 25 1015 78 10000 4.6 200 00:43 26.03.2020
760 Clouds 26 1015 69 10000 4.6 190 23:45 25.03.2020
761 Clouds 27 1015 69 10000 4.6 190 23:27 25.03.2020
762 Clouds 27 1015 65 10000 5.1 190 22:57 25.03.2020
763 Clouds 27 1015 65 10000 5.1 190 22:38 25.03.2020
764 Clouds 27 1015 65 10000 5.1 190 22:19 25.03.2020
765 Clouds 27 1015 65 10000 6.2 190 21:54 25.03.2020
766 Clouds 27 1015 65 10000 6.2 190 21:36 25.03.2020
767 Clouds 27 1015 65 10000 6.2 190 21:18 25.03.2020
768 Clouds 28 1016 61 10000 5.7 200 20:39 25.03.2020
769 Clouds 28 1016 61 10000 5.7 200 20:19 25.03.2020
770 Clouds 28 1017 61 10000 4.6 200 19:56 25.03.2020
771 Clouds 28 1017 61 10000 4.6 200 19:38 25.03.2020
772 Clouds 28 1018 61 10000 5.1 190 19:19 25.03.2020
773 Clouds 28 1018 61 10000 5.1 190 18:43 25.03.2020
774 Clouds 28 1018 61 10000 5.1 190 18:25 25.03.2020
775 Clouds 27 1018 65 10000 5.1 210 17:59 25.03.2020
776 Clouds 27 1018 65 10000 5.1 210 17:41 25.03.2020
777 Clouds 27 1018 65 10000 5.1 210 17:22 25.03.2020
778 Clouds 25 1018 73 10000 5.1 220 16:58 25.03.2020
779 Clouds 25 1018 73 10000 5.1 220 16:58 25.03.2020
780 Clouds 26 1018 73 10000 5.1 220 16:39 25.03.2020
781 Clouds 26 1018 69 0 5.1 210 16:20 25.03.2020
782 Clouds 25 1018 69 0 5.1 210 15:43 25.03.2020
783 Clouds 25 1018 73 10000 4.6 180 15:21 25.03.2020
784 Clouds 25 1018 73 10000 4.6 180 14:57 25.03.2020
785 Clouds 25 1018 73 10000 4.6 180 14:57 25.03.2020
786 Clouds 26 1018 73 10000 4.6 180 14:39 25.03.2020
787 Clouds 26 1018 73 10000 4.6 180 14:39 25.03.2020
788 Clouds 26 1018 73 10000 4.6 180 14:39 25.03.2020
789 Clouds 25 1017 83 0 2.6 190 14:19 25.03.2020
790 Rain 25 1017 75 0 1.34 229 13:44 25.03.2020
791 Clouds 24 1017 88 10000 2.6 190 13:24 25.03.2020
792 Clouds 23 1017 88 10000 2.6 190 12:39 25.03.2020
793 Clouds 23 1017 88 10000 2.6 190 12:39 25.03.2020
794 Clouds 22 1017 88 10000 2.6 190 12:20 25.03.2020
795 Clouds 22 1017 88 10000 2.6 190 11:57 25.03.2020
796 Clouds 22 1017 88 10000 2.6 190 11:39 25.03.2020
797 Clouds 22 1017 88 10000 2.6 190 11:20 25.03.2020
798 Clouds 22 1017 88 10000 2.6 190 11:20 25.03.2020
799 Clouds 23 1017 83 10000 3.1 180 10:57 25.03.2020
800 Clouds 23 1017 83 10000 3.1 180 10:39 25.03.2020
801 Clouds 23 1017 83 10000 3.1 180 10:18 25.03.2020
802 Clouds 23 1017 83 10000 3.1 180 09:43 25.03.2020
803 Clear 23 1016 80 0 5.89 164 09:25 25.03.2020
804 Clear 23 1016 80 0 0.45 240 08:58 25.03.2020
805 Clear 23 1016 80 0 0.45 240 08:58 25.03.2020
806 Clear 23 1016 80 0 5.89 164 08:39 25.03.2020
807 Clouds 23 1019 83 10000 3.1 140 08:19 25.03.2020
808 Clouds 23 1019 83 10000 3.1 140 07:41 25.03.2020
809 Clouds 23 1019 83 10000 3.1 140 07:23 25.03.2020
810 -273 0 0 0 0 0 06:50 25.03.2020
811 Clouds 23 1019 83 10000 2.1 160 06:28 25.03.2020
812 Clouds 23 1020 78 10000 2.1 150 05:58 25.03.2020
813 Clouds 23 1020 78 10000 2.1 150 05:37 25.03.2020
814 Clouds 23 1020 78 10000 2.1 160 04:41 25.03.2020
815 Clouds 23 1020 78 10000 2.6 150 03:52 25.03.2020
816 Clouds 23 1020 78 10000 2.6 150 03:29 25.03.2020
817 Clouds 24 1019 65 10000 4.1 160 01:25 25.03.2020
818 Clouds 24 1019 65 10000 4.1 160 00:49 25.03.2020
819 Clouds 25 1019 65 10000 4.1 160 00:25 25.03.2020
820 Clouds 26 1019 61 10000 4.6 150 23:50 24.03.2020
821 Clouds 26 1019 61 10000 4.6 150 23:28 24.03.2020
822 Clouds 27 1019 58 10000 5.1 160 22:57 24.03.2020
823 Clouds 27 1019 58 10000 5.1 160 22:38 24.03.2020
824 Clouds 28 1019 51 10000 4.1 170 22:19 24.03.2020
825 Clouds 28 1019 51 10000 4.1 170 21:56 24.03.2020
826 Clouds 28 1019 51 10000 4.1 170 21:38 24.03.2020
827 Clouds 28 1019 51 10000 4.1 170 21:18 24.03.2020
828 Clouds 28 1020 51 10000 3.6 170 20:56 24.03.2020
829 Clouds 28 1020 51 10000 3.6 170 20:38 24.03.2020
830 Clouds 28 1020 51 10000 3.6 170 20:20 24.03.2020
831 Clouds 28 1021 54 10000 4.1 170 19:44 24.03.2020
832 Clouds 28 1021 54 10000 4.1 170 19:19 24.03.2020
833 Clouds 27 1022 57 10000 3.6 170 18:56 24.03.2020
834 Clouds 27 1022 57 10000 3.6 170 18:37 24.03.2020
835 Clouds 27 1022 57 10000 3.6 170 18:18 24.03.2020
836 Clouds 28 1022 51 10000 3.1 150 17:42 24.03.2020
837 Clouds 28 1022 51 10000 3.1 150 17:23 24.03.2020
838 Clouds 27 1022 61 10000 3.6 170 16:58 24.03.2020
839 Clouds 27 1022 61 10000 3.6 170 16:40 24.03.2020
840 Clouds 27 1022 61 10000 3.6 170 16:22 24.03.2020
841 Clouds 27 1022 61 10000 4.1 150 15:58 24.03.2020
842 Clouds 27 1022 61 10000 4.1 150 15:38 24.03.2020
843 Clouds 26 1022 69 10000 4.6 160 15:20 24.03.2020
844 Clouds 25 1022 69 10000 4.6 160 14:43 24.03.2020
845 Clouds 24 1022 88 10000 1.5 140 14:20 24.03.2020
846 Clouds 24 1022 88 10000 1.5 140 13:44 24.03.2020
847 Clouds 23 1021 88 10000 1 0 13:24 24.03.2020
848 Clouds 22 1021 88 10000 1 0 12:58 24.03.2020
849 Clouds 22 1021 88 10000 1 0 12:38 24.03.2020
850 Clouds 22 1021 88 10000 1 0 12:38 24.03.2020
851 Clouds 21 1021 88 10000 1 0 12:20 24.03.2020
852 Rain 23 1021 74 0 4.94 137 11:40 24.03.2020
853 Clouds 22 1021 88 10000 3.1 130 11:20 24.03.2020
854 Clouds 22 1021 88 10000 3.1 130 10:43 24.03.2020
855 Clouds 22 1021 88 10000 3.1 130 10:20 24.03.2020
856 Clouds 22 1021 88 10000 3.1 130 10:20 24.03.2020
857 Clouds 23 1021 83 10000 2.6 120 09:59 24.03.2020
858 Clouds 23 1021 83 10000 2.6 120 09:41 24.03.2020
859 Clouds 23 1021 83 10000 2.6 120 09:41 24.03.2020
860 Clouds 23 1021 83 10000 2.6 120 09:22 24.03.2020
861 Clouds 23 1022 83 10000 3.1 110 08:39 24.03.2020
862 Clouds 23 1022 83 10000 3.1 110 08:21 24.03.2020
863 Clouds 23 1022 83 10000 3.1 110 08:21 24.03.2020
864 Clouds 23 1022 83 10000 3.6 120 07:50 24.03.2020
865 Clouds 23 1022 83 10000 3.6 120 07:25 24.03.2020
866 Clear 23 1021 80 0 1.34 112 06:58 24.03.2020
867 Clear 23 1021 80 0 0.89 134 06:32 24.03.2020
868 Clouds 24 1023 78 10000 4.1 120 05:27 24.03.2020
869 Clouds 24 1023 78 10000 3.6 110 04:31 24.03.2020
870 Clouds 24 1023 78 10000 3.6 100 03:18 24.03.2020
871 Clear 24 1022 79 0 0.89 125 01:49 24.03.2020
872 Clouds 25 1022 61 10000 4.6 130 00:49 24.03.2020
873 Clouds 25 1022 61 10000 4.6 130 00:26 24.03.2020
874 Clouds 26 1022 51 10000 5.7 140 23:46 23.03.2020
875 Clouds 26 1022 57 10000 5.7 140 23:26 23.03.2020
876 Clouds 26 1022 57 10000 5.7 140 22:56 23.03.2020
877 Clouds 26 1022 57 10000 5.7 140 22:37 23.03.2020
878 Clouds 27 1022 54 10000 6.2 150 22:19 23.03.2020
879 Clouds 27 1022 54 10000 6.2 150 21:44 23.03.2020
880 Clouds 27 1022 54 10000 6.2 150 21:21 23.03.2020
881 Clouds 27 1023 48 10000 5.1 130 20:58 23.03.2020
882 Clouds 27 1023 48 10000 5.1 130 20:40 23.03.2020
883 Clouds 27 1023 48 10000 5.1 130 20:22 23.03.2020
884 Clouds 27 1024 57 10000 5.1 130 19:46 23.03.2020
885 Clouds 28 1024 51 10000 5.7 130 19:28 23.03.2020
886 Clouds 27 1024 51 10000 5.7 130 18:59 23.03.2020
887 Clouds 27 1024 51 10000 5.7 130 18:41 23.03.2020
888 Clouds 28 1024 51 10000 5.7 130 18:22 23.03.2020
889 Clouds 27 1025 61 10000 5.7 130 17:56 23.03.2020
890 Clouds 27 1025 61 10000 5.7 130 17:37 23.03.2020
891 Clouds 27 1025 61 10000 5.7 130 17:18 23.03.2020
892 Clouds 26 1025 65 10000 5.7 120 16:43 23.03.2020
893 Clouds 26 1025 65 10000 5.7 120 16:24 23.03.2020
894 Clouds 26 1025 65 10000 5.1 120 15:42 23.03.2020
895 Clouds 26 1025 65 10000 5.1 120 15:42 23.03.2020
896 Clouds 26 1025 65 10000 5.1 120 15:20 23.03.2020
897 Clouds 26 1024 69 10000 5.7 120 14:55 23.03.2020
898 Clouds 25 1024 69 10000 5.7 120 14:36 23.03.2020
899 Clouds 25 1023 78 10000 2.1 130 14:18 23.03.2020
900 Clouds 24 1023 78 10000 2.1 130 13:40 23.03.2020
901 Clouds 24 1023 78 10000 2.1 130 13:40 23.03.2020
902 Clouds 24 1023 78 10000 2.1 130 13:21 23.03.2020
903 Clouds 23 1023 78 10000 3.1 110 12:46 23.03.2020
904 Clouds 23 1023 78 10000 3.1 110 12:26 23.03.2020
905 Clouds 22 1023 78 10000 2.1 120 11:59 23.03.2020
906 Clouds 22 1023 78 10000 2.1 120 11:40 23.03.2020
907 Clouds 22 1023 78 10000 2.1 120 11:20 23.03.2020
908 Clouds 22 1022 83 10000 4.1 120 10:58 23.03.2020
909 Clouds 22 1022 83 10000 4.1 120 10:58 23.03.2020
910 Clouds 22 1022 83 10000 4.1 120 10:39 23.03.2020
911 Clouds 22 1022 83 10000 4.1 120 10:21 23.03.2020
912 Clouds 23 1023 73 10000 4.1 120 09:46 23.03.2020
913 Clouds 23 1023 73 10000 4.1 120 09:21 23.03.2020
914 Clouds 23 1023 73 10000 4.1 120 08:57 23.03.2020
915 Clouds 23 1023 73 10000 4.1 120 08:36 23.03.2020
916 Clouds 23 1023 73 10000 4.1 120 08:18 23.03.2020
917 Clouds 23 1024 73 10000 3.6 110 07:45 23.03.2020
918 Clouds 23 1024 73 10000 3.6 110 07:27 23.03.2020
919 Clouds 23 1024 73 10000 4.6 110 06:52 23.03.2020
920 Clouds 23 1024 73 10000 4.6 110 05:54 23.03.2020
921 Clouds 23 1024 78 10000 4.1 120 05:29 23.03.2020
922 Clouds 23 1024 73 10000 2.1 70 03:29 23.03.2020
923 Clouds 24 1024 73 10000 2.1 80 02:29 23.03.2020
924 Rain 23 1022 77 0 0.45 120 01:34 23.03.2020
925 Clouds 24 1023 69 10000 4.6 100 00:40 23.03.2020
926 Clouds 25 1022 61 10000 5.1 100 23:48 22.03.2020
927 Clouds 25 1022 61 10000 5.1 110 23:26 22.03.2020
928 Clouds 25 1022 61 10000 5.1 110 22:45 22.03.2020
929 Clouds 26 1022 57 10000 4.6 90 22:26 22.03.2020
930 Clouds 26 1022 57 10000 4.6 90 21:56 22.03.2020
931 Clouds 26 1022 57 10000 4.6 90 21:37 22.03.2020
932 Clouds 26 1022 57 10000 4.6 90 21:19 22.03.2020
933 Clouds 27 1023 54 10000 5.1 100 20:46 22.03.2020
934 Clouds 27 1023 54 10000 5.1 100 20:25 22.03.2020
935 Clouds 27 1023 51 10000 5.1 120 19:58 22.03.2020
936 Clouds 27 1023 51 10000 5.1 120 19:40 22.03.2020
937 Clouds 27 1023 51 10000 5.1 120 19:21 22.03.2020
938 Clouds 27 1023 51 10000 5.1 120 19:20 22.03.2020
939 Clouds 27 1024 51 10000 5.1 120 18:59 22.03.2020
940 Clouds 27 1024 51 10000 5.1 120 18:41 22.03.2020
941 Clouds 27 1024 51 10000 5.1 120 18:41 22.03.2020
942 Clouds 27 1024 51 10000 5.1 120 18:22 22.03.2020
943 Clouds 27 1024 51 10000 5.1 130 17:59 22.03.2020
944 Clouds 27 1024 51 10000 5.1 130 17:39 22.03.2020
945 Clouds 27 1024 51 10000 5.1 130 17:20 22.03.2020
946 Clouds 26 1024 57 10000 5.1 130 16:58 22.03.2020
947 Clouds 26 1024 57 10000 5.1 130 16:58 22.03.2020
948 Clouds 26 1024 57 10000 5.1 130 16:39 22.03.2020
949 Clouds 26 1024 57 10000 5.1 130 16:39 22.03.2020
950 Clouds 26 1024 65 10000 7.2 110 16:21 22.03.2020
951 Clouds 26 1024 65 10000 7.2 110 15:44 22.03.2020
952 Clouds 25 1024 65 10000 7.2 110 15:26 22.03.2020
953 Clouds 25 1023 73 10000 5.1 120 14:46 22.03.2020
954 Clouds 24 1023 73 10000 5.1 120 14:19 22.03.2020
955 Clouds 24 1023 83 10000 3.6 120 13:45 22.03.2020
956 Clouds 23 1023 83 10000 3.6 120 13:21 22.03.2020
957 Clouds 23 1022 83 10000 2.6 80 12:59 22.03.2020
958 Clouds 22 1022 83 10000 2.6 80 12:41 22.03.2020
959 Clouds 22 1022 83 10000 2.6 80 12:19 22.03.2020
960 Clear 23 1022 79 0 7.69 104 11:44 22.03.2020
961 Clouds 22 1021 83 10000 3.1 130 11:25 22.03.2020
962 Clouds 22 1021 83 10000 3.1 130 10:58 22.03.2020
963 Clouds 22 1021 83 10000 3.1 130 10:40 22.03.2020
964 Rain 21 1021 79 0 7.9 98 10:22 22.03.2020
965 Rain 21 1021 79 0 7.9 98 09:47 22.03.2020
966 Rain 21 1021 79 0 7.9 98 09:28 22.03.2020
967 Rain 21 1021 79 0 7.9 98 08:51 22.03.2020
968 Rain 22 1021 79 0 7.9 98 08:33 22.03.2020
969 Rain 22 1021 79 0 7.9 98 08:33 22.03.2020
970 Clear 22 1021 79 0 7.14 100 07:56 22.03.2020
971 Clear 22 1022 80 0 7.14 100 07:38 22.03.2020
972 Clouds 23 1024 83 10000 2.6 90 06:48 22.03.2020
973 Clouds 23 1024 78 10000 2.6 90 05:52 22.03.2020
974 Clouds 23 1024 78 10000 3.6 90 04:39 22.03.2020
975 Clouds 24 1023 69 10000 3.6 90 01:47 22.03.2020
976 Clouds 24 1023 65 10000 5.1 90 00:50 22.03.2020
977 Clouds 24 1023 65 10000 5.1 90 00:31 22.03.2020
978 Clouds 25 1023 61 10000 5.1 80 23:46 21.03.2020
979 Clouds 25 1023 61 10000 5.1 80 23:22 21.03.2020
980 Clouds 25 1023 61 10000 6.2 70 22:58 21.03.2020
981 Clouds 26 1023 61 10000 6.2 70 22:38 21.03.2020
982 Clouds 25 1023 61 10000 6.2 70 22:19 21.03.2020
983 Clouds 25 1023 65 10000 6.7 50 21:57 21.03.2020
984 Clouds 26 1023 65 10000 6.7 50 21:38 21.03.2020
985 Clouds 26 1023 65 10000 6.7 50 21:19 21.03.2020
986 Clouds 26 1024 61 10000 6.2 50 20:42 21.03.2020
987 Clouds 26 1024 61 10000 6.2 50 20:22 21.03.2020
988 Clouds 27 1024 51 10000 4.6 120 19:55 21.03.2020
989 Clouds 27 1024 51 10000 4.6 120 19:36 21.03.2020
990 Clouds 27 1024 51 10000 4.6 120 19:18 21.03.2020
991 Clouds 27 1024 51 10000 4.6 120 19:18 21.03.2020
992 Clouds 27 1025 48 10000 5.1 120 18:41 21.03.2020
993 Clouds 27 1025 48 10000 5.1 120 18:20 21.03.2020
994 Clouds 26 1025 57 10000 5.1 100 17:58 21.03.2020
995 Clouds 26 1025 57 10000 5.1 100 17:39 21.03.2020
996 Clouds 26 1025 57 10000 5.1 100 17:21 21.03.2020
997 Clouds 26 1025 61 10000 5.1 100 16:42 21.03.2020
998 Clouds 26 1025 61 10000 5.1 100 16:23 21.03.2020
999 Clouds 25 1025 65 10000 3.1 120 15:58 21.03.2020
1000 Clouds 25 1025 65 10000 3.1 120 15:39 21.03.2020
1001 Clouds 25 1025 65 10000 3.1 120 15:21 21.03.2020
1002 Clouds 25 1024 73 0 2.24 70 14:55 21.03.2020
1003 Clouds 25 1024 73 0 1.34 21 14:37 21.03.2020
1004 Clouds 23 1024 78 10000 2.1 90 14:18 21.03.2020
1005 Clouds 23 1024 78 10000 2.1 90 13:57 21.03.2020
1006 Clouds 23 1024 78 10000 2.1 90 13:38 21.03.2020
1007 Clouds 23 1024 78 10000 2.1 90 13:19 21.03.2020
1008 Clouds 20 1024 88 10000 1.5 90 12:41 21.03.2020
1009 Clouds 20 1024 88 10000 1.5 90 12:20 21.03.2020
1010 Clouds 20 1023 88 10000 1.5 90 11:59 21.03.2020
1011 Clouds 20 1023 88 10000 1.5 90 11:39 21.03.2020
1012 Clouds 20 1023 88 10000 1.5 90 11:20 21.03.2020
1013 Clouds 21 1023 83 10000 2.6 100 10:58 21.03.2020
1014 Clouds 21 1023 83 10000 2.6 100 10:39 21.03.2020
1015 Clouds 21 1023 83 10000 2.6 100 10:21 21.03.2020
1016 Clouds 22 1024 88 10000 2.6 100 09:59 21.03.2020
1017 Clouds 22 1024 88 10000 2.6 100 09:39 21.03.2020
1018 Clouds 22 1024 88 10000 2.6 100 09:39 21.03.2020
1019 Clouds 22 1024 88 10000 2.6 100 09:20 21.03.2020
1020 Clouds 22 1024 88 10000 3.1 110 08:55 21.03.2020
1021 Clouds 22 1024 88 10000 3.1 110 08:37 21.03.2020
1022 Clouds 22 1024 88 10000 3.1 110 08:18 21.03.2020
1023 Clouds 22 1025 83 10000 3.1 110 07:37 21.03.2020
1024 Clouds 22 1025 83 10000 3.1 110 07:18 21.03.2020
1025 Clouds 22 1025 78 10000 3.1 120 06:42 21.03.2020
1026 Clouds 23 1025 78 10000 3.1 120 06:23 21.03.2020
1027 Clouds 23 1026 78 10000 3.6 100 05:39 21.03.2020
1028 Clouds 23 1026 73 10000 4.1 100 03:39 21.03.2020
1029 Clouds 24 1025 73 10000 4.6 110 02:36 21.03.2020
1030 Clouds 24 1025 73 10000 4.6 110 01:43 21.03.2020
1031 Clouds 24 1025 73 10000 4.6 110 01:23 21.03.2020
1032 Clouds 24 1024 69 10000 6.2 100 00:39 21.03.2020
1033 Clouds 24 1024 69 10000 6.2 100 00:20 21.03.2020
1034 Clouds 24 1023 77 0 2.68 103 23:41 20.03.2020
1035 Rain 25 1024 69 10000 6.7 120 23:20 20.03.2020
1036 Rain 25 1024 69 10000 6.7 120 22:44 20.03.2020
1037 Rain 26 1024 69 10000 6.7 120 22:24 20.03.2020
1038 Rain 26 1024 69 10000 7.2 120 21:58 20.03.2020
1039 Rain 26 1024 69 10000 7.2 120 21:39 20.03.2020
1040 Rain 26 1024 69 10000 7.2 120 21:20 20.03.2020
1041 Clouds 27 1024 54 10000 7.2 120 20:58 20.03.2020
1042 Clouds 27 1024 54 10000 7.2 120 20:40 20.03.2020
1043 Clouds 27 1024 54 10000 7.2 120 20:19 20.03.2020
1044 Clouds 26 1025 65 10000 6.2 110 19:46 20.03.2020
1045 Clouds 27 1026 61 10000 6.2 120 19:20 20.03.2020
1046 Clouds 27 1026 61 10000 6.2 120 18:57 20.03.2020
1047 Clouds 27 1026 61 10000 6.2 120 18:37 20.03.2020
1048 Clouds 26 1027 61 10000 6.7 120 18:19 20.03.2020
1049 Rain 26 1026 72 0 3.13 99 17:41 20.03.2020
1050 Clouds 26 1027 65 10000 7.2 110 17:22 20.03.2020
1051 Clouds 26 1027 65 10000 7.2 110 16:59 20.03.2020
1052 Clouds 26 1027 65 10000 7.2 110 16:41 20.03.2020
1053 Clouds 26 1027 65 10000 7.2 110 16:20 20.03.2020
1054 Clouds 25 1026 75 0 2.24 74 15:44 20.03.2020
1055 Clouds 25 1026 65 10000 6.7 120 15:23 20.03.2020
1056 Clouds 25 1026 65 10000 6.7 120 14:58 20.03.2020
1057 Clouds 25 1026 65 10000 6.7 120 14:58 20.03.2020
1058 Clouds 25 1026 65 10000 6.7 120 14:40 20.03.2020
1059 Clouds 24 1026 73 10000 4.6 120 14:20 20.03.2020
1060 Clear 24 1025 75 0 1.79 38 13:48 20.03.2020
1061 Clouds 24 1025 69 10000 5.7 120 13:21 20.03.2020
1062 Clouds 23 1025 69 10000 5.7 120 12:57 20.03.2020
1063 Clouds 23 1025 69 10000 5.7 120 12:37 20.03.2020
1064 Clouds 23 1025 69 10000 5.7 120 12:18 20.03.2020
1065 Clear 23 1025 75 0 9.23 97 11:39 20.03.2020
1066 Clouds 23 1025 73 10000 4.6 100 11:20 20.03.2020
1067 Clouds 23 1025 73 10000 4.6 100 10:54 20.03.2020
1068 Clouds 23 1025 73 10000 4.6 100 10:36 20.03.2020
1069 Clear 23 1024 77 0 2.24 76 10:18 20.03.2020
1070 Clear 23 1024 77 0 2.24 76 09:43 20.03.2020
1071 Clear 23 1024 77 0 2.24 76 09:20 20.03.2020
1072 Clear 23 1024 77 0 1.79 94 08:43 20.03.2020
1073 Clouds 23 1026 73 10000 4.6 110 08:22 20.03.2020
1074 Clouds 23 1026 73 10000 4.6 110 07:57 20.03.2020
1075 Clouds 23 1026 73 10000 4.6 110 07:38 20.03.2020
1076 Clear 23 1025 79 0 1.34 124 07:19 20.03.2020
1077 Clear 23 1025 78 0 2.24 70 06:42 20.03.2020
1078 Clear 23 1026 79 0 1.79 57 04:57 20.03.2020
1079 Clouds 23 1026 78 10000 4.6 110 04:26 20.03.2020
1080 Clouds 24 1025 73 10000 5.7 110 02:27 20.03.2020
1081 Clouds 24 1025 73 10000 5.7 110 01:47 20.03.2020
1082 Clouds 24 1024 73 10000 7.2 100 00:33 20.03.2020
1083 Clouds 25 1024 65 10000 7.7 110 23:51 19.03.2020
1084 Clouds 25 1024 65 10000 7.7 110 23:30 19.03.2020
1085 Clouds 25 1024 65 10000 7.2 110 22:58 19.03.2020
1086 Clouds 26 1024 65 10000 7.2 110 22:38 19.03.2020
1087 Clouds 25 1024 78 10000 6.2 120 22:20 19.03.2020
1088 Clouds 25 1024 78 10000 6.2 120 21:55 19.03.2020
1089 Clouds 25 1024 78 10000 6.2 120 21:37 19.03.2020
1090 Clouds 25 1024 78 10000 6.2 120 21:18 19.03.2020
1091 Clouds 26 1025 61 10000 6.7 110 20:42 19.03.2020
1092 Clouds 26 1025 61 10000 6.7 110 20:23 19.03.2020
1093 Clouds 26 1024 74 0 2.68 88 19:56 19.03.2020
1094 Clouds 26 1024 74 0 3.58 85 19:38 19.03.2020
1095 Clouds 26 1026 61 10000 6.7 100 19:19 19.03.2020
1096 Clouds 26 1026 61 10000 6.7 100 18:56 19.03.2020
1097 Clouds 26 1025 73 0 3.13 140 18:38 19.03.2020
1098 Clouds 25 1026 65 10000 6.2 90 18:19 19.03.2020
1099 Clouds 25 1026 65 10000 6.2 90 17:41 19.03.2020
1100 Clouds 25 1026 65 10000 6.2 90 17:19 19.03.2020
1101 Clear 25 1026 74 0 0.89 104 16:45 19.03.2020
1102 Clouds 25 1026 61 10000 7.2 120 16:24 19.03.2020
1103 Clouds 25 1026 61 10000 7.2 120 15:54 19.03.2020
1104 Clouds 25 1026 61 10000 7.2 120 15:36 19.03.2020
1105 Clouds 25 1026 60 10000 6.7 110 15:18 19.03.2020
1106 Clear 25 1025 71 0 2.68 138 14:42 19.03.2020
1107 Clouds 24 1025 69 10000 4.1 100 14:20 19.03.2020
1108 Clouds 23 1025 69 10000 4.1 100 13:41 19.03.2020
1109 Clouds 23 1025 69 10000 5.7 110 13:19 19.03.2020
1110 Clouds 23 1025 69 10000 5.7 110 12:56 19.03.2020
1111 Clouds 23 1025 69 10000 5.7 110 12:56 19.03.2020
1112 Clouds 23 1025 69 10000 5.7 110 12:38 19.03.2020
1113 Clouds 23 1025 69 10000 5.7 110 12:19 19.03.2020
1114 Clouds 23 1025 72 0 9.54 87 11:42 19.03.2020
1115 Clouds 23 1025 72 0 9.54 87 11:23 19.03.2020
1116 Clouds 23 1023 79 0 9.07 85 10:56 19.03.2020
1117 Clouds 23 1023 79 0 9.07 85 10:36 19.03.2020
1118 Clouds 23 1023 79 0 2.68 88 10:18 19.03.2020
1119 Clouds 23 1023 79 0 2.68 88 09:44 19.03.2020
1120 Clouds 23 1023 79 0 2.68 88 09:26 19.03.2020
1121 Clouds 23 1023 79 0 2.68 88 08:57 19.03.2020
1122 Clouds 23 1023 79 0 3.13 110 08:37 19.03.2020
1123 Clear 23 1023 79 0 2.24 68 08:18 19.03.2020
1124 Clear 23 1023 80 0 2.24 77 07:42 19.03.2020
1125 Clear 23 1023 80 0 2.24 95 07:22 19.03.2020
1126 Clear 22 1024 80 0 2.68 44 06:27 19.03.2020
1127 Clear 23 1024 79 0 1.34 73 05:25 19.03.2020
1128 Clouds 24 1025 73 10000 3.6 100 04:51 19.03.2020
1129 Clouds 24 1025 73 10000 3.6 100 04:22 19.03.2020
1130 Clouds 24 1025 78 10000 4.6 100 02:33 19.03.2020
1131 Clouds 24 1024 73 10000 5.1 100 00:53 19.03.2020
1132 Clouds 24 1024 69 10000 5.7 90 00:20 19.03.2020
1133 Clouds 24 1023 77 0 2.24 70 23:44 18.03.2020
1134 Clouds 25 1023 65 10000 6.2 110 23:26 18.03.2020
1135 Clouds 26 1023 74 0 2.68 77 22:43 18.03.2020
1136 Clouds 27 1024 54 10000 5.1 130 22:23 18.03.2020
1137 Clouds 26 1023 74 0 2.24 34 21:58 18.03.2020
1138 Clouds 26 1023 73 0 2.24 46 21:40 18.03.2020
1139 Clouds 27 1024 54 10000 6.7 140 21:20 18.03.2020
1140 Clouds 27 1024 54 10000 6.7 140 20:55 18.03.2020
1141 Clouds 27 1024 54 10000 6.7 140 20:37 18.03.2020
1142 Clouds 27 1024 54 10000 6.7 140 20:19 18.03.2020
1143 Clouds 27 1024 57 10000 5.1 100 19:41 18.03.2020
1144 Clouds 27 1024 57 10000 5.1 100 19:21 18.03.2020
1145 Clouds 27 1024 57 10000 5.1 100 19:21 18.03.2020
1146 Clouds 27 1025 57 10000 5.7 110 18:58 18.03.2020
1147 Clouds 27 1025 57 10000 5.7 110 18:58 18.03.2020
1148 Clouds 27 1025 57 10000 5.7 110 18:39 18.03.2020
1149 Clouds 26 1025 57 10000 5.7 110 18:19 18.03.2020
1150 Clouds 25 1025 69 10000 8.2 100 17:55 18.03.2020
1151 Clouds 25 1025 69 10000 8.2 100 17:37 18.03.2020
1152 Clouds 25 1025 69 10000 8.2 100 17:19 18.03.2020
1153 Clouds 25 1025 69 10000 5.1 100 16:42 18.03.2020
1154 Clouds 25 1025 69 10000 5.1 100 16:21 18.03.2020
1155 Clouds 25 1025 69 10000 4.6 90 15:57 18.03.2020
1156 Clouds 25 1025 69 10000 4.6 90 15:38 18.03.2020
1157 Clouds 25 1025 69 10000 4.6 90 15:20 18.03.2020
1158 Clouds 24 1024 73 10000 3.6 90 14:42 18.03.2020
1159 Clouds 24 1024 73 10000 3.6 90 14:21 18.03.2020
1160 Clouds 22 1023 83 10000 2.1 90 13:42 18.03.2020
1161 Clouds 22 1023 83 10000 2.1 90 13:19 18.03.2020
1162 Clouds 22 1023 83 10000 2.1 80 12:55 18.03.2020
1163 Clouds 21 1023 83 10000 2.1 80 12:37 18.03.2020
1164 Clouds 21 1023 83 10000 2.1 80 12:18 18.03.2020
1165 Clouds 22 1023 78 10000 2.1 80 11:38 18.03.2020
1166 Clouds 22 1023 78 10000 2.1 80 11:19 18.03.2020
1167 Clouds 21 1022 77 10000 2.1 80 10:56 18.03.2020
1168 Clouds 21 1022 77 10000 2.1 80 10:37 18.03.2020
1169 Clouds 22 1023 73 10000 2.6 90 10:18 18.03.2020
1170 Clouds 22 1023 73 10000 2.6 90 10:18 18.03.2020
1171 Clouds 22 1023 73 10000 2.6 90 10:18 18.03.2020
1172 Clouds 22 1023 73 10000 2.6 90 09:42 18.03.2020
1173 Clouds 22 1023 73 10000 2.6 90 09:23 18.03.2020
1174 Clouds 22 1023 78 10000 2.1 90 08:55 18.03.2020
1175 Clouds 22 1023 78 10000 2.1 90 08:55 18.03.2020
1176 Clouds 22 1023 78 10000 2.1 90 08:36 18.03.2020
1177 Clouds 22 1023 78 10000 2.1 90 08:18 18.03.2020
1178 Clouds 22 1023 73 10000 3.6 90 07:40 18.03.2020
1179 Clouds 22 1023 73 10000 3.6 90 07:22 18.03.2020
1180 Clouds 23 1024 73 10000 3.1 80 06:42 18.03.2020
1181 Clouds 23 1024 73 10000 3.1 80 05:47 18.03.2020
1182 Clouds 23 1024 73 10000 3.1 80 05:18 18.03.2020
1183 Clouds 23 1023 78 10000 4.1 70 03:21 18.03.2020
1184 Clouds 23 1023 78 10000 3.6 70 02:37 18.03.2020
1185 Clouds 23 1023 78 10000 3.6 70 02:37 18.03.2020
1186 Clouds 23 1023 78 10000 3.1 60 01:45 18.03.2020
1187 Clouds 23 1023 78 10000 3.1 60 01:20 18.03.2020
1188 Clouds 24 1022 73 10000 4.6 70 00:22 18.03.2020
1189 Clouds 24 1022 69 10000 5.1 50 23:43 17.03.2020
1190 Clouds 25 1022 69 10000 5.1 50 23:22 17.03.2020
1191 Clouds 25 1022 69 10000 5.7 50 22:47 17.03.2020
1192 Clouds 25 1022 69 10000 5.7 50 22:28 17.03.2020
1193 Clouds 25 1022 65 10000 5.1 40 21:57 17.03.2020
1194 Clouds 26 1022 65 10000 5.1 40 21:37 17.03.2020
1195 Clouds 25 1022 65 10000 5.1 50 21:19 17.03.2020
1196 Clouds 26 1022 65 10000 5.1 50 20:38 17.03.2020
1197 Clouds 26 1022 65 10000 5.1 50 20:20 17.03.2020
1198 Clouds 26 1023 65 10000 4.1 70 19:42 17.03.2020
1199 Clouds 26 1023 65 10000 4.1 70 19:22 17.03.2020
1200 Clouds 25 1024 69 10000 5.1 70 18:59 17.03.2020
1201 Clouds 26 1024 69 10000 5.1 70 18:40 17.03.2020
1202 Clouds 26 1024 69 10000 5.1 70 18:22 17.03.2020
1203 Clouds 25 1024 69 10000 5.1 60 17:59 17.03.2020
1204 Clouds 25 1024 69 10000 5.1 60 17:39 17.03.2020
1205 Clouds 25 1024 69 10000 5.1 60 17:19 17.03.2020
1206 Clouds 25 1024 65 10000 6.2 80 16:43 17.03.2020
1207 Clouds 25 1024 65 10000 6.2 80 16:19 17.03.2020
1208 Clouds 24 1024 73 10000 5.7 80 15:48 17.03.2020
1209 Clouds 24 1024 73 10000 5.7 80 15:23 17.03.2020
1210 Clouds 24 1023 78 10000 4.6 80 14:49 17.03.2020
1211 Clouds 24 1022 83 10000 4.1 70 14:30 17.03.2020
1212 Clouds 23 1022 83 10000 4.1 70 13:58 17.03.2020
1213 Clouds 23 1022 83 10000 4.1 70 13:40 17.03.2020
1214 Clouds 23 1022 83 10000 4.1 70 13:22 17.03.2020
1215 Clouds 23 1022 78 10000 2.6 80 12:47 17.03.2020
1216 Clouds 23 1022 78 10000 2.6 80 12:25 17.03.2020
1217 Clouds 23 1022 76 0 5.48 65 11:56 17.03.2020
1218 Clouds 23 1022 76 0 5.48 65 11:38 17.03.2020
1219 Clouds 22 1021 83 10000 2.1 80 11:20 17.03.2020
1220 Clouds 22 1021 83 10000 2.1 80 10:54 17.03.2020
1221 Clouds 22 1021 83 10000 2.1 80 10:36 17.03.2020
1222 Clouds 22 1021 83 10000 2.1 80 10:18 17.03.2020
1223 Clouds 22 1020 79 0 1.79 38 09:44 17.03.2020
1224 Clouds 22 1022 83 10000 1 0 09:20 17.03.2020
1225 Clouds 22 1022 83 10000 1 0 08:51 17.03.2020
1226 Clouds 22 1022 83 10000 2.1 100 08:24 17.03.2020
1227 Clouds 23 1020 79 0 1.79 35 07:58 17.03.2020
1228 Clouds 23 1021 79 0 2.24 63 07:39 17.03.2020
1229 Clouds 23 1023 78 10000 2.6 90 07:19 17.03.2020
1230 Clouds 23 1023 78 10000 2.6 90 06:40 17.03.2020
1231 Clouds 23 1023 78 10000 2.6 90 06:19 17.03.2020
1232 Clouds 23 1023 78 10000 2.6 90 06:19 17.03.2020
1233 Clouds 23 1023 78 10000 3.1 90 04:40 17.03.2020
1234 Clouds 23 1023 78 10000 3.1 90 03:19 17.03.2020
1235 Clear 23 1021 79 0 1.79 104 01:49 17.03.2020
1236 Clouds 23 1022 73 10000 4.1 60 01:28 17.03.2020
1237 Clouds 24 1022 73 10000 4.1 60 00:48 17.03.2020
1238 Clouds 23 1021 77 0 2.24 59 23:51 16.03.2020
1239 Clouds 24 1021 77 0 2.24 62 23:32 16.03.2020
1240 Clouds 24 1021 75 0 2.24 63 22:43 16.03.2020
1241 Clouds 24 1021 74 0 2.68 46 22:25 16.03.2020
1242 Clouds 25 1021 75 0 2.68 47 21:58 16.03.2020
1243 Clouds 25 1021 74 0 2.24 45 21:40 16.03.2020
1244 Clouds 25 1021 74 0 2.24 70 21:22 16.03.2020
1245 Clouds 25 1021 74 0 2.24 71 20:56 16.03.2020
1246 Clouds 25 1021 74 0 2.24 53 20:38 16.03.2020
1247 Clouds 25 1021 74 0 2.68 60 20:19 16.03.2020
1248 Clouds 25 1021 73 0 2.24 96 19:41 16.03.2020
1249 Clouds 26 1023 58 10000 5.1 70 19:21 16.03.2020
1250 Clouds 27 1023 58 10000 5.1 70 18:43 16.03.2020
1251 Clouds 27 1023 58 10000 5.1 70 18:22 16.03.2020
1252 Clouds 25 1024 65 10000 4.6 70 17:57 16.03.2020
1253 Clouds 26 1024 65 10000 4.6 70 17:37 16.03.2020
1254 Clouds 26 1024 65 10000 4.6 70 17:18 16.03.2020
1255 Clouds 25 1023 65 10000 5.7 80 16:45 16.03.2020
1256 Clouds 25 1023 65 10000 5.7 80 16:27 16.03.2020
1257 Clouds 24 1023 69 10000 5.1 80 15:46 16.03.2020
1258 Clouds 24 1023 69 10000 5.1 80 15:28 16.03.2020
1259 Clouds 24 1023 73 10000 5.1 70 14:49 16.03.2020
1260 Clouds 23 1022 83 10000 3.6 70 14:28 16.03.2020
1261 Clouds 23 1022 83 10000 3.6 70 13:59 16.03.2020
1262 Clouds 23 1022 83 10000 3.6 70 13:41 16.03.2020
1263 Clouds 22 1022 83 10000 3.6 70 13:22 16.03.2020
1264 Clouds 21 1022 83 10000 3.1 80 12:45 16.03.2020
1265 Clouds 21 1022 83 10000 3.1 80 12:24 16.03.2020
1266 Clouds 22 1021 83 10000 3.6 80 11:47 16.03.2020
1267 Clouds 22 1021 83 10000 3.6 80 11:28 16.03.2020
1268 Clouds 22 1021 83 10000 3.1 70 10:56 16.03.2020
1269 Clouds 22 1021 83 10000 3.1 70 10:37 16.03.2020
1270 Clouds 22 1021 83 10000 3.1 70 10:18 16.03.2020
1271 Clouds 22 1021 83 10000 3.1 70 09:42 16.03.2020
1272 Clouds 22 1021 83 10000 3.1 70 09:21 16.03.2020
1273 Clouds 22 1022 88 10000 2.1 80 08:52 16.03.2020
1274 Clouds 22 1022 88 10000 2.1 80 08:25 16.03.2020
1275 Clouds 22 1022 88 10000 2.1 80 08:25 16.03.2020
1276 Clouds 22 1023 83 10000 2.6 80 07:48 16.03.2020
1277 Clouds 22 1023 83 10000 2.6 80 07:25 16.03.2020
1278 Clouds 22 1023 78 10000 2.6 100 06:52 16.03.2020
1279 Clouds 22 1023 78 10000 2.6 100 06:24 16.03.2020
1280 Clouds 23 1024 78 10000 4.1 70 04:54 16.03.2020
1281 Clear 23 1023 76 0 2.68 49 02:41 16.03.2020
1282 Clouds 23 1022 76 0 1.79 78 00:52 16.03.2020
1283 Clouds 23 1022 76 0 0.89 59 00:32 16.03.2020
1284 Clouds 24 1021 73 0 1.34 104 23:46 15.03.2020
1285 Clouds 25 1021 57 10000 4.1 50 23:20 15.03.2020
1286 Clouds 25 1021 57 10000 4.1 50 22:42 15.03.2020
1287 Clouds 24 1021 70 0 1.34 38 22:22 15.03.2020
1288 Clouds 25 1021 72 0 1.34 68 21:55 15.03.2020
1289 Clouds 25 1021 71 0 2.24 64 21:37 15.03.2020
1290 Clouds 25 1022 61 10000 4.6 80 21:18 15.03.2020
1291 Clouds 25 1022 61 10000 4.6 80 20:42 15.03.2020
1292 Clouds 26 1023 61 10000 5.1 60 20:20 15.03.2020
1293 Clouds 26 1023 61 10000 5.1 60 19:56 15.03.2020
1294 Clouds 26 1023 61 10000 5.1 60 19:38 15.03.2020
1295 Clouds 26 1023 61 10000 5.1 60 19:19 15.03.2020
1296 Clouds 26 1024 61 10000 5.1 60 18:55 15.03.2020
1297 Clouds 26 1024 61 10000 5.1 60 18:36 15.03.2020
1298 Clouds 26 1024 61 10000 5.1 60 18:18 15.03.2020
1299 Clouds 26 1024 61 10000 5.7 70 17:40 15.03.2020
1300 Clouds 26 1024 61 10000 5.7 70 17:20 15.03.2020
1301 Clouds 25 1024 61 10000 5.1 90 16:56 15.03.2020
1302 Clouds 25 1024 61 10000 5.1 90 16:37 15.03.2020
1303 Clouds 25 1024 61 10000 5.1 90 16:18 15.03.2020
1304 Clouds 25 1024 61 10000 5.7 90 15:43 15.03.2020
1305 Clouds 24 1024 61 10000 5.7 90 15:25 15.03.2020
1306 Clouds 24 1023 69 10000 4.6 100 14:47 15.03.2020
1307 Clouds 24 1023 69 10000 4.6 100 14:28 15.03.2020
1308 Clouds 23 1023 83 10000 2.1 110 13:59 15.03.2020
1309 Clouds 23 1023 83 10000 2.1 110 13:40 15.03.2020
1310 Clouds 23 1023 83 10000 2.1 110 13:21 15.03.2020
1311 Clouds 22 1023 83 10000 2.1 100 12:58 15.03.2020
1312 Clouds 22 1023 83 10000 2.1 100 12:38 15.03.2020
1313 Clouds 22 1023 83 10000 2.1 100 12:20 15.03.2020
1314 Clouds 22 1022 83 10000 2.1 100 11:42 15.03.2020
1315 Clouds 22 1022 83 10000 2.1 100 11:22 15.03.2020
1316 Clouds 22 1022 83 10000 2.1 90 10:56 15.03.2020
1317 Clouds 22 1022 83 10000 2.1 90 10:38 15.03.2020
1318 Clouds 22 1022 83 10000 2.1 90 10:20 15.03.2020
1319 Clear 23 1022 78 0 6.62 69 09:41 15.03.2020
1320 Clear 23 1022 78 0 6.62 69 09:22 15.03.2020
1321 Clear 23 1022 78 0 6.62 69 08:45 15.03.2020
1322 Clouds 22 1023 88 10000 2.1 90 08:21 15.03.2020
1323 Clouds 22 1023 88 10000 2.1 90 07:51 15.03.2020
1324 Clear 23 1022 78 0 6.87 85 07:32 15.03.2020
1325 Clouds 23 1024 83 10000 2.6 100 06:53 15.03.2020
1326 Clouds 23 1024 83 10000 2.6 100 06:18 15.03.2020
1327 Clouds 23 1024 83 10000 3.1 90 05:19 15.03.2020
1328 Clouds 23 1024 83 10000 3.6 100 04:43 15.03.2020
1329 Clouds 23 1024 83 10000 3.6 100 04:24 15.03.2020
1330 Clouds 23 1024 83 10000 3.1 100 03:48 15.03.2020
1331 Clouds 23 1024 83 10000 3.6 90 02:38 15.03.2020
1332 Clouds 23 1023 83 10000 4.1 100 01:34 15.03.2020
1333 Clouds 24 1023 73 10000 4.6 100 00:46 15.03.2020
1334 Clouds 24 1023 73 10000 4.6 100 00:24 15.03.2020
1335 Clouds 25 1023 69 10000 5.1 80 23:55 14.03.2020
1336 Clouds 24 1022 78 0 1.34 112 23:36 14.03.2020
1337 Clouds 25 1022 65 10000 6.2 90 23:18 14.03.2020
1338 Clouds 26 1022 65 10000 6.2 90 22:41 14.03.2020
1339 Clouds 26 1022 65 10000 6.2 90 22:23 14.03.2020
1340 Clouds 25 1022 78 0 2.68 55 21:56 14.03.2020
1341 Clouds 25 1021 78 0 3.13 58 21:36 14.03.2020
1342 Clouds 25 1021 78 0 3.13 58 21:36 14.03.2020
1343 Clouds 25 1022 78 0 2.68 65 21:18 14.03.2020
1344 Clouds 25 1023 74 10000 4.6 90 20:58 14.03.2020
1345 Clouds 25 1023 74 10000 4.6 90 20:58 14.03.2020
1346 Clouds 26 1023 74 10000 4.6 90 20:39 14.03.2020
1347 Clouds 26 1023 74 10000 4.6 90 20:19 14.03.2020
1348 Clouds 26 1023 74 10000 5.1 80 19:42 14.03.2020
1349 Clouds 26 1024 69 10000 5.1 110 19:24 14.03.2020
1350 Clouds 26 1024 69 10000 5.1 110 18:41 14.03.2020
1351 Clouds 26 1024 69 10000 5.1 110 18:22 14.03.2020
1352 Clouds 26 1024 65 10000 4.6 110 17:55 14.03.2020
1353 Clouds 26 1023 77 0 2.24 56 17:37 14.03.2020
1354 Clouds 26 1024 74 10000 5.1 110 17:19 14.03.2020
1355 Clouds 26 1024 74 10000 5.1 110 16:40 14.03.2020
1356 Clouds 25 1024 73 10000 5.7 110 16:22 14.03.2020
1357 Clouds 25 1024 73 10000 5.7 110 15:52 14.03.2020
1358 Clouds 24 1023 83 10000 4.6 110 15:25 14.03.2020
1359 Clouds 24 1023 83 10000 4.6 110 14:46 14.03.2020
1360 Clouds 24 1023 88 10000 3.1 90 14:23 14.03.2020
1361 Clouds 23 1023 88 10000 3.1 90 13:57 14.03.2020
1362 Clouds 23 1023 88 10000 3.1 90 13:39 14.03.2020
1363 Clouds 23 1022 88 10000 3.6 90 13:20 14.03.2020
1364 Clouds 23 1022 88 10000 3.6 90 12:45 14.03.2020
1365 Clouds 23 1022 88 10000 3.6 90 12:26 14.03.2020
1366 Clouds 23 1022 83 10000 2.6 90 11:48 14.03.2020
1367 Clouds 23 1022 83 10000 2.6 90 11:48 14.03.2020
1368 Clouds 23 1022 83 10000 2.6 90 11:28 14.03.2020
1369 Clouds 23 1022 88 10000 4.6 100 10:59 14.03.2020
1370 Clouds 23 1021 83 0 7.57 84 10:41 14.03.2020
1371 Clouds 23 1021 83 0 7.57 84 10:23 14.03.2020
1372 Clouds 23 1021 74 0 7.57 84 09:44 14.03.2020
1373 Clouds 23 1022 83 10000 4.1 90 09:24 14.03.2020
1374 Clouds 23 1022 83 10000 4.1 90 08:48 14.03.2020
1375 Clouds 23 1023 83 10000 4.6 90 08:29 14.03.2020
1376 Clouds 23 1023 83 10000 4.6 90 07:55 14.03.2020
1377 Clouds 23 1023 83 10000 4.6 90 07:37 14.03.2020
1378 Clouds 23 1023 83 10000 4.6 90 07:18 14.03.2020
1379 Clear 23 1022 75 0 7.06 73 06:40 14.03.2020
1380 Clouds 23 1023 83 10000 4.1 80 05:19 14.03.2020
1381 Clouds 24 1022 78 10000 3.6 90 03:43 14.03.2020
1382 Clouds 24 1022 78 10000 3.6 90 03:23 14.03.2020
1383 Clouds 24 1021 83 10000 3.1 90 02:22 14.03.2020
1384 Clouds 24 1020 73 10000 4.6 90 00:44 14.03.2020
1385 Clouds 24 1020 73 10000 5.7 90 23:45 13.03.2020
1386 Clouds 25 1019 69 10000 6.2 70 23:27 13.03.2020
1387 Clouds 26 1019 69 10000 6.2 70 22:49 13.03.2020
1388 Clouds 26 1019 69 10000 6.2 70 22:26 13.03.2020
1389 Clouds 26 1019 69 10000 5.7 80 21:44 13.03.2020
1390 Clouds 26 1019 69 10000 5.7 80 21:21 13.03.2020
1391 Clouds 25 1020 69 10000 6.2 70 20:57 13.03.2020
1392 Clouds 26 1020 69 10000 6.2 70 20:38 13.03.2020
1393 Clouds 26 1020 69 10000 6.2 70 20:19 13.03.2020
1394 Clouds 26 1020 69 10000 6.7 70 19:45 13.03.2020
1395 Clouds 26 1020 69 10000 6.7 70 19:27 13.03.2020
1396 Clouds 25 1021 73 10000 6.2 80 18:47 13.03.2020
1397 Clouds 25 1021 73 10000 6.2 80 18:28 13.03.2020
1398 Clouds 25 1021 73 10000 6.2 80 17:57 13.03.2020
1399 Clear 25 1020 78 0 3.13 74 17:37 13.03.2020
1400 Clouds 25 1021 78 10000 5.7 70 17:18 13.03.2020
1401 Clouds 26 1021 78 10000 5.7 70 16:41 13.03.2020
1402 Clear 24 1020 78 0 4.02 72 16:23 13.03.2020
1403 Clear 24 1020 78 0 3.13 30 15:55 13.03.2020
1404 Clear 24 1020 77 0 1.34 60 15:37 13.03.2020
1405 Clouds 24 1020 78 10000 5.1 90 15:18 13.03.2020
1406 Clouds 24 1020 78 10000 5.1 90 14:41 13.03.2020
1407 Clouds 24 1020 83 0 3.6 80 14:22 13.03.2020
1408 Clouds 23 1019 76 0 6.75 61 13:55 13.03.2020
1409 Clouds 23 1019 76 0 6.75 61 13:55 13.03.2020
1410 Clouds 23 1019 75 0 6.75 61 13:37 13.03.2020
1411 Clouds 23 1019 83 10000 3.6 70 13:18 13.03.2020
1412 Clouds 23 1019 83 10000 3.6 70 12:39 13.03.2020
1413 Clouds 23 1019 83 10000 3.6 70 12:21 13.03.2020
1414 Clouds 23 1018 83 10000 4.1 80 11:57 13.03.2020
1415 Clouds 23 1018 83 10000 4.1 80 11:37 13.03.2020
1416 Clouds 23 1018 83 10000 4.1 80 11:19 13.03.2020
1417 Clouds 23 1018 83 10000 4.1 80 10:47 13.03.2020
1418 Clouds 23 1018 83 10000 4.1 80 10:26 13.03.2020
1419 Clouds 23 1018 83 10000 4.1 70 09:56 13.03.2020
1420 Clouds 23 1018 83 10000 4.1 70 09:38 13.03.2020
1421 Clouds 23 1018 83 10000 4.1 70 09:19 13.03.2020
1422 Clouds 23 1018 83 10000 4.1 70 09:19 13.03.2020
1423 Clouds 23 1018 83 10000 4.1 80 08:41 13.03.2020
1424 Clouds 23 1018 83 10000 4.1 80 08:22 13.03.2020
1425 Clouds 23 1019 83 10000 4.1 80 07:45 13.03.2020
1426 Clouds 23 1019 83 10000 4.1 80 07:27 13.03.2020
1427 Clouds 23 1019 78 10000 5.1 90 06:46 13.03.2020
1428 Clouds 23 1019 78 10000 5.1 90 06:23 13.03.2020
1429 Clouds 23 1019 78 10000 3.6 90 05:46 13.03.2020
1430 Clouds 23 1019 83 10000 3.6 90 04:57 13.03.2020
1431 Clouds 23 1019 83 10000 3.6 90 04:26 13.03.2020
1432 Clear 23 1017 77 0 7.22 74 02:58 13.03.2020
1433 Rain 23 1018 73 10000 4.1 80 01:39 13.03.2020
1434 Rain 23 1018 73 10000 4.1 80 01:18 13.03.2020
1435 Rain 23 1017 73 10000 4.1 80 00:42 13.03.2020
1436 Clouds 23 1017 73 10000 6.2 90 00:19 13.03.2020
1437 Clouds 23 1017 73 10000 6.2 90 00:19 13.03.2020
1438 Clouds 23 1017 73 10000 6.2 90 23:39 12.03.2020
1439 Clouds 24 1017 73 10000 6.2 90 23:19 12.03.2020
1440 Clouds 24 1016 65 10000 5.7 80 22:46 12.03.2020
1441 Clouds 24 1016 65 10000 5.7 80 22:27 12.03.2020
1442 Clouds 24 1017 65 10000 6.2 80 21:57 12.03.2020
1443 Clouds 25 1017 65 10000 6.2 80 21:39 12.03.2020
1444 Clouds 25 1017 61 10000 5.7 70 21:20 12.03.2020
1445 Clouds 25 1017 61 10000 5.7 70 20:42 12.03.2020
1446 Clouds 25 1018 57 10000 6.2 90 20:20 12.03.2020
1447 Clouds 25 1018 57 10000 6.2 90 19:42 12.03.2020
1448 Clouds 25 1018 57 10000 6.2 70 19:22 12.03.2020
1449 Clouds 25 1018 57 10000 6.2 70 18:59 12.03.2020
1450 Clouds 25 1018 57 10000 6.2 70 18:41 12.03.2020
1451 Clouds 25 1018 57 10000 6.2 70 18:22 12.03.2020
1452 Clouds 25 1019 61 10000 5.1 80 17:41 12.03.2020
1453 Clouds 25 1019 61 10000 5.1 80 17:22 12.03.2020
1454 Clouds 24 1019 69 10000 5.7 90 16:59 12.03.2020
1455 Clouds 24 1019 69 10000 5.7 90 16:41 12.03.2020
1456 Clouds 24 1019 69 10000 5.7 90 16:22 12.03.2020
1457 Clouds 24 1019 78 10000 5.7 70 15:49 12.03.2020
1458 Clouds 23 1019 78 10000 5.7 70 15:28 12.03.2020
1459 Clouds 23 1018 78 10000 4.1 80 14:55 12.03.2020
1460 Clouds 23 1018 78 10000 4.1 80 14:37 12.03.2020
1461 Clouds 22 1018 94 10000 2.1 80 14:18 12.03.2020
1462 Clouds 21 1018 94 10000 2.1 80 13:38 12.03.2020
1463 Clouds 21 1018 94 10000 2.1 80 13:20 12.03.2020
1464 Clouds 21 1017 83 10000 2.1 80 12:43 12.03.2020
1465 Clouds 21 1017 83 10000 2.1 80 12:24 12.03.2020
1466 Clouds 21 1017 83 0 2.1 90 11:59 12.03.2020
1467 Clouds 21 1017 83 0 2.1 90 11:59 12.03.2020
1468 Clouds 23 1017 80 0 6.6 71 11:39 12.03.2020
1469 Rain 21 1017 83 10000 2.1 80 11:21 12.03.2020
1470 Clouds 21 1017 83 10000 2.1 80 11:21 12.03.2020
1471 Rain 21 1017 83 10000 2.1 80 10:59 12.03.2020
1472 Rain 21 1017 83 10000 2.1 80 10:41 12.03.2020
1473 Rain 21 1017 83 10000 2.1 80 10:22 12.03.2020
1474 Clouds 21 1017 83 10000 2.1 100 09:48 12.03.2020
1475 Clouds 21 1017 83 10000 2.1 100 09:28 12.03.2020
1476 Clouds 21 1017 83 10000 2.1 100 09:28 12.03.2020
1477 Clouds 21 1017 83 10000 2.6 100 08:54 12.03.2020
1478 Clouds 21 1017 83 10000 2.6 100 08:36 12.03.2020
1479 Clouds 21 1017 83 10000 2.6 100 08:18 12.03.2020
1480 Clouds 22 1018 78 10000 2.6 80 07:45 12.03.2020
1481 Clouds 22 1018 78 10000 2.6 80 07:21 12.03.2020
1482 Rain 22 1020 78 10000 2.1 80 05:57 12.03.2020
1483 Rain 22 1020 78 10000 2.1 80 05:27 12.03.2020
1484 Clouds 22 1019 78 10000 3.6 100 02:43 12.03.2020
1485 Clouds 23 1019 73 10000 4.6 90 01:38 12.03.2020
1486 Clouds 23 1019 73 10000 4.6 90 01:20 12.03.2020
1487 Clouds 22 1019 69 10000 5.7 90 00:41 12.03.2020
1488 Clouds 22 1019 69 10000 5.7 90 00:41 12.03.2020
1489 Clouds 23 1019 64 10000 6.2 90 23:56 11.03.2020
1490 Clouds 23 1019 64 10000 6.2 90 23:26 11.03.2020
1491 Clouds 24 1019 61 10000 6.7 80 22:55 11.03.2020
1492 Clouds 24 1019 61 10000 6.7 80 22:37 11.03.2020
1493 Clouds 24 1019 61 10000 6.7 80 22:18 11.03.2020
1494 Clouds 24 1019 61 10000 5.7 90 21:41 11.03.2020
1495 Clouds 24 1020 65 10000 6.7 90 21:23 11.03.2020
1496 Clouds 24 1020 65 10000 6.7 90 21:23 11.03.2020
1497 Clouds 24 1020 65 10000 6.7 90 20:59 11.03.2020
1498 Clouds 25 1020 65 10000 6.7 90 20:40 11.03.2020
1499 Clouds 24 1020 65 10000 6.7 90 20:20 11.03.2020
1500 Clouds 24 1021 65 10000 7.2 90 19:58 11.03.2020
1501 Clouds 24 1021 65 10000 7.2 90 19:39 11.03.2020
1502 Clouds 24 1021 65 10000 7.2 90 19:21 11.03.2020
1503 Clouds 25 1021 61 10000 7.2 100 18:44 11.03.2020
1504 Clouds 25 1021 61 10000 7.2 100 18:25 11.03.2020
1505 Clouds 25 1022 61 10000 7.7 90 17:59 11.03.2020
1506 Rain 24 1021 76 0 2.24 80 17:39 11.03.2020
1507 Clouds 24 1022 61 10000 8.2 100 17:21 11.03.2020
1508 Clouds 24 1022 61 10000 8.2 100 16:47 11.03.2020
1509 Clouds 24 1022 61 10000 8.2 100 16:24 11.03.2020
1510 Clouds 24 1022 69 10000 6.7 90 15:59 11.03.2020
1511 Clouds 24 1022 69 10000 6.7 90 15:59 11.03.2020
1512 Clouds 24 1022 69 10000 6.7 90 15:41 11.03.2020
1513 Clouds 23 1021 73 10000 5.7 90 15:22 11.03.2020
1514 Clouds 23 1021 77 0 4.47 95 14:42 11.03.2020
1515 Clouds 22 1021 77 10000 3.1 90 14:23 11.03.2020
1516 Clouds 22 1021 77 10000 3.1 90 14:23 11.03.2020
1517 Clouds 22 1021 77 10000 3.1 90 13:56 11.03.2020
1518 Clouds 22 1021 77 10000 3.1 90 13:37 11.03.2020
1519 Clouds 22 1021 77 10000 3.1 90 13:19 11.03.2020
1520 Clouds 21 1021 83 10000 3.1 80 12:40 11.03.2020
1521 Clouds 21 1021 83 10000 3.1 80 12:20 11.03.2020
1522 Clouds 21 1021 83 10000 4.1 90 11:56 11.03.2020
1523 Clouds 21 1021 83 10000 4.1 90 11:37 11.03.2020
1524 Clouds 21 1021 83 10000 4.1 90 11:18 11.03.2020
1525 Clouds 21 1021 83 10000 3.6 80 10:42 11.03.2020
1526 Clouds 21 1021 83 10000 3.6 80 10:42 11.03.2020
1527 Clouds 21 1021 83 10000 3.6 80 10:18 11.03.2020
1528 Clouds 21 1021 83 10000 3.6 90 09:43 11.03.2020
1529 Clouds 21 1021 83 10000 3.6 90 09:25 11.03.2020
1530 Clouds 21 1022 83 10000 4.1 90 08:49 11.03.2020
1531 Clouds 21 1022 83 10000 4.1 90 08:49 11.03.2020
1532 Clouds 21 1022 83 10000 4.1 90 08:31 11.03.2020
1533 Clouds 21 1022 83 10000 4.1 90 07:59 11.03.2020
1534 Clouds 21 1022 83 10000 4.1 90 07:38 11.03.2020
1535 Clouds 21 1022 83 10000 4.1 90 07:18 11.03.2020
1536 Clouds 21 1023 83 10000 4.1 90 06:37 11.03.2020
1537 Clouds 22 1024 78 10000 4.1 90 05:35 11.03.2020
1538 Clear 22 1023 78 0 1.79 53 04:18 11.03.2020
1539 Clear 22 1024 78 0 3.58 78 02:19 11.03.2020
1540 Clouds 23 1024 64 10000 6.7 100 01:27 11.03.2020
1541 Clouds 23 1024 64 10000 6.7 100 00:45 11.03.2020
1542 Clouds 23 1024 60 10000 6.7 100 23:57 10.03.2020
1543 Clouds 23 1024 60 10000 6.7 100 23:39 10.03.2020
1544 Clouds 23 1024 60 10000 6.7 100 23:20 10.03.2020
1545 Clouds 23 1023 60 10000 7.2 100 22:38 10.03.2020
1546 Clouds 24 1023 60 10000 7.2 100 22:20 10.03.2020
1547 Clouds 24 1024 64 10000 7.7 80 21:57 10.03.2020
1548 Clouds 24 1024 64 10000 7.7 80 21:38 10.03.2020
1549 Clouds 24 1024 64 10000 7.7 80 21:38 10.03.2020
1550 Clouds 24 1025 54 10000 8.7 100 21:20 10.03.2020
1551 Clouds 25 1025 54 10000 8.7 100 20:58 10.03.2020
1552 Clouds 25 1025 54 10000 8.7 100 20:40 10.03.2020
1553 Clouds 24 1025 57 10000 8.7 90 20:18 10.03.2020
1554 Clouds 24 1025 57 10000 8.7 90 19:56 10.03.2020
1555 Clouds 24 1025 57 10000 8.7 90 19:36 10.03.2020
1556 Clouds 24 1025 57 10000 8.7 90 19:18 10.03.2020
1557 Clouds 24 1026 57 10000 9.3 90 18:43 10.03.2020
1558 Clouds 24 1026 57 10000 9.3 90 18:25 10.03.2020
1559 Clouds 24 1027 50 10000 8.7 90 17:57 10.03.2020
1560 Clouds 24 1027 50 10000 8.7 90 17:38 10.03.2020
1561 Clouds 24 1027 50 10000 8.7 90 17:20 10.03.2020
1562 Clouds 24 1027 61 10000 8.2 90 16:38 10.03.2020
1563 Clouds 24 1027 61 10000 8.2 90 16:18 10.03.2020
1564 Clouds 24 1027 60 10000 8.7 100 15:55 10.03.2020
1565 Clouds 24 1027 60 10000 8.7 100 15:36 10.03.2020
1566 Clouds 23 1027 60 10000 8.7 100 15:18 10.03.2020
1567 Clouds 22 1027 64 10000 7.2 90 14:40 10.03.2020
1568 Clouds 22 1026 73 10000 5.7 90 14:19 10.03.2020
1569 Clouds 22 1026 73 10000 5.7 90 13:45 10.03.2020
1570 Clouds 22 1026 73 10000 5.7 90 13:45 10.03.2020
1571 Clouds 22 1026 73 10000 5.7 90 13:27 10.03.2020
1572 Clouds 22 1026 68 10000 6.7 90 12:59 10.03.2020
1573 Clouds 22 1026 68 10000 6.7 90 12:39 10.03.2020
1574 Clouds 22 1026 68 10000 6.7 90 12:18 10.03.2020
1575 Clouds 22 1026 68 10000 6.2 100 11:43 10.03.2020
1576 Clouds 22 1026 68 10000 6.2 100 11:24 10.03.2020
1577 Clouds 21 1026 68 10000 10.91 86 10:58 10.03.2020
1578 Clouds 21 1026 68 10000 10.91 86 10:40 10.03.2020
1579 Clouds 21 1026 68 10000 10.91 86 10:21 10.03.2020
1580 Rain 21 1025 79 0 4.02 71 09:56 10.03.2020
1581 Rain 21 1025 79 0 4.02 71 09:37 10.03.2020
1582 Rain 21 1025 79 0 4.02 71 09:18 10.03.2020
1583 Rain 21 1025 76 0 4.47 80 08:43 10.03.2020
1584 Clouds 21 1027 68 10000 7.7 100 08:25 10.03.2020
1585 Clouds 22 1027 68 10000 7.7 100 07:46 10.03.2020
1586 Clouds 22 1027 68 10000 7.7 100 07:28 10.03.2020
1587 Clouds 22 1027 68 10000 7.7 100 06:38 10.03.2020
1588 Clouds 22 1028 68 10000 6.7 100 05:58 10.03.2020
1589 Clouds 22 1028 68 10000 6.7 100 05:38 10.03.2020
1590 Clouds 21 1028 73 10000 6.2 110 04:33 10.03.2020
1591 Clouds 21 1028 73 10000 6.7 90 03:31 10.03.2020
1592 Clouds 21 1028 68 10000 8.7 90 01:43 10.03.2020
1593 Clouds 21 1028 73 10000 8.7 100 00:52 10.03.2020
1594 Clouds 21 1028 73 10000 8.7 100 00:29 10.03.2020
1595 Clouds 22 1027 68 10000 10.3 100 23:55 09.03.2020
1596 Clouds 22 1027 68 10000 10.3 100 23:36 09.03.2020
1597 Clouds 22 1027 68 10000 10.3 100 23:18 09.03.2020
1598 Clouds 22 1027 64 10000 9.3 100 22:38 09.03.2020
1599 Clouds 22 1027 64 10000 9.3 100 22:20 09.03.2020
1600 Clouds 23 1028 56 10000 10.8 100 21:45 09.03.2020
1601 Clouds 23 1028 56 10000 10.8 100 21:22 09.03.2020
1602 Clouds 23 1028 53 10000 11.8 90 20:59 09.03.2020
1603 Clouds 23 1028 53 10000 11.8 90 20:41 09.03.2020
1604 Clouds 23 1029 50 10000 11.3 100 20:22 09.03.2020
1605 Clouds 23 1029 50 10000 11.3 100 19:59 09.03.2020
1606 Clouds 23 1029 50 10000 11.3 100 19:59 09.03.2020
1607 Clouds 23 1029 50 10000 11.3 100 19:41 09.03.2020
1608 Clouds 23 1029 50 10000 11.3 100 19:18 09.03.2020
1609 Clouds 23 1028 67 0 5.36 68 18:56 09.03.2020
1610 Clouds 23 1029 65 0 4.92 104 18:37 09.03.2020
1611 Clouds 24 1031 50 10000 10.8 100 18:18 09.03.2020
1612 Clouds 24 1031 50 10000 10.8 100 17:55 09.03.2020
1613 Clouds 23 1031 50 10000 10.8 100 17:37 09.03.2020
1614 Clouds 23 1031 50 10000 10.8 100 17:19 09.03.2020
1615 Clouds 22 1031 56 10000 10.3 100 16:42 09.03.2020
1616 Clouds 22 1031 60 10000 9.3 90 16:22 09.03.2020
1617 Clouds 22 1031 60 10000 9.3 90 15:59 09.03.2020
1618 Clouds 22 1031 60 10000 9.3 90 15:40 09.03.2020
1619 Clouds 22 1031 60 10000 9.3 90 15:22 09.03.2020
1620 Clouds 22 1031 60 10000 9.3 90 15:21 09.03.2020
1621 Clouds 21 1030 60 10000 8.7 100 14:59 09.03.2020
1622 Clouds 21 1030 60 10000 8.7 100 14:38 09.03.2020
1623 Clouds 21 1030 60 10000 8.7 100 14:20 09.03.2020
1624 Clouds 21 1029 56 10000 9.3 90 13:58 09.03.2020
1625 Rain 21 1029 73 0 6.26 55 13:39 09.03.2020
1626 Rain 21 1029 73 0 6.26 55 13:39 09.03.2020
1627 Clouds 21 1028 100 10000 8.7 100 13:20 09.03.2020
1628 Clouds 21 1028 100 10000 8.7 100 12:43 09.03.2020
1629 Clouds 21 1028 100 10000 8.7 100 12:23 09.03.2020
1630 Rain 21 1029 70 0 14.15 80 11:58 09.03.2020
1631 Rain 21 1029 70 0 14.15 80 11:38 09.03.2020
1632 Rain 21 1029 70 0 14.15 80 11:38 09.03.2020
1633 Clouds 20 1028 64 10000 6.7 100 11:19 09.03.2020
1634 Clouds 20 1028 64 10000 6.7 100 10:55 09.03.2020
1635 Clouds 20 1028 64 10000 6.7 100 10:36 09.03.2020
1636 Clouds 20 1028 64 10000 6.7 100 10:18 09.03.2020
1637 Clouds 20 1028 60 10000 8.2 90 09:40 09.03.2020
1638 Clouds 20 1028 56 10000 7.7 100 09:21 09.03.2020
1639 Clouds 21 1028 56 10000 7.7 100 08:44 09.03.2020
1640 Clouds 21 1028 56 10000 7.7 100 08:26 09.03.2020
1641 Clouds 21 1028 56 10000 8.2 90 07:42 09.03.2020
1642 Clouds 21 1028 56 10000 8.2 90 07:22 09.03.2020
1643 Clouds 21 1028 56 10000 8.2 90 07:22 09.03.2020
1644 Clouds 21 1028 56 10000 7.7 90 06:46 09.03.2020
1645 Clouds 21 1028 56 10000 7.7 90 06:27 09.03.2020
1646 Clouds 21 1029 56 10000 7.7 90 05:57 09.03.2020
1647 Rain 21 1027 69 0 6.26 53 05:39 09.03.2020
1648 Clouds 21 1029 49 10000 7.7 90 04:43 09.03.2020
1649 Clouds 21 1029 52 10000 7.7 100 04:22 09.03.2020
1650 Clouds 21 1029 52 10000 7.7 100 03:28 09.03.2020
1651 Clouds 21 1028 52 10000 7.2 80 01:50 09.03.2020
1652 Clouds 21 1027 52 10000 8.2 90 00:39 09.03.2020
1653 Clouds 21 1027 52 10000 8.2 90 00:21 09.03.2020
1654 Clouds 20 1027 49 10000 8.2 80 23:52 08.03.2020
1655 Clouds 21 1028 40 10000 8.7 90 23:25 08.03.2020
1656 Clouds 21 1028 40 10000 8.7 90 22:58 08.03.2020
1657 Clouds 21 1028 40 10000 8.7 90 22:38 08.03.2020
1658 Clouds 21 1028 40 10000 8.7 90 22:20 08.03.2020
1659 Clouds 21 1028 46 10000 8.7 70 21:54 08.03.2020
1660 Clouds 21 1028 46 10000 8.7 70 21:54 08.03.2020
1661 Clouds 21 1028 46 10000 8.7 70 21:54 08.03.2020
1662 Clouds 21 1028 46 10000 8.7 70 21:36 08.03.2020
1663 Clouds 21 1028 46 10000 8.7 70 21:36 08.03.2020
1664 Clouds 21 1028 46 10000 8.7 70 21:36 08.03.2020
1665 Clouds 21 1028 46 10000 8.7 70 21:18 08.03.2020
1666 Clouds 22 1028 40 10000 8.7 80 20:39 08.03.2020
1667 Clouds 22 1028 40 10000 8.7 80 20:21 08.03.2020
1668 Clouds 22 1028 40 10000 8.7 80 20:21 08.03.2020
1669 Clouds 21 1029 46 10000 8.2 90 19:56 08.03.2020
1670 Clouds 21 1029 46 10000 8.2 90 19:37 08.03.2020
1671 Clouds 21 1029 40 10000 9.8 70 19:18 08.03.2020
1672 Clouds 22 1029 40 10000 9.8 70 18:41 08.03.2020
1673 Clouds 21 1029 52 10000 8.2 80 18:23 08.03.2020
1674 Clouds 21 1028 55 0 7.15 77 17:56 08.03.2020
1675 Clouds 21 1028 55 0 7.15 77 17:56 08.03.2020
1676 Clouds 21 1028 60 0 7.15 43 17:37 08.03.2020
1677 Clouds 21 1029 43 10000 9.3 70 17:18 08.03.2020
1678 Clouds 21 1029 43 10000 9.3 70 16:43 08.03.2020
1679 Clouds 21 1029 43 10000 9.3 70 16:25 08.03.2020
1680 Clouds 21 1029 43 10000 9.3 70 15:56 08.03.2020
1681 Clouds 21 1029 43 10000 9.3 70 15:37 08.03.2020
1682 Clouds 21 1029 43 10000 9.3 70 15:37 08.03.2020
1683 Clouds 20 1017 45 10000 8.2 70 15:18 08.03.2020
1684 Clouds 20 1017 45 10000 8.2 70 14:40 08.03.2020
1685 Clouds 19 1027 63 0 6.71 41 14:21 08.03.2020
1686 Rain 19 1027 61 0 7.15 56 13:55 08.03.2020
1687 Rain 19 1027 65 0 5.36 53 13:36 08.03.2020
1688 Clouds 20 1025 49 10000 8.7 70 13:18 08.03.2020
1689 Clouds 20 1025 49 10000 8.7 70 12:38 08.03.2020
1690 Clouds 20 1025 49 10000 8.7 70 12:18 08.03.2020
1691 Clouds 20 1025 52 10000 8.2 60 11:44 08.03.2020
1692 Clouds 19 1025 52 10000 8.2 50 11:24 08.03.2020
1693 Clouds 19 1025 52 10000 8.2 50 10:58 08.03.2020
1694 Clouds 19 1025 52 10000 8.2 50 10:40 08.03.2020
1695 Clouds 19 1025 52 10000 8.2 50 10:21 08.03.2020
1696 Clouds 19 1025 52 10000 8.7 60 09:40 08.03.2020
1697 Clouds 19 1025 52 10000 8.2 70 09:22 08.03.2020
1698 Clouds 19 1025 52 10000 8.2 70 08:48 08.03.2020
1699 Clouds 19 1025 52 10000 8.2 70 08:22 08.03.2020
1700 Clouds 19 1025 48 10000 7.7 60 07:49 08.03.2020
1701 Clouds 19 1025 48 10000 7.7 60 07:28 08.03.2020
1702 Clouds 20 1025 49 10000 7.7 60 06:46 08.03.2020
1703 Clouds 20 1025 49 10000 7.7 60 06:27 08.03.2020
1704 Clouds 19 1026 49 10000 8.2 50 05:47 08.03.2020
1705 Clouds 20 1025 52 10000 9.3 50 03:52 08.03.2020
1706 Clouds 20 1024 52 10000 9.8 40 02:59 08.03.2020
1707 Clouds 20 1024 60 10000 9.8 50 01:38 08.03.2020
1708 Clouds 20 1023 65 0 8.05 18 01:19 08.03.2020
1709 Clouds 20 1022 66 0 6.26 38 00:32 08.03.2020
1710 Clouds 20 1022 52 10000 8.7 50 23:58 07.03.2020
1711 Clouds 20 1021 63 0 8.49 50 23:37 07.03.2020
1712 Clouds 20 1021 66 0 5.81 36 23:18 07.03.2020
1713 Clouds 21 1021 65 0 8.05 63 22:38 07.03.2020
1714 Clouds 21 1020 66 0 8.05 16 22:19 07.03.2020
1715 Clouds 21 1020 66 0 8.05 16 22:19 07.03.2020
1716 Clouds 22 1021 56 10000 8.7 20 21:45 07.03.2020
1717 Clouds 21 1021 56 10000 8.7 20 21:23 07.03.2020
1718 Clouds 21 1022 52 10000 8.2 20 20:41 07.03.2020
1719 Clouds 21 1022 52 10000 8.2 20 20:22 07.03.2020
1720 Clouds 21 1020 69 0 7.15 5 19:54 07.03.2020
1721 Clouds 21 1021 66 0 7.15 44 19:36 07.03.2020
1722 Clouds 21 1023 49 10000 6.2 30 19:18 07.03.2020
1723 Clouds 22 1023 49 10000 6.2 30 18:39 07.03.2020
1724 Clouds 22 1023 49 10000 6.2 30 18:21 07.03.2020
1725 Clouds 22 1023 53 10000 8.2 20 17:42 07.03.2020
1726 Clouds 22 1023 53 10000 8.2 20 17:20 07.03.2020
1727 Clouds 22 1022 53 10000 7.2 30 16:57 07.03.2020
1728 Clouds 21 1022 65 0 7.15 18 16:39 07.03.2020
1729 Clouds 21 1022 56 10000 7.2 30 16:21 07.03.2020
1730 Clouds 21 1022 56 10000 7.2 30 16:21 07.03.2020
1731 Clouds 21 1022 56 10000 7.2 30 15:55 07.03.2020
1732 Clouds 21 1022 56 10000 7.2 30 15:37 07.03.2020
1733 Clouds 21 1022 56 10000 7.2 30 15:19 07.03.2020
1734 Clouds 21 1020 56 10000 6.7 20 14:42 07.03.2020
1735 Clouds 21 1020 56 10000 6.7 20 14:23 07.03.2020
1736 Clouds 21 1020 56 10000 7.2 20 13:44 07.03.2020
1737 Clouds 21 1020 56 10000 7.2 20 13:22 07.03.2020
1738 Clouds 21 1019 56 10000 6.7 20 12:59 07.03.2020
1739 Clouds 21 1019 56 10000 6.7 20 12:39 07.03.2020
1740 Clouds 21 1019 56 10000 6.7 20 12:19 07.03.2020
1741 Clouds 21 1018 56 10000 7.7 20 11:44 07.03.2020
1742 Clouds 21 1018 56 10000 7.7 20 11:25 07.03.2020
1743 Clouds 21 1018 60 10000 6.7 20 10:59 07.03.2020
1744 Clouds 21 1018 60 10000 6.7 20 10:38 07.03.2020
1745 Clouds 21 1018 60 10000 6.7 20 10:19 07.03.2020
1746 Clouds 21 1018 60 10000 7.7 20 09:41 07.03.2020
1747 Clouds 21 1018 60 10000 7.7 20 09:20 07.03.2020
1748 Clouds 21 1019 68 10000 7.2 20 08:58 07.03.2020
1749 Clouds 21 1019 68 10000 7.2 20 08:40 07.03.2020
1750 Clouds 21 1019 68 10000 7.2 20 08:20 07.03.2020
1751 Clouds 22 1019 68 10000 6.7 20 07:47 07.03.2020
1752 Clouds 22 1017 74 0 4.92 350 07:21 07.03.2020
1753 Clouds 22 1018 74 0 5.36 355 06:43 07.03.2020
1754 Clouds 22 1018 75 0 4.02 4 06:25 07.03.2020
1755 Clouds 22 1018 75 0 4.02 4 06:25 07.03.2020
1756 Clouds 23 1017 76 0 4.47 1 05:40 07.03.2020
1757 Clouds 24 1018 73 10000 6.2 10 03:47 07.03.2020
1758 Clear 24 1017 74 0 10.51 5 02:44 07.03.2020
1759 Clouds 24 1017 78 10000 5.1 330 01:56 07.03.2020
1760 Rain 25 1016 75 0 0.89 250 00:58 07.03.2020
1761 Clouds 26 1016 69 10000 6.2 300 00:24 07.03.2020
1762 Clouds 26 1016 69 10000 6.2 300 23:59 06.03.2020
1763 Clouds 26 1016 69 10000 6.2 300 23:40 06.03.2020
1764 Clouds 26 1016 69 10000 6.2 300 23:22 06.03.2020
1765 Clouds 28 1016 66 10000 7.7 310 22:44 06.03.2020
1766 Clouds 29 1017 62 10000 5.1 290 22:20 06.03.2020
1767 Clouds 29 1017 62 10000 5.1 290 21:47 06.03.2020
1768 Clouds 29 1017 62 10000 5.1 290 21:20 06.03.2020
1769 Clouds 28 1017 66 10000 5.7 230 20:44 06.03.2020
1770 Clouds 29 1017 66 10000 5.7 230 20:23 06.03.2020
1771 Clouds 29 1017 70 10000 6.2 220 19:57 06.03.2020
1772 Clouds 29 1017 70 10000 6.2 220 19:39 06.03.2020
1773 Clouds 29 1017 70 10000 6.2 220 19:20 06.03.2020
1774 Clouds 28 1018 74 10000 6.2 210 18:42 06.03.2020
1775 Clouds 28 1018 74 10000 6.2 210 18:20 06.03.2020
1776 Clouds 27 1019 78 10000 5.7 220 17:56 06.03.2020
1777 Clouds 27 1019 78 10000 5.7 220 17:38 06.03.2020
1778 Clouds 27 1019 74 10000 5.1 230 17:20 06.03.2020
1779 Clouds 27 1019 74 10000 5.1 230 16:43 06.03.2020
1780 Clouds 27 1019 74 10000 5.1 230 16:21 06.03.2020
1781 Clouds 27 1020 83 10000 5.1 230 15:58 06.03.2020
1782 Clouds 26 1020 83 10000 5.1 230 15:40 06.03.2020
1783 Clouds 26 1020 83 10000 5.1 230 15:20 06.03.2020
1784 Clouds 25 1019 88 10000 3.6 230 14:40 06.03.2020
1785 Clouds 25 1019 88 10000 3.6 230 14:21 06.03.2020
1786 Clouds 24 1019 94 10000 2.6 220 13:43 06.03.2020
1787 Clouds 24 1019 94 10000 2.6 220 13:23 06.03.2020
1788 Clouds 24 1018 88 0 6.67 216 12:58 06.03.2020
1789 Clouds 24 1018 88 0 6.67 216 12:38 06.03.2020
1790 Clouds 24 1018 94 10000 2.6 280 12:20 06.03.2020
1791 Clouds 24 1018 94 10000 2.6 280 11:57 06.03.2020
1792 Clouds 24 1018 94 10000 2.6 280 11:39 06.03.2020
1793 Clouds 24 1018 94 10000 2.6 280 11:20 06.03.2020
1794 Clouds 24 1018 94 10000 3.1 220 10:39 06.03.2020
1795 Clouds 24 1018 94 10000 3.1 220 10:21 06.03.2020
1796 Clouds 23 1016 53 0 6.34 208 09:55 06.03.2020
1797 Clouds 23 1016 53 0 6.34 208 09:55 06.03.2020
1798 Clouds 23 1016 53 0 6.34 208 09:37 06.03.2020
1799 Clouds 23 1016 53 0 6.34 208 09:19 06.03.2020
1800 Clouds 24 1016 53 0 6.34 208 08:43 06.03.2020
1801 Clouds 24 1017 53 0 6.6 209 08:25 06.03.2020
1802 Clouds 24 1017 53 0 6.94 169 07:57 06.03.2020
1803 Clouds 24 1017 54 0 6.94 169 07:37 06.03.2020
1804 Clouds 23 1017 55 0 6.94 169 06:58 06.03.2020
1805 Clouds 23 1017 55 0 6.94 169 06:39 06.03.2020
1806 Clouds 24 1019 94 10000 4.6 190 05:42 06.03.2020
1807 Clouds 24 1019 94 10000 4.6 190 05:24 06.03.2020
1808 Clouds 24 1019 94 10000 4.1 180 04:57 06.03.2020
1809 Clouds 24 1019 88 10000 3.6 180 01:59 06.03.2020
1810 Clouds 25 1019 88 10000 3.6 180 01:39 06.03.2020
1811 Clouds 25 1019 88 10000 3.6 180 01:19 06.03.2020
1812 Clouds 25 1018 88 10000 4.6 180 00:32 06.03.2020
1813 Clouds 26 1018 83 10000 5.7 170 23:50 05.03.2020
1814 Clouds 26 1018 78 10000 6.2 190 23:29 05.03.2020
1815 Clouds 27 1018 78 10000 6.2 190 22:57 05.03.2020
1816 Clouds 27 1018 78 10000 6.2 190 22:38 05.03.2020
1817 Clouds 27 1018 78 10000 6.2 190 22:20 05.03.2020
1818 Clouds 28 1018 74 10000 6.2 190 21:56 05.03.2020
1819 Clouds 28 1018 74 10000 6.2 190 21:38 05.03.2020
1820 Clouds 28 1018 74 10000 6.2 190 21:19 05.03.2020
1821 Clouds 28 1019 74 10000 5.7 180 20:55 05.03.2020
1822 Clouds 28 1019 74 10000 5.7 180 20:37 05.03.2020
1823 Clouds 28 1019 74 10000 5.7 180 20:37 05.03.2020
1824 Clouds 28 1019 74 10000 5.7 180 20:18 05.03.2020
1825 Clouds 29 1019 74 10000 6.2 180 19:55 05.03.2020
1826 Clouds 29 1019 74 10000 6.2 180 19:37 05.03.2020
1827 Clouds 29 1019 74 10000 6.2 180 19:18 05.03.2020
1828 Clouds 29 1019 74 10000 6.2 180 19:18 05.03.2020
1829 Clouds 28 1020 74 10000 6.2 190 18:38 05.03.2020
1830 Clouds 28 1020 74 10000 6.2 190 18:19 05.03.2020
1831 Clouds 27 1021 78 10000 6.2 180 17:59 05.03.2020
1832 Clouds 27 1021 78 10000 6.2 180 17:40 05.03.2020
1833 Clouds 27 1021 78 10000 6.2 180 17:21 05.03.2020
1834 Clouds 27 1021 78 10000 7.2 190 16:43 05.03.2020
1835 Clouds 27 1021 78 10000 7.2 190 16:25 05.03.2020
1836 Clouds 27 1020 88 10000 5.7 170 15:59 05.03.2020
1837 Clouds 26 1020 88 10000 5.7 170 15:40 05.03.2020
1838 Clouds 26 1020 88 10000 5.7 170 15:21 05.03.2020
1839 Clouds 26 1019 72 0 5.98 168 14:54 05.03.2020
1840 Clouds 26 1019 69 0 5.98 168 14:36 05.03.2020
1841 Clouds 24 1019 94 10000 2.6 140 14:18 05.03.2020
1842 Clouds 23 1019 94 10000 2.6 140 13:41 05.03.2020
1843 Clouds 23 1019 94 10000 3.1 160 13:21 05.03.2020
1844 Clouds 23 1019 94 10000 3.1 160 13:21 05.03.2020
1845 Clouds 23 1019 94 10000 3.1 160 12:56 05.03.2020
1846 Clouds 23 1019 94 10000 3.1 160 12:38 05.03.2020
1847 Clouds 23 1019 94 10000 3.1 160 12:38 05.03.2020
1848 Clouds 23 1019 94 10000 3.1 160 12:18 05.03.2020
1849 Clouds 23 1018 94 10000 3.6 150 11:56 05.03.2020
1850 Clouds 23 1018 94 10000 3.6 150 11:56 05.03.2020
1851 Clouds 23 1018 94 10000 3.6 150 11:37 05.03.2020
1852 Clouds 23 1018 94 10000 3.6 150 11:18 05.03.2020
1853 Clouds 23 1018 94 10000 3.1 160 10:55 05.03.2020
1854 Clouds 23 1018 94 10000 3.1 160 10:37 05.03.2020
1855 Clouds 23 1018 94 10000 3.1 160 10:19 05.03.2020
1856 Clear 23 1017 60 0 5.67 153 09:41 05.03.2020
1857 Clouds 23 1019 94 10000 4.6 170 09:22 05.03.2020
1858 Clouds 23 1019 94 10000 4.6 170 08:43 05.03.2020
1859 Clouds 23 1019 94 10000 4.6 170 08:25 05.03.2020
1860 Clouds 23 1019 94 10000 4.1 170 07:46 05.03.2020
1861 Clouds 22 1019 100 10000 2.6 160 07:22 05.03.2020
1862 Clouds 22 1019 100 10000 2.6 160 06:46 05.03.2020
1863 Clouds 22 1019 100 10000 2.6 160 06:21 05.03.2020
1864 Clouds 23 1019 94 10000 3.1 140 05:38 05.03.2020
1865 Clouds 23 1019 94 10000 2.6 150 04:26 05.03.2020
1866 Clouds 23 1019 94 10000 2.6 160 03:59 05.03.2020
1867 Clouds 23 1019 94 10000 2.6 160 03:18 05.03.2020
1868 Clouds 24 1018 88 10000 5.7 160 01:28 05.03.2020
1869 Clouds 24 1018 88 10000 5.7 160 00:58 05.03.2020
1870 Clouds 25 1018 78 10000 6.2 170 23:59 04.03.2020
1871 Clouds 26 1018 78 10000 6.2 170 23:40 04.03.2020
1872 Clouds 26 1018 78 10000 6.2 170 23:22 04.03.2020
1873 Clouds 27 1017 74 10000 7.7 150 22:57 04.03.2020
1874 Clouds 27 1017 74 10000 7.7 150 22:37 04.03.2020
1875 Clouds 27 1017 74 10000 7.7 150 22:19 04.03.2020
1876 Clouds 27 1017 69 10000 8.2 160 21:56 04.03.2020
1877 Clear 27 1016 76 0 0.45 152 21:37 04.03.2020
1878 Clouds 27 1017 69 10000 8.2 170 21:18 04.03.2020
1879 Clouds 27 1017 69 10000 8.2 170 20:40 04.03.2020
1880 Clouds 27 1018 69 10000 8.7 170 20:22 04.03.2020
1881 Clouds 27 1018 69 10000 8.7 170 19:58 04.03.2020
1882 Clouds 27 1018 69 10000 8.7 170 19:58 04.03.2020
1883 Clouds 27 1018 69 10000 8.7 170 19:39 04.03.2020
1884 Clouds 27 1018 69 10000 8.7 170 19:21 04.03.2020
1885 Clouds 27 1019 74 10000 8.2 170 18:42 04.03.2020
1886 Clouds 27 1019 74 10000 8.2 170 18:24 04.03.2020
1887 Clouds 27 1020 69 10000 7.2 170 17:59 04.03.2020
1888 Clouds 27 1020 69 10000 7.2 170 17:39 04.03.2020
1889 Clouds 27 1020 69 10000 7.2 170 17:20 04.03.2020
1890 Clouds 27 1020 74 10000 7.2 160 16:56 04.03.2020
1891 Clouds 27 1020 74 10000 7.2 160 16:37 04.03.2020
1892 Clouds 26 1020 74 10000 7.2 160 16:19 04.03.2020
1893 Clouds 26 1020 78 10000 7.2 170 15:44 04.03.2020
1894 Clouds 26 1020 78 10000 7.2 170 15:26 04.03.2020
1895 Clouds 25 1020 88 10000 5.1 160 14:58 04.03.2020
1896 Clouds 24 1020 88 10000 5.1 160 14:39 04.03.2020
1897 Clouds 24 1020 88 10000 5.1 160 14:19 04.03.2020
1898 Clouds 22 1019 94 10000 2.6 150 13:58 04.03.2020
1899 Clouds 22 1019 94 10000 2.6 150 13:39 04.03.2020
1900 Clouds 22 1019 94 10000 2.6 150 13:20 04.03.2020
1901 Clouds 22 1019 94 10000 2.6 130 12:55 04.03.2020
1902 Clouds 22 1019 94 10000 2.6 130 12:55 04.03.2020
1903 Clouds 22 1019 94 10000 2.6 130 12:37 04.03.2020
1904 Clouds 22 1019 94 10000 2.6 130 12:19 04.03.2020
1905 Clouds 21 1019 94 10000 2.1 160 11:42 04.03.2020
1906 Clouds 21 1019 94 10000 2.1 160 11:23 04.03.2020
1907 Clear 24 1018 85 0 6.59 157 10:58 04.03.2020
1908 Clear 22 1017 68 0 6.59 157 10:40 04.03.2020
1909 Clear 22 1017 68 0 6.59 157 10:19 04.03.2020
1910 Clear 22 1017 68 0 6.59 157 09:43 04.03.2020
1911 Clear 22 1017 68 0 6.59 157 09:21 04.03.2020
1912 Clear 22 1017 68 0 6.59 157 08:47 04.03.2020
1913 Clear 22 1017 68 0 6.59 157 08:27 04.03.2020
1914 Clouds 22 1017 69 0 6.91 148 07:56 04.03.2020
1915 Clouds 22 1017 69 0 6.91 148 07:37 04.03.2020
1916 Clouds 22 1017 70 0 6.91 148 07:18 04.03.2020
1917 Clouds 22 1018 70 0 6.91 148 06:43 04.03.2020
1918 Clouds 22 1019 88 10000 4.6 170 06:23 04.03.2020
1919 Clouds 22 1019 88 10000 4.6 170 05:48 04.03.2020
1920 Clouds 22 1019 88 10000 4.1 170 04:23 04.03.2020
1921 Clouds 22 1019 88 10000 4.1 160 03:40 04.03.2020
1922 Clouds 22 1019 88 10000 4.1 160 03:21 04.03.2020
1923 Clouds 23 1019 83 10000 4.1 170 02:53 04.03.2020
1924 Clouds 23 1019 83 10000 4.1 170 02:19 04.03.2020
1925 Clouds 23 1019 83 10000 4.6 170 01:52 04.03.2020
1926 Clouds 23 1018 78 10000 6.2 170 00:49 04.03.2020
1927 Clouds 24 1018 78 10000 6.2 170 00:25 04.03.2020
1928 Clouds 25 1018 73 10000 7.2 170 23:46 03.03.2020
1929 Clouds 25 1018 73 10000 7.2 170 23:27 03.03.2020
1930 Clouds 25 1018 73 10000 7.2 170 23:27 03.03.2020
1931 Clouds 25 1018 69 10000 8.2 170 22:57 03.03.2020
1932 Clouds 26 1017 74 0 6.62 142 22:39 03.03.2020
1933 Clouds 25 1018 69 10000 7.2 170 22:19 03.03.2020
1934 Clouds 26 1018 69 10000 7.2 170 21:56 03.03.2020
1935 Clouds 26 1018 69 10000 7.2 170 21:36 03.03.2020
1936 Clouds 26 1018 69 10000 7.2 170 21:18 03.03.2020
1937 Clouds 26 1018 69 10000 6.7 170 20:40 03.03.2020
1938 Clouds 26 1018 69 10000 6.7 170 20:20 03.03.2020
1939 Clouds 26 1019 65 10000 6.2 170 19:58 03.03.2020
1940 Clouds 26 1019 65 10000 6.2 170 19:37 03.03.2020
1941 Clouds 26 1019 65 10000 6.2 170 19:19 03.03.2020
1942 Clouds 26 1020 65 10000 6.7 150 18:58 03.03.2020
1943 Clouds 26 1020 65 10000 6.7 150 18:40 03.03.2020
1944 Clouds 26 1020 65 10000 6.7 150 18:20 03.03.2020
1945 Clouds 26 1020 65 10000 7.2 160 17:55 03.03.2020
1946 Clouds 26 1020 65 10000 7.2 160 17:37 03.03.2020
1947 Clouds 26 1020 65 10000 7.2 160 17:19 03.03.2020
1948 Clouds 26 1020 65 10000 5.1 160 16:55 03.03.2020
1949 Clouds 26 1020 65 10000 5.1 160 16:36 03.03.2020
1950 Clouds 26 1020 65 10000 5.1 160 16:18 03.03.2020
1951 Clouds 26 1020 65 10000 5.1 160 16:18 03.03.2020
1952 Clouds 25 1021 69 10000 4.6 160 15:43 03.03.2020
1953 Clouds 25 1021 69 10000 4.6 160 15:21 03.03.2020
1954 Clouds 24 1020 83 10000 2.1 150 14:55 03.03.2020
1955 Clouds 24 1020 83 10000 2.1 150 14:37 03.03.2020
1956 Clouds 23 1020 83 10000 2.1 150 14:18 03.03.2020
1957 Clouds 19 1020 93 10000 6.99 120 13:42 03.03.2020
1958 Clouds 19 1020 93 10000 6.99 120 13:24 03.03.2020
1959 Clouds 17 1019 93 10000 0.5 0 12:55 03.03.2020
1960 Clouds 17 1019 93 10000 0.5 0 12:37 03.03.2020
1961 Clouds 17 1019 93 10000 0.5 0 12:18 03.03.2020
1962 Clouds 18 1019 88 10000 0.5 0 11:39 03.03.2020
1963 Clouds 18 1019 88 10000 0.5 0 11:20 03.03.2020
1964 Clouds 19 1019 88 10000 2.1 150 10:58 03.03.2020
1965 Clouds 19 1019 88 10000 2.1 150 10:39 03.03.2020
1966 Clouds 20 1019 88 10000 2.1 150 10:20 03.03.2020
1967 Clouds 19 1019 88 10000 1 0 09:59 03.03.2020
1968 Clouds 19 1019 88 10000 1 0 09:40 03.03.2020
1969 Clouds 19 1019 88 10000 1 0 09:19 03.03.2020
1970 Clouds 21 1020 82 10000 1 0 08:41 03.03.2020
1971 Clouds 21 1020 82 10000 1 0 08:22 03.03.2020
1972 Clouds 21 1020 77 10000 3.1 110 07:45 03.03.2020
1973 Clouds 21 1020 77 10000 3.1 110 07:24 03.03.2020
1974 Clouds 21 1021 77 10000 3.6 120 06:59 03.03.2020
1975 Clouds 21 1021 77 10000 3.6 120 06:39 03.03.2020
1976 Clouds 21 1021 77 10000 3.6 120 06:18 03.03.2020
1977 Clouds 22 1021 73 10000 4.1 120 05:39 03.03.2020
1978 Clouds 21 1021 73 10000 3.6 120 04:48 03.03.2020
1979 Clouds 21 1021 73 10000 5.1 140 02:37 03.03.2020
1980 Clouds 21 1021 73 10000 5.1 120 01:21 03.03.2020
1981 Clouds 22 1021 68 10000 5.1 110 00:40 03.03.2020
1982 Clouds 22 1021 68 10000 5.1 110 00:20 03.03.2020
1983 Clouds 23 1020 60 10000 7.2 110 23:46 02.03.2020
1984 Clouds 23 1020 60 10000 7.2 110 23:23 02.03.2020
1985 Clouds 23 1021 60 10000 7.2 120 22:56 02.03.2020
1986 Clouds 23 1021 60 10000 7.2 120 22:56 02.03.2020
1987 Clouds 23 1021 60 10000 7.2 120 22:56 02.03.2020
1988 Clouds 22 1020 73 0 2.24 65 22:38 02.03.2020
1989 Clouds 22 1020 73 0 2.24 65 22:38 02.03.2020
1990 Clouds 23 1021 53 10000 7.7 130 22:19 02.03.2020
1991 Clouds 23 1021 53 10000 7.7 130 21:43 02.03.2020
1992 Clouds 23 1021 57 10000 6.2 110 21:24 02.03.2020
1993 Clouds 23 1021 57 10000 6.2 110 20:59 02.03.2020
1994 Clouds 23 1021 57 10000 6.2 110 20:41 02.03.2020
1995 Clouds 24 1022 53 10000 7.7 120 20:22 02.03.2020
1996 Clouds 23 1020 69 0 2.24 91 19:57 02.03.2020
1997 Clouds 23 1021 70 0 2.24 63 19:39 02.03.2020
1998 Clouds 24 1023 50 10000 7.7 120 19:20 02.03.2020
1999 Clouds 24 1023 50 10000 7.7 120 18:55 02.03.2020
2000 Clouds 24 1023 50 10000 7.7 120 18:55 02.03.2020
2001 Clouds 24 1023 50 10000 7.7 120 18:37 02.03.2020
2002 Clouds 23 1023 50 10000 7.7 120 18:18 02.03.2020
2003 Clouds 23 1024 50 10000 7.7 120 17:55 02.03.2020
2004 Clouds 23 1024 50 10000 7.7 120 17:37 02.03.2020
2005 Clouds 23 1024 50 10000 7.7 120 17:18 02.03.2020
2006 Clouds 23 1023 64 0 3.13 73 16:41 02.03.2020
2007 Clouds 22 1023 60 10000 7.2 120 16:22 02.03.2020
2008 Clouds 22 1023 60 10000 7.2 120 15:45 02.03.2020
2009 Clouds 22 1023 60 10000 7.2 120 15:21 02.03.2020
2010 Clouds 21 1023 56 10000 5.1 110 14:57 02.03.2020
2011 Clouds 21 1023 56 10000 5.1 110 14:37 02.03.2020
2012 Clouds 21 1023 56 10000 5.1 110 14:37 02.03.2020
2013 Clouds 21 1023 56 10000 5.1 110 14:18 02.03.2020
2014 Clouds 21 1023 60 10000 4.6 110 13:40 02.03.2020
2015 Clouds 20 1023 60 10000 4.6 110 13:19 02.03.2020
2016 Clouds 21 1022 63 0 2.24 28 12:55 02.03.2020
2017 Clouds 20 1023 70 0 8.94 106 12:37 02.03.2020
2018 Clouds 20 1023 70 0 8.94 106 12:18 02.03.2020
2019 Clouds 20 1023 70 0 8.94 106 11:38 02.03.2020
2020 Clouds 18 1023 59 10000 2.6 90 11:19 02.03.2020
2021 Clouds 18 1023 59 10000 2.6 90 10:55 02.03.2020
2022 Clouds 18 1023 59 10000 2.6 90 10:36 02.03.2020
2023 Clouds 18 1023 59 10000 2.6 90 10:18 02.03.2020
2024 Clouds 19 1021 65 0 1.34 78 09:44 02.03.2020
2025 Clouds 19 1021 65 0 1.34 78 09:25 02.03.2020
2026 Clouds 20 1022 63 0 1.79 92 08:47 02.03.2020
2027 Clouds 20 1025 59 10000 2.6 100 08:22 02.03.2020
2028 Clouds 20 1025 59 10000 2.6 100 07:44 02.03.2020
2029 Clouds 20 1025 55 10000 3.1 90 07:20 02.03.2020
2030 Clouds 20 1025 55 10000 3.1 90 06:47 02.03.2020
2031 Clouds 20 1025 59 10000 4.1 110 05:57 02.03.2020
2032 Clouds 19 1025 55 10000 4.1 120 04:51 02.03.2020
2033 Clouds 19 1025 59 10000 5.7 100 03:23 02.03.2020
2034 Clouds 19 1025 59 10000 4.1 110 02:49 02.03.2020
2035 Clouds 20 1025 56 10000 6.2 110 01:52 02.03.2020
2036 Clouds 20 1025 56 10000 6.2 110 01:31 02.03.2020
2037 Clouds 20 1024 56 10000 6.2 90 00:24 02.03.2020
2038 Clouds 21 1024 49 10000 5.1 90 23:58 01.03.2020
2039 Clouds 21 1024 49 10000 5.1 90 23:40 01.03.2020
2040 Clouds 21 1024 49 10000 5.1 90 23:20 01.03.2020
2041 Clouds 21 1024 46 10000 6.2 80 22:43 01.03.2020
2042 Clouds 21 1024 46 10000 6.2 80 22:20 01.03.2020
2043 Clouds 22 1024 46 10000 6.2 80 21:56 01.03.2020
2044 Clouds 22 1024 46 10000 6.2 80 21:38 01.03.2020
2045 Clouds 22 1024 46 10000 6.2 80 21:19 01.03.2020
2046 Clouds 21 1025 46 10000 6.7 70 20:44 01.03.2020
2047 Clouds 21 1025 46 10000 6.7 70 20:25 01.03.2020
2048 Clouds 22 1025 43 10000 6.7 90 19:56 01.03.2020
2049 Clouds 22 1025 43 10000 6.7 90 19:37 01.03.2020
2050 Clouds 22 1025 43 10000 6.7 90 19:19 01.03.2020
2051 Clouds 22 1026 43 10000 6.7 70 18:41 01.03.2020
2052 Clouds 22 1026 43 10000 6.7 70 18:20 01.03.2020
2053 Clouds 21 1026 43 10000 7.2 70 17:58 01.03.2020
2054 Clouds 22 1026 43 10000 7.2 70 17:40 01.03.2020
2055 Clouds 22 1026 43 10000 7.2 70 17:21 01.03.2020
2056 Clouds 22 1026 49 10000 5.7 40 16:57 01.03.2020
2057 Clouds 22 1026 49 10000 5.7 40 16:39 01.03.2020
2058 Clouds 22 1026 49 10000 5.7 40 16:39 01.03.2020
2059 Clouds 22 1026 49 10000 5.7 40 16:18 01.03.2020
2060 Clouds 22 1026 49 10000 5.7 40 16:18 01.03.2020
2061 Clouds 21 1026 49 10000 6.2 40 15:57 01.03.2020
2062 Clouds 21 1026 49 10000 6.2 40 15:38 01.03.2020
2063 Clouds 20 1026 49 10000 6.2 40 15:20 01.03.2020
2064 Clouds 20 1025 48 10000 5.7 50 14:57 01.03.2020
2065 Clouds 20 1025 48 10000 5.7 50 14:38 01.03.2020
2066 Clouds 19 1025 48 10000 5.7 50 14:20 01.03.2020
2067 Clouds 19 1025 48 10000 6.2 40 13:55 01.03.2020
2068 Clear 19 1024 66 0 4.02 27 13:37 01.03.2020
2069 Clouds 19 1024 48 10000 6.2 40 13:18 01.03.2020
2070 Clouds 18 1024 48 10000 6.2 40 12:42 01.03.2020
2071 Clouds 18 1024 48 10000 6.2 40 12:42 01.03.2020
2072 Clouds 18 1024 48 10000 6.2 40 12:21 01.03.2020
2073 Clouds 18 1024 48 10000 6.2 40 12:21 01.03.2020
2074 Clouds 18 1023 48 10000 7.2 40 11:43 01.03.2020
2075 Clouds 18 1023 48 10000 7.2 40 11:25 01.03.2020
2076 Clouds 18 1023 52 10000 7.2 40 10:57 01.03.2020
2077 Clouds 18 1023 52 10000 7.2 40 10:38 01.03.2020
2078 Clouds 18 1023 52 10000 7.2 40 10:20 01.03.2020
2079 Clouds 18 1023 52 10000 6.2 30 09:57 01.03.2020
2080 Clouds 18 1023 52 10000 6.2 30 09:39 01.03.2020
2081 Clouds 18 1023 52 10000 6.2 30 09:21 01.03.2020
2082 Clouds 18 1024 55 10000 6.2 30 08:41 01.03.2020
2083 Clouds 18 1024 55 10000 6.2 30 08:21 01.03.2020
2084 Clouds 18 1025 48 10000 6.2 10 07:43 01.03.2020
2085 Clouds 18 1025 48 10000 6.2 10 07:24 01.03.2020
2086 Clouds 18 1025 52 10000 5.7 10 06:57 01.03.2020
2087 Clouds 18 1025 52 10000 5.7 10 06:37 01.03.2020
2088 Clouds 18 1025 52 10000 5.1 350 04:27 01.03.2020
2089 Clouds 19 1024 52 10000 5.1 360 02:55 01.03.2020
2090 Clouds 20 1024 49 10000 6.7 350 01:53 01.03.2020
2091 Clouds 20 1024 49 10000 6.7 350 01:28 01.03.2020
2092 Clouds 20 1023 52 10000 5.1 350 00:43 01.03.2020
2093 Clouds 20 1023 52 10000 5.1 350 00:21 01.03.2020
2094 Clouds 20 1023 45 10000 6.2 350 23:51 29.02.2020
2095 Clouds 20 1023 45 10000 6.2 350 23:32 29.02.2020
2096 Clouds 20 1022 46 10000 6.7 350 22:44 29.02.2020
2097 Clouds 20 1022 46 10000 6.7 350 22:44 29.02.2020
2098 Clouds 21 1022 46 10000 6.7 350 22:24 29.02.2020
2099 Clouds 20 1023 46 10000 6.7 340 21:43 29.02.2020
2100 Clouds 21 1023 46 10000 6.7 340 21:25 29.02.2020
2101 Clouds 21 1023 43 10000 6.7 340 20:44 29.02.2020
2102 Clouds 21 1023 43 10000 6.7 340 20:22 29.02.2020
2103 Clouds 21 1024 40 10000 7.2 350 19:57 29.02.2020
2104 Clear 21 1022 51 0 2.24 13 19:38 29.02.2020
2105 Clouds 20 1024 45 10000 7.7 350 19:20 29.02.2020
2106 Clouds 20 1024 45 10000 7.7 350 19:20 29.02.2020
2107 Clouds 20 1024 45 10000 7.7 350 18:44 29.02.2020
2108 Clouds 20 1024 45 10000 7.7 350 18:25 29.02.2020
2109 Clouds 21 1025 40 10000 8.2 340 17:58 29.02.2020
2110 Clouds 22 1025 40 10000 8.2 340 17:40 29.02.2020
2111 Clouds 22 1025 40 10000 8.2 340 17:40 29.02.2020
2112 Clouds 21 1025 40 10000 8.2 340 17:21 29.02.2020
2113 Clouds 21 1025 46 10000 7.7 350 16:54 29.02.2020
2114 Clouds 21 1025 46 10000 7.7 350 16:36 29.02.2020
2115 Clouds 21 1025 46 10000 7.7 350 16:18 29.02.2020
2116 Clouds 21 1024 43 10000 6.7 340 15:41 29.02.2020
2117 Clouds 21 1024 43 10000 6.7 340 15:23 29.02.2020
2118 Clouds 20 1024 45 10000 5.7 330 14:42 29.02.2020
2119 Clouds 20 1023 55 10000 4.6 350 14:24 29.02.2020
2120 Clouds 20 1023 55 10000 4.6 350 14:24 29.02.2020
2121 Clouds 20 1023 55 10000 4.6 350 13:57 29.02.2020
2122 Clouds 19 1022 67 0 2.24 315 13:38 29.02.2020
2123 Clouds 19 1023 61 10000 5.1 350 13:20 29.02.2020
2124 Clouds 20 1023 57 0 7.65 326 12:42 29.02.2020
2125 Clouds 20 1023 57 0 7.65 326 12:22 29.02.2020
2126 Clouds 18 1022 55 10000 5.1 340 11:56 29.02.2020
2127 Clouds 20 1023 57 0 7.65 326 11:38 29.02.2020
2128 Clouds 19 1022 63 0 8.68 336 11:20 29.02.2020
2129 Clouds 19 1022 63 0 8.68 336 10:46 29.02.2020
2130 Clouds 19 1022 63 0 8.68 336 10:28 29.02.2020
2131 Clouds 18 1021 72 0 1.34 360 09:48 29.02.2020
2132 Clouds 18 1021 72 0 1.34 360 09:25 29.02.2020
2133 Clouds 18 1021 72 0 1.34 360 08:42 29.02.2020
2134 Clouds 19 1022 68 10000 5.7 340 08:23 29.02.2020
2135 Clouds 19 1022 68 10000 5.7 340 07:58 29.02.2020
2136 Clouds 19 1022 68 10000 5.7 340 07:40 29.02.2020
2137 Clouds 19 1022 68 10000 5.7 340 07:18 29.02.2020
2138 Clouds 19 1022 68 10000 4.6 340 06:44 29.02.2020
2139 Clouds 19 1022 68 10000 4.6 340 06:23 29.02.2020
2140 Clouds 18 1023 68 10000 5.1 340 05:46 29.02.2020
2141 Clouds 15 1023 77 10000 1 0 04:46 29.02.2020
2142 Clouds 15 1023 77 10000 2.6 350 03:40 29.02.2020
2143 Clouds 15 1023 77 10000 2.6 350 03:21 29.02.2020
2144 Clouds 16 1022 72 10000 2.1 360 02:37 29.02.2020
2145 Clouds 16 1022 72 10000 2.1 360 02:37 29.02.2020
2146 Clouds 17 1022 63 10000 4.1 300 00:59 29.02.2020
2147 Clouds 17 1022 63 10000 4.1 300 00:37 29.02.2020
2148 Clouds 19 1021 59 10000 5.1 290 23:43 28.02.2020
2149 Clouds 19 1021 59 10000 5.1 290 23:25 28.02.2020
2150 Clouds 20 1021 60 10000 6.2 300 22:54 28.02.2020
2151 Clouds 20 1021 60 10000 6.2 300 22:36 28.02.2020
2152 Clouds 20 1021 60 10000 6.2 300 22:18 28.02.2020
2153 Clouds 20 1021 60 10000 6.7 300 21:41 28.02.2020
2154 Clouds 20 1021 60 10000 6.7 300 21:41 28.02.2020
2155 Clouds 20 1021 60 10000 6.7 300 21:20 28.02.2020
2156 Clouds 20 1021 64 10000 6.7 310 20:41 28.02.2020
2157 Clouds 20 1021 64 10000 6.7 310 20:22 28.02.2020
2158 Clouds 20 1021 64 10000 6.7 310 20:22 28.02.2020
2159 Rain 21 1022 64 10000 7.7 310 19:59 28.02.2020
2160 Rain 21 1022 64 10000 7.7 310 19:39 28.02.2020
2161 Rain 21 1022 64 10000 7.7 310 19:21 28.02.2020
2162 Clouds 21 1022 56 10000 4.1 320 18:57 28.02.2020
2163 Clouds 21 1022 56 10000 4.1 320 18:38 28.02.2020
2164 Clouds 21 1022 56 10000 4.1 320 18:20 28.02.2020
2165 Clouds 22 1023 53 10000 3.6 340 17:40 28.02.2020
2166 Clouds 22 1023 53 10000 3.6 340 17:40 28.02.2020
2167 Clouds 22 1023 53 10000 3.6 340 17:22 28.02.2020
2168 Clouds 21 1023 56 10000 4.1 330 16:44 28.02.2020
2169 Clouds 21 1023 56 10000 4.1 330 16:20 28.02.2020
2170 Clouds 21 1022 56 10000 4.1 10 15:58 28.02.2020
2171 Clouds 21 1022 56 10000 4.1 10 15:58 28.02.2020
2172 Clouds 21 1022 56 10000 4.1 10 15:40 28.02.2020
2173 Clouds 21 1022 56 10000 4.1 10 15:19 28.02.2020
2174 Clouds 20 1022 56 10000 3.1 340 14:57 28.02.2020
2175 Clouds 20 1022 56 10000 3.1 340 14:57 28.02.2020
2176 Clouds 20 1021 65 0 1.34 350 14:38 28.02.2020
2177 Clouds 20 1021 63 10000 3.1 330 14:18 28.02.2020
2178 Clouds 19 1021 63 10000 3.1 330 13:41 28.02.2020
2179 Clouds 19 1021 63 10000 3.1 330 13:20 28.02.2020
2180 Clouds 20 1021 60 10000 3.6 330 12:58 28.02.2020
2181 Clouds 20 1021 60 10000 3.6 330 12:39 28.02.2020
2182 Clouds 20 1021 60 10000 3.6 330 12:21 28.02.2020
2183 Clouds 20 1020 64 10000 3.6 340 11:41 28.02.2020
2184 Clouds 20 1020 64 10000 3.6 340 11:22 28.02.2020
2185 Clouds 19 1020 68 10000 4.1 340 10:55 28.02.2020
2186 Clouds 19 1020 68 10000 4.1 340 10:36 28.02.2020
2187 Clouds 19 1020 68 10000 4.1 340 10:18 28.02.2020
2188 Clouds 19 1020 68 10000 4.1 340 09:42 28.02.2020
2189 Clouds 20 1020 64 10000 4.6 350 09:20 28.02.2020
2190 Clouds 20 1021 68 10000 4.1 350 08:42 28.02.2020
2191 Clouds 20 1021 68 10000 4.1 350 08:22 28.02.2020
2192 Clouds 20 1021 68 10000 3.6 10 07:47 28.02.2020
2193 Clouds 20 1021 68 10000 3.6 10 07:27 28.02.2020
2194 Clouds 20 1021 68 10000 3.6 20 06:59 28.02.2020
2195 Clouds 20 1021 68 10000 3.6 20 06:38 28.02.2020
2196 Clouds 20 1021 72 10000 5.1 10 05:31 28.02.2020
2197 Clouds 21 1021 64 10000 4.1 20 04:32 28.02.2020
2198 Clouds 21 1021 68 10000 5.1 10 03:22 28.02.2020
2199 Clouds 21 1020 76 0 3.13 46 02:34 28.02.2020
2200 Clouds 21 1020 68 10000 5.7 10 01:48 28.02.2020
2201 Clouds 21 1019 68 10000 5.7 360 00:32 28.02.2020
2202 Clouds 22 1018 64 10000 6.2 360 23:47 27.02.2020
2203 Clouds 22 1018 64 10000 6.2 360 23:23 27.02.2020
2204 Clouds 22 1018 68 10000 7.2 360 22:58 27.02.2020
2205 Clouds 22 1018 68 10000 7.2 360 22:39 27.02.2020
2206 Clouds 22 1018 68 10000 7.2 360 22:21 27.02.2020
2207 Clouds 22 1018 73 10000 7.7 350 21:42 27.02.2020
2208 Clouds 22 1018 78 10000 7.7 350 21:23 27.02.2020
2209 Clouds 22 1018 78 10000 7.7 350 20:59 27.02.2020
2210 Clouds 22 1018 78 10000 7.7 350 20:41 27.02.2020
2211 Clouds 22 1018 78 10000 7.7 350 20:21 27.02.2020
2212 Rain 23 1018 73 10000 6.2 340 19:57 27.02.2020
2213 Rain 24 1018 73 10000 6.2 340 19:39 27.02.2020
2214 Rain 24 1018 73 10000 6.2 340 19:20 27.02.2020
2215 Clouds 25 1018 65 10000 4.6 340 18:54 27.02.2020
2216 Clouds 25 1018 65 10000 4.6 340 18:36 27.02.2020
2217 Clouds 25 1018 65 10000 4.6 340 18:18 27.02.2020
2218 Clouds 25 1018 65 10000 4.6 350 17:40 27.02.2020
2219 Clouds 25 1018 65 10000 4.6 350 17:40 27.02.2020
2220 Clouds 25 1018 65 10000 4.6 350 17:20 27.02.2020
2221 Clouds 25 1018 65 10000 3.1 20 16:59 27.02.2020
2222 Clouds 25 1018 65 10000 3.1 20 16:39 27.02.2020
2223 Clouds 24 1018 65 10000 3.1 20 16:19 27.02.2020
2224 Clouds 24 1017 73 10000 3.6 40 15:58 27.02.2020
2225 Clouds 24 1017 73 10000 3.6 40 15:37 27.02.2020
2226 Clouds 23 1017 73 10000 3.6 40 15:19 27.02.2020
2227 Clouds 22 1017 88 10000 2.6 20 14:56 27.02.2020
2228 Clouds 22 1017 88 10000 2.6 20 14:37 27.02.2020
2229 Clouds 22 1017 88 10000 2.6 20 14:18 27.02.2020
2230 Rain 21 1016 88 10000 6.2 10 13:42 27.02.2020
2231 Rain 21 1016 88 10000 6.2 10 13:42 27.02.2020
2232 Rain 21 1016 88 10000 6.2 10 13:21 27.02.2020
2233 Rain 21 1016 88 10000 6.2 10 13:21 27.02.2020
2234 Rain 22 1015 94 10000 5.7 280 12:48 27.02.2020
2235 Rain 22 1015 94 10000 5.7 280 12:25 27.02.2020
2236 Clouds 23 1014 88 10000 4.6 230 11:59 27.02.2020
2237 Clouds 23 1014 88 10000 4.6 230 11:41 27.02.2020
2238 Clouds 23 1014 88 10000 4.6 230 11:21 27.02.2020
2239 Rain 22 1014 88 10000 5.1 220 10:43 27.02.2020
2240 Rain 22 1014 88 10000 5.1 220 10:23 27.02.2020
2241 Clouds 22 1015 94 10000 6.7 220 09:48 27.02.2020
2242 Clouds 22 1015 94 10000 6.7 220 09:29 27.02.2020
2243 Rain 22 1015 88 10000 2.99 265 08:57 27.02.2020
2244 Rain 24 1014 85 0 2.99 265 08:39 27.02.2020
2245 Rain 22 1016 94 10000 4.6 280 08:21 27.02.2020
2246 Rain 22 1016 94 10000 4.6 280 07:44 27.02.2020
2247 Rain 22 1016 94 10000 4.6 280 07:25 27.02.2020
2248 Rain 24 1016 88 10000 5.7 220 06:45 27.02.2020
2249 Clouds 24 1016 88 10000 4.6 210 05:34 27.02.2020
2250 Clouds 25 1016 83 10000 5.1 180 03:35 27.02.2020
2251 Clouds 25 1016 83 10000 5.1 190 02:20 27.02.2020
2252 Clouds 24 1015 83 10000 7.2 170 00:44 27.02.2020
2253 Clouds 25 1015 83 10000 7.2 170 00:24 27.02.2020
2254 Clouds 26 1015 78 10000 7.2 180 23:39 26.02.2020
2255 Clouds 26 1015 78 10000 7.2 180 23:19 26.02.2020
2256 Clouds 27 1015 74 10000 7.7 180 22:56 26.02.2020
2257 Clouds 27 1015 74 10000 7.7 180 22:38 26.02.2020
2258 Clouds 27 1015 74 10000 7.7 180 22:19 26.02.2020
2259 Clouds 28 1015 69 10000 8.7 190 21:40 26.02.2020
2260 Clouds 28 1015 69 10000 8.7 190 21:21 26.02.2020
2261 Clouds 27 1016 74 10000 7.7 180 20:57 26.02.2020
2262 Clouds 27 1016 74 10000 7.7 180 20:38 26.02.2020
2263 Clouds 27 1016 74 10000 7.7 180 20:38 26.02.2020
2264 Clouds 27 1016 74 10000 7.7 180 20:19 26.02.2020
2265 Clouds 27 1016 74 10000 8.7 190 19:57 26.02.2020
2266 Clouds 27 1016 74 10000 8.7 190 19:38 26.02.2020
2267 Clouds 27 1016 74 10000 8.7 190 19:19 26.02.2020
2268 Clouds 27 1017 78 10000 8.2 180 18:57 26.02.2020
2269 Clouds 27 1017 78 10000 8.2 180 18:37 26.02.2020
2270 Clouds 27 1017 78 10000 8.2 180 18:19 26.02.2020
2271 Clouds 27 1018 74 10000 7.2 160 17:41 26.02.2020
2272 Clouds 27 1018 74 10000 7.2 160 17:41 26.02.2020
2273 Clouds 27 1018 74 10000 7.2 160 17:20 26.02.2020
2274 Clouds 27 1018 74 10000 7.2 160 17:20 26.02.2020
2275 Clouds 27 1018 74 10000 7.2 170 16:57 26.02.2020
2276 Clouds 27 1018 74 10000 7.2 170 16:38 26.02.2020
2277 Clouds 27 1018 74 10000 7.2 170 16:20 26.02.2020
2278 Clouds 26 1018 83 10000 7.2 170 15:45 26.02.2020
2279 Clouds 26 1018 83 10000 7.2 170 15:45 26.02.2020
2280 Clouds 26 1018 83 10000 7.2 170 15:27 26.02.2020
2281 Clouds 25 1017 83 10000 5.7 170 14:43 26.02.2020
2282 Clouds 25 1017 83 10000 5.7 170 14:24 26.02.2020
2283 Clear 24 1016 78 0 7.44 160 13:58 26.02.2020
2284 Clear 23 1016 74 0 7.44 160 13:39 26.02.2020
2285 Clear 23 1016 74 0 7.48 154 13:18 26.02.2020
2286 Clear 24 1016 87 0 7.48 154 12:39 26.02.2020
2287 Clouds 23 1016 88 0 5.7 170 12:19 26.02.2020
2288 Clouds 23 1016 88 0 5.7 170 11:55 26.02.2020
2289 Clouds 23 1016 88 0 5.7 170 11:55 26.02.2020
2290 Clear 24 1016 87 0 7.48 154 11:36 26.02.2020
2291 Clear 24 1016 87 0 7.48 154 11:36 26.02.2020
2292 Clear 24 1016 86 0 8.42 150 11:18 26.02.2020
2293 Clear 24 1016 86 0 8.42 150 10:40 26.02.2020
2294 Clear 23 1015 74 0 8.42 150 10:21 26.02.2020
2295 Clear 23 1015 74 0 8.42 150 09:44 26.02.2020
2296 Clear 23 1015 74 0 8.42 150 09:25 26.02.2020
2297 Clear 23 1015 74 0 8.42 150 08:59 26.02.2020
2298 Clear 23 1015 74 0 8.42 150 08:37 26.02.2020
2299 Clear 23 1015 74 0 6.55 143 08:18 26.02.2020
2300 Clear 23 1016 74 0 6.55 143 07:42 26.02.2020
2301 Clear 23 1016 73 0 6.55 143 07:24 26.02.2020
2302 Clear 23 1016 74 0 6.55 143 06:50 26.02.2020
2303 Clear 23 1016 74 0 6.55 143 06:32 26.02.2020
2304 Clear 23 1017 75 0 6.55 143 05:51 26.02.2020
2305 Clouds 23 1018 88 10000 3.6 180 05:23 26.02.2020
2306 Clouds 23 1018 88 10000 3.6 180 04:19 26.02.2020
2307 Clouds 23 1017 88 10000 5.7 160 02:21 26.02.2020
2308 Clouds 23 1016 88 10000 6.2 160 01:40 26.02.2020
2309 Clouds 24 1016 83 10000 6.7 160 00:48 26.02.2020
2310 Clouds 24 1016 83 10000 6.7 160 00:22 26.02.2020
2311 Clouds 24 1016 83 10000 6.7 160 00:22 26.02.2020
2312 Clouds 25 1016 73 10000 7.2 160 23:45 25.02.2020
2313 Clouds 25 1016 73 10000 7.2 160 23:26 25.02.2020
2314 Clouds 26 1016 69 10000 7.7 170 22:58 25.02.2020
2315 Clouds 26 1016 69 10000 7.7 170 22:40 25.02.2020
2316 Clouds 26 1016 69 10000 7.7 170 22:19 25.02.2020
2317 Clouds 26 1016 69 10000 8.7 170 21:38 25.02.2020
2318 Clouds 26 1016 69 10000 8.7 170 21:20 25.02.2020
2319 Clouds 26 1016 69 10000 8.7 170 21:20 25.02.2020
2320 Clouds 26 1016 69 10000 9.3 170 20:57 25.02.2020
2321 Clouds 26 1016 69 10000 9.3 170 20:39 25.02.2020
2322 Clouds 27 1016 69 10000 9.3 170 20:20 25.02.2020
2323 Clouds 27 1017 69 10000 8.2 180 19:57 25.02.2020
2324 Clouds 27 1017 69 10000 8.2 180 19:38 25.02.2020
2325 Clouds 27 1017 69 10000 8.2 180 19:19 25.02.2020
2326 Clouds 27 1018 65 10000 9.3 170 18:41 25.02.2020
2327 Clouds 26 1018 65 10000 9.3 170 18:21 25.02.2020
2328 Clouds 26 1019 69 10000 9.3 160 17:56 25.02.2020
2329 Clouds 26 1019 69 10000 9.3 160 17:37 25.02.2020
2330 Clouds 26 1019 69 10000 9.3 160 17:19 25.02.2020
2331 Clouds 26 1019 69 10000 7.7 160 16:57 25.02.2020
2332 Clouds 26 1019 69 10000 7.7 160 16:38 25.02.2020
2333 Clouds 26 1019 69 10000 7.7 160 16:20 25.02.2020
2334 Clouds 25 1018 69 10000 8.2 150 15:55 25.02.2020
2335 Clouds 25 1018 69 10000 8.2 150 15:36 25.02.2020
2336 Clouds 25 1018 69 10000 8.2 150 15:18 25.02.2020
2337 Clouds 24 1018 69 10000 6.2 160 14:40 25.02.2020
2338 Clouds 24 1018 69 10000 6.2 160 14:19 25.02.2020
2339 Clouds 24 1018 69 10000 6.2 160 14:19 25.02.2020
2340 Clouds 24 1018 69 10000 6.2 160 14:19 25.02.2020
2341 Clouds 23 1018 78 10000 5.1 160 13:59 25.02.2020
2342 Clouds 23 1018 78 10000 5.1 160 13:59 25.02.2020
2343 Clouds 22 1018 78 10000 5.1 160 13:40 25.02.2020
2344 Clouds 22 1017 77 10000 4.6 150 13:20 25.02.2020
2345 Clouds 21 1017 77 10000 4.6 150 12:59 25.02.2020
2346 Clouds 21 1017 77 10000 4.6 150 12:39 25.02.2020
2347 Clouds 21 1017 77 10000 4.6 150 12:20 25.02.2020
2348 Clouds 21 1017 77 10000 2.6 150 11:56 25.02.2020
2349 Clouds 21 1017 77 10000 2.6 150 11:37 25.02.2020
2350 Clouds 21 1017 77 10000 2.6 150 11:18 25.02.2020
2351 Clouds 22 1017 73 10000 4.6 160 10:42 25.02.2020
2352 Clouds 22 1017 73 10000 4.6 160 10:23 25.02.2020
2353 Clouds 22 1017 73 10000 5.1 150 09:42 25.02.2020
2354 Clouds 22 1017 73 10000 5.1 150 09:23 25.02.2020
2355 Clouds 22 1017 73 10000 6.2 150 08:58 25.02.2020
2356 Clouds 22 1017 73 10000 6.2 150 08:39 25.02.2020
2357 Clouds 22 1017 73 10000 6.2 150 08:21 25.02.2020
2358 Clouds 22 1018 73 10000 6.2 150 07:48 25.02.2020
2359 Clouds 22 1018 73 10000 6.2 150 07:21 25.02.2020
2360 Clouds 22 1019 73 10000 5.7 150 06:51 25.02.2020
2361 Clouds 22 1019 73 10000 5.7 150 06:51 25.02.2020
2362 Clouds 22 1019 73 10000 5.1 150 05:41 25.02.2020
2363 Clouds 22 1019 78 10000 3.1 190 03:54 25.02.2020
2364 Rain 22 1019 83 10000 4.1 180 02:31 25.02.2020
2365 Clouds 22 1017 69 10000 5.7 150 00:55 25.02.2020
2366 Clouds 22 1017 69 10000 5.7 150 00:29 25.02.2020
2367 Rain 23 1017 64 10000 6.7 150 23:44 24.02.2020
2368 Rain 24 1017 64 10000 6.7 150 23:22 24.02.2020
2369 Clouds 24 1017 57 10000 3.1 160 22:43 24.02.2020
2370 Clouds 24 1017 57 10000 3.1 160 22:21 24.02.2020
2371 Clouds 25 1018 61 10000 3.1 150 21:58 24.02.2020
2372 Clouds 25 1018 61 10000 3.1 150 21:39 24.02.2020
2373 Clouds 25 1018 61 10000 3.1 150 21:20 24.02.2020
2374 Clouds 24 1017 68 0 1.79 124 20:58 24.02.2020
2375 Clouds 25 1017 69 0 1.79 227 20:40 24.02.2020
2376 Clouds 25 1019 57 10000 7.2 120 20:19 24.02.2020
2377 Clouds 25 1019 57 10000 7.2 120 19:57 24.02.2020
2378 Rain 22 1019 69 0 8.04 123 19:39 24.02.2020
2379 Clouds 25 1020 60 10000 7.7 120 19:20 24.02.2020
2380 Clouds 25 1020 60 10000 7.7 120 18:55 24.02.2020
2381 Rain 25 1018 67 0 1.34 103 18:36 24.02.2020
2382 Clouds 25 1021 57 10000 6.7 130 18:18 24.02.2020
2383 Clouds 24 1021 57 10000 6.7 130 17:40 24.02.2020
2384 Clouds 24 1021 57 10000 6.7 130 17:20 24.02.2020
2385 Clouds 24 1021 60 10000 5.7 110 16:58 24.02.2020
2386 Clouds 24 1021 60 10000 5.7 110 16:39 24.02.2020
2387 Clouds 24 1021 60 10000 5.7 110 16:20 24.02.2020
2388 Clouds 24 1021 60 10000 5.7 110 16:20 24.02.2020
2389 Clouds 23 1021 73 10000 6.2 130 15:57 24.02.2020
2390 Clouds 22 1021 73 10000 6.2 130 15:39 24.02.2020
2391 Clouds 22 1021 73 10000 6.2 130 15:20 24.02.2020
2392 Rain 22 1020 68 10000 4.1 100 14:55 24.02.2020
2393 Rain 22 1020 68 10000 4.1 100 14:36 24.02.2020
2394 Rain 22 1020 68 10000 4.1 100 14:18 24.02.2020
2395 Rain 21 1019 76 0 2.68 84 13:41 24.02.2020
2396 Rain 21 1019 76 0 2.68 84 13:41 24.02.2020
2397 Rain 21 1019 76 0 2.24 103 13:23 24.02.2020
2398 Rain 21 1019 73 0 2.24 32 12:59 24.02.2020
2399 Rain 22 1019 73 0 8.61 100 12:41 24.02.2020
2400 Clouds 20 1019 72 10000 4.1 100 12:23 24.02.2020
2401 Clouds 20 1019 72 10000 4.1 100 11:49 24.02.2020
2402 Rain 22 1019 73 0 8.61 100 11:31 24.02.2020
2403 Clouds 21 1019 72 0 8.4 88 10:52 24.02.2020
2404 Clouds 20 1019 73 0 3.58 52 10:32 24.02.2020
2405 Clouds 20 1019 73 0 3.58 52 09:58 24.02.2020
2406 Clouds 20 1019 73 0 3.58 52 09:39 24.02.2020
2407 Clouds 20 1020 64 10000 3.1 110 09:19 24.02.2020
2408 Clouds 20 1020 64 10000 3.1 110 09:19 24.02.2020
2409 Clouds 20 1020 64 10000 3.1 110 08:48 24.02.2020
2410 Clouds 20 1020 64 10000 3.1 110 08:28 24.02.2020
2411 Clouds 21 1021 60 10000 3.1 100 07:52 24.02.2020
2412 Clouds 21 1021 60 10000 3.1 100 07:32 24.02.2020
2413 Clouds 21 1021 100 10000 3.1 100 06:49 24.02.2020
2414 Clouds 20 1021 100 10000 3.1 100 06:22 24.02.2020
2415 Clouds 21 1022 56 10000 3.1 100 05:33 24.02.2020
2416 Clouds 21 1022 56 10000 3.1 100 04:49 24.02.2020
2417 Clouds 21 1021 60 10000 5.1 90 02:57 24.02.2020
2418 Clouds 21 1021 60 10000 4.6 90 01:52 24.02.2020
2419 Clouds 21 1021 60 10000 4.6 90 01:28 24.02.2020
2420 Clouds 21 1021 56 10000 5.1 90 00:37 24.02.2020
2421 Clouds 21 1021 56 10000 5.1 90 00:19 24.02.2020
2422 Clouds 21 1019 67 0 3.58 359 23:42 23.02.2020
2423 Clouds 21 1020 66 10000 5.7 80 23:22 23.02.2020
2424 Clouds 22 1020 63 10000 5.7 80 22:58 23.02.2020
2425 Clouds 22 1020 63 10000 5.7 80 22:40 23.02.2020
2426 Clouds 22 1021 43 10000 5.7 90 22:20 23.02.2020
2427 Clouds 22 1021 43 10000 5.7 90 21:46 23.02.2020
2428 Clouds 22 1021 43 10000 5.7 90 21:46 23.02.2020
2429 Clouds 22 1021 43 10000 5.7 90 21:20 23.02.2020
2430 Clouds 22 1020 63 0 4.02 55 20:57 23.02.2020
2431 Clouds 22 1020 63 0 2.68 55 20:39 23.02.2020
2432 Clear 22 1020 57 0 3.58 81 20:20 23.02.2020
2433 Clear 22 1020 60 0 4.02 67 19:58 23.02.2020
2434 Clear 22 1020 62 0 4.47 63 19:39 23.02.2020
2435 Clouds 23 1022 41 10000 5.7 90 19:19 23.02.2020
2436 Clouds 23 1022 41 10000 5.7 90 18:57 23.02.2020
2437 Clouds 23 1022 41 10000 5.7 90 18:37 23.02.2020
2438 Clouds 23 1022 41 10000 5.7 90 18:18 23.02.2020
2439 Clouds 22 1023 49 10000 6.2 60 17:56 23.02.2020
2440 Clouds 22 1023 49 10000 6.2 60 17:37 23.02.2020
2441 Clouds 22 1023 49 10000 6.2 60 17:19 23.02.2020
2442 Clouds 21 1023 52 10000 6.7 60 16:46 23.02.2020
2443 Clouds 21 1023 52 10000 6.7 60 16:27 23.02.2020
2444 Clouds 22 1023 49 10000 7.2 60 15:58 23.02.2020
2445 Clouds 22 1023 49 10000 7.2 60 15:38 23.02.2020
2446 Clouds 22 1023 49 10000 7.2 60 15:20 23.02.2020
2447 Clouds 21 1022 56 10000 7.7 60 14:56 23.02.2020
2448 Clouds 21 1022 56 10000 7.7 60 14:38 23.02.2020
2449 Clouds 21 1022 56 10000 7.7 60 14:20 23.02.2020
2450 Clouds 21 1022 60 10000 6.7 60 13:57 23.02.2020
2451 Clouds 21 1022 60 10000 6.7 60 13:38 23.02.2020
2452 Clouds 21 1022 60 10000 6.7 60 13:20 23.02.2020
2453 Clouds 21 1021 60 10000 6.2 60 12:41 23.02.2020
2454 Clouds 21 1021 60 10000 6.2 60 12:21 23.02.2020
2455 Clouds 20 1021 64 10000 6.2 70 11:39 23.02.2020
2456 Clouds 20 1021 64 10000 6.2 70 11:20 23.02.2020
2457 Clouds 20 1020 64 10000 5.1 80 10:59 23.02.2020
2458 Clouds 20 1020 64 10000 5.1 80 10:41 23.02.2020
2459 Clouds 20 1020 64 10000 5.1 80 10:23 23.02.2020
2460 Clouds 21 1020 60 10000 5.7 60 09:56 23.02.2020
2461 Clouds 21 1020 60 10000 5.7 60 09:38 23.02.2020
2462 Clouds 21 1020 60 10000 5.7 60 09:19 23.02.2020
2463 Rain 20 1019 72 0 4.47 27 08:50 23.02.2020
2464 Clouds 21 1021 60 10000 6.2 70 08:29 23.02.2020
2465 Clouds 21 1021 60 10000 6.2 70 07:48 23.02.2020
2466 Clouds 21 1021 60 10000 6.2 70 07:29 23.02.2020
2467 Clouds 21 1022 68 10000 6.7 70 06:25 23.02.2020
2468 Rain 21 1020 74 0 5.81 53 05:34 23.02.2020
2469 Clouds 21 1022 68 10000 6.7 70 04:23 23.02.2020
2470 Rain 21 1021 77 10000 6.2 80 02:53 23.02.2020
2471 Rain 21 1020 77 10000 5.1 50 01:43 23.02.2020
2472 Clouds 22 1020 64 10000 5.7 70 01:21 23.02.2020
2473 Clouds 22 1020 64 10000 5.7 70 00:44 23.02.2020
2474 Clouds 22 1020 64 10000 5.7 70 00:23 23.02.2020
2475 Clouds 21 1019 68 10000 9.3 60 23:43 22.02.2020
2476 Clouds 21 1019 68 10000 9.3 60 23:24 22.02.2020
2477 Clouds 22 1019 56 10000 8.2 70 22:46 22.02.2020
2478 Clouds 22 1019 56 10000 8.2 70 22:46 22.02.2020
2479 Clouds 23 1019 56 10000 8.2 70 22:22 22.02.2020
2480 Clouds 22 1019 60 10000 8.7 70 21:55 22.02.2020
2481 Clouds 22 1019 60 10000 8.7 70 21:37 22.02.2020
2482 Rain 22 1019 60 10000 8.7 70 21:18 22.02.2020
2483 Rain 20 1020 77 10000 9.8 50 20:41 22.02.2020
2484 Rain 20 1020 77 10000 9.8 50 20:22 22.02.2020
2485 Rain 22 1020 69 10000 9.3 50 19:43 22.02.2020
2486 Rain 22 1020 69 10000 9.3 50 19:24 22.02.2020
2487 Clouds 22 1021 60 10000 8.7 50 18:57 22.02.2020
2488 Clouds 23 1021 60 10000 8.7 50 18:38 22.02.2020
2489 Clouds 23 1021 60 10000 8.7 50 18:19 22.02.2020
2490 Rain 22 1021 64 10000 9.8 50 17:44 22.02.2020
2491 Rain 22 1021 64 10000 9.8 50 17:26 22.02.2020
2492 Rain 22 1021 83 6000 9.8 40 17:00 22.02.2020
2493 Rain 21 1021 83 6000 9.8 40 16:40 22.02.2020
2494 Rain 21 1021 83 6000 9.8 40 16:20 22.02.2020
2495 Clouds 22 1020 68 10000 10.3 50 15:56 22.02.2020
2496 Clouds 22 1020 68 10000 10.3 50 15:38 22.02.2020
2497 Clouds 22 1020 68 10000 10.3 50 15:20 22.02.2020
2498 Clouds 22 1019 68 10000 9.3 50 14:42 22.02.2020
2499 Clouds 22 1019 68 10000 9.3 50 14:21 22.02.2020
2500 Rain 21 1018 77 10000 7.2 60 13:43 22.02.2020
2501 Clouds 21 1017 68 10000 8.2 40 13:20 22.02.2020
2502 Clouds 21 1017 68 10000 8.2 40 12:59 22.02.2020
2503 Clouds 21 1017 68 10000 8.2 40 12:39 22.02.2020
2504 Clouds 21 1017 68 10000 8.2 40 12:20 22.02.2020
2505 Clouds 21 1017 68 10000 8.2 40 12:20 22.02.2020
2506 Clouds 21 1017 77 10000 7.7 30 11:43 22.02.2020
2507 Clouds 21 1017 77 10000 7.7 30 11:25 22.02.2020
2508 Clouds 21 1016 77 10000 7.2 40 10:55 22.02.2020
2509 Clouds 21 1016 77 10000 7.2 40 10:36 22.02.2020
2510 Clouds 21 1016 77 10000 7.2 40 10:18 22.02.2020
2511 Clouds 21 1016 77 10000 7.2 40 10:18 22.02.2020
2512 Clouds 21 1016 83 10000 7.2 40 09:42 22.02.2020
2513 Clouds 21 1016 83 10000 7.2 40 09:22 22.02.2020
2514 Clouds 21 1016 78 10000 5.7 30 08:57 22.02.2020
2515 Clouds 21 1016 78 10000 5.7 30 08:38 22.02.2020
2516 Clouds 21 1016 78 10000 5.7 30 08:20 22.02.2020
2517 Clouds 22 1017 78 10000 6.7 30 07:39 22.02.2020
2518 Clouds 22 1017 78 10000 6.7 30 07:18 22.02.2020
2519 Clouds 22 1017 78 10000 5.7 30 06:43 22.02.2020
2520 Clouds 22 1017 88 10000 6.2 10 04:45 22.02.2020
2521 Clouds 23 1016 78 10000 5.1 10 03:52 22.02.2020
2522 Clouds 23 1016 83 10000 6.2 360 02:38 22.02.2020
2523 Rain 23 1015 83 10000 5.7 350 01:48 22.02.2020
2524 Rain 23 1015 78 10000 6.7 330 01:29 22.02.2020
2525 Clouds 24 1015 78 10000 6.7 330 00:48 22.02.2020
2526 Clouds 24 1015 78 10000 6.7 330 00:29 22.02.2020
2527 Clouds 24 1015 73 10000 8.2 320 23:53 21.02.2020
2528 Clouds 25 1015 73 10000 8.2 320 23:26 21.02.2020
2529 Clouds 26 1015 65 10000 6.2 320 22:59 21.02.2020
2530 Clouds 26 1015 65 10000 6.2 320 22:40 21.02.2020
2531 Clouds 27 1015 65 10000 6.2 320 22:21 21.02.2020
2532 Clouds 27 1015 61 10000 8.2 320 21:43 21.02.2020
2533 Clouds 27 1015 61 10000 8.2 320 21:24 21.02.2020
2534 Clouds 26 1015 69 10000 7.7 320 20:58 21.02.2020
2535 Clouds 26 1015 69 10000 7.7 320 20:38 21.02.2020
2536 Clouds 27 1015 69 10000 7.7 320 20:19 21.02.2020
2537 Clouds 27 1016 69 10000 7.2 320 19:39 21.02.2020
2538 Clouds 27 1016 69 10000 7.2 320 19:39 21.02.2020
2539 Clouds 27 1016 69 10000 7.2 320 19:19 21.02.2020
2540 Clouds 26 1017 78 10000 5.1 290 18:42 21.02.2020
2541 Clouds 26 1017 78 10000 5.1 290 18:22 21.02.2020
2542 Clouds 25 1018 78 10000 4.1 290 17:56 21.02.2020
2543 Clouds 25 1018 78 10000 4.1 290 17:36 21.02.2020
2544 Clouds 24 1018 78 10000 4.1 290 17:18 21.02.2020
2545 Rain 23 1018 94 10000 3.6 270 16:41 21.02.2020
2546 Rain 22 1018 94 10000 3.6 270 16:22 21.02.2020
2547 Rain 23 1018 94 10000 6.2 290 15:57 21.02.2020
2548 Rain 23 1018 94 10000 6.2 290 15:38 21.02.2020
2549 Rain 23 1018 94 10000 6.2 290 15:18 21.02.2020
2550 Rain 23 1018 94 10000 6.2 290 15:18 21.02.2020
2551 Clouds 25 1017 88 10000 4.1 240 14:42 21.02.2020
2552 Clouds 24 1017 94 10000 3.1 250 14:21 21.02.2020
2553 Clouds 23 1017 94 10000 3.1 250 13:45 21.02.2020
2554 Clear 23 1016 75 0 6.76 230 13:24 21.02.2020
2555 Clear 24 1016 81 0 6.76 230 12:59 21.02.2020
2556 Clear 24 1016 81 0 6.76 230 12:40 21.02.2020
2557 Clouds 23 1016 88 10000 3.1 240 12:22 21.02.2020
2558 Clouds 23 1016 88 10000 3.1 240 11:43 21.02.2020
2559 Clouds 23 1016 88 10000 3.1 240 11:23 21.02.2020
2560 Clouds 22 1016 94 10000 2.1 260 10:57 21.02.2020
2561 Clouds 22 1016 94 10000 2.1 260 10:39 21.02.2020
2562 Clouds 22 1016 94 10000 2.1 260 10:19 21.02.2020
2563 Clouds 23 1016 88 10000 2.6 240 09:57 21.02.2020
2564 Clouds 23 1016 88 10000 2.6 240 09:38 21.02.2020
2565 Clouds 23 1016 88 10000 2.6 240 09:19 21.02.2020
2566 Clouds 23 1017 83 10000 2.1 220 08:43 21.02.2020
2567 Clouds 23 1017 83 10000 2.1 220 08:22 21.02.2020
2568 Clouds 23 1018 88 10000 2.6 210 07:59 21.02.2020
2569 Clouds 23 1018 88 10000 2.6 210 07:59 21.02.2020
2570 Clouds 23 1018 88 10000 2.6 210 07:40 21.02.2020
2571 Clouds 23 1018 88 10000 2.6 210 07:19 21.02.2020
2572 Clouds 23 1018 88 10000 2.6 200 06:52 21.02.2020
2573 Clouds 23 1018 88 10000 2.6 200 06:30 21.02.2020
2574 Clouds 23 1019 88 10000 2.1 200 05:47 21.02.2020
2575 Clouds 23 1019 83 10000 2.1 180 04:38 21.02.2020
2576 Clouds 23 1019 83 10000 2.1 180 04:18 21.02.2020
2577 Clouds 23 1019 83 10000 1 0 03:39 21.02.2020
2578 Clouds 23 1018 83 10000 2.6 180 02:29 21.02.2020
2579 Clouds 24 1018 73 10000 3.6 180 01:24 21.02.2020
2580 Clouds 25 1018 73 10000 3.6 180 00:45 21.02.2020
2581 Clouds 25 1018 73 10000 3.6 180 00:23 21.02.2020
2582 Clouds 26 1017 69 10000 4.6 170 23:46 20.02.2020
2583 Clouds 26 1017 69 10000 4.6 170 23:46 20.02.2020
2584 Clouds 26 1018 65 10000 4.6 160 23:25 20.02.2020
2585 Clouds 27 1018 65 10000 4.6 160 22:56 20.02.2020
2586 Clear 27 1016 73 0 0.89 229 22:37 20.02.2020
2587 Clouds 27 1018 65 10000 4.6 170 22:19 20.02.2020
2588 Clouds 27 1018 65 10000 4.6 170 21:55 20.02.2020
2589 Clouds 27 1018 65 10000 4.6 170 21:37 20.02.2020
2590 Clouds 27 1018 65 10000 4.6 170 21:19 20.02.2020
2591 Clouds 28 1018 61 10000 5.7 160 20:54 20.02.2020
2592 Clouds 28 1018 61 10000 5.7 160 20:36 20.02.2020
2593 Clouds 28 1018 61 10000 5.7 160 20:18 20.02.2020
2594 Clouds 28 1019 61 10000 6.2 160 19:42 20.02.2020
2595 Clouds 28 1019 61 10000 6.2 160 19:24 20.02.2020
2596 Clouds 28 1020 65 10000 6.2 160 18:59 20.02.2020
2597 Clouds 28 1020 65 10000 6.2 160 18:39 20.02.2020
2598 Clouds 28 1020 65 10000 6.2 160 18:19 20.02.2020
2599 Clouds 27 1021 69 10000 6.7 140 17:41 20.02.2020
2600 Clouds 27 1021 69 10000 6.7 140 17:22 20.02.2020
2601 Clouds 26 1021 74 10000 5.1 140 16:59 20.02.2020
2602 Clouds 26 1021 74 10000 5.1 140 16:40 20.02.2020
2603 Clouds 26 1021 74 10000 5.1 140 16:21 20.02.2020
2604 Clouds 26 1021 74 10000 5.1 130 15:59 20.02.2020
2605 Clouds 26 1021 74 10000 5.1 130 15:41 20.02.2020
2606 Clouds 26 1021 74 10000 5.1 130 15:20 20.02.2020
2607 Clouds 25 1020 88 10000 3.1 130 14:54 20.02.2020
2608 Clouds 25 1020 88 10000 3.1 130 14:36 20.02.2020
2609 Clouds 25 1020 88 10000 3.1 130 14:18 20.02.2020
2610 Clouds 23 1020 94 10000 3.1 120 13:43 20.02.2020
2611 Clouds 23 1019 94 10000 3.6 140 13:19 20.02.2020
2612 Clouds 22 1019 94 10000 3.6 140 12:43 20.02.2020
2613 Clouds 22 1019 94 10000 3.6 140 12:22 20.02.2020
2614 Clouds 22 1019 94 10000 3.1 140 11:59 20.02.2020
2615 Clouds 22 1019 94 10000 3.1 140 11:41 20.02.2020
2616 Clouds 22 1019 94 10000 3.1 140 11:22 20.02.2020
2617 Clouds 23 1019 88 10000 2.1 100 10:57 20.02.2020
2618 Clouds 23 1019 88 10000 2.1 100 10:38 20.02.2020
2619 Clouds 23 1019 88 10000 2.1 100 10:20 20.02.2020
2620 Clouds 23 1020 94 10000 2.1 60 09:45 20.02.2020
2621 Clouds 23 1020 94 10000 2.1 60 09:25 20.02.2020
2622 Clouds 23 1021 88 10000 4.1 60 08:57 20.02.2020
2623 Clouds 23 1021 88 10000 4.1 60 08:38 20.02.2020
2624 Clouds 22 1021 88 10000 4.1 60 08:19 20.02.2020
2625 Clouds 23 1021 88 10000 4.6 110 07:44 20.02.2020
2626 Rain 23 1021 88 10000 4.6 110 07:21 20.02.2020
2627 Rain 22 1022 94 10000 4.6 120 06:44 20.02.2020
2628 Rain 22 1022 94 10000 4.6 120 06:25 20.02.2020
2629 Clouds 23 1022 94 10000 3.6 120 05:44 20.02.2020
2630 Clouds 24 1022 88 10000 2.1 100 04:50 20.02.2020
2631 Rain 24 1021 76 0 1.34 115 03:57 20.02.2020
2632 Rain 24 1021 78 0 0.89 141 03:20 20.02.2020
2633 Clouds 25 1021 83 10000 3.1 100 01:52 20.02.2020
2634 Clouds 25 1021 78 10000 4.1 90 00:56 20.02.2020
2635 Clouds 26 1021 78 10000 4.1 90 00:26 20.02.2020
2636 Clouds 26 1020 69 10000 5.7 140 23:49 19.02.2020
2637 Clouds 26 1020 69 10000 5.7 140 23:22 19.02.2020
2638 Clouds 27 1020 65 10000 5.1 130 22:44 19.02.2020
2639 Clouds 27 1020 65 10000 5.1 130 22:25 19.02.2020
2640 Clouds 27 1021 65 10000 4.6 150 21:59 19.02.2020
2641 Clouds 27 1021 65 10000 4.6 150 21:40 19.02.2020
2642 Clouds 27 1021 65 10000 4.6 150 21:19 19.02.2020
2643 Clouds 27 1021 65 10000 5.1 150 20:58 19.02.2020
2644 Clouds 27 1021 65 10000 5.1 150 20:39 19.02.2020
2645 Clouds 27 1021 65 10000 5.1 150 20:20 19.02.2020
2646 Clouds 27 1021 65 10000 5.1 150 20:20 19.02.2020
2647 Clouds 27 1022 65 10000 5.7 160 19:57 19.02.2020
2648 Clouds 27 1021 75 0 2.24 71 19:38 19.02.2020
2649 Clouds 28 1022 65 10000 5.7 150 19:19 19.02.2020
2650 Clouds 28 1022 65 10000 5.7 150 18:57 19.02.2020
2651 Clouds 27 1022 65 10000 5.7 150 18:39 19.02.2020
2652 Clouds 27 1022 65 10000 5.7 150 18:21 19.02.2020
2653 Clouds 27 1022 76 0 2.24 100 17:44 19.02.2020
2654 Clouds 27 1022 77 0 1.79 98 17:20 19.02.2020
2655 Clouds 27 1022 77 0 1.79 139 16:59 19.02.2020
2656 Clouds 27 1023 77 0 1.79 115 16:41 19.02.2020
2657 Clouds 26 1023 74 10000 4.1 120 16:18 19.02.2020
2658 Clouds 26 1023 74 10000 4.1 120 15:43 19.02.2020
2659 Clouds 26 1023 74 10000 4.1 120 15:25 19.02.2020
2660 Clouds 26 1022 78 10000 2.6 120 14:58 19.02.2020
2661 Clouds 26 1022 77 0 1.34 134 14:40 19.02.2020
2662 Clear 26 1021 78 0 2.24 65 14:21 19.02.2020
2663 Clear 25 1021 79 0 0.89 100 13:42 19.02.2020
2664 Clouds 24 1021 78 10000 3.1 130 13:22 19.02.2020
2665 Clouds 24 1021 78 10000 3.1 130 12:55 19.02.2020
2666 Clouds 24 1021 78 10000 3.1 130 12:37 19.02.2020
2667 Clouds 24 1021 78 10000 3.1 130 12:18 19.02.2020
2668 Clouds 24 1020 78 10000 4.6 140 11:38 19.02.2020
2669 Clouds 24 1020 78 10000 4.6 140 11:20 19.02.2020
2670 Clouds 24 1020 78 10000 5.1 140 10:58 19.02.2020
2671 Clouds 24 1020 78 10000 5.1 140 10:38 19.02.2020
2672 Clouds 24 1020 78 10000 5.1 140 10:20 19.02.2020
2673 Clear 24 1019 79 0 1.79 84 09:58 19.02.2020
2674 Clear 24 1019 79 0 1.79 84 09:37 19.02.2020
2675 Clouds 24 1021 83 10000 4.6 140 09:19 19.02.2020
2676 Clouds 24 1021 83 10000 4.6 140 09:19 19.02.2020
2677 Clouds 24 1021 83 10000 4.6 140 08:45 19.02.2020
2678 Clouds 24 1021 83 10000 4.6 140 08:24 19.02.2020
2679 Clouds 25 1021 78 10000 6.2 140 07:43 19.02.2020
2680 Clouds 25 1021 78 10000 6.2 140 07:25 19.02.2020
2681 Clouds 25 1021 78 10000 6.2 130 06:53 19.02.2020
2682 Clouds 25 1021 78 10000 6.2 130 06:27 19.02.2020
2683 Clouds 25 1022 78 10000 5.1 120 04:24 19.02.2020
2684 Clouds 25 1021 78 10000 4.6 110 02:56 19.02.2020
2685 Clouds 25 1021 78 10000 4.6 110 02:31 19.02.2020
2686 Clouds 25 1021 83 10000 5.1 110 01:24 19.02.2020
2687 Clouds 25 1021 78 10000 5.1 130 00:50 19.02.2020
2688 Clouds 25 1021 78 10000 5.1 130 00:30 19.02.2020
2689 Clouds 26 1021 69 10000 7.2 140 23:44 18.02.2020
2690 Clouds 26 1020 65 10000 7.2 130 23:21 18.02.2020
2691 Clouds 27 1020 65 10000 7.2 130 22:59 18.02.2020
2692 Clouds 27 1020 65 10000 7.2 130 22:41 18.02.2020
2693 Clouds 27 1020 65 10000 7.2 130 22:19 18.02.2020
2694 Clouds 27 1020 73 0 2.24 127 21:56 18.02.2020
2695 Clouds 27 1020 73 0 2.24 92 21:37 18.02.2020
2696 Clouds 27 1020 73 0 2.24 337 21:19 18.02.2020
2697 Clouds 27 1020 72 0 2.68 79 20:56 18.02.2020
2698 Clouds 28 1020 73 0 1.34 125 20:38 18.02.2020
2699 Clouds 28 1020 73 0 1.34 125 20:38 18.02.2020
2700 Clouds 28 1021 61 10000 7.2 130 20:20 18.02.2020
2701 Clouds 28 1020 73 0 1.79 117 19:43 18.02.2020
2702 Clouds 27 1022 65 10000 8.2 130 19:20 18.02.2020
2703 Clouds 27 1022 65 10000 8.2 130 18:59 18.02.2020
2704 Clouds 27 1022 65 10000 8.2 130 18:41 18.02.2020
2705 Clouds 27 1022 65 10000 8.2 130 18:20 18.02.2020
2706 Clouds 27 1022 65 10000 8.2 130 18:20 18.02.2020
2707 Clouds 27 1022 74 10000 8.2 130 17:56 18.02.2020
2708 Clouds 27 1021 76 0 1.34 170 17:37 18.02.2020
2709 Clouds 27 1021 76 0 1.34 170 17:37 18.02.2020
2710 Clouds 27 1023 74 10000 8.7 120 17:18 18.02.2020
2711 -273 0 0 0 0 0 16:39 18.02.2020
2712 Clouds 26 1023 74 10000 8.7 120 16:19 18.02.2020
2713 Clouds 26 1022 74 10000 6.7 110 15:40 18.02.2020
2714 Clouds 26 1022 74 10000 6.7 110 15:20 18.02.2020
2715 Clouds 25 1022 83 10000 4.6 110 14:57 18.02.2020
2716 Clouds 25 1022 83 10000 4.6 110 14:57 18.02.2020
2717 Clouds 25 1022 83 10000 4.6 110 14:39 18.02.2020
2718 Clouds 25 1022 83 10000 4.6 110 14:20 18.02.2020
2719 Clouds 25 1021 83 10000 3.1 90 13:42 18.02.2020
2720 Clouds 24 1021 83 10000 3.1 90 13:23 18.02.2020
2721 Clouds 24 1021 83 10000 4.1 110 12:56 18.02.2020
2722 Clouds 24 1021 83 10000 4.1 110 12:38 18.02.2020
2723 Clouds 24 1021 83 10000 4.1 110 12:19 18.02.2020
2724 Clouds 24 1020 83 10000 3.6 110 11:44 18.02.2020
2725 Clouds 24 1020 83 10000 3.6 110 11:26 18.02.2020
2726 Clear 24 1019 82 0 7.68 91 10:57 18.02.2020
2727 Clear 24 1019 82 0 7.68 91 10:57 18.02.2020
2728 Clear 24 1019 82 0 7.68 91 10:38 18.02.2020
2729 Clouds 24 1020 83 10000 3.1 100 10:18 18.02.2020
2730 Clouds 24 1020 83 10000 3.1 100 09:56 18.02.2020
2731 Clouds 24 1020 83 10000 3.1 100 09:37 18.02.2020
2732 Clouds 24 1020 83 10000 3.1 100 09:18 18.02.2020
2733 Clear 24 1019 78 0 0.89 77 08:43 18.02.2020
2734 Clouds 24 1021 83 10000 3.1 100 08:21 18.02.2020
2735 Clouds 24 1021 83 10000 3.1 100 07:56 18.02.2020
2736 Clouds 24 1021 83 10000 3.1 100 07:33 18.02.2020
2737 Clouds 24 1021 83 10000 2.6 110 06:57 18.02.2020
2738 Clouds 24 1021 83 10000 2.6 110 06:39 18.02.2020
2739 Clouds 24 1021 83 10000 2.6 110 06:19 18.02.2020
2740 Clouds 24 1021 78 10000 3.6 110 05:33 18.02.2020
2741 Clouds 24 1021 78 10000 2.6 100 04:26 18.02.2020
2742 Clouds 24 1020 78 10000 2.6 110 02:59 18.02.2020
2743 Clouds 24 1020 78 10000 3.1 140 01:59 18.02.2020
2744 Clouds 24 1019 69 10000 5.1 140 00:54 18.02.2020
2745 Clouds 25 1019 69 10000 5.1 140 00:22 18.02.2020
2746 Clouds 25 1019 61 10000 4.6 140 23:45 17.02.2020
2747 Clouds 26 1019 61 10000 4.6 140 23:26 17.02.2020
2748 Clouds 26 1018 57 10000 5.1 140 22:59 17.02.2020
2749 Clouds 27 1018 57 10000 5.1 140 22:41 17.02.2020
2750 Clouds 27 1018 57 10000 5.1 140 22:20 17.02.2020
2751 Clouds 27 1019 57 10000 5.7 160 21:56 17.02.2020
2752 Clouds 27 1019 57 10000 5.7 160 21:37 17.02.2020
2753 Clouds 27 1019 57 10000 5.7 160 21:18 17.02.2020
2754 Clouds 26 1019 69 10000 6.7 150 20:40 17.02.2020
2755 Clouds 27 1019 69 10000 6.7 150 20:21 17.02.2020
2756 Clouds 27 1019 61 10000 5.1 150 19:57 17.02.2020
2757 Clouds 27 1019 61 10000 5.1 150 19:38 17.02.2020
2758 Clouds 27 1019 61 10000 5.1 150 19:19 17.02.2020
2759 Clouds 27 1020 65 10000 5.1 160 18:37 17.02.2020
2760 Clouds 27 1020 65 10000 5.1 160 18:19 17.02.2020
2761 Clouds 27 1020 65 10000 4.6 150 17:57 17.02.2020
2762 Clouds 26 1020 65 10000 4.6 150 17:36 17.02.2020
2763 Clouds 27 1020 65 10000 4.6 150 17:18 17.02.2020
2764 Clouds 27 1020 65 10000 5.7 150 16:43 17.02.2020
2765 Clouds 27 1020 65 10000 5.7 150 16:23 17.02.2020
2766 Clouds 26 1020 69 10000 3.1 120 15:59 17.02.2020
2767 Clouds 26 1020 69 10000 3.1 120 15:41 17.02.2020
2768 Clouds 26 1020 69 10000 3.1 120 15:22 17.02.2020
2769 Clouds 25 1019 88 10000 2.1 120 14:46 17.02.2020
2770 Clouds 25 1019 88 10000 2.1 120 14:27 17.02.2020
2771 Clouds 22 1018 93 10000 1 0 13:59 17.02.2020
2772 Clouds 21 1018 93 10000 1 0 13:39 17.02.2020
2773 Clouds 20 1018 93 10000 1 0 13:19 17.02.2020
2774 Clouds 19 1018 93 10000 0.5 0 12:47 17.02.2020
2775 Clouds 19 1018 93 10000 0.5 0 12:26 17.02.2020
2776 Clouds 19 1017 93 10000 3.91 108 11:59 17.02.2020
2777 Clouds 19 1017 93 10000 3.91 108 11:41 17.02.2020
2778 Clouds 19 1017 93 10000 3.91 108 11:22 17.02.2020
2779 Clouds 20 1017 94 10000 1 0 10:56 17.02.2020
2780 Clouds 20 1017 94 10000 1 0 10:37 17.02.2020
2781 Clouds 20 1017 94 10000 1 0 10:19 17.02.2020
2782 Clouds 21 1017 88 10000 1 0 09:42 17.02.2020
2783 Clouds 21 1017 88 10000 1 0 09:42 17.02.2020
2784 Clouds 21 1017 88 10000 1 0 09:23 17.02.2020
2785 Clouds 21 1018 88 10000 1 0 08:59 17.02.2020
2786 Clouds 21 1018 88 10000 1 0 08:41 17.02.2020
2787 -273 0 0 0 0 0 08:21 17.02.2020
2788 Clouds 21 1019 88 10000 1 0 07:47 17.02.2020
2789 Clouds 21 1019 88 10000 1 0 07:25 17.02.2020
2790 Clouds 22 1019 88 10000 3.84 115 06:52 17.02.2020
2791 Clouds 22 1019 88 10000 3.84 115 06:33 17.02.2020
2792 Clouds 22 1020 88 10000 1.5 160 05:58 17.02.2020
2793 Clouds 22 1020 88 10000 1.5 160 05:38 17.02.2020
2794 Clouds 23 1019 78 10000 2.1 150 03:22 17.02.2020
2795 Clouds 23 1018 78 10000 3.1 140 01:59 17.02.2020
2796 Clouds 24 1018 69 10000 4.6 140 00:51 17.02.2020
2797 Clouds 24 1018 69 10000 4.6 140 00:22 17.02.2020
2798 Clouds 25 1018 65 10000 4.6 160 23:54 16.02.2020
2799 Clouds 26 1018 65 10000 4.6 160 23:32 16.02.2020
2800 Clouds 26 1018 61 10000 4.1 140 22:58 16.02.2020
2801 Clear 26 1017 74 0 0.89 115 22:39 16.02.2020
2802 Clouds 26 1018 61 10000 5.1 150 22:21 16.02.2020
2803 Clouds 26 1018 61 10000 5.1 150 21:58 16.02.2020
2804 Clear 26 1017 71 0 0.89 68 21:40 16.02.2020
2805 Clouds 26 1018 61 10000 5.7 150 21:21 16.02.2020
2806 Clouds 27 1018 61 10000 5.7 150 20:57 16.02.2020
2807 Clouds 27 1018 61 10000 5.7 150 20:39 16.02.2020
2808 Clouds 27 1018 61 10000 5.7 150 20:21 16.02.2020
2809 Clouds 27 1019 65 10000 5.1 140 19:58 16.02.2020
2810 Clouds 27 1019 65 10000 5.1 140 19:38 16.02.2020
2811 Clouds 27 1019 65 10000 5.1 140 19:19 16.02.2020
2812 Clouds 27 1020 65 10000 5.1 130 18:43 16.02.2020
2813 Clouds 27 1020 65 10000 5.1 130 18:23 16.02.2020
2814 Clouds 27 1021 61 10000 5.7 140 17:55 16.02.2020
2815 Clouds 27 1021 61 10000 5.7 140 17:55 16.02.2020
2816 Clouds 27 1021 61 10000 5.7 140 17:36 16.02.2020
2817 Clouds 27 1021 61 10000 5.7 140 17:18 16.02.2020
2818 Clouds 27 1021 61 10000 5.7 140 17:18 16.02.2020
2819 Clouds 26 1021 65 10000 5.1 130 16:54 16.02.2020
2820 Clouds 26 1021 65 10000 5.1 130 16:36 16.02.2020
2821 Clouds 26 1021 65 10000 5.1 130 16:18 16.02.2020
2822 Clouds 25 1021 69 10000 5.1 130 15:41 16.02.2020
2823 Clouds 25 1021 69 10000 5.1 130 15:21 16.02.2020
2824 Clouds 24 1021 83 10000 3.1 110 14:42 16.02.2020
2825 Clouds 24 1021 83 10000 3.1 110 14:23 16.02.2020
2826 Clear 24 1020 78 0 0.89 129 13:55 16.02.2020
2827 Clear 23 1020 78 0 0.45 139 13:36 16.02.2020
2828 Clear 23 1020 78 0 5.25 103 13:18 16.02.2020
2829 Clear 24 1020 71 0 5.25 103 12:39 16.02.2020
2830 Clear 24 1020 71 0 5.25 103 12:19 16.02.2020
2831 Clear 24 1020 71 0 5.25 103 11:40 16.02.2020
2832 Clear 24 1019 76 0 5.19 104 11:19 16.02.2020
2833 Clear 24 1019 76 0 5.19 104 10:58 16.02.2020
2834 Clear 24 1019 76 0 5.19 104 10:40 16.02.2020
2835 Clear 24 1019 76 0 5.19 104 10:21 16.02.2020
2836 Clear 24 1019 76 0 5.19 104 10:21 16.02.2020
2837 Clear 24 1019 76 0 5.19 104 09:58 16.02.2020
2838 Clear 24 1019 76 0 5.19 104 09:37 16.02.2020
2839 Clear 24 1019 76 0 5.19 104 09:37 16.02.2020
2840 Clear 24 1019 76 0 5.19 104 09:37 16.02.2020
2841 Clear 23 1019 77 0 2.68 80 09:19 16.02.2020
2842 Clear 23 1019 77 0 2.68 80 08:49 16.02.2020
2843 Clear 23 1019 77 0 2.68 80 08:22 16.02.2020
2844 Clear 23 1019 77 0 2.68 80 08:22 16.02.2020
2845 Clear 23 1019 77 0 2.68 80 07:56 16.02.2020
2846 Clear 23 1019 77 0 2.68 80 07:38 16.02.2020
2847 Clouds 23 1021 88 10000 3.1 90 06:36 16.02.2020
2848 Clouds 23 1021 83 10000 2.6 90 05:37 16.02.2020
2849 Clouds 23 1022 83 10000 3.6 80 04:30 16.02.2020
2850 Clouds 24 1021 78 10000 2.1 90 02:37 16.02.2020
2851 Clouds 24 1021 78 10000 3.6 70 01:57 16.02.2020
2852 Clear 23 1020 78 0 4.02 42 01:37 16.02.2020
2853 Rain 24 1021 78 10000 2.6 50 01:18 16.02.2020
2854 Rain 24 1021 78 10000 2.6 50 00:40 16.02.2020
2855 Rain 24 1021 78 10000 2.6 50 00:19 16.02.2020
2856 Rain 25 1021 73 10000 3.1 60 23:42 15.02.2020
2857 Rain 25 1021 73 10000 3.1 60 23:23 15.02.2020
2858 Rain 25 1020 78 10000 2.1 340 22:56 15.02.2020
2859 Rain 25 1020 78 10000 2.1 340 22:38 15.02.2020
2860 Rain 25 1020 78 10000 2.1 340 22:18 15.02.2020
2861 Rain 24 1021 88 10000 1.5 250 21:43 15.02.2020
2862 Rain 24 1021 88 10000 1.5 250 21:23 15.02.2020
2863 Rain 24 1021 94 6000 3.1 220 20:55 15.02.2020
2864 Rain 24 1021 94 6000 3.1 220 20:36 15.02.2020
2865 Rain 24 1021 94 6000 3.1 220 20:18 15.02.2020
2866 Rain 26 1021 73 10000 2.1 280 19:40 15.02.2020
2867 Rain 26 1021 73 10000 2.1 280 19:21 15.02.2020
2868 Rain 26 1022 78 10000 3.1 50 18:40 15.02.2020
2869 Rain 26 1022 78 10000 3.1 50 18:20 15.02.2020
2870 Clouds 26 1023 78 10000 3.1 50 17:55 15.02.2020
2871 Clouds 25 1023 78 10000 3.1 50 17:37 15.02.2020
2872 Clouds 25 1023 78 10000 3.1 50 17:18 15.02.2020
2873 Clouds 26 1023 73 10000 2.1 110 16:40 15.02.2020
2874 Clouds 25 1023 73 10000 2.1 110 16:20 15.02.2020
2875 Clouds 25 1022 78 10000 1.5 110 15:49 15.02.2020
2876 Clouds 25 1022 78 10000 1.5 110 15:31 15.02.2020
2877 Clouds 24 1022 100 10000 3.64 118 14:57 15.02.2020
2878 Clouds 24 1022 100 10000 3.64 118 14:38 15.02.2020
2879 Clouds 24 1022 100 10000 3.51 124 14:18 15.02.2020
2880 Clouds 24 1022 100 10000 3.51 124 14:18 15.02.2020
2881 Clouds 22 1021 100 10000 0.5 0 13:41 15.02.2020
2882 Clouds 22 1021 94 10000 3.02 126 13:22 15.02.2020
2883 Clouds 21 1021 94 10000 3.02 126 12:55 15.02.2020
2884 Clouds 21 1021 94 10000 3.02 126 12:37 15.02.2020
2885 Clouds 21 1021 94 10000 3.02 126 12:19 15.02.2020
2886 Clouds 21 1021 94 10000 0.5 60 11:41 15.02.2020
2887 Clouds 21 1021 94 10000 0.5 60 11:23 15.02.2020
2888 Clouds 20 1021 94 10000 1 20 10:46 15.02.2020
2889 Clouds 20 1021 94 10000 1 20 10:27 15.02.2020
2890 Clouds 20 1021 94 10000 1 20 10:27 15.02.2020
2891 Clouds 21 1021 94 10000 3.39 120 09:45 15.02.2020
2892 Clouds 21 1021 94 10000 3.39 120 09:25 15.02.2020
2893 Clear 21 1021 94 10000 0.5 330 08:59 15.02.2020
2894 Clear 21 1021 94 10000 0.5 330 08:59 15.02.2020
2895 Clear 21 1021 94 10000 0.5 330 08:39 15.02.2020
2896 Clouds 22 1021 94 10000 0.5 330 08:20 15.02.2020
2897 Clouds 22 1021 88 10000 2.86 139 07:41 15.02.2020
2898 Clouds 22 1021 88 10000 2.86 139 07:22 15.02.2020
2899 Clouds 23 1022 94 10000 1.5 160 06:38 15.02.2020
2900 Clouds 22 1022 94 10000 1.5 160 06:20 15.02.2020
2901 Clouds 24 1022 83 10000 2.6 120 04:51 15.02.2020
2902 Clouds 24 1022 83 10000 2.6 120 04:26 15.02.2020
2903 Clouds 23 1021 75 0 3.33 139 02:59 15.02.2020
2904 Clouds 23 1021 75 0 3.33 139 02:28 15.02.2020
2905 Clear 24 1020 75 0 0.45 113 01:58 15.02.2020
2906 Clear 24 1020 76 0 3.97 141 01:36 15.02.2020
2907 Clouds 25 1020 78 10000 3.1 150 00:30 15.02.2020
2908 Clouds 25 1020 69 10000 6.2 150 23:48 14.02.2020
2909 Clouds 26 1020 69 10000 6.2 150 23:21 14.02.2020
2910 Clouds 27 1019 61 10000 4.6 160 22:58 14.02.2020
2911 Clouds 27 1019 61 10000 4.6 160 22:40 14.02.2020
2912 Clouds 27 1019 61 10000 4.6 160 22:21 14.02.2020
2913 Clouds 27 1019 61 10000 5.1 160 21:49 14.02.2020
2914 Clouds 27 1019 61 10000 5.1 160 21:49 14.02.2020
2915 Clouds 27 1019 61 10000 5.1 160 21:30 14.02.2020
2916 Clouds 28 1020 61 10000 6.2 160 20:48 14.02.2020
2917 Clouds 28 1020 61 10000 6.2 160 20:21 14.02.2020
2918 Clouds 28 1021 65 10000 5.7 170 19:59 14.02.2020
2919 Clouds 28 1021 65 10000 5.7 170 19:41 14.02.2020
2920 Clouds 28 1021 65 10000 5.7 170 19:41 14.02.2020
2921 Clouds 28 1021 65 10000 5.7 170 19:41 14.02.2020
2922 Clouds 28 1021 65 10000 5.7 170 19:41 14.02.2020
2923 Clouds 28 1021 65 10000 5.7 170 19:22 14.02.2020
2924 Clouds 28 1021 69 10000 5.1 170 18:56 14.02.2020
2925 Clouds 28 1021 69 10000 5.1 170 18:38 14.02.2020
2926 Clouds 28 1021 69 10000 5.1 170 18:19 14.02.2020
2927 Clouds 27 1022 74 10000 4.6 170 17:44 14.02.2020
2928 Clouds 27 1022 74 10000 4.6 170 17:21 14.02.2020
2929 Clouds 28 1022 69 10000 4.1 160 16:58 14.02.2020
2930 Clouds 28 1022 69 10000 4.1 160 16:58 14.02.2020
2931 Clouds 28 1022 69 10000 4.1 160 16:39 14.02.2020
2932 Clouds 28 1022 69 10000 4.1 160 16:21 14.02.2020
2933 Clouds 26 1022 78 10000 5.1 150 15:56 14.02.2020
2934 Clouds 26 1022 78 10000 5.1 150 15:37 14.02.2020
2935 Clouds 26 1022 78 10000 5.1 150 15:37 14.02.2020
2936 Clouds 26 1022 78 10000 5.1 150 15:37 14.02.2020
2937 Clouds 26 1022 78 10000 5.1 150 15:37 14.02.2020
2938 Clouds 26 1022 78 10000 5.1 150 15:37 14.02.2020
2939 Clouds 26 1022 78 10000 5.1 150 15:19 14.02.2020
2940 Clouds 25 1022 94 10000 2.1 130 14:57 14.02.2020
2941 Clouds 25 1022 94 10000 2.1 130 14:38 14.02.2020
2942 Clouds 24 1022 94 10000 2.1 130 14:20 14.02.2020
2943 Clouds 23 1021 94 10000 2.1 150 13:40 14.02.2020
2944 Clouds 23 1021 94 10000 2.1 150 13:21 14.02.2020
2945 Clouds 22 1020 94 10000 8.2 160 12:58 14.02.2020
2946 Clouds 22 1020 94 10000 8.2 160 12:40 14.02.2020
2947 Clouds 22 1020 94 10000 8.2 160 12:21 14.02.2020
2948 Clouds 22 1020 94 10000 0.5 0 11:58 14.02.2020
2949 Clouds 22 1020 94 10000 0.5 0 11:40 14.02.2020
2950 Clouds 22 1020 94 10000 0.5 0 11:20 14.02.2020
2951 Clouds 22 1020 94 10000 0.5 0 11:20 14.02.2020
2952 Clouds 21 1020 100 10000 0.5 0 10:55 14.02.2020
2953 Rain 25 1019 82 0 4.53 143 10:36 14.02.2020
2954 Rain 25 1019 82 0 4.53 143 10:18 14.02.2020
2955 Rain 25 1019 82 0 4.53 143 09:39 14.02.2020
2956 Rain 25 1019 82 0 4.53 143 09:19 14.02.2020
2957 Rain 25 1019 82 0 4.53 143 08:43 14.02.2020
2958 Rain 25 1019 82 0 4.53 143 08:24 14.02.2020
2959 Clear 25 1020 81 0 5.15 132 07:51 14.02.2020
2960 Clear 23 1020 65 0 5.15 132 07:33 14.02.2020
2961 Clouds 23 1021 94 10000 2.6 130 06:55 14.02.2020
2962 Clouds 23 1021 94 10000 2.6 130 06:23 14.02.2020
2963 Clouds 23 1021 94 10000 4.1 140 05:44 14.02.2020
2964 Clouds 23 1020 88 10000 3.1 160 03:52 14.02.2020
2965 Clouds 23 1020 88 10000 3.1 160 03:28 14.02.2020
2966 Clouds 23 1020 88 10000 2.6 160 02:19 14.02.2020
2967 Clouds 24 1019 83 10000 4.1 160 01:21 14.02.2020
2968 Clouds 25 1019 78 10000 5.1 170 00:37 14.02.2020
2969 Clouds 25 1019 78 10000 5.1 170 00:18 14.02.2020
2970 Clouds 26 1019 74 10000 5.7 180 23:41 13.02.2020
2971 Clouds 26 1019 74 10000 5.7 180 23:19 13.02.2020
2972 Clouds 27 1019 74 10000 5.7 170 22:41 13.02.2020
2973 Clouds 27 1019 74 10000 5.7 170 22:20 13.02.2020
2974 Clouds 28 1019 69 10000 6.7 170 21:59 13.02.2020
2975 Clouds 28 1019 69 10000 6.7 170 21:40 13.02.2020
2976 Clouds 28 1019 69 10000 6.7 170 21:21 13.02.2020
2977 Clear 28 1018 73 0 1.79 170 20:43 13.02.2020
2978 Clouds 27 1020 69 10000 7.2 170 20:23 13.02.2020
2979 Clouds 27 1020 69 10000 7.2 170 19:59 13.02.2020
2980 Clouds 27 1020 69 10000 7.2 170 19:40 13.02.2020
2981 Clouds 27 1020 69 10000 7.2 170 19:22 13.02.2020
2982 Clear 27 1018 76 0 0.89 107 18:59 13.02.2020
2983 Clear 27 1019 76 0 0.89 117 18:41 13.02.2020
2984 Clear 27 1019 77 0 1.34 107 18:22 13.02.2020
2985 Clear 28 1019 75 0 2.24 223 17:58 13.02.2020
2986 Clear 27 1020 77 0 1.79 128 17:37 13.02.2020
2987 Clear 27 1020 75 0 1.34 115 17:19 13.02.2020
2988 Clear 27 1020 76 0 1.79 115 16:55 13.02.2020
2989 Clear 27 1020 76 0 1.79 115 16:55 13.02.2020
2990 Clear 27 1020 76 0 0.45 240 16:36 13.02.2020
2991 Clear 27 1020 76 0 0.45 240 16:36 13.02.2020
2992 Clouds 27 1021 74 10000 7.7 150 16:18 13.02.2020
2993 Clouds 26 1021 74 10000 7.7 150 15:54 13.02.2020
2994 Clouds 26 1021 74 10000 7.7 150 15:36 13.02.2020
2995 Clouds 26 1021 74 10000 7.7 150 15:18 13.02.2020
2996 Clouds 25 1021 78 10000 5.1 150 14:40 13.02.2020
2997 Clouds 25 1021 78 10000 5.1 150 14:22 13.02.2020
2998 Clouds 24 1021 88 10000 3.6 150 13:59 13.02.2020
2999 Clouds 24 1021 88 10000 3.6 150 13:41 13.02.2020
3000 Rain 23 1020 75 0 8.07 140 13:18 13.02.2020
3001 Rain 25 1020 79 0 8.53 139 12:48 13.02.2020
3002 Clouds 23 1019 88 10000 4.1 150 12:30 13.02.2020
3003 Clouds 23 1019 88 10000 4.1 150 12:30 13.02.2020
3004 Clouds 23 1019 88 10000 4.1 150 11:58 13.02.2020
3005 Clouds 23 1019 88 10000 4.1 150 11:40 13.02.2020
3006 Clouds 23 1019 88 10000 4.1 150 11:19 13.02.2020
3007 Clouds 23 1019 88 10000 4.1 150 10:43 13.02.2020
3008 Clouds 23 1019 88 10000 5.1 140 10:24 13.02.2020
3009 Clouds 25 1018 79 0 7.76 137 09:47 13.02.2020
3010 Clouds 24 1020 88 10000 4.6 140 09:24 13.02.2020
3011 Clouds 24 1020 88 10000 4.6 140 08:48 13.02.2020
3012 Clouds 24 1020 88 10000 4.6 140 08:20 13.02.2020
3013 Clouds 23 1019 74 0 8.58 128 07:45 13.02.2020
3014 Clouds 24 1021 88 10000 4.6 130 07:24 13.02.2020
3015 Clouds 24 1021 88 10000 4.6 130 06:56 13.02.2020
3016 Clouds 24 1021 88 10000 4.6 130 06:38 13.02.2020
3017 Clouds 24 1021 88 10000 4.6 140 05:56 13.02.2020
3018 Clouds 24 1021 88 10000 4.1 140 04:50 13.02.2020
3019 Clouds 24 1021 88 10000 4.1 140 04:24 13.02.2020
3020 Clouds 24 1021 88 10000 4.6 140 03:41 13.02.2020
3021 Clouds 24 1021 83 10000 4.1 140 02:59 13.02.2020
3022 Clouds 24 1021 83 10000 4.1 140 02:20 13.02.2020
3023 Clouds 24 1020 83 10000 4.6 120 01:54 13.02.2020
3024 Clouds 24 1020 83 10000 4.6 120 01:54 13.02.2020
3025 Clouds 25 1020 83 10000 6.2 140 01:25 13.02.2020
3026 Clouds 25 1020 83 10000 6.2 140 00:28 13.02.2020
3027 Clouds 25 1020 74 10000 6.2 140 23:43 12.02.2020
3028 Clouds 26 1020 74 10000 6.2 140 23:23 12.02.2020
3029 Clouds 26 1020 69 10000 6.7 140 22:59 12.02.2020
3030 Clouds 27 1020 69 10000 6.7 140 22:41 12.02.2020
3031 Clouds 27 1020 69 10000 6.7 140 22:23 12.02.2020
3032 Clouds 27 1020 69 10000 6.7 130 21:55 12.02.2020
3033 Clouds 27 1020 69 10000 6.7 130 21:37 12.02.2020
3034 Clouds 27 1020 69 10000 6.7 130 21:18 12.02.2020
3035 Clouds 27 1020 69 10000 7.2 150 20:43 12.02.2020
3036 Clouds 27 1020 69 10000 7.2 150 20:25 12.02.2020
3037 Clouds 27 1020 74 10000 7.7 150 20:00 12.02.2020
3038 Clouds 26 1020 74 10000 7.7 150 19:41 12.02.2020
3039 Clouds 26 1020 74 10000 7.7 150 19:22 12.02.2020
3040 Clouds 27 1021 74 10000 7.7 140 18:50 12.02.2020
3041 Clouds 27 1021 74 10000 7.7 140 18:20 12.02.2020
3042 Clouds 27 1021 74 10000 7.7 140 18:20 12.02.2020
3043 Clouds 27 1021 74 10000 7.7 140 18:20 12.02.2020
3044 Clouds 26 1022 78 10000 7.7 140 17:59 12.02.2020
3045 Clouds 26 1022 78 10000 7.7 140 17:40 12.02.2020
3046 Clouds 26 1022 78 10000 7.7 140 17:19 12.02.2020
3047 Clouds 26 1022 78 10000 6.7 130 16:56 12.02.2020
3048 Clouds 26 1022 78 10000 6.7 130 16:36 12.02.2020
3049 Clouds 26 1022 78 10000 6.7 130 16:18 12.02.2020
3050 Clouds 26 1022 78 10000 6.7 130 16:18 12.02.2020
3051 Clouds 26 1021 83 10000 5.7 130 15:38 12.02.2020
3052 Clouds 26 1021 83 10000 5.7 130 15:19 12.02.2020
3053 Clouds 25 1021 88 10000 3.6 130 14:43 12.02.2020
3054 Clouds 24 1021 88 10000 3.6 130 14:21 12.02.2020
3055 Clouds 24 1021 94 10000 3.6 120 13:59 12.02.2020
3056 Clouds 23 1021 94 10000 3.6 120 13:40 12.02.2020
3057 Clouds 23 1021 94 10000 3.6 120 13:22 12.02.2020
3058 Clouds 23 1020 94 10000 3.1 130 12:58 12.02.2020
3059 Clouds 23 1020 94 10000 3.1 130 12:39 12.02.2020
3060 Clouds 23 1020 94 10000 3.1 130 12:19 12.02.2020
3061 Clouds 23 1020 94 10000 3.6 140 11:59 12.02.2020
3062 Clouds 23 1020 94 10000 3.6 140 11:40 12.02.2020
3063 Clouds 23 1020 94 10000 3.6 140 11:20 12.02.2020
3064 Clouds 23 1020 94 10000 3.1 140 10:56 12.02.2020
3065 Clouds 23 1020 94 10000 3.1 140 10:38 12.02.2020
3066 Clouds 23 1020 94 10000 3.1 140 10:20 12.02.2020
3067 Clouds 23 1020 94 10000 3.1 140 10:20 12.02.2020
3068 Clouds 23 1020 94 10000 2.6 130 09:42 12.02.2020
3069 Clouds 23 1020 94 10000 2.6 130 09:42 12.02.2020
3070 Clouds 23 1020 94 10000 2.6 130 09:24 12.02.2020
3071 Clouds 23 1020 94 10000 2.6 130 09:24 12.02.2020
3072 Clouds 23 1021 94 10000 2.6 150 08:58 12.02.2020
3073 Clouds 23 1021 94 10000 2.6 150 08:38 12.02.2020
3074 Clouds 23 1021 94 10000 2.6 150 08:20 12.02.2020
3075 Clouds 23 1021 94 10000 2.6 150 08:20 12.02.2020
3076 Clouds 23 1021 94 10000 2.6 150 08:20 12.02.2020
3077 Clouds 24 1021 88 10000 3.6 140 07:45 12.02.2020
3078 Clouds 24 1021 88 10000 3.6 140 07:45 12.02.2020
3079 Clouds 24 1021 88 10000 3.6 140 07:24 12.02.2020
3080 Clouds 24 1022 88 10000 3.1 130 06:59 12.02.2020
3081 Clouds 24 1022 88 10000 3.1 130 06:24 12.02.2020
3082 Clouds 24 1022 88 10000 3.1 140 05:44 12.02.2020
3083 Clouds 24 1022 88 10000 3.6 140 04:59 12.02.2020
3084 Clouds 24 1022 88 10000 3.6 140 04:40 12.02.2020
3085 Clouds 24 1022 88 10000 3.1 140 03:42 12.02.2020
3086 Clouds 24 1022 88 10000 3.1 140 03:23 12.02.2020
3087 Clouds 24 1021 88 10000 3.6 130 02:30 12.02.2020
3088 Clouds 24 1021 83 10000 4.1 130 01:59 12.02.2020
3089 Clouds 24 1021 83 10000 5.1 150 00:46 12.02.2020
3090 Clouds 25 1021 83 10000 5.1 150 00:26 12.02.2020
3091 Clouds 25 1020 78 10000 7.2 140 23:58 11.02.2020
3092 Clouds 26 1020 78 10000 7.2 140 23:40 11.02.2020
3093 Clouds 26 1020 78 10000 7.2 140 23:22 11.02.2020
3094 Clouds 27 1020 78 10000 6.7 150 22:55 11.02.2020
3095 Clouds 27 1020 78 10000 6.7 150 22:37 11.02.2020
3096 Clouds 27 1020 78 10000 6.7 150 22:18 11.02.2020
3097 Clouds 27 1021 74 10000 7.2 140 21:55 11.02.2020
3098 Clouds 27 1021 74 10000 7.2 140 21:37 11.02.2020
3099 Clouds 27 1021 74 10000 7.2 140 21:18 11.02.2020
3100 Clouds 27 1021 74 10000 7.2 140 21:18 11.02.2020
3101 Clouds 28 1021 69 10000 7.7 150 20:54 11.02.2020
3102 Clouds 28 1021 69 10000 7.7 150 20:54 11.02.2020
3103 Clouds 28 1021 69 10000 7.7 150 20:36 11.02.2020
3104 Clouds 28 1021 69 10000 7.7 150 20:18 11.02.2020
3105 Clouds 27 1022 78 10000 7.7 150 19:42 11.02.2020
3106 Clouds 27 1022 78 10000 7.7 150 19:23 11.02.2020
3107 Clouds 27 1022 74 10000 7.7 150 18:56 11.02.2020
3108 Clouds 27 1022 74 10000 7.7 150 18:37 11.02.2020
3109 Clouds 27 1022 74 10000 7.7 150 18:19 11.02.2020
3110 Clouds 27 1023 74 10000 7.7 150 17:55 11.02.2020
3111 Clouds 27 1023 74 10000 7.7 150 17:36 11.02.2020
3112 Clouds 27 1023 74 10000 7.7 150 17:18 11.02.2020
3113 Clouds 27 1023 74 10000 7.7 140 16:55 11.02.2020
3114 Clouds 27 1023 74 10000 7.7 140 16:36 11.02.2020
3115 Clouds 27 1023 74 10000 7.7 140 16:36 11.02.2020
3116 Clouds 27 1023 74 10000 7.7 140 16:18 11.02.2020
3117 Clouds 26 1022 78 10000 6.7 130 15:43 11.02.2020
3118 Clouds 26 1022 78 10000 6.7 130 15:23 11.02.2020
3119 Clouds 25 1022 83 10000 467.6 130 14:44 11.02.2020
3120 Clouds 25 1022 83 10000 467.6 130 14:20 11.02.2020
3121 Clouds 24 1022 88 10000 4.6 120 13:59 11.02.2020
3122 Clouds 24 1022 88 10000 4.6 120 13:41 11.02.2020
3123 Clouds 24 1022 88 10000 4.6 120 13:21 11.02.2020
3124 Clouds 24 1021 88 0 6.63 112 12:57 11.02.2020
3125 Clouds 24 1021 88 0 6.63 112 12:39 11.02.2020
3126 Clouds 23 1021 94 10000 4.1 120 12:20 11.02.2020
3127 Clouds 23 1021 94 10000 4.1 120 11:41 11.02.2020
3128 Clouds 23 1021 94 10000 4.1 120 11:20 11.02.2020
3129 Rain 24 1019 88 0 7.57 102 10:56 11.02.2020
3130 Rain 24 1019 88 0 7.57 102 10:37 11.02.2020
3131 Rain 24 1019 88 0 7.57 102 10:19 11.02.2020
3132 Rain 24 1019 88 0 7.57 102 09:55 11.02.2020
3133 Rain 24 1019 88 0 7.57 102 09:37 11.02.2020
3134 Rain 24 1019 88 0 7.57 102 09:18 11.02.2020
3135 Rain 24 1019 88 0 7.57 102 08:41 11.02.2020
3136 Rain 24 1019 88 0 7.57 102 08:41 11.02.2020
3137 Rain 24 1019 88 0 7.35 106 08:23 11.02.2020
3138 Clouds 24 1021 89 0 6.62 89 07:48 11.02.2020
3139 Clouds 23 1021 64 0 6.62 89 07:25 11.02.2020
3140 Clouds 23 1021 64 0 6.62 89 06:43 11.02.2020
3141 Clouds 24 1023 88 10000 4.1 90 06:22 11.02.2020
3142 Clouds 24 1023 88 10000 4.1 90 05:47 11.02.2020
3143 Clouds 24 1023 88 10000 4.1 90 05:23 11.02.2020
3144 Clouds 24 1023 83 10000 4.6 90 04:37 11.02.2020
3145 Clouds 24 1023 78 10000 4.1 100 02:44 11.02.2020
3146 Clouds 24 1023 78 10000 4.1 100 02:23 11.02.2020
3147 Clouds 24 1023 85 10000 4.6 90 01:35 11.02.2020
3148 Rain 24 1022 73 10000 4.6 90 00:38 11.02.2020
3149 Rain 24 1022 73 10000 6.2 100 23:53 10.02.2020
3150 Rain 24 1022 73 10000 6.2 100 23:33 10.02.2020
3151 Rain 24 1022 73 10000 6.2 100 23:33 10.02.2020
3152 Clouds 25 1022 65 10000 6.2 120 22:58 10.02.2020
3153 Clouds 25 1022 65 10000 6.2 120 22:39 10.02.2020
3154 Clouds 25 1022 65 10000 6.2 120 22:20 10.02.2020
3155 Clouds 26 1021 61 10000 7.2 120 21:43 10.02.2020
3156 Clouds 26 1021 61 10000 7.2 120 21:25 10.02.2020
3157 Clouds 26 1021 69 10000 7.2 130 20:57 10.02.2020
3158 Clouds 26 1021 69 10000 7.2 130 20:38 10.02.2020
3159 Clouds 26 1021 69 10000 7.2 130 20:20 10.02.2020
3160 Clouds 26 1023 74 10000 6.2 100 19:58 10.02.2020
3161 Clouds 26 1023 74 10000 6.2 100 19:38 10.02.2020
3162 Clouds 26 1023 74 10000 6.2 100 19:18 10.02.2020
3163 Clouds 25 1023 74 10000 7.7 110 18:58 10.02.2020
3164 Clouds 25 1023 74 10000 7.7 110 18:39 10.02.2020
3165 Clouds 25 1023 74 10000 7.7 110 18:20 10.02.2020
3166 Clouds 25 1024 69 10000 7.2 110 17:56 10.02.2020
3167 Clouds 26 1024 69 10000 7.2 110 17:37 10.02.2020
3168 Clouds 26 1024 69 10000 7.2 110 17:37 10.02.2020
3169 Clouds 26 1024 69 10000 7.2 110 17:18 10.02.2020
3170 Clouds 26 1024 69 10000 7.2 110 17:18 10.02.2020
3171 Clouds 25 1025 78 10000 7.2 100 16:56 10.02.2020
3172 Clouds 25 1025 78 10000 7.2 100 16:38 10.02.2020
3173 Clouds 25 1025 78 10000 7.2 100 16:18 10.02.2020
3174 Clouds 24 1024 83 10000 7.2 100 15:42 10.02.2020
3175 Clouds 24 1024 83 10000 7.2 100 15:22 10.02.2020
3176 Rain 23 1024 83 10000 4.6 90 14:59 10.02.2020
3177 Rain 23 1024 83 10000 4.6 90 14:40 10.02.2020
3178 Rain 23 1024 83 10000 4.6 90 14:19 10.02.2020
3179 Rain 23 1024 83 10000 4.6 90 14:19 10.02.2020
3180 Clouds 23 1024 83 10000 6.2 90 13:55 10.02.2020
3181 Clouds 23 1024 83 10000 6.2 90 13:37 10.02.2020
3182 Clouds 23 1024 83 10000 6.2 90 13:18 10.02.2020
3183 Clouds 23 1023 83 10000 5.7 100 12:43 10.02.2020
3184 Clouds 23 1023 83 10000 5.7 100 12:24 10.02.2020
3185 Clouds 22 1023 88 10000 5.7 90 11:54 10.02.2020
3186 Clouds 22 1023 88 10000 5.7 90 11:54 10.02.2020
3187 Clouds 22 1023 88 10000 5.7 90 11:36 10.02.2020
3188 Clouds 22 1023 88 10000 5.7 90 11:18 10.02.2020
3189 Clouds 22 1023 88 10000 5.7 90 10:42 10.02.2020
3190 Clouds 22 1023 88 10000 5.7 90 10:23 10.02.2020
3191 Clouds 22 1023 88 10000 5.7 90 09:44 10.02.2020
3192 Clouds 23 1022 83 0 11.28 73 09:23 10.02.2020
3193 Clouds 23 1022 83 0 11.28 73 08:41 10.02.2020
3194 Clouds 22 1025 88 10000 6.7 80 08:22 10.02.2020
3195 Clouds 22 1025 88 10000 6.7 80 07:57 10.02.2020
3196 Clouds 22 1025 88 10000 6.7 80 07:35 10.02.2020
3197 Clouds 22 1025 83 10000 7.2 90 06:53 10.02.2020
3198 Clouds 22 1026 88 10000 8.2 90 05:40 10.02.2020
3199 Clouds 23 1025 78 10000 7.7 90 03:59 10.02.2020
3200 Clouds 23 1025 78 10000 7.7 90 03:28 10.02.2020
3201 Clouds 23 1025 83 10000 7.2 90 02:51 10.02.2020
3202 Clouds 23 1025 83 10000 7.2 80 01:34 10.02.2020
3203 Rain 23 1025 83 10000 7.2 80 00:45 10.02.2020
3204 Rain 23 1025 83 10000 7.2 80 00:27 10.02.2020
3205 Rain 23 1024 78 10000 7.2 80 23:42 09.02.2020
3206 Rain 23 1024 78 10000 7.2 80 23:24 09.02.2020
3207 Rain 23 1024 73 10000 7.7 90 22:45 09.02.2020
3208 Rain 23 1024 73 10000 7.7 90 22:23 09.02.2020
3209 Rain 23 1024 78 10000 6.7 80 21:59 09.02.2020
3210 Rain 23 1024 78 10000 6.7 80 21:40 09.02.2020
3211 Rain 23 1024 78 10000 6.7 80 21:21 09.02.2020
3212 Clouds 24 1025 73 10000 8.2 80 20:45 09.02.2020
3213 Clouds 24 1025 73 10000 8.2 80 20:21 09.02.2020
3214 Clouds 24 1025 73 10000 8.2 80 19:55 09.02.2020
3215 Clouds 24 1025 73 10000 8.2 80 19:37 09.02.2020
3216 Clouds 24 1025 73 10000 8.2 80 19:18 09.02.2020
3217 Clouds 24 1026 73 10000 7.7 80 18:42 09.02.2020
3218 Clouds 24 1026 73 10000 7.7 80 18:23 09.02.2020
3219 Clouds 24 1026 73 10000 7.7 80 18:23 09.02.2020
3220 Clouds 24 1026 73 10000 7.7 80 17:56 09.02.2020
3221 Clouds 24 1026 73 10000 7.7 80 17:37 09.02.2020
3222 Clouds 24 1026 73 10000 7.7 80 17:19 09.02.2020
3223 Clouds 23 1026 78 10000 8.2 70 16:41 09.02.2020
3224 Clouds 23 1026 78 10000 8.2 70 16:22 09.02.2020
3225 Clouds 23 1026 83 10000 7.2 70 15:57 09.02.2020
3226 Clouds 23 1026 83 10000 7.2 70 15:57 09.02.2020
3227 Clouds 23 1026 83 10000 7.2 70 15:39 09.02.2020
3228 Clouds 23 1026 83 10000 7.2 70 15:20 09.02.2020
3229 Clouds 23 1026 83 10000 6.2 80 14:55 09.02.2020
3230 Clouds 23 1026 83 10000 6.2 80 14:36 09.02.2020
3231 Clouds 23 1026 83 10000 6.2 80 14:18 09.02.2020
3232 Clouds 23 1025 78 10000 7.7 60 13:41 09.02.2020
3233 Clouds 23 1024 83 10000 6.7 60 13:21 09.02.2020
3234 Clouds 23 1024 83 10000 6.7 60 12:42 09.02.2020
3235 Clouds 23 1024 83 10000 6.7 60 12:20 09.02.2020
3236 Clouds 22 1024 88 10000 7.2 60 11:58 09.02.2020
3237 Clouds 22 1024 88 10000 7.2 60 11:39 09.02.2020
3238 Clouds 22 1024 88 10000 7.2 60 11:18 09.02.2020
3239 Rain 22 1024 88 10000 6.7 50 10:42 09.02.2020
3240 Rain 23 1023 85 0 10.83 38 10:23 09.02.2020
3241 Rain 23 1023 85 0 10.83 38 10:23 09.02.2020
3242 Rain 23 1023 85 0 10.83 38 09:56 09.02.2020
3243 Rain 23 1023 85 0 10.83 38 09:38 09.02.2020
3244 Rain 23 1023 85 0 10.83 38 09:18 09.02.2020
3245 Rain 22 1023 66 0 10.83 38 08:39 09.02.2020
3246 Rain 22 1023 66 0 9.68 38 08:20 09.02.2020
3247 Rain 22 1023 66 0 8.96 44 07:49 09.02.2020
3248 Clouds 23 1024 83 10000 4.6 70 06:54 09.02.2020
3249 Clouds 23 1024 83 10000 4.6 70 06:36 09.02.2020
3250 Clouds 23 1025 83 10000 4.1 70 05:49 09.02.2020
3251 Clouds 23 1025 83 10000 4.1 70 05:31 09.02.2020
3252 Rain 23 1023 72 0 0.45 59 03:58 09.02.2020
3253 Rain 23 1023 73 0 0.45 38 02:47 09.02.2020
3254 Rain 23 1022 72 0 7.2 60 02:27 09.02.2020
3255 Clouds 22 1022 71 0 0.45 55 01:35 09.02.2020
3256 Clouds 22 1022 70 0 0.45 53 00:52 09.02.2020
3257 Clouds 22 1021 71 0 1.34 63 00:28 09.02.2020
3258 Clouds 22 1021 73 0 2.68 86 23:45 08.02.2020
3259 Clouds 23 1021 73 10000 5.7 80 23:23 08.02.2020
3260 Clouds 23 1021 73 10000 5.7 80 22:55 08.02.2020
3261 Clouds 22 1021 74 0 3.58 62 22:37 08.02.2020
3262 Clouds 22 1021 74 0 3.58 63 22:19 08.02.2020
3263 Clouds 23 1020 76 0 4.02 50 21:42 08.02.2020
3264 Clouds 23 1020 77 0 4.02 18 21:24 08.02.2020
3265 Clouds 23 1020 76 0 4.02 46 20:58 08.02.2020
3266 Clouds 23 1020 76 0 4.02 32 20:39 08.02.2020
3267 Rain 23 1020 76 0 3.58 16 20:19 08.02.2020
3268 Rain 23 1021 76 0 3.58 49 19:56 08.02.2020
3269 Rain 22 1021 75 0 3.13 65 19:38 08.02.2020
3270 Clouds 23 1023 83 10000 5.7 90 19:19 08.02.2020
3271 Clouds 23 1023 83 10000 5.7 90 18:43 08.02.2020
3272 Rain 23 1024 83 10000 4.6 90 18:24 08.02.2020
3273 Rain 23 1024 83 10000 4.6 90 17:44 08.02.2020
3274 Rain 22 1024 83 10000 4.6 90 17:23 08.02.2020
3275 Rain 22 1024 88 10000 4.6 80 16:59 08.02.2020
3276 Rain 22 1024 88 10000 4.6 80 16:40 08.02.2020
3277 Rain 22 1024 88 10000 4.6 80 16:21 08.02.2020
3278 Rain 22 1023 88 10000 3.6 70 15:44 08.02.2020
3279 Rain 22 1023 88 10000 3.6 70 15:20 08.02.2020
3280 Rain 21 1023 94 10000 4.1 60 14:59 08.02.2020
3281 Rain 21 1023 94 10000 4.1 60 14:41 08.02.2020
3282 Rain 21 1023 94 10000 4.1 60 14:19 08.02.2020
3283 Rain 21 1022 94 10000 3.1 70 13:43 08.02.2020
3284 Clouds 21 1021 94 10000 3.6 50 13:23 08.02.2020
3285 Clouds 21 1021 94 10000 3.6 50 12:57 08.02.2020
3286 Clouds 21 1021 94 10000 3.6 50 12:38 08.02.2020
3287 Clouds 21 1021 94 10000 3.6 50 12:38 08.02.2020
3288 Clouds 21 1021 94 10000 3.6 50 12:19 08.02.2020
3289 Rain 22 1021 90 0 8.49 30 11:43 08.02.2020
3290 Rain 21 1020 94 10000 2.6 30 11:22 08.02.2020
3291 Rain 21 1020 94 10000 2.6 30 10:57 08.02.2020
3292 Rain 21 1020 94 10000 2.6 30 10:38 08.02.2020
3293 Rain 21 1020 94 10000 2.6 30 10:20 08.02.2020
3294 Rain 22 1019 91 0 7.64 30 09:49 08.02.2020
3295 Rain 22 1018 75 0 7.64 30 09:24 08.02.2020
3296 Clouds 22 1016 78 10000 2.6 80 08:41 08.02.2020
3297 Clouds 22 1016 78 10000 2.6 80 08:41 08.02.2020
3298 Clouds 22 1016 78 10000 2.6 80 08:22 08.02.2020
3299 Clouds 22 1020 88 10000 3.6 70 07:53 08.02.2020
3300 Clouds 22 1020 88 10000 3.6 70 07:33 08.02.2020
3301 Rain 22 1019 73 0 6.38 29 06:49 08.02.2020
3302 Rain 23 1020 88 10000 4.1 50 06:21 08.02.2020
3303 Rain 23 1020 88 10000 4.1 50 05:33 08.02.2020
3304 Clouds 23 1020 88 10000 3.6 40 04:53 08.02.2020
3305 Clouds 23 1020 88 10000 3.6 40 04:24 08.02.2020
3306 Clouds 23 1019 72 0 7.84 31 03:35 08.02.2020
3307 Clouds 23 1018 88 10000 3.6 20 02:28 08.02.2020
3308 Clouds 23 1018 88 10000 3.6 20 02:28 08.02.2020
3309 Rain 23 1018 72 0 1.34 354 01:29 08.02.2020
3310 Rain 24 1017 74 0 1.79 347 00:46 08.02.2020
3311 Clouds 24 1017 83 10000 5.7 360 00:25 08.02.2020
3312 Clouds 24 1017 83 10000 5.7 360 23:57 07.02.2020
3313 Clouds 24 1017 83 10000 5.7 360 23:38 07.02.2020
3314 Clouds 24 1017 83 10000 5.7 360 23:19 07.02.2020
3315 Clouds 25 1016 83 10000 8.2 320 22:41 07.02.2020
3316 Clouds 28 1015 65 10000 6.7 240 22:19 07.02.2020
3317 Clouds 28 1015 65 10000 6.7 240 21:57 07.02.2020
3318 Clouds 28 1015 65 10000 6.7 240 21:39 07.02.2020
3319 Clouds 28 1015 65 10000 6.7 240 21:19 07.02.2020
3320 Clouds 28 1015 74 10000 7.2 230 20:39 07.02.2020
3321 Clouds 28 1015 74 10000 7.2 230 20:19 07.02.2020
3322 Clouds 28 1016 78 10000 7.2 210 19:43 07.02.2020
3323 Clouds 27 1016 78 10000 7.2 210 19:22 07.02.2020
3324 Clouds 28 1017 74 10000 7.7 220 19:00 07.02.2020
3325 Clouds 28 1017 74 10000 7.7 220 18:41 07.02.2020
3326 Clouds 28 1017 74 10000 7.7 220 18:23 07.02.2020
3327 Clouds 27 1017 74 10000 8.7 210 17:44 07.02.2020
3328 Clouds 27 1017 74 10000 8.7 210 17:44 07.02.2020
3329 Clouds 27 1017 74 10000 8.7 210 17:22 07.02.2020
3330 Clouds 27 1017 74 10000 7.7 210 16:58 07.02.2020
3331 Clouds 27 1017 74 10000 7.7 210 16:39 07.02.2020
3332 Clouds 27 1017 74 10000 7.7 210 16:21 07.02.2020
3333 Clouds 26 1016 78 10000 7.2 210 15:52 07.02.2020
3334 Clouds 26 1016 78 10000 7.2 210 15:28 07.02.2020
3335 Clouds 26 1015 83 10000 6.2 200 14:55 07.02.2020
3336 Clouds 25 1015 83 10000 6.2 200 14:37 07.02.2020
3337 Clouds 25 1015 83 10000 6.2 200 14:19 07.02.2020
3338 Clouds 24 1015 94 10000 4.6 210 13:40 07.02.2020
3339 Clouds 24 1015 94 10000 4.6 210 13:22 07.02.2020
3340 Clouds 24 1015 94 10000 3.6 240 12:58 07.02.2020
3341 Clouds 24 1015 94 10000 3.6 240 12:40 07.02.2020
3342 Clouds 24 1015 94 10000 3.6 240 12:21 07.02.2020
3343 Clouds 24 1013 94 10000 3.6 220 11:42 07.02.2020
3344 Clouds 24 1013 94 10000 3.6 220 11:22 07.02.2020
3345 Clouds 24 1013 94 10000 4.6 210 10:43 07.02.2020
3346 Clouds 24 1013 94 10000 4.6 210 10:24 07.02.2020
3347 Clouds 24 1012 94 10000 6.2 200 09:59 07.02.2020
3348 Clouds 24 1012 94 10000 6.2 200 09:40 07.02.2020
3349 Clouds 24 1012 94 10000 6.2 200 09:21 07.02.2020
3350 Clouds 25 1012 83 10000 6.7 190 08:44 07.02.2020
3351 Clouds 25 1012 83 10000 6.7 190 08:21 07.02.2020
3352 Clouds 25 1012 83 10000 6.7 190 08:21 07.02.2020
3353 Clouds 25 1012 88 10000 7.2 190 07:49 07.02.2020
3354 Clouds 24 1012 88 10000 7.2 190 07:30 07.02.2020
3355 Clouds 24 1012 88 10000 7.2 180 06:47 07.02.2020
3356 Clouds 24 1012 88 10000 7.2 180 06:47 07.02.2020
3357 Clouds 24 1012 88 10000 7.2 180 06:27 07.02.2020
3358 Clouds 24 1012 88 10000 6.2 180 05:57 07.02.2020
3359 Clouds 24 1012 88 10000 6.2 180 05:35 07.02.2020
3360 Clouds 25 1012 88 10000 6.7 180 03:19 07.02.2020
3361 Clouds 25 1013 94 10000 5.1 190 01:51 07.02.2020
3362 Clouds 25 1013 88 10000 6.2 180 00:49 07.02.2020
3363 Clouds 25 1012 83 10000 8.2 170 00:21 07.02.2020
3364 Clouds 25 1012 83 10000 8.2 170 00:21 07.02.2020
3365 Clouds 26 1012 83 10000 8.2 170 23:37 06.02.2020
3366 Clouds 26 1012 83 10000 8.2 170 23:19 06.02.2020
3367 Clouds 26 1015 83 10000 8.7 180 22:44 06.02.2020
3368 Clouds 26 1015 83 10000 8.7 180 22:25 06.02.2020
3369 Clouds 27 1012 83 10000 9.3 180 21:38 06.02.2020
3370 Clouds 27 1012 83 10000 9.3 180 21:20 06.02.2020
3371 Clouds 27 1012 83 10000 9.3 180 21:20 06.02.2020
3372 Clouds 27 1013 78 10000 9.3 170 20:58 06.02.2020
3373 Clear 27 1011 78 0 0.89 238 20:39 06.02.2020
3374 Clouds 27 1014 78 10000 8.2 180 20:19 06.02.2020
3375 Clouds 27 1014 78 10000 8.2 180 19:59 06.02.2020
3376 Clouds 27 1014 78 10000 8.2 180 19:41 06.02.2020
3377 Clouds 27 1014 78 10000 8.2 180 19:22 06.02.2020
3378 Clouds 27 1015 78 10000 8.7 170 18:58 06.02.2020
3379 Clouds 27 1015 78 10000 8.7 170 18:40 06.02.2020
3380 Clouds 27 1015 78 10000 8.7 170 18:21 06.02.2020
3381 Clouds 27 1016 78 10000 8.2 160 17:44 06.02.2020
3382 Clouds 27 1016 78 10000 8.2 160 17:44 06.02.2020
3383 Clouds 27 1016 78 10000 8.2 160 17:21 06.02.2020
3384 Clouds 26 1017 78 10000 8.2 160 16:59 06.02.2020
3385 Clouds 26 1017 78 10000 8.2 160 16:40 06.02.2020
3386 Clouds 26 1017 78 10000 8.2 160 16:22 06.02.2020
3387 Clouds 26 1017 83 10000 7.2 160 15:42 06.02.2020
3388 Clouds 25 1017 83 10000 7.2 160 15:22 06.02.2020
3389 Clouds 25 1016 83 10000 5.1 150 14:50 06.02.2020
3390 Clouds 24 1016 94 10000 4.6 160 14:28 06.02.2020
3391 Clouds 23 1016 94 10000 4.6 160 13:57 06.02.2020
3392 Clear 23 1015 74 0 8.71 146 13:39 06.02.2020
3393 Clouds 22 1016 88 10000 4.1 160 13:19 06.02.2020
3394 Clouds 22 1016 88 10000 4.1 160 12:43 06.02.2020
3395 Clouds 22 1016 88 10000 4.1 160 12:19 06.02.2020
3396 Clear 22 1016 88 10000 4.1 160 11:56 06.02.2020
3397 Clear 22 1016 88 10000 4.1 160 11:38 06.02.2020
3398 Clouds 22 1016 88 10000 4.1 160 11:18 06.02.2020
3399 Clouds 23 1015 82 0 8.57 140 10:56 06.02.2020
3400 Clouds 23 1015 82 0 8.57 140 10:37 06.02.2020
3401 Clouds 23 1015 82 0 8.57 140 10:18 06.02.2020
3402 Clouds 22 1015 71 0 8.57 140 09:43 06.02.2020
3403 Clouds 22 1015 71 0 8.57 140 09:43 06.02.2020
3404 Clouds 22 1015 71 0 8.57 140 09:20 06.02.2020
3405 Clouds 22 1015 71 0 8.57 140 08:47 06.02.2020
3406 Clear 22 1015 71 0 0.45 165 08:25 06.02.2020
3407 Clouds 22 1015 71 0 0.45 104 07:58 06.02.2020
3408 Clouds 23 1015 72 0 8.09 134 07:35 06.02.2020
3409 Clouds 23 1016 72 0 0.45 121 06:59 06.02.2020
3410 Clouds 22 1018 94 10000 3.1 160 06:21 06.02.2020
3411 Clouds 22 1018 94 10000 3.1 160 05:41 06.02.2020
3412 Clouds 23 1018 88 10000 4.1 140 04:18 06.02.2020
3413 Clouds 22 1018 88 10000 3.6 150 03:18 06.02.2020
3414 Clouds 22 1018 88 10000 3.1 150 02:20 06.02.2020
3415 Clouds 23 1017 83 10000 4.1 150 01:24 06.02.2020
3416 Clouds 23 1017 78 10000 4.1 150 00:41 06.02.2020
3417 Clouds 24 1017 78 10000 4.1 150 00:19 06.02.2020
3418 Clouds 24 1017 73 10000 6.2 140 23:42 05.02.2020
3419 Clouds 25 1017 73 10000 6.2 140 23:23 05.02.2020
3420 Clouds 25 1017 73 10000 6.2 150 22:54 05.02.2020
3421 Clouds 25 1017 73 10000 6.2 150 22:36 05.02.2020
3422 Clouds 25 1017 73 10000 6.2 150 22:18 05.02.2020
3423 Clouds 26 1017 69 10000 7.2 150 21:40 05.02.2020
3424 Clouds 26 1017 69 10000 7.2 150 21:22 05.02.2020
3425 Clouds 26 1018 69 10000 7.2 150 20:54 05.02.2020
3426 Clouds 26 1018 69 10000 7.2 150 20:36 05.02.2020
3427 Clouds 27 1018 69 10000 7.2 150 20:18 05.02.2020
3428 Clouds 26 1019 65 10000 7.7 140 19:54 05.02.2020
3429 Clouds 26 1019 65 10000 7.7 140 19:36 05.02.2020
3430 Clouds 26 1019 65 10000 7.7 140 19:18 05.02.2020
3431 Clouds 26 1020 61 10000 6.7 140 18:42 05.02.2020
3432 Clouds 26 1020 61 10000 6.7 140 18:20 05.02.2020
3433 Clouds 26 1021 61 10000 5.1 150 17:41 05.02.2020
3434 Clouds 25 1021 61 10000 5.1 150 17:20 05.02.2020
3435 Clouds 25 1022 61 10000 4.6 150 16:59 05.02.2020
3436 Clouds 25 1020 76 0 0.89 63 16:41 05.02.2020
3437 Clouds 24 1021 73 10000 2.6 120 16:23 05.02.2020
3438 Clouds 25 1021 73 10000 2.6 120 15:56 05.02.2020
3439 Clouds 25 1021 73 10000 2.6 120 15:38 05.02.2020
3440 Clouds 24 1021 73 10000 2.6 120 15:18 05.02.2020
3441 Clouds 22 1021 88 10000 1.5 110 14:42 05.02.2020
3442 Clouds 21 1020 93 10000 1 0 14:22 05.02.2020
3443 Clouds 19 1020 93 10000 1 0 13:44 05.02.2020
3444 Clouds 19 1020 93 10000 1 0 13:44 05.02.2020
3445 Clouds 18 1020 93 10000 1 0 13:23 05.02.2020
3446 Clouds 17 1020 93 10000 0.5 0 12:59 05.02.2020
3447 Clouds 17 1020 93 10000 0.5 0 12:37 05.02.2020
3448 Clouds 17 1020 93 10000 0.5 0 12:19 05.02.2020
3449 Clouds 17 1019 93 10000 5.02 134 11:41 05.02.2020
3450 Clouds 17 1019 93 10000 5.02 134 11:23 05.02.2020
3451 Clouds 17 1019 93 10000 0.5 0 10:58 05.02.2020
3452 Clouds 17 1019 93 10000 0.5 0 10:39 05.02.2020
3453 Clouds 17 1019 93 10000 0.5 0 10:18 05.02.2020
3454 Clouds 23 1018 75 0 6.34 125 09:40 05.02.2020
3455 Clouds 23 1018 75 0 6.34 125 09:22 05.02.2020
3456 Clouds 23 1018 75 0 6.34 125 08:55 05.02.2020
3457 Clouds 22 1019 80 0 6.34 125 08:37 05.02.2020
3458 Clouds 19 1020 93 10000 1 0 08:19 05.02.2020
3459 Clouds 19 1020 93 10000 1 0 07:42 05.02.2020
3460 Clouds 19 1020 93 10000 1 0 07:18 05.02.2020
3461 Clouds 20 1021 93 10000 1 0 06:39 05.02.2020
3462 Clouds 20 1021 93 10000 1 0 06:20 05.02.2020
3463 Clouds 20 1021 93 10000 0.5 0 05:20 05.02.2020
3464 Clouds 20 1021 88 10000 4.24 144 04:58 05.02.2020
3465 Clouds 19 1021 88 10000 4.24 144 04:22 05.02.2020
3466 Clouds 21 1021 82 10000 0.5 0 02:42 05.02.2020
3467 Clouds 21 1021 82 10000 0.5 0 02:20 05.02.2020
3468 Clouds 21 1020 77 10000 2.6 150 01:25 05.02.2020
3469 Clouds 22 1020 73 10000 3.6 150 00:21 05.02.2020
3470 Clouds 23 1020 60 10000 5.1 160 23:40 04.02.2020
3471 Clouds 24 1020 60 10000 5.1 160 23:19 04.02.2020
3472 Clouds 24 1020 60 10000 5.1 160 23:19 04.02.2020
3473 Clouds 24 1020 60 0 4.1 160 22:57 04.02.2020
3474 Clouds 24 1020 60 0 4.1 160 22:57 04.02.2020
3475 Clouds 24 1020 60 0 4.1 160 22:39 04.02.2020
3476 Clouds 24 1020 60 0 4.1 160 22:20 04.02.2020
3477 Clouds 25 1020 53 10000 4.6 140 21:54 04.02.2020
3478 Clouds 25 1020 53 10000 4.6 140 21:36 04.02.2020
3479 Clouds 25 1020 53 10000 4.6 140 21:18 04.02.2020
3480 Clouds 25 1021 53 10000 4.6 160 20:42 04.02.2020
3481 Clouds 24 1021 53 10000 4.6 160 20:21 04.02.2020
3482 Clouds 24 1021 53 10000 5.1 160 19:59 04.02.2020
3483 Clouds 24 1021 53 10000 5.1 160 19:40 04.02.2020
3484 Clouds 24 1021 53 10000 5.1 160 19:22 04.02.2020
3485 Clouds 25 1022 54 10000 5.7 150 18:56 04.02.2020
3486 Clouds 25 1022 54 10000 5.7 150 18:37 04.02.2020
3487 Clouds 25 1022 54 10000 5.7 150 18:19 04.02.2020
3488 Clouds 24 1023 53 10000 4.1 130 17:43 04.02.2020
3489 Clouds 24 1023 53 10000 4.1 130 17:43 04.02.2020
3490 Clouds 24 1023 53 10000 4.1 130 17:21 04.02.2020
3491 Clouds 24 1024 53 10000 2.1 110 16:56 04.02.2020
3492 Clouds 24 1024 53 10000 2.1 110 16:37 04.02.2020
3493 Clouds 24 1024 53 10000 2.1 110 16:19 04.02.2020
3494 Clouds 23 1024 64 10000 3.1 110 15:56 04.02.2020
3495 Clouds 23 1024 64 10000 3.1 110 15:37 04.02.2020
3496 Clouds 23 1024 64 10000 3.1 110 15:18 04.02.2020
3497 Clouds 20 1023 88 10000 2.6 90 14:42 04.02.2020
3498 Clouds 20 1023 88 10000 2.6 90 14:23 04.02.2020
3499 Clouds 20 1023 88 10000 2.6 90 14:23 04.02.2020
3500 Clouds 19 1022 87 10000 1 0 13:57 04.02.2020
3501 Clouds 21 1022 73 0 4.48 115 13:39 04.02.2020
3502 Clouds 18 1022 93 10000 1 0 13:19 04.02.2020
3503 Clouds 14 1022 93 10000 1 0 12:44 04.02.2020
3504 Clouds 14 1022 93 10000 1 0 12:25 04.02.2020
3505 Clouds 15 1022 87 10000 1 0 11:58 04.02.2020
3506 Clouds 15 1022 87 10000 1 0 11:39 04.02.2020
3507 Clouds 15 1022 87 10000 1 0 11:20 04.02.2020
3508 Clouds 15 1022 87 10000 1.5 90 10:50 04.02.2020
3509 Clear 22 1021 64 0 4.89 121 10:28 04.02.2020
3510 Clear 22 1021 64 0 4.89 121 09:58 04.02.2020
3511 Clear 22 1021 64 0 4.89 121 09:40 04.02.2020
3512 Clear 22 1021 64 0 4.89 121 09:21 04.02.2020
3513 Clear 22 1021 64 0 4.89 121 09:21 04.02.2020
3514 Clear 22 1021 64 0 4.89 121 08:49 04.02.2020
3515 Clouds 16 1023 87 10000 1 0 08:28 04.02.2020
3516 Clouds 17 1023 87 10000 1 0 07:56 04.02.2020
3517 Clouds 17 1023 87 10000 1 0 07:37 04.02.2020
3518 Clouds 17 1023 87 10000 1 0 07:37 04.02.2020
3519 Clouds 17 1023 87 10000 1 0 07:18 04.02.2020
3520 Clouds 19 1024 77 10000 2.1 90 06:41 04.02.2020
3521 Clouds 17 1024 82 10000 1 0 05:35 04.02.2020
3522 Clear 17 1024 87 10000 1 0 04:28 04.02.2020
3523 Clear 18 1023 87 10000 4.21 97 03:48 04.02.2020
3524 Clear 18 1023 87 10000 4.21 97 03:29 04.02.2020
3525 Clear 19 1023 77 10000 1.5 90 02:42 04.02.2020
3526 Clear 19 1023 77 10000 1.5 90 02:24 04.02.2020
3527 Clouds 19 1022 68 10000 2.1 100 01:45 04.02.2020
3528 Clouds 20 1022 60 10000 3.1 80 00:56 04.02.2020
3529 Clouds 20 1022 60 10000 3.1 80 00:23 04.02.2020
3530 Clouds 20 1022 52 10000 3.6 60 23:49 03.02.2020
3531 Clouds 21 1022 52 10000 3.6 60 23:30 03.02.2020
3532 Clouds 21 1022 49 10000 4.1 60 22:58 03.02.2020
3533 Clouds 22 1022 49 10000 4.1 60 22:38 03.02.2020
3534 Clouds 22 1022 49 10000 4.1 60 22:19 03.02.2020
3535 Clouds 22 1022 56 10000 4.6 50 21:41 03.02.2020
3536 Clouds 22 1022 56 10000 4.6 50 21:20 03.02.2020
3537 Clouds 22 1022 56 10000 4.1 60 20:43 03.02.2020
3538 Clouds 22 1022 56 10000 4.1 60 20:21 03.02.2020
3539 Clouds 22 1023 56 10000 4.6 60 19:59 03.02.2020
3540 Clouds 22 1023 56 10000 4.6 60 19:41 03.02.2020
3541 Clouds 22 1023 56 10000 4.6 60 19:22 03.02.2020
3542 Clouds 22 1023 56 10000 4.1 40 18:57 03.02.2020
3543 Clouds 22 1023 56 10000 4.1 40 18:38 03.02.2020
3544 Clouds 22 1023 56 10000 4.1 40 18:20 03.02.2020
3545 Clouds 22 1024 53 10000 3.1 40 17:55 03.02.2020
3546 Clouds 22 1024 53 10000 3.1 40 17:37 03.02.2020
3547 Clouds 22 1024 53 10000 3.1 40 17:18 03.02.2020
3548 Clouds 21 1024 56 10000 3.1 40 16:40 03.02.2020
3549 Clouds 21 1024 56 10000 3.1 40 16:21 03.02.2020
3550 Clouds 21 1023 52 10000 0.5 0 15:56 03.02.2020
3551 Clouds 21 1023 52 10000 0.5 0 15:56 03.02.2020
3552 Clouds 21 1023 52 10000 0.5 0 15:38 03.02.2020
3553 Clouds 21 1023 52 10000 0.5 0 15:19 03.02.2020
3554 Clouds 19 1023 77 10000 1.5 190 14:43 03.02.2020
3555 Clouds 18 1023 77 10000 1.5 190 14:25 03.02.2020
3556 Clouds 15 1022 77 10000 1 0 13:58 03.02.2020
3557 Clouds 16 1022 77 10000 1 0 13:39 03.02.2020
3558 Clouds 16 1022 77 10000 1 0 13:19 03.02.2020
3559 Clear 20 1021 53 0 3.02 22 12:56 03.02.2020
3560 Clear 20 1021 53 0 3.02 22 12:36 03.02.2020
3561 Clouds 17 1021 72 10000 2.1 320 12:18 03.02.2020
3562 Clouds 17 1021 72 10000 2.1 320 11:39 03.02.2020
3563 Clouds 17 1021 72 10000 2.1 320 11:19 03.02.2020
3564 Clouds 17 1021 72 10000 2.1 340 10:57 03.02.2020
3565 Clouds 17 1021 72 10000 2.1 340 10:38 03.02.2020
3566 Clouds 17 1021 72 10000 2.1 340 10:20 03.02.2020
3567 Clear 20 1020 56 0 4.25 355 09:39 03.02.2020
3568 Clouds 19 1021 63 10000 2.6 10 09:20 03.02.2020
3569 Clouds 19 1021 63 10000 2.6 10 08:41 03.02.2020
3570 Clouds 19 1021 63 10000 2.6 10 08:23 03.02.2020
3571 Clouds 18 1021 72 10000 3.1 340 07:43 03.02.2020
3572 Clouds 19 1021 68 10000 2.6 250 07:23 03.02.2020
3573 Clouds 19 1021 68 10000 2.6 250 06:57 03.02.2020
3574 Clouds 19 1021 68 10000 2.6 250 06:31 03.02.2020
3575 Clouds 19 1021 63 10000 2.6 360 05:58 03.02.2020
3576 Clouds 19 1021 63 10000 2.6 360 05:34 03.02.2020
3577 Clouds 20 1021 60 10000 2.6 20 04:47 03.02.2020
3578 Clouds 20 1020 56 10000 4.1 360 02:48 03.02.2020
3579 Clouds 20 1020 56 10000 4.1 360 02:48 03.02.2020
3580 Clouds 20 1020 56 10000 4.1 360 02:28 03.02.2020
3581 Clouds 20 1019 60 10000 5.1 350 00:50 03.02.2020
3582 Clouds 20 1019 60 10000 5.1 350 00:28 03.02.2020
3583 Clouds 20 1019 56 10000 5.1 350 23:56 02.02.2020
3584 Clouds 21 1019 56 10000 5.1 350 23:36 02.02.2020
3585 Clouds 21 1019 56 10000 5.1 350 23:18 02.02.2020
3586 Clear 21 1018 65 0 3.13 302 22:39 02.02.2020
3587 Clouds 21 1018 52 10000 6.2 350 22:21 02.02.2020
3588 Clouds 21 1018 52 10000 6.2 350 21:58 02.02.2020
3589 Clouds 21 1018 52 10000 6.2 350 21:39 02.02.2020
3590 Clouds 21 1018 52 10000 6.2 350 21:20 02.02.2020
3591 Clouds 22 1018 49 10000 6.2 350 20:57 02.02.2020
3592 Clouds 22 1018 49 10000 6.2 350 20:39 02.02.2020
3593 Clouds 21 1018 49 10000 6.2 350 20:20 02.02.2020
3594 Clouds 22 1019 40 10000 6.7 350 19:57 02.02.2020
3595 Clouds 22 1019 40 10000 6.7 350 19:38 02.02.2020
3596 Clouds 21 1019 40 10000 6.7 350 19:20 02.02.2020
3597 Clouds 22 1020 46 10000 6.7 350 18:55 02.02.2020
3598 Clouds 22 1020 46 10000 6.7 350 18:36 02.02.2020
3599 Clouds 22 1020 46 10000 6.7 350 18:36 02.02.2020
3600 Clouds 22 1020 46 10000 6.7 350 18:18 02.02.2020
3601 Clouds 21 1020 49 10000 8.2 350 17:56 02.02.2020
3602 Clouds 21 1020 49 10000 8.2 350 17:37 02.02.2020
3603 Clouds 21 1020 49 10000 8.2 350 17:18 02.02.2020
3604 Clouds 22 1020 43 10000 8.7 340 16:56 02.02.2020
3605 Clouds 22 1020 43 10000 8.7 340 16:37 02.02.2020
3606 Clouds 22 1020 43 10000 8.7 340 16:18 02.02.2020
3607 Clouds 21 1020 49 10000 9.3 340 15:40 02.02.2020
3608 Clouds 21 1020 49 10000 9.3 340 15:40 02.02.2020
3609 Clouds 21 1020 49 10000 9.3 340 15:20 02.02.2020
3610 Clouds 20 1019 56 10000 10.8 330 14:59 02.02.2020
3611 Clouds 20 1019 56 10000 10.8 330 14:41 02.02.2020
3612 Clouds 20 1019 56 10000 10.8 330 14:18 02.02.2020
3613 Rain 20 1018 60 10000 11.3 330 13:58 02.02.2020
3614 Rain 20 1018 60 10000 11.3 330 13:38 02.02.2020
3615 Rain 20 1018 60 10000 11.3 330 13:19 02.02.2020
3616 Clouds 21 1017 60 10000 11.3 330 12:46 02.02.2020
3617 Clouds 21 1017 60 10000 11.3 330 12:23 02.02.2020
3618 Clouds 21 1017 64 10000 11.3 330 11:59 02.02.2020
3619 Clouds 21 1017 64 10000 11.3 330 11:41 02.02.2020
3620 Clouds 21 1017 64 10000 11.3 330 11:19 02.02.2020
3621 Clouds 22 1016 64 10000 9.8 320 10:56 02.02.2020
3622 Clouds 22 1016 64 10000 9.8 320 10:37 02.02.2020
3623 Clouds 22 1016 64 10000 9.8 320 10:19 02.02.2020
3624 Clouds 22 1015 64 10000 10.3 320 09:55 02.02.2020
3625 Clouds 22 1015 64 10000 10.3 320 09:37 02.02.2020
3626 Clouds 22 1015 64 10000 10.3 320 09:19 02.02.2020
3627 Clouds 23 1015 64 10000 10.3 320 08:43 02.02.2020
3628 Clouds 23 1015 64 10000 10.3 320 08:24 02.02.2020
3629 Clouds 23 1015 64 10000 10.3 320 08:24 02.02.2020
3630 Clouds 23 1015 64 10000 10.3 320 08:24 02.02.2020
3631 Clouds 23 1015 73 10000 9.3 320 07:46 02.02.2020
3632 Clouds 23 1015 73 10000 9.3 320 07:28 02.02.2020
3633 Clouds 23 1015 83 10000 9.3 310 06:43 02.02.2020
3634 Clouds 23 1015 83 10000 9.3 310 06:25 02.02.2020
3635 Clouds 24 1015 78 10000 8.7 280 05:47 02.02.2020
3636 Thunderstorm 24 1015 88 10000 3.6 240 04:42 02.02.2020
3637 Rain 24 1015 88 10000 3.6 230 03:25 02.02.2020
3638 Clouds 24 1015 88 10000 4.1 220 02:29 02.02.2020
3639 Clouds 25 1014 83 10000 4.1 220 01:53 02.02.2020
3640 Clouds 25 1014 83 10000 4.1 220 01:52 02.02.2020
3641 Clouds 25 1014 83 10000 4.1 220 01:19 02.02.2020
3642 Clouds 25 1015 78 10000 3.6 250 00:43 02.02.2020
3643 Clouds 25 1015 78 10000 3.6 250 00:20 02.02.2020
3644 Clouds 25 1014 74 10000 4.1 240 23:45 01.02.2020
3645 Clouds 26 1014 74 10000 4.1 240 23:21 01.02.2020
3646 Clouds 26 1015 69 10000 5.7 250 22:50 01.02.2020
3647 Clouds 27 1015 69 10000 5.7 250 22:19 01.02.2020
3648 Clouds 27 1014 69 10000 6.2 240 21:45 01.02.2020
3649 Clouds 27 1014 69 10000 6.2 240 21:20 01.02.2020
3650 Clouds 27 1014 69 10000 6.2 240 21:20 01.02.2020
3651 Clouds 26 1013 76 0 2.24 229 20:58 01.02.2020
3652 Clouds 26 1013 75 0 0.89 240 20:40 01.02.2020
3653 Clouds 27 1014 75 0 0.89 177 20:20 01.02.2020
3654 Clouds 27 1014 76 0 1.34 262 19:56 01.02.2020
3655 Clouds 27 1014 76 0 0.89 215 19:38 01.02.2020
3656 Clouds 27 1017 78 10000 7.7 210 19:19 01.02.2020
3657 Clouds 27 1017 78 10000 7.7 210 18:57 01.02.2020
3658 Clouds 27 1017 78 10000 7.7 210 18:57 01.02.2020
3659 Clouds 27 1017 78 10000 7.7 210 18:38 01.02.2020
3660 Clouds 27 1017 78 10000 7.7 210 18:19 01.02.2020
3661 Clouds 27 1016 76 0 2.24 240 17:55 01.02.2020
3662 Clouds 27 1016 76 0 2.68 140 17:37 01.02.2020
3663 Rain 26 1018 83 10000 2.6 220 17:18 01.02.2020
3664 Rain 26 1018 83 10000 2.6 220 16:42 01.02.2020
3665 Clouds 26 1017 73 10000 5.7 210 16:22 01.02.2020
3666 Clouds 25 1017 73 10000 5.7 210 15:55 01.02.2020
3667 Clouds 25 1017 73 10000 5.7 210 15:37 01.02.2020
3668 Clouds 25 1017 73 10000 5.7 210 15:18 01.02.2020
3669 Rain 24 1017 94 10000 4.1 220 14:40 01.02.2020
3670 Rain 24 1017 94 10000 4.1 220 14:20 01.02.2020
3671 Rain 24 1017 94 10000 2.6 220 13:45 01.02.2020
3672 Rain 24 1017 94 10000 2.6 220 13:24 01.02.2020
3673 Rain 24 1017 94 10000 2.6 220 13:24 01.02.2020
3674 Clouds 24 1017 88 10000 3.1 210 12:50 01.02.2020
3675 Clouds 24 1017 88 10000 3.1 210 12:50 01.02.2020
3676 Clouds 24 1017 88 10000 3.1 210 12:32 01.02.2020
3677 Clouds 23 1016 94 10000 3.1 200 11:59 01.02.2020
3678 Clouds 23 1016 94 10000 3.1 200 11:39 01.02.2020
3679 Clouds 23 1016 94 10000 3.1 200 11:20 01.02.2020
3680 Clouds 23 1016 94 10000 3.1 200 11:20 01.02.2020
3681 Clouds 23 1016 94 10000 2.6 180 10:57 01.02.2020
3682 Clouds 23 1016 94 10000 2.6 180 10:38 01.02.2020
3683 Clouds 23 1016 94 10000 2.6 180 10:20 01.02.2020
3684 Clouds 23 1018 94 10000 3.6 160 09:57 01.02.2020
3685 Clouds 23 1018 94 10000 3.6 160 09:38 01.02.2020
3686 Clouds 23 1018 94 10000 3.6 160 09:19 01.02.2020
3687 Clouds 22 1017 100 10000 1.5 160 08:41 01.02.2020
3688 Clouds 22 1018 94 10000 2.6 150 07:48 01.02.2020
3689 Rain 23 1018 88 10000 2.6 130 07:26 01.02.2020
3690 Rain 23 1018 88 10000 2.6 130 06:55 01.02.2020
3691 Rain 23 1018 88 10000 2.6 130 06:55 01.02.2020
3692 Rain 23 1018 88 10000 2.6 130 06:32 01.02.2020
3693 Rain 23 1017 68 0 4.9 168 05:51 01.02.2020
3694 Clouds 23 1018 83 10000 2.6 140 03:48 01.02.2020
3695 Clouds 23 1018 83 10000 2.6 140 03:21 01.02.2020
3696 Clouds 23 1018 83 10000 2.6 120 02:44 01.02.2020
3697 Clouds 23 1018 83 10000 2.6 120 02:24 01.02.2020
3698 Clouds 23 1017 83 10000 3.1 140 01:49 01.02.2020
3699 Clouds 23 1017 83 10000 3.1 140 01:30 01.02.2020
3700 Clouds 23 1016 78 10000 3.6 150 00:27 01.02.2020
3701 Clouds 23 1016 78 10000 3.6 150 23:43 31.01.2020
3702 Clouds 23 1016 78 10000 3.6 150 23:20 31.01.2020
3703 Clouds 24 1016 73 10000 4.6 160 22:59 31.01.2020
3704 Clouds 24 1016 73 10000 4.6 160 22:40 31.01.2020
3705 Clouds 24 1016 73 10000 4.6 160 22:21 31.01.2020
3706 Clouds 24 1017 73 10000 4.6 170 21:55 31.01.2020
3707 Clouds 24 1017 73 10000 4.6 170 21:37 31.01.2020
3708 Clouds 24 1017 73 10000 4.6 170 21:19 31.01.2020
3709 Clouds 24 1017 69 10000 4.1 170 20:56 31.01.2020
3710 Clouds 24 1017 69 10000 4.1 170 20:37 31.01.2020
3711 Clouds 25 1018 61 10000 3.6 170 20:18 31.01.2020
3712 Clouds 25 1018 61 10000 3.6 170 19:55 31.01.2020
3713 Clouds 25 1018 61 10000 3.6 170 19:36 31.01.2020
3714 Clouds 25 1018 61 10000 3.6 170 19:18 31.01.2020
3715 Clouds 25 1018 61 10000 3.6 170 18:39 31.01.2020
3716 Clouds 25 1018 61 10000 3.6 170 18:20 31.01.2020
3717 Clouds 25 1019 61 10000 3.1 160 17:46 31.01.2020
3718 Clouds 25 1019 61 10000 3.1 160 17:46 31.01.2020
3719 Clouds 26 1019 61 10000 3.1 160 17:27 31.01.2020
3720 Clouds 25 1019 64 10000 2.1 120 16:58 31.01.2020
3721 Clouds 25 1019 64 10000 2.1 120 16:38 31.01.2020
3722 Clouds 24 1019 64 10000 2.1 120 16:19 31.01.2020
3723 Clouds 23 1019 68 10000 2.1 110 15:58 31.01.2020
3724 Clouds 23 1019 68 10000 2.1 110 15:39 31.01.2020
3725 Clouds 23 1019 68 10000 2.1 110 15:20 31.01.2020
3726 Clouds 21 1018 88 10000 0.5 0 14:43 31.01.2020
3727 Clouds 21 1018 88 10000 0.5 0 14:24 31.01.2020
3728 Clouds 19 1018 93 10000 1.94 223 13:55 31.01.2020
3729 Clouds 18 1018 93 10000 1.94 223 13:36 31.01.2020
3730 Clouds 17 1017 93 10000 2.11 201 12:59 31.01.2020
3731 Clouds 17 1017 93 10000 2.11 201 12:41 31.01.2020
3732 Clouds 17 1017 93 10000 2.11 201 12:22 31.01.2020
3733 Clouds 16 1016 93 10000 2.11 201 11:45 31.01.2020
3734 Clouds 16 1016 93 10000 2.11 201 11:26 31.01.2020
3735 Clouds 17 1016 93 10000 0.92 280 10:59 31.01.2020
3736 Clouds 17 1016 93 10000 0.92 280 10:41 31.01.2020
3737 Clouds 18 1016 93 10000 0.92 280 10:21 31.01.2020
3738 Clouds 21 1015 75 0 0.92 280 09:56 31.01.2020
3739 Clouds 21 1015 75 0 0.92 280 09:38 31.01.2020
3740 Clouds 19 1016 88 10000 1 0 09:18 31.01.2020
3741 Clouds 19 1016 88 10000 1 0 08:50 31.01.2020
3742 Clouds 19 1016 88 10000 1 0 08:50 31.01.2020
3743 Clouds 19 1016 88 10000 1 0 08:25 31.01.2020
3744 Clouds 19 1016 88 10000 1 0 08:25 31.01.2020
3745 Clouds 20 1016 88 10000 1.5 360 07:52 31.01.2020
3746 Clouds 20 1016 88 10000 1.5 360 07:24 31.01.2020
3747 Clouds 20 1016 88 10000 1.5 360 06:42 31.01.2020
3748 Clouds 21 1017 77 10000 2.1 360 05:58 31.01.2020
3749 Clouds 21 1017 77 10000 2.1 360 05:40 31.01.2020
3750 Clouds 22 1016 73 10000 2.6 10 04:47 31.01.2020
3751 Clouds 23 1016 73 10000 2.1 20 02:58 31.01.2020
3752 Clouds 23 1015 73 10000 3.1 360 01:32 31.01.2020
3753 Clouds 23 1014 73 0 3.6 350 00:43 31.01.2020
3754 Clouds 23 1014 73 0 3.6 350 00:24 31.01.2020
3755 Clouds 24 1014 73 10000 4.1 350 23:48 30.01.2020
3756 Clouds 24 1014 73 10000 4.1 350 23:23 30.01.2020
3757 Clouds 24 1013 78 10000 4.1 340 22:56 30.01.2020
3758 Clouds 24 1013 78 10000 4.1 340 22:56 30.01.2020
3759 Clouds 24 1013 78 10000 4.1 340 22:36 30.01.2020
3760 Clouds 24 1013 78 10000 4.1 340 22:36 30.01.2020
3761 Clouds 24 1013 78 10000 4.1 340 22:18 30.01.2020
3762 Clouds 24 1013 78 10000 6.7 340 21:43 30.01.2020
3763 Clouds 24 1013 78 10000 6.7 340 21:19 30.01.2020
3764 Clouds 24 1013 73 10000 6.2 330 20:59 30.01.2020
3765 Clouds 25 1013 73 10000 6.2 330 20:38 30.01.2020
3766 Clouds 25 1013 73 10000 6.2 330 20:20 30.01.2020
3767 Clouds 25 1014 74 10000 6.2 320 19:55 30.01.2020
3768 Clouds 26 1014 74 10000 6.2 320 19:36 30.01.2020
3769 Clouds 26 1014 74 10000 6.2 320 19:18 30.01.2020
3770 Rain 26 1014 78 10000 5.7 310 18:38 30.01.2020
3771 Rain 25 1014 78 10000 5.7 310 18:19 30.01.2020
3772 Rain 25 1014 74 10000 4.6 280 17:54 30.01.2020
3773 Rain 25 1014 74 10000 4.6 280 17:36 30.01.2020
3774 Rain 25 1014 74 10000 4.6 280 17:18 30.01.2020
3775 Clouds 26 1014 78 10000 4.6 270 16:40 30.01.2020
3776 Clouds 25 1014 78 10000 4.6 270 16:21 30.01.2020
3777 Rain 24 1014 88 10000 5.1 250 15:45 30.01.2020
3778 Rain 24 1014 88 10000 5.1 250 15:45 30.01.2020
3779 Rain 24 1014 88 10000 5.1 250 15:22 30.01.2020
3780 Clouds 24 1013 88 10000 4.6 240 14:58 30.01.2020
3781 Clouds 24 1013 88 10000 4.6 240 14:40 30.01.2020
3782 Clouds 24 1013 88 10000 4.6 240 14:22 30.01.2020
3783 Rain 23 1012 94 10000 5.1 230 13:42 30.01.2020
3784 Clouds 23 1012 94 10000 5.1 230 13:24 30.01.2020
3785 Clouds 23 1012 94 10000 5.1 230 12:57 30.01.2020
3786 Rain 24 1013 76 0 6.97 225 12:38 30.01.2020
3787 Clouds 22 1011 88 10000 3.6 210 12:20 30.01.2020
3788 Clouds 22 1011 88 10000 3.6 210 11:41 30.01.2020
3789 Clouds 22 1011 88 10000 3.6 210 11:41 30.01.2020
3790 Clouds 22 1011 88 10000 3.6 210 11:41 30.01.2020
3791 Clouds 22 1011 88 10000 3.6 210 11:23 30.01.2020
3792 Clouds 21 1012 94 10000 2.6 210 10:59 30.01.2020
3793 Rain 24 1011 74 0 7.16 222 10:40 30.01.2020
3794 Thunderstorm 23 1012 88 10000 5.7 210 10:20 30.01.2020
3795 Thunderstorm 23 1012 88 10000 5.7 210 09:45 30.01.2020
3796 Thunderstorm 23 1012 88 10000 5.7 210 09:26 30.01.2020
3797 Clouds 22 1012 100 10000 3.6 180 08:44 30.01.2020
3798 Clouds 22 1012 100 10000 3.6 180 08:22 30.01.2020
3799 Clouds 22 1012 100 10000 3.1 170 07:59 30.01.2020
3800 Clouds 22 1012 100 10000 3.1 170 07:41 30.01.2020
3801 Clouds 22 1012 100 10000 3.1 170 07:18 30.01.2020
3802 Clouds 22 1013 94 10000 2.6 170 06:44 30.01.2020
3803 Clouds 22 1013 94 10000 2.6 170 06:26 30.01.2020
3804 Clouds 22 1013 94 10000 3.6 170 05:30 30.01.2020
3805 Clouds 22 1014 88 10000 2.1 160 04:57 30.01.2020
3806 Clouds 22 1014 88 10000 3.1 160 03:48 30.01.2020
3807 Clouds 22 1013 94 10000 3.6 150 02:59 30.01.2020
3808 Clouds 22 1013 88 10000 3.1 150 01:30 30.01.2020
3809 Clouds 23 1014 83 10000 2.1 160 00:30 30.01.2020
3810 Clouds 24 1013 69 10000 3.1 160 23:58 29.01.2020
3811 Clouds 24 1013 69 10000 3.1 160 23:39 29.01.2020
3812 Clouds 24 1013 69 10000 3.1 160 23:20 29.01.2020
3813 Clouds 25 1013 69 10000 2.6 170 22:55 29.01.2020
3814 Clouds 25 1013 69 10000 2.6 170 22:37 29.01.2020
3815 Clouds 26 1013 69 10000 2.6 170 22:18 29.01.2020
3816 Clouds 26 1013 69 10000 4.1 170 21:54 29.01.2020
3817 Clouds 26 1013 69 10000 4.1 170 21:36 29.01.2020
3818 Clouds 26 1013 69 10000 4.1 170 21:18 29.01.2020
3819 Clouds 26 1013 69 10000 4.6 190 20:41 29.01.2020
3820 Clouds 26 1013 69 10000 4.6 190 20:22 29.01.2020
3821 Clouds 26 1014 69 10000 4.6 200 19:58 29.01.2020
3822 Clouds 26 1014 69 10000 4.6 200 19:38 29.01.2020
3823 Clouds 26 1014 69 10000 4.6 200 19:38 29.01.2020
3824 Clouds 26 1014 69 10000 4.6 200 19:20 29.01.2020
3825 Clouds 26 1015 61 10000 4.1 190 18:58 29.01.2020
3826 Clouds 26 1015 61 10000 4.1 190 18:37 29.01.2020
3827 Clouds 26 1015 61 10000 4.1 190 18:18 29.01.2020
3828 Clouds 25 1016 65 10000 3.1 160 17:40 29.01.2020
3829 Clouds 25 1016 65 10000 3.1 160 17:22 29.01.2020
3830 Clouds 24 1016 69 10000 3.6 120 16:43 29.01.2020
3831 Clouds 24 1016 69 10000 3.6 120 16:43 29.01.2020
3832 Clouds 24 1016 69 10000 3.6 120 16:43 29.01.2020
3833 Clouds 24 1016 69 10000 3.6 120 16:24 29.01.2020
3834 Clouds 24 1016 78 10000 3.1 130 15:59 29.01.2020
3835 Clouds 23 1016 78 10000 3.1 130 15:38 29.01.2020
3836 Clouds 23 1016 78 10000 3.1 130 15:20 29.01.2020
3837 Clouds 22 1015 88 10000 2.1 130 14:45 29.01.2020
3838 Clouds 22 1015 88 10000 2.1 130 14:22 29.01.2020
3839 Clouds 21 1015 93 10000 1 0 13:57 29.01.2020
3840 Clouds 21 1015 93 10000 1 0 13:38 29.01.2020
3841 Clouds 21 1015 93 10000 1 0 13:20 29.01.2020
3842 Clouds 19 1014 93 10000 0.5 0 12:56 29.01.2020
3843 Clouds 19 1014 93 10000 0.5 0 12:37 29.01.2020
3844 Clouds 19 1014 93 10000 0.5 0 12:19 29.01.2020
3845 Clouds 19 1014 93 10000 1 0 11:45 29.01.2020
3846 Clouds 19 1014 93 10000 1 0 11:21 29.01.2020
3847 Clear 23 1013 80 0 5.07 89 10:47 29.01.2020
3848 Clouds 19 1014 93 10000 1.5 130 10:27 29.01.2020
3849 Clouds 20 1014 93 10000 1.5 130 09:58 29.01.2020
3850 Clouds 20 1014 93 10000 1.5 130 09:40 29.01.2020
3851 Clouds 20 1014 93 10000 1.5 130 09:20 29.01.2020
3852 Clouds 20 1014 93 10000 1.5 130 09:20 29.01.2020
3853 Clouds 20 1014 88 10000 1 0 08:56 29.01.2020
3854 Clouds 20 1014 88 10000 1 0 08:38 29.01.2020
3855 Clouds 20 1014 88 10000 1 0 08:38 29.01.2020
3856 Clouds 20 1014 88 10000 1 0 08:18 29.01.2020
3857 Clouds 21 1014 88 10000 1 0 07:43 29.01.2020
3858 Clouds 21 1014 88 10000 1 0 07:23 29.01.2020
3859 Clouds 21 1014 88 10000 1 0 06:38 29.01.2020
3860 Clouds 20 1014 88 10000 1 0 06:20 29.01.2020
3861 Clouds 21 1015 82 10000 1 0 05:52 29.01.2020
3862 Clouds 21 1015 82 10000 1 0 05:52 29.01.2020
3863 Clouds 21 1015 82 10000 1 0 05:34 29.01.2020
3864 Clouds 22 1014 77 10000 1 0 04:39 29.01.2020
3865 Clouds 23 1014 69 10000 6.57 62 03:59 29.01.2020
3866 Clear 23 1013 75 0 1.34 55 02:39 29.01.2020
3867 Clouds 23 1013 73 10000 3.1 40 01:27 29.01.2020
3868 Clouds 23 1013 73 10000 3.1 40 00:39 29.01.2020
3869 Clouds 23 1013 73 10000 3.1 40 00:21 29.01.2020
3870 Rain 23 1012 77 0 2.24 11 23:40 28.01.2020
3871 Clouds 23 1015 78 10000 4.1 360 23:20 28.01.2020
3872 Clouds 24 1015 78 10000 4.1 360 22:51 28.01.2020
3873 Clouds 24 1015 78 10000 4.1 360 22:27 28.01.2020
3874 Clouds 24 1012 73 10000 4.1 330 21:58 28.01.2020
3875 Clouds 25 1012 73 10000 4.1 330 21:39 28.01.2020
3876 Clouds 25 1012 73 10000 4.1 330 21:20 28.01.2020
3877 Clouds 25 1012 65 10000 4.6 310 20:46 28.01.2020
3878 Clouds 26 1012 65 10000 4.6 310 20:26 28.01.2020
3879 Clouds 25 1013 61 10000 4.1 300 19:56 28.01.2020
3880 Clouds 26 1013 61 10000 4.1 300 19:37 28.01.2020
3881 Clouds 26 1013 61 10000 4.1 300 19:19 28.01.2020
3882 Clouds 26 1013 65 10000 4.1 230 18:42 28.01.2020
3883 Clouds 26 1013 65 10000 4.1 230 18:23 28.01.2020
3884 Clouds 26 1014 69 10000 4.1 240 17:59 28.01.2020
3885 Clouds 25 1014 69 10000 4.1 240 17:40 28.01.2020
3886 Clouds 25 1014 69 10000 4.1 240 17:21 28.01.2020
3887 Clouds 25 1014 69 10000 2.6 240 16:59 28.01.2020
3888 Clouds 25 1014 69 10000 2.6 240 16:59 28.01.2020
3889 Clouds 26 1014 69 10000 2.6 240 16:40 28.01.2020
3890 Clouds 25 1014 69 10000 2.6 240 16:22 28.01.2020
3891 Clouds 25 1014 73 10000 4.6 230 15:48 28.01.2020
3892 Clouds 25 1014 73 10000 4.6 230 15:20 28.01.2020
3893 Clouds 24 1014 78 10000 3.1 220 14:59 28.01.2020
3894 Clouds 23 1014 78 10000 3.1 220 14:41 28.01.2020
3895 Clouds 23 1014 78 10000 3.1 220 14:18 28.01.2020
3896 Clouds 21 1013 94 10000 2.6 230 13:41 28.01.2020
3897 Clouds 21 1013 94 10000 2.6 230 13:23 28.01.2020
3898 Clouds 21 1013 88 10000 2.6 230 12:44 28.01.2020
3899 Clouds 21 1013 88 10000 2.6 230 12:24 28.01.2020
3900 Clouds 21 1013 88 10000 2.6 230 11:58 28.01.2020
3901 Clouds 21 1013 88 10000 2.6 230 11:39 28.01.2020
3902 Clouds 21 1013 88 10000 2.6 230 11:20 28.01.2020
3903 Clouds 22 1013 83 10000 2.6 240 10:42 28.01.2020
3904 Clouds 22 1013 83 10000 2.6 240 10:24 28.01.2020
3905 Clouds 22 1013 83 10000 2.6 250 09:58 28.01.2020
3906 Clouds 21 1013 83 10000 2.6 250 09:38 28.01.2020
3907 Clouds 21 1013 83 10000 2.6 250 09:19 28.01.2020
3908 Clouds 20 1013 94 10000 1.5 220 08:43 28.01.2020
3909 Clouds 20 1013 94 10000 1.5 220 08:22 28.01.2020
3910 Clouds 21 1014 88 10000 4.16 288 07:40 28.01.2020
3911 Clouds 21 1014 88 10000 1.5 250 06:58 28.01.2020
3912 Clouds 21 1014 88 10000 1.5 250 06:40 28.01.2020
3913 Clouds 21 1014 88 10000 1.5 250 06:22 28.01.2020
3914 Clouds 22 1015 83 10000 2.1 240 05:34 28.01.2020
3915 Clouds 22 1015 83 10000 2.1 250 04:40 28.01.2020
3916 Clouds 22 1015 83 10000 2.6 250 03:41 28.01.2020
3917 Rain 22 1014 77 0 5.78 269 02:40 28.01.2020
3918 Clouds 23 1014 73 10000 2.6 240 02:21 28.01.2020
3919 Clouds 23 1014 73 10000 2.6 240 01:48 28.01.2020
3920 Clouds 23 1014 73 10000 2.6 230 00:51 28.01.2020
3921 Clouds 23 1014 73 10000 2.6 230 00:30 28.01.2020
3922 Clouds 23 1013 73 10000 6.7 210 23:53 27.01.2020
3923 Clouds 23 1013 73 10000 6.7 210 23:31 27.01.2020
3924 Clouds 23 1013 73 10000 6.7 210 23:31 27.01.2020
3925 Rain 23 1012 76 0 0.89 238 22:59 27.01.2020
3926 Rain 23 1012 75 0 1.34 221 22:41 27.01.2020
3927 Clouds 23 1013 73 10000 7.2 180 22:20 27.01.2020
3928 Clouds 23 1013 73 10000 7.2 180 21:56 27.01.2020
3929 Clouds 23 1013 73 10000 7.2 180 21:37 27.01.2020
3930 Clouds 23 1013 73 10000 7.2 180 21:18 27.01.2020
3931 Clouds 24 1014 65 10000 2.6 20 20:54 27.01.2020
3932 Clouds 24 1014 65 10000 2.6 20 20:36 27.01.2020
3933 Clouds 24 1014 65 10000 2.6 20 20:18 27.01.2020
3934 Clouds 25 1015 61 10000 2.1 90 19:41 27.01.2020
3935 Clouds 25 1015 61 10000 2.1 90 19:22 27.01.2020
3936 Clouds 24 1016 69 10000 2.6 10 18:56 27.01.2020
3937 Clouds 25 1016 69 10000 2.6 10 18:38 27.01.2020
3938 Clouds 24 1016 69 10000 2.6 10 18:19 27.01.2020
3939 Rain 25 1015 66 0 3.65 144 17:39 27.01.2020
3940 Clouds 25 1017 61 10000 1 0 17:21 27.01.2020
3941 Clouds 25 1017 61 10000 1 0 16:59 27.01.2020
3942 Clouds 24 1017 61 10000 1 0 16:41 27.01.2020
3943 Clouds 25 1017 61 10000 1 0 16:23 27.01.2020
3944 Clouds 23 1017 64 10000 1.5 110 15:55 27.01.2020
3945 Clouds 23 1017 64 10000 1.5 110 15:55 27.01.2020
3946 Clouds 23 1017 64 10000 1.5 110 15:37 27.01.2020
3947 Clouds 23 1017 64 10000 1.5 110 15:37 27.01.2020
3948 Clouds 23 1017 64 10000 1.5 110 15:18 27.01.2020
3949 Clouds 21 1017 88 10000 0.5 0 14:42 27.01.2020
3950 Clouds 21 1017 88 10000 0.5 0 14:22 27.01.2020
3951 Clouds 21 1017 88 10000 0.5 0 14:22 27.01.2020
3952 Clouds 19 1016 93 10000 1.96 126 13:57 27.01.2020
3953 Clouds 20 1015 74 0 1.96 126 13:37 27.01.2020
3954 Clouds 18 1016 87 10000 1.96 126 13:18 27.01.2020
3955 Clouds 16 1016 87 10000 2.42 137 12:44 27.01.2020
3956 Clouds 16 1016 87 10000 2.42 137 12:23 27.01.2020
3957 Clouds 16 1015 87 10000 0.5 0 11:58 27.01.2020
3958 Clouds 16 1015 87 10000 0.5 0 11:40 27.01.2020
3959 Clouds 16 1015 87 10000 0.5 0 11:19 27.01.2020
3960 Clouds 22 1015 62 0 0.79 97 10:42 27.01.2020
3961 Clouds 22 1015 62 0 0.79 97 10:24 27.01.2020
3962 Clouds 22 1015 62 0 0.79 97 09:40 27.01.2020
3963 Clouds 16 1016 87 10000 1 0 09:19 27.01.2020
3964 Clouds 16 1016 87 10000 1 0 08:58 27.01.2020
3965 Clouds 16 1016 87 10000 1 0 08:40 27.01.2020
3966 Clouds 16 1016 87 10000 1 0 08:19 27.01.2020
3967 Clouds 16 1016 87 10000 0.5 0 07:50 27.01.2020
3968 Clouds 18 1017 82 10000 0.5 0 07:32 27.01.2020
3969 Clouds 18 1017 82 10000 0.5 0 06:49 27.01.2020
3970 Clouds 17 1017 82 10000 1.5 220 05:53 27.01.2020
3971 Clouds 17 1017 82 10000 1.5 220 05:18 27.01.2020
3972 Clouds 21 1017 68 10000 1.5 90 03:36 27.01.2020
3973 Clouds 22 1017 64 10000 1.5 50 01:57 27.01.2020
3974 Clouds 22 1016 60 10000 1.5 40 01:28 27.01.2020
3975 Clouds 22 1016 60 10000 1.5 40 00:42 27.01.2020
3976 Clouds 22 1016 60 10000 1.5 40 00:22 27.01.2020
3977 Clouds 22 1016 60 10000 2.6 10 23:46 26.01.2020
3978 Clouds 22 1016 60 10000 2.6 10 23:27 26.01.2020
3979 Clouds 23 1016 60 10000 2.6 10 22:59 26.01.2020
3980 Clouds 23 1016 60 10000 2.6 10 22:39 26.01.2020
3981 Clouds 23 1016 60 10000 2.6 10 22:20 26.01.2020
3982 Clouds 23 1017 60 10000 4.1 10 21:58 26.01.2020
3983 Clouds 23 1017 60 10000 4.1 10 21:39 26.01.2020
3984 Clouds 23 1017 60 10000 4.1 10 21:21 26.01.2020
3985 Clouds 23 1017 60 10000 4.1 10 21:21 26.01.2020
3986 Clouds 23 1017 60 10000 4.1 10 21:21 26.01.2020
3987 Clouds 23 1017 60 0 4.1 20 20:58 26.01.2020
3988 Clouds 23 1017 60 0 4.1 20 20:38 26.01.2020
3989 Clouds 23 1017 60 0 4.1 20 20:38 26.01.2020
3990 Clouds 23 1017 60 0 4.1 20 20:19 26.01.2020
3991 Clouds 24 1018 60 10000 4.1 10 19:58 26.01.2020
3992 Clouds 24 1018 60 10000 4.1 10 19:38 26.01.2020
3993 Clouds 24 1018 60 10000 4.1 10 19:38 26.01.2020
3994 Clouds 24 1018 60 10000 4.1 10 19:19 26.01.2020
3995 Clouds 24 1019 60 10000 4.1 360 18:56 26.01.2020
3996 Clouds 24 1019 60 10000 4.1 360 18:37 26.01.2020
3997 Clouds 24 1019 60 10000 4.1 360 18:19 26.01.2020
3998 Clouds 24 1019 60 10000 4.1 360 17:55 26.01.2020
3999 Clouds 24 1019 60 10000 4.1 360 17:36 26.01.2020
4000 Clouds 24 1019 60 10000 4.1 360 17:18 26.01.2020
4001 Clouds 23 1019 64 10000 3.1 30 16:55 26.01.2020
4002 Clouds 23 1019 64 10000 3.1 30 16:37 26.01.2020
4003 Clouds 23 1019 64 10000 3.1 30 16:18 26.01.2020
4004 Clear 22 1019 68 0 4.67 5 15:42 26.01.2020
4005 Clear 22 1019 68 0 4.67 5 15:19 26.01.2020
4006 Clear 22 1019 68 0 4.67 5 14:41 26.01.2020
4007 Clear 22 1019 68 0 4.67 5 14:23 26.01.2020
4008 Clear 22 1016 74 0 4.68 23 13:59 26.01.2020
4009 Clear 22 1016 74 0 4.68 23 13:38 26.01.2020
4010 Clear 22 1016 74 0 4.68 23 13:18 26.01.2020
4011 Clear 22 1016 74 0 4.68 23 13:18 26.01.2020
4012 Clear 22 1017 73 0 4.26 23 12:43 26.01.2020
4013 Clear 22 1017 73 0 4.26 23 12:43 26.01.2020
4014 Clear 22 1017 73 0 4.26 23 12:24 26.01.2020
4015 Clear 22 1017 73 0 4.26 23 11:59 26.01.2020
4016 Clear 22 1017 73 0 4.26 23 11:40 26.01.2020
4017 Clouds 19 1017 88 10000 2.1 360 11:19 26.01.2020
4018 Clouds 19 1017 88 10000 2.1 360 10:59 26.01.2020
4019 Clouds 19 1017 88 10000 2.1 360 10:39 26.01.2020
4020 Clouds 19 1017 88 10000 2.1 360 10:21 26.01.2020
4021 Clouds 19 1018 93 10000 3.1 350 09:58 26.01.2020
4022 Clouds 19 1018 93 10000 3.1 350 09:40 26.01.2020
4023 Clouds 19 1018 93 10000 3.1 350 09:21 26.01.2020
4024 Clouds 19 1018 88 10000 2.1 330 08:44 26.01.2020
4025 Clouds 19 1018 88 10000 2.1 330 08:23 26.01.2020
4026 Clouds 18 1018 93 10000 1 0 07:58 26.01.2020
4027 Clouds 18 1018 93 10000 1 0 07:39 26.01.2020
4028 Clouds 18 1018 93 10000 1 0 07:21 26.01.2020
4029 Clouds 20 1018 88 10000 2.1 360 06:31 26.01.2020
4030 Clouds 20 1018 88 10000 2.1 360 05:32 26.01.2020
4031 Clouds 20 1018 88 10000 2.1 360 05:32 26.01.2020
4032 Clouds 22 1019 78 10000 2.6 340 04:45 26.01.2020
4033 Clouds 22 1018 83 10000 2.1 350 02:54 26.01.2020
4034 Clear 22 1018 78 10000 1.5 10 01:49 26.01.2020
4035 Clear 22 1018 78 10000 1.5 10 01:25 26.01.2020
4036 Clear 23 1017 69 10000 2.1 40 00:53 26.01.2020
4037 Clear 23 1017 69 10000 2.1 40 00:31 26.01.2020
4038 Clear 23 1017 70 0 2.89 359 23:41 25.01.2020
4039 Clear 23 1017 70 0 2.89 359 23:22 25.01.2020
4040 Clear 23 1016 71 0 2.25 17 22:59 25.01.2020
4041 Clear 23 1016 71 0 2.25 17 22:40 25.01.2020
4042 Clear 23 1016 71 0 2.25 17 22:19 25.01.2020
4043 Clear 23 1016 71 0 2.25 17 21:57 25.01.2020
4044 Clear 23 1016 71 0 2.25 17 21:38 25.01.2020
4045 Clear 23 1016 71 0 2.25 17 21:19 25.01.2020
4046 Clear 23 1016 71 0 2.25 17 20:44 25.01.2020
4047 Clear 23 1016 71 0 2.25 17 20:25 25.01.2020
4048 Clear 23 1018 72 0 1.22 95 19:55 25.01.2020
4049 Clear 23 1018 72 0 1.22 95 19:37 25.01.2020
4050 Clear 23 1018 72 0 1.22 95 19:18 25.01.2020
4051 Clear 23 1017 72 0 1.19 108 18:41 25.01.2020
4052 Clear 23 1018 72 0 1.22 95 18:21 25.01.2020
4053 Clear 23 1017 72 0 1.19 108 17:57 25.01.2020
4054 Clear 23 1017 72 0 1.19 108 17:37 25.01.2020
4055 Clear 23 1018 72 0 1.22 95 17:37 25.01.2020
4056 Clear 23 1019 72 0 1.18 82 17:18 25.01.2020
4057 Clear 23 1019 73 0 2.3 74 16:42 25.01.2020
4058 Clear 23 1019 73 0 2.3 74 16:42 25.01.2020
4059 Clear 23 1019 73 0 2.3 74 16:23 25.01.2020
4060 Clear 23 1019 73 0 2.3 74 15:56 25.01.2020
4061 Clear 23 1019 73 0 2.3 74 15:38 25.01.2020
4062 Clear 23 1019 73 0 2.3 74 15:19 25.01.2020
4063 Clear 23 1019 73 0 2.3 74 14:42 25.01.2020
4064 Clouds 23 1017 74 0 2.55 70 14:19 25.01.2020
4065 Clouds 23 1017 74 0 2.55 70 13:45 25.01.2020
4066 Clouds 23 1017 74 0 2.55 70 13:26 25.01.2020
4067 Clouds 23 1017 73 0 3.27 70 12:51 25.01.2020
4068 Clouds 23 1017 73 0 3.27 70 12:31 25.01.2020
4069 Clouds 23 1017 73 0 3.27 70 11:57 25.01.2020
4070 Clouds 23 1017 73 0 3.27 70 11:39 25.01.2020
4071 Clouds 23 1016 74 0 3.64 80 11:19 25.01.2020
4072 Clouds 23 1016 74 0 3.64 80 10:42 25.01.2020
4073 Clouds 23 1016 74 0 3.64 80 10:21 25.01.2020
4074 Clouds 23 1016 74 0 3.64 80 09:59 25.01.2020
4075 Clouds 23 1016 74 0 3.64 80 09:38 25.01.2020
4076 Clouds 18 1017 93 10000 3.64 80 09:19 25.01.2020
4077 Clouds 18 1017 93 10000 3.64 80 08:42 25.01.2020
4078 Clouds 19 1018 88 10000 0.5 0 07:54 25.01.2020
4079 Clouds 19 1018 88 10000 0.5 0 07:21 25.01.2020
4080 Clouds 21 1018 83 10000 2.1 120 06:31 25.01.2020
4081 Clouds 20 1019 88 10000 1 0 05:51 25.01.2020
4082 Clouds 20 1019 88 10000 1 0 05:30 25.01.2020
4083 Clouds 21 1018 83 10000 2.6 110 03:55 25.01.2020
4084 Clouds 21 1018 83 10000 2.6 110 03:34 25.01.2020
4085 Clouds 20 1018 88 10000 2.1 120 02:35 25.01.2020
4086 Clouds 20 1017 88 10000 2.6 130 01:54 25.01.2020
4087 Clouds 21 1017 88 10000 3.6 150 00:52 25.01.2020
4088 Clouds 21 1017 88 10000 3.6 150 00:27 25.01.2020
4089 Clouds 23 1016 69 10000 3.1 110 23:59 24.01.2020
4090 Clouds 23 1016 69 10000 3.1 110 23:59 24.01.2020
4091 Clouds 23 1016 69 10000 3.1 110 23:41 24.01.2020
4092 Clouds 23 1016 69 10000 3.1 110 23:41 24.01.2020
4093 Clouds 23 1016 69 10000 3.1 110 23:41 24.01.2020
4094 Clouds 23 1016 69 10000 3.1 110 23:23 24.01.2020
4095 Clouds 23 1016 69 10000 4.1 100 22:46 24.01.2020
4096 Clouds 23 1016 69 10000 4.1 100 22:46 24.01.2020
4097 Clouds 23 1016 69 10000 4.1 100 22:25 24.01.2020
4098 Rain 23 1016 77 0 6.01 58 21:56 24.01.2020
4099 Rain 23 1016 77 0 6.01 58 21:38 24.01.2020
4100 Clouds 25 1016 61 10000 4.1 100 21:18 24.01.2020
4101 Clouds 25 1016 61 10000 4.1 100 20:42 24.01.2020
4102 Clouds 25 1016 61 10000 4.1 100 20:21 24.01.2020
4103 Rain 23 1016 76 0 5.29 72 19:57 24.01.2020
4104 Rain 23 1016 76 0 5.29 72 19:39 24.01.2020
4105 Clouds 24 1018 64 10000 4.6 100 19:21 24.01.2020
4106 Clouds 24 1018 64 10000 4.6 100 18:43 24.01.2020
4107 Clouds 24 1018 64 10000 4.6 100 18:43 24.01.2020
4108 Rain 23 1016 76 0 5.29 72 18:24 24.01.2020
4109 Rain 23 1016 76 0 5.29 72 17:56 24.01.2020
4110 Rain 23 1016 76 0 5.29 72 17:38 24.01.2020
4111 Clouds 24 1018 69 10000 5.1 110 17:18 24.01.2020
4112 Clear 22 1018 78 0 6.85 78 16:39 24.01.2020
4113 Clear 22 1018 78 0 6.85 78 16:20 24.01.2020
4114 Clear 22 1018 78 0 6.85 78 15:43 24.01.2020
4115 Clear 22 1018 78 0 6.85 78 15:23 24.01.2020
4116 Clear 22 1018 78 0 6.85 78 14:58 24.01.2020
4117 Clear 22 1018 78 0 6.85 78 14:40 24.01.2020
4118 Clouds 20 1017 88 10000 2.6 120 14:21 24.01.2020
4119 Clouds 20 1017 88 10000 2.6 120 13:43 24.01.2020
4120 Clouds 20 1017 88 10000 2.6 120 13:23 24.01.2020
4121 Clouds 20 1016 88 10000 2.1 100 12:44 24.01.2020
4122 Clouds 20 1016 88 10000 2.1 100 12:22 24.01.2020
4123 Clouds 20 1015 88 10000 2.6 120 11:45 24.01.2020
4124 Clouds 20 1015 88 10000 2.6 120 11:20 24.01.2020
4125 Clear 22 1015 77 0 7.18 68 10:59 24.01.2020
4126 Clear 22 1015 77 0 7.18 68 10:41 24.01.2020
4127 Clear 22 1015 77 0 7.18 68 10:19 24.01.2020
4128 Clear 22 1015 77 0 7.18 68 09:42 24.01.2020
4129 Clear 22 1015 77 0 7.18 68 09:42 24.01.2020
4130 Clouds 21 1016 77 10000 3.1 100 09:24 24.01.2020
4131 Clouds 21 1016 77 10000 3.1 100 08:59 24.01.2020
4132 Clouds 21 1016 77 10000 3.1 100 08:36 24.01.2020
4133 Clouds 21 1016 77 10000 3.1 100 08:18 24.01.2020
4134 Clouds 22 1016 73 10000 4.1 100 07:42 24.01.2020
4135 Clouds 22 1016 73 10000 4.1 100 07:18 24.01.2020
4136 Clouds 22 1017 73 10000 4.1 90 06:42 24.01.2020
4137 Clouds 22 1017 73 10000 4.1 90 06:18 24.01.2020
4138 Clouds 22 1017 73 10000 4.1 90 05:20 24.01.2020
4139 Clouds 23 1016 69 10000 4.6 80 02:56 24.01.2020
4140 Clouds 23 1016 69 10000 4.6 80 02:38 24.01.2020
4141 Clouds 23 1016 69 10000 4.6 80 02:18 24.01.2020
4142 Clouds 23 1016 64 10000 5.7 80 01:37 24.01.2020
4143 Clouds 23 1015 64 10000 4.1 80 00:39 24.01.2020
4144 Clouds 24 1015 60 10000 5.7 90 23:59 23.01.2020
4145 Clouds 24 1015 60 10000 5.7 90 23:59 23.01.2020
4146 Clouds 24 1015 60 10000 5.7 90 23:40 23.01.2020
4147 Clouds 24 1015 60 10000 5.7 90 23:21 23.01.2020
4148 Clouds 25 1014 57 10000 6.2 70 22:58 23.01.2020
4149 Clouds 25 1014 57 10000 6.2 70 22:36 23.01.2020
4150 Clouds 25 1014 57 10000 6.2 70 22:18 23.01.2020
4151 Clouds 25 1014 57 10000 6.2 70 22:18 23.01.2020
4152 Clouds 25 1014 57 10000 6.7 90 21:54 23.01.2020
4153 Clouds 25 1014 57 10000 6.7 90 21:36 23.01.2020
4154 Clouds 25 1014 57 10000 6.7 90 21:18 23.01.2020
4155 Clouds 24 1014 60 10000 7.2 90 20:39 23.01.2020
4156 Clouds 24 1014 60 10000 7.2 90 20:39 23.01.2020
4157 Clouds 24 1014 60 10000 7.2 90 20:21 23.01.2020
4158 Clouds 24 1015 64 10000 7.2 90 19:56 23.01.2020
4159 Clouds 24 1015 64 10000 7.2 90 19:38 23.01.2020
4160 Clouds 24 1015 64 10000 7.2 90 19:20 23.01.2020
4161 Clouds 24 1016 64 10000 8.7 90 18:56 23.01.2020
4162 Clouds 24 1016 64 10000 8.7 90 18:37 23.01.2020
4163 Clouds 24 1016 64 10000 8.7 90 18:19 23.01.2020
4164 Clouds 24 1016 64 10000 7.2 90 17:43 23.01.2020
4165 Clouds 24 1016 64 10000 7.2 90 17:20 23.01.2020
4166 Clouds 23 1016 64 10000 8.2 90 16:58 23.01.2020
4167 Clouds 23 1016 64 10000 8.2 90 16:37 23.01.2020
4168 Clouds 23 1016 64 10000 8.2 90 16:18 23.01.2020
4169 Clouds 23 1016 64 10000 8.2 70 15:57 23.01.2020
4170 Clouds 23 1016 64 10000 8.2 70 15:37 23.01.2020
4171 Clouds 23 1016 64 10000 8.2 70 15:18 23.01.2020
4172 Rain 22 1015 73 10000 8.2 60 14:56 23.01.2020
4173 Rain 22 1015 73 10000 8.2 60 14:38 23.01.2020
4174 Rain 22 1015 73 10000 8.2 60 14:20 23.01.2020
4175 Clouds 21 1015 77 10000 7.2 60 13:43 23.01.2020
4176 Clouds 21 1015 77 10000 7.2 60 13:20 23.01.2020
4177 Clouds 22 1015 64 10000 6.7 50 12:47 23.01.2020
4178 Clouds 22 1015 64 10000 6.7 50 12:26 23.01.2020
4179 Clouds 22 1014 64 10000 7.2 60 11:59 23.01.2020
4180 Clouds 22 1014 64 10000 7.2 60 11:59 23.01.2020
4181 Clouds 22 1014 64 10000 7.2 60 11:39 23.01.2020
4182 Clouds 22 1014 64 10000 7.2 60 11:20 23.01.2020
4183 Clouds 22 1014 64 10000 6.7 50 10:55 23.01.2020
4184 Clouds 22 1014 64 10000 6.7 50 10:36 23.01.2020
4185 Clouds 22 1014 64 10000 6.7 50 10:18 23.01.2020
4186 Clouds 21 1014 68 10000 6.7 50 09:39 23.01.2020
4187 Clouds 21 1014 68 10000 6.7 50 09:20 23.01.2020
4188 Clouds 21 1015 68 10000 6.2 40 08:43 23.01.2020
4189 Clouds 21 1015 68 10000 6.2 40 08:43 23.01.2020
4190 Clouds 21 1015 68 10000 6.2 40 08:24 23.01.2020
4191 Clouds 22 1015 56 10000 6.7 50 07:49 23.01.2020
4192 Clouds 22 1015 56 10000 6.7 50 07:27 23.01.2020
4193 Clear 22 1015 71 0 10.92 32 06:54 23.01.2020
4194 Clouds 21 1015 68 10000 6.2 40 06:24 23.01.2020
4195 Clouds 21 1015 68 10000 6.2 40 05:58 23.01.2020
4196 Clouds 21 1015 64 10000 6.2 30 04:24 23.01.2020
4197 Clouds 19 1015 82 10000 6.2 350 02:45 23.01.2020
4198 Clouds 19 1014 72 10000 6.7 340 01:44 23.01.2020
4199 Clouds 19 1013 72 10000 7.7 310 00:28 23.01.2020
4200 Clouds 19 1013 72 10000 8.2 330 23:54 22.01.2020
4201 Clouds 19 1013 72 10000 8.2 330 23:36 22.01.2020
4202 Clouds 19 1013 72 10000 8.2 330 23:18 22.01.2020
4203 Clouds 21 1013 68 10000 9.3 330 22:41 22.01.2020
4204 Clouds 21 1013 68 10000 9.3 330 22:23 22.01.2020
4205 Clouds 20 1013 72 10000 8.7 320 21:42 22.01.2020
4206 Clouds 20 1013 72 10000 8.7 320 21:23 22.01.2020
4207 Clouds 19 1013 68 10000 10.3 320 20:59 22.01.2020
4208 Clouds 19 1013 68 10000 10.3 320 20:41 22.01.2020
4209 Clouds 19 1013 68 10000 10.3 320 20:23 22.01.2020
4210 Clouds 20 1014 60 10000 9.8 320 19:57 22.01.2020
4211 Rain 19 1013 70 0 11.73 298 19:39 22.01.2020
4212 Clouds 20 1014 60 10000 10.8 320 19:19 22.01.2020
4213 Clouds 20 1014 60 10000 10.8 320 18:57 22.01.2020
4214 Clouds 20 1014 60 10000 10.8 320 18:38 22.01.2020
4215 Clouds 20 1014 60 10000 10.8 320 18:20 22.01.2020
4216 Clouds 19 1014 59 10000 11.8 330 17:55 22.01.2020
4217 Clouds 19 1014 59 10000 11.8 330 17:37 22.01.2020
4218 Clouds 19 1014 59 10000 11.8 330 17:19 22.01.2020
4219 Clouds 18 1014 68 10000 12.9 340 16:43 22.01.2020
4220 Clouds 18 1014 68 10000 12.9 340 16:23 22.01.2020
4221 Clouds 17 1014 72 10000 9.8 330 15:59 22.01.2020
4222 Clouds 17 1014 72 10000 9.8 330 15:40 22.01.2020
4223 Clouds 17 1014 72 10000 9.8 330 15:40 22.01.2020
4224 Clouds 17 1014 72 10000 9.8 330 15:22 22.01.2020
4225 Rain 16 1013 77 10000 8.7 330 14:56 22.01.2020
4226 Rain 16 1013 77 10000 8.7 330 14:36 22.01.2020
4227 Rain 16 1013 77 10000 8.7 330 14:18 22.01.2020
4228 Rain 17 1014 73 0 13.61 310 13:54 22.01.2020
4229 Rain 17 1014 73 0 13.61 310 13:36 22.01.2020
4230 Rain 17 1015 73 0 13.6 312 13:18 22.01.2020
4231 Rain 17 1015 73 0 13.6 312 13:18 22.01.2020
4232 Rain 17 1015 73 0 13.6 312 12:54 22.01.2020
4233 Rain 17 1015 73 0 13.6 312 12:36 22.01.2020
4234 Clouds 17 1013 45 10000 7.7 320 12:18 22.01.2020
4235 Clouds 17 1013 45 10000 7.7 320 11:54 22.01.2020
4236 Rain 17 1015 73 0 13.6 312 11:36 22.01.2020
4237 Clouds 17 1013 45 10000 8.7 320 11:18 22.01.2020
4238 Rain 17 1013 69 0 12.23 307 10:41 22.01.2020
4239 Rain 17 1013 69 0 12.23 307 10:19 22.01.2020
4240 Rain 17 1013 69 0 12.23 307 09:42 22.01.2020
4241 Rain 17 1013 69 0 12.23 307 09:24 22.01.2020
4242 Rain 17 1013 69 0 12.23 307 08:57 22.01.2020
4243 Rain 17 1013 69 0 12.23 307 08:38 22.01.2020
4244 Rain 18 1014 78 0 13.14 312 08:20 22.01.2020
4245 Rain 18 1014 77 0 12.87 316 07:46 22.01.2020
4246 Clouds 18 1015 72 10000 9.3 340 07:27 22.01.2020
4247 Clouds 18 1015 72 10000 9.3 340 06:38 22.01.2020
4248 Clouds 18 1015 72 10000 9.3 340 06:20 22.01.2020
4249 Clouds 20 1015 68 10000 8.2 350 05:19 22.01.2020
4250 Clouds 20 1015 72 10000 9.8 350 03:29 22.01.2020
4251 Clouds 21 1014 73 10000 8.7 330 02:49 22.01.2020
4252 Clouds 21 1014 73 10000 8.2 320 01:35 22.01.2020
4253 Clouds 22 1014 73 10000 8.2 320 00:42 22.01.2020
4254 Clouds 22 1014 73 10000 8.2 320 00:23 22.01.2020
4255 Clouds 22 1014 68 10000 7.2 320 23:38 21.01.2020
4256 Clouds 22 1014 68 10000 7.2 320 23:38 21.01.2020
4257 Clouds 22 1014 68 10000 7.2 320 23:20 21.01.2020
4258 Clouds 23 1014 64 10000 7.2 320 22:42 21.01.2020
4259 Clouds 24 1015 60 10000 6.7 310 22:24 21.01.2020
4260 Clouds 24 1015 60 10000 6.7 310 21:59 21.01.2020
4261 Clouds 24 1015 60 10000 6.7 310 21:59 21.01.2020
4262 Clouds 24 1015 60 10000 6.7 310 21:40 21.01.2020
4263 Clouds 24 1015 60 10000 6.7 310 21:21 21.01.2020
4264 Clouds 23 1015 60 10000 5.1 310 20:59 21.01.2020
4265 Clouds 23 1015 60 10000 5.1 310 20:39 21.01.2020
4266 Clouds 23 1015 60 10000 5.1 310 20:20 21.01.2020
4267 Clouds 23 1016 53 10000 4.6 330 19:58 21.01.2020
4268 Clouds 23 1016 53 10000 4.6 330 19:39 21.01.2020
4269 Clouds 24 1016 53 10000 4.6 330 19:21 21.01.2020
4270 Clouds 23 1017 56 10000 5.1 360 18:57 21.01.2020
4271 Clouds 23 1017 56 10000 5.1 360 18:38 21.01.2020
4272 Clouds 23 1017 56 10000 5.1 360 18:20 21.01.2020
4273 Clouds 23 1018 60 10000 5.1 340 17:56 21.01.2020
4274 Clouds 23 1018 60 10000 5.1 340 17:37 21.01.2020
4275 Clouds 23 1018 60 10000 5.1 340 17:18 21.01.2020
4276 Clouds 23 1017 68 0 1.79 347 16:37 21.01.2020
4277 Clouds 23 1018 60 10000 3.6 30 16:19 21.01.2020
4278 Clouds 23 1018 60 10000 3.6 30 15:57 21.01.2020
4279 Clouds 23 1018 60 10000 3.6 30 15:37 21.01.2020
4280 Clouds 23 1018 60 10000 3.6 30 15:19 21.01.2020
4281 Clouds 21 1017 60 10000 3.1 30 14:39 21.01.2020
4282 Clouds 21 1017 60 10000 3.1 30 14:20 21.01.2020
4283 Clouds 21 1017 68 10000 7.11 356 13:41 21.01.2020
4284 Clouds 21 1017 68 10000 6.7 350 13:19 21.01.2020
4285 Clouds 21 1017 68 10000 4.6 10 12:56 21.01.2020
4286 Clouds 21 1017 68 10000 4.6 10 12:38 21.01.2020
4287 Clouds 21 1017 68 10000 4.6 10 12:19 21.01.2020
4288 Clouds 21 1016 73 10000 3.6 10 11:40 21.01.2020
4289 Clouds 21 1016 73 10000 3.6 10 11:21 21.01.2020
4290 Clouds 21 1017 73 10000 3.6 30 10:57 21.01.2020
4291 Clouds 21 1017 73 10000 3.6 30 10:57 21.01.2020
4292 Clouds 21 1017 73 10000 3.6 30 10:57 21.01.2020
4293 Clouds 21 1017 73 10000 3.6 30 10:57 21.01.2020
4294 Clouds 21 1017 73 10000 3.6 30 10:39 21.01.2020
4295 Clouds 21 1017 73 10000 3.6 30 10:20 21.01.2020
4296 Clouds 21 1017 73 10000 3.6 30 09:42 21.01.2020
4297 Clouds 21 1017 77 10000 4.1 20 09:23 21.01.2020
4298 Clouds 22 1017 78 10000 4.6 20 08:50 21.01.2020
4299 Clouds 22 1017 78 10000 4.6 20 08:32 21.01.2020
4300 Clouds 22 1018 78 10000 4.1 20 07:59 21.01.2020
4301 Clouds 22 1018 78 10000 4.1 20 07:40 21.01.2020
4302 Clouds 22 1018 78 10000 4.1 20 07:22 21.01.2020
4303 Clouds 22 1018 78 10000 3.6 30 06:49 21.01.2020
4304 Clouds 22 1018 78 10000 3.6 30 06:29 21.01.2020
4305 Clouds 22 1018 78 10000 3.6 30 06:29 21.01.2020
4306 Clouds 22 1018 78 10000 3.6 30 06:29 21.01.2020
4307 Clouds 23 1019 73 10000 4.1 30 05:42 21.01.2020
4308 Clouds 23 1019 73 10000 4.1 30 05:42 21.01.2020
4309 Clouds 23 1019 73 10000 3.6 30 04:40 21.01.2020
4310 Clouds 23 1018 78 10000 4.1 30 02:56 21.01.2020
4311 Clouds 23 1018 78 10000 4.1 10 01:53 21.01.2020
4312 Clouds 23 1018 78 10000 4.1 10 01:18 21.01.2020
4313 Rain 23 1017 73 10000 3.1 360 00:36 21.01.2020
4314 Rain 23 1017 83 10000 4.1 350 23:58 20.01.2020
4315 Rain 23 1017 83 10000 4.1 350 23:38 20.01.2020
4316 Rain 23 1017 83 10000 4.1 350 23:19 20.01.2020
4317 Rain 23 1017 83 10000 7.2 360 22:56 20.01.2020
4318 Rain 23 1017 83 10000 7.2 360 22:37 20.01.2020
4319 Rain 23 1017 83 10000 7.2 360 22:19 20.01.2020
4320 Rain 25 1017 69 10000 5.1 330 21:57 20.01.2020
4321 Rain 25 1017 69 10000 5.1 330 21:37 20.01.2020
4322 Rain 25 1017 69 10000 5.1 330 21:37 20.01.2020
4323 Rain 25 1017 69 10000 5.1 330 21:18 20.01.2020
4324 Clouds 26 1017 57 10000 3.6 290 20:55 20.01.2020
4325 Clouds 26 1017 57 10000 3.6 290 20:36 20.01.2020
4326 Clouds 26 1017 57 10000 3.6 290 20:18 20.01.2020
4327 Clouds 26 1018 57 10000 3.6 310 19:56 20.01.2020
4328 Rain 24 1016 78 0 0.45 115 19:37 20.01.2020
4329 Rain 24 1016 78 0 1.07 253 19:18 20.01.2020
4330 Rain 24 1017 78 0 1.07 253 18:42 20.01.2020
4331 Clouds 24 1019 69 10000 4.1 310 18:21 20.01.2020
4332 Clouds 25 1019 69 10000 4.1 310 17:39 20.01.2020
4333 Clouds 25 1019 69 10000 4.1 310 17:19 20.01.2020
4334 Clouds 24 1018 78 0 1.34 27 16:58 20.01.2020
4335 Clouds 24 1018 75 0 2.58 268 16:37 20.01.2020
4336 Clouds 24 1019 78 10000 1.5 250 16:18 20.01.2020
4337 Clouds 24 1019 78 10000 1.5 250 15:41 20.01.2020
4338 Clouds 24 1019 78 10000 1.5 250 15:22 20.01.2020
4339 Clouds 23 1018 60 0 2.58 268 14:59 20.01.2020
4340 Clouds 22 1018 57 0 2.58 268 14:41 20.01.2020
4341 Clouds 20 1018 100 10000 2.51 221 14:21 20.01.2020
4342 Clouds 19 1018 100 10000 2.51 221 13:57 20.01.2020
4343 Clouds 19 1018 100 10000 2.51 221 13:38 20.01.2020
4344 Clouds 17 1018 100 10000 2.8 211 13:20 20.01.2020
4345 Clouds 23 1018 76 0 2.8 211 12:42 20.01.2020
4346 Clouds 18 1018 93 10000 2.8 211 12:23 20.01.2020
4347 Clouds 18 1018 93 10000 2.8 211 11:55 20.01.2020
4348 Clouds 18 1018 93 10000 2.8 211 11:36 20.01.2020
4349 Clouds 18 1018 93 10000 3.73 194 11:18 20.01.2020
4350 Clouds 19 1018 100 10000 1.5 190 10:46 20.01.2020
4351 Clouds 19 1018 100 10000 1.5 190 10:20 20.01.2020
4352 Clouds 19 1018 93 10000 1 0 09:42 20.01.2020
4353 Clouds 19 1018 93 10000 1 0 09:42 20.01.2020
4354 Clouds 19 1018 93 10000 1 0 09:24 20.01.2020
4355 Clouds 19 1018 93 10000 1.5 180 08:55 20.01.2020
4356 Clouds 19 1018 93 10000 1.5 180 08:34 20.01.2020
4357 Clouds 19 1019 93 10000 2.6 160 07:56 20.01.2020
4358 Clouds 19 1019 93 10000 2.6 160 07:38 20.01.2020
4359 Clouds 19 1019 93 10000 2.6 160 07:19 20.01.2020
4360 Clouds 20 1020 88 10000 1 0 06:40 20.01.2020
4361 Clouds 20 1020 88 10000 1 0 06:20 20.01.2020
4362 Clouds 20 1020 88 10000 1.5 170 05:38 20.01.2020
4363 Clouds 20 1020 88 10000 1.5 170 05:19 20.01.2020
4364 Clouds 20 1020 94 10000 2.1 160 03:55 20.01.2020
4365 Clouds 21 1019 83 10000 2.6 160 01:58 20.01.2020
4366 Clouds 21 1019 83 10000 2.6 160 01:39 20.01.2020
4367 Clouds 22 1019 78 10000 3.1 170 00:55 20.01.2020
4368 Clouds 22 1019 78 10000 3.1 170 00:28 20.01.2020
4369 Clouds 23 1019 69 10000 4.1 180 23:56 19.01.2020
4370 Clouds 23 1019 69 10000 4.1 180 23:37 19.01.2020
4371 Clouds 24 1019 69 10000 4.1 180 23:18 19.01.2020
4372 Clouds 25 1019 61 10000 5.7 170 22:55 19.01.2020
4373 Clouds 25 1019 61 10000 5.7 170 22:36 19.01.2020
4374 Clouds 25 1019 61 10000 5.7 170 22:18 19.01.2020
4375 Clouds 26 1019 57 10000 5.7 170 21:55 19.01.2020
4376 Clouds 26 1019 57 10000 5.7 170 21:55 19.01.2020
4377 Clouds 26 1019 57 10000 5.7 170 21:37 19.01.2020
4378 Clouds 26 1019 57 10000 5.7 170 21:19 19.01.2020
4379 Clouds 26 1020 54 10000 5.1 170 20:55 19.01.2020
4380 Clear 26 1018 67 0 0.89 205 20:37 19.01.2020
4381 Clouds 26 1020 57 0 5.1 160 20:18 19.01.2020
4382 Clouds 26 1020 57 0 5.1 160 19:54 19.01.2020
4383 Clouds 26 1020 57 0 5.1 160 19:36 19.01.2020
4384 Clouds 26 1020 57 0 5.1 160 19:18 19.01.2020
4385 Clouds 25 1022 61 0 5.1 160 18:54 19.01.2020
4386 Clouds 25 1022 61 0 5.1 160 18:36 19.01.2020
4387 Clouds 25 1022 61 0 5.1 160 18:18 19.01.2020
4388 Clouds 25 1022 54 10000 5.7 140 17:56 19.01.2020
4389 Clouds 25 1022 54 10000 5.7 140 17:38 19.01.2020
4390 Clouds 25 1022 54 10000 5.7 140 17:18 19.01.2020
4391 Clouds 24 1023 57 10000 4.1 120 16:54 19.01.2020
4392 Clouds 24 1023 57 10000 4.1 120 16:54 19.01.2020
4393 Clear 24 1022 77 0 1.34 55 16:36 19.01.2020
4394 Clear 24 1022 77 0 1.34 94 16:18 19.01.2020
4395 Clear 23 1022 76 0 2.24 352 15:40 19.01.2020
4396 Clear 23 1022 77 0 1.34 56 15:22 19.01.2020
4397 Clear 23 1021 75 0 1.34 104 14:59 19.01.2020
4398 Clear 23 1021 75 0 1.34 104 14:59 19.01.2020
4399 Clear 23 1021 75 0 5.51 131 14:40 19.01.2020
4400 Clouds 22 1022 82 10000 2.1 120 14:19 19.01.2020
4401 Clouds 21 1022 82 10000 2.1 120 13:58 19.01.2020
4402 Clouds 21 1022 82 10000 2.1 120 13:38 19.01.2020
4403 Clouds 20 1022 82 10000 2.1 120 13:20 19.01.2020
4404 Clouds 16 1021 87 10000 0.5 0 12:56 19.01.2020
4405 Clouds 16 1021 87 10000 0.5 0 12:37 19.01.2020
4406 Clouds 16 1021 87 10000 0.5 0 12:37 19.01.2020
4407 Clouds 16 1021 87 10000 0.5 0 12:19 19.01.2020
4408 Clouds 16 1021 93 10000 5.94 121 11:43 19.01.2020
4409 Clouds 16 1021 93 10000 5.77 109 11:21 19.01.2020
4410 Clouds 20 1022 77 10000 2.6 90 10:57 19.01.2020
4411 Clouds 20 1022 77 10000 2.6 90 10:39 19.01.2020
4412 Clouds 20 1022 77 10000 2.6 90 10:19 19.01.2020
4413 Clouds 20 1022 77 10000 2.1 90 09:56 19.01.2020
4414 Clouds 20 1022 77 10000 2.1 90 09:56 19.01.2020
4415 Clouds 20 1022 77 10000 2.1 90 09:56 19.01.2020
4416 Clouds 20 1022 77 10000 2.1 90 09:56 19.01.2020
4417 Clouds 20 1022 77 10000 2.1 90 09:37 19.01.2020
4418 Clouds 20 1022 77 10000 2.1 90 09:19 19.01.2020
4419 Clear 23 1021 70 0 5.77 109 08:52 19.01.2020
4420 Clouds 21 1023 73 10000 1.5 80 08:30 19.01.2020
4421 Clouds 21 1023 73 10000 1.5 80 07:46 19.01.2020
4422 Clouds 21 1023 73 10000 1.5 80 07:26 19.01.2020
4423 Clouds 21 1024 73 10000 3.1 120 06:54 19.01.2020
4424 Clouds 21 1024 73 10000 3.1 120 06:21 19.01.2020
4425 Clouds 21 1025 68 10000 3.6 110 03:28 19.01.2020
4426 Clouds 22 1025 68 10000 5.1 100 02:26 19.01.2020
4427 Clouds 22 1024 64 10000 5.1 100 01:28 19.01.2020
4428 Clouds 22 1024 64 10000 5.1 100 00:54 19.01.2020
4429 Clouds 22 1024 60 10000 6.7 110 00:29 19.01.2020
4430 Clouds 22 1024 60 10000 6.7 110 23:59 18.01.2020
4431 Clouds 22 1024 60 10000 6.7 110 23:41 18.01.2020
4432 Clouds 22 1024 60 10000 6.7 110 23:23 18.01.2020
4433 Clouds 22 1024 60 10000 8.2 100 22:55 18.01.2020
4434 Clouds 23 1024 60 10000 8.2 100 22:37 18.01.2020
4435 Clouds 23 1024 60 10000 8.2 100 22:37 18.01.2020
4436 Clouds 23 1024 60 10000 8.2 100 22:19 18.01.2020
4437 Rain 22 1023 71 0 2.68 345 21:57 18.01.2020
4438 Rain 22 1023 72 0 3.13 110 21:37 18.01.2020
4439 Clouds 23 1024 57 10000 7.7 110 21:19 18.01.2020
4440 Clouds 23 1024 57 10000 7.7 110 20:43 18.01.2020
4441 Clouds 23 1024 57 10000 7.7 110 20:21 18.01.2020
4442 Clouds 24 1025 57 10000 7.7 100 19:57 18.01.2020
4443 Clouds 24 1025 57 10000 7.7 100 19:39 18.01.2020
4444 Clouds 24 1025 57 10000 7.7 100 19:39 18.01.2020
4445 Clouds 24 1025 57 10000 7.7 100 19:21 18.01.2020
4446 Clouds 23 1026 60 10000 8.7 110 18:42 18.01.2020
4447 Clouds 23 1026 60 10000 8.7 110 18:21 18.01.2020
4448 Clouds 23 1027 60 10000 9.3 100 17:55 18.01.2020
4449 Clouds 23 1027 60 10000 9.3 100 17:37 18.01.2020
4450 Clouds 23 1027 60 10000 9.3 100 17:18 18.01.2020
4451 Clouds 23 1027 60 10000 8.2 110 16:41 18.01.2020
4452 Clouds 23 1027 60 10000 8.2 110 16:23 18.01.2020
4453 Clouds 22 1027 60 10000 8.2 110 15:59 18.01.2020
4454 Clouds 22 1027 60 10000 8.2 110 15:40 18.01.2020
4455 Clouds 21 1026 64 10000 6.7 110 15:22 18.01.2020
4456 Clouds 21 1026 64 10000 6.7 110 14:44 18.01.2020
4457 Clouds 21 1026 64 10000 6.7 110 14:24 18.01.2020
4458 Clouds 21 1026 64 10000 6.2 100 13:59 18.01.2020
4459 Clouds 21 1026 64 10000 6.2 100 13:41 18.01.2020
4460 Clouds 21 1026 64 10000 6.2 100 13:21 18.01.2020
4461 Clouds 21 1026 64 10000 7.7 90 12:55 18.01.2020
4462 Clouds 21 1026 64 10000 7.7 90 12:36 18.01.2020
4463 Clouds 21 1026 64 10000 7.7 90 12:18 18.01.2020
4464 Clouds 21 1025 60 10000 6.2 100 11:43 18.01.2020
4465 Clouds 21 1025 60 10000 6.2 100 11:21 18.01.2020
4466 Clouds 22 1025 64 10000 7.2 90 10:45 18.01.2020
4467 Clouds 22 1025 64 10000 7.2 90 10:22 18.01.2020
4468 Clouds 22 1026 56 10000 8.7 90 09:59 18.01.2020
4469 Clouds 22 1026 56 10000 8.7 90 09:41 18.01.2020
4470 Clouds 22 1026 56 10000 8.7 90 09:19 18.01.2020
4471 Clouds 22 1026 64 10000 7.7 90 08:42 18.01.2020
4472 Clouds 22 1026 64 10000 7.7 90 08:20 18.01.2020
4473 Clouds 22 1026 60 10000 8.7 90 07:59 18.01.2020
4474 Clouds 22 1026 60 10000 8.7 90 07:39 18.01.2020
4475 Clouds 22 1026 64 10000 7.7 90 06:52 18.01.2020
4476 Clouds 22 1026 64 10000 7.7 90 06:33 18.01.2020
4477 Clouds 22 1027 60 10000 8.2 80 05:49 18.01.2020
4478 Clouds 22 1026 64 10000 8.2 80 04:24 18.01.2020
4479 Clouds 23 1026 64 10000 13.38 67 02:33 18.01.2020
4480 Rain 22 1025 75 0 6.71 51 01:39 18.01.2020
4481 Clouds 23 1025 69 10000 7.2 90 00:39 18.01.2020
4482 Clouds 23 1025 69 10000 7.2 90 00:19 18.01.2020
4483 Clouds 23 1024 69 10000 7.2 70 23:56 17.01.2020
4484 Clouds 23 1024 69 10000 7.2 70 23:38 17.01.2020
4485 Clouds 23 1024 69 10000 7.2 70 23:18 17.01.2020
4486 Rain 23 1024 78 10000 8.2 70 22:40 17.01.2020
4487 Rain 23 1024 78 10000 8.2 70 22:19 17.01.2020
4488 Rain 23 1024 78 10000 8.2 70 22:19 17.01.2020
4489 Rain 22 1022 68 0 5.81 27 21:43 17.01.2020
4490 Rain 22 1024 78 10000 3.1 50 21:24 17.01.2020
4491 Rain 23 1024 78 10000 3.1 50 20:59 17.01.2020
4492 Rain 23 1024 78 10000 3.1 50 20:41 17.01.2020
4493 Rain 23 1024 78 10000 3.1 50 20:20 17.01.2020
4494 Rain 23 1024 83 10000 4.1 50 19:57 17.01.2020
4495 Rain 23 1023 75 0 1.79 53 19:38 17.01.2020
4496 Clouds 23 1025 78 10000 4.1 70 19:19 17.01.2020
4497 Clouds 24 1025 78 10000 4.1 70 18:57 17.01.2020
4498 Clouds 24 1025 78 10000 4.1 70 18:37 17.01.2020
4499 Clouds 24 1025 78 10000 4.1 70 18:19 17.01.2020
4500 Clouds 25 1025 65 10000 3.6 80 17:39 17.01.2020
4501 Clouds 25 1025 65 10000 3.6 80 17:21 17.01.2020
4502 Clouds 24 1025 69 10000 3.1 80 16:44 17.01.2020
4503 Clouds 24 1025 69 10000 3.1 80 16:21 17.01.2020
4504 Clouds 24 1025 73 10000 1.5 130 15:58 17.01.2020
4505 Clouds 24 1025 73 10000 1.5 130 15:40 17.01.2020
4506 Clouds 24 1025 73 10000 1.5 130 15:22 17.01.2020
4507 Clouds 21 1024 93 10000 5.53 58 14:43 17.01.2020
4508 Clouds 21 1024 93 10000 5.53 58 14:25 17.01.2020
4509 Clouds 19 1024 93 10000 1 0 13:46 17.01.2020
4510 Clear 22 1023 78 0 0.45 63 13:23 17.01.2020
4511 Clear 23 1023 72 0 5.8 56 12:48 17.01.2020
4512 Clear 23 1023 72 0 5.8 56 12:24 17.01.2020
4513 Clear 23 1023 72 0 5.8 56 11:56 17.01.2020
4514 Clear 23 1023 72 0 5.8 56 11:37 17.01.2020
4515 Clear 23 1022 71 0 5.58 58 11:18 17.01.2020
4516 Clear 23 1022 71 0 5.58 58 10:42 17.01.2020
4517 Clear 23 1022 71 0 5.58 58 10:42 17.01.2020
4518 Clear 23 1022 71 0 5.58 58 10:22 17.01.2020
4519 Clear 23 1022 71 0 5.58 58 09:56 17.01.2020
4520 Clear 23 1022 71 0 5.58 58 09:37 17.01.2020
4521 Clear 23 1022 71 0 5.58 58 09:18 17.01.2020
4522 Clear 23 1022 71 0 5.58 58 08:42 17.01.2020
4523 Clear 23 1022 72 0 6.12 53 08:23 17.01.2020
4524 Clear 23 1023 68 0 6.47 52 07:51 17.01.2020
4525 Clouds 22 1024 68 10000 2.6 90 07:31 17.01.2020
4526 Clouds 22 1024 68 10000 2.6 90 06:56 17.01.2020
4527 Clouds 22 1024 68 10000 2.6 90 06:37 17.01.2020
4528 Clouds 23 1024 64 10000 2.6 70 05:27 17.01.2020
4529 Clear 22 1023 76 0 2.68 64 03:38 17.01.2020
4530 Clear 23 1023 76 0 2.24 31 02:43 17.01.2020
4531 Clouds 23 1023 76 0 2.68 65 01:45 17.01.2020
4532 Clouds 23 1023 76 0 2.68 70 01:27 17.01.2020
4533 Clear 23 1023 77 0 2.68 55 00:43 17.01.2020
4534 Clouds 24 1023 61 10000 4.1 70 00:19 17.01.2020
4535 Clouds 24 1023 61 10000 4.1 70 23:41 16.01.2020
4536 Clouds 24 1023 61 10000 4.1 70 23:41 16.01.2020
4537 Clouds 24 1023 61 10000 4.1 70 23:23 16.01.2020
4538 Clouds 24 1023 65 10000 4.6 50 22:43 16.01.2020
4539 Clouds 24 1023 65 10000 4.6 50 22:22 16.01.2020
4540 Clear 24 1022 73 0 1.79 56 21:57 16.01.2020
4541 Clear 24 1022 73 0 1.79 30 21:38 16.01.2020
4542 Clouds 25 1023 65 10000 5.1 50 21:19 16.01.2020
4543 Clear 24 1022 71 0 0.89 67 20:58 16.01.2020
4544 Clear 24 1022 72 0 0.89 68 20:39 16.01.2020
4545 Clouds 25 1024 61 10000 5.7 50 20:19 16.01.2020
4546 Clouds 25 1024 61 10000 5.7 50 19:56 16.01.2020
4547 Clouds 26 1024 61 10000 5.7 50 19:38 16.01.2020
4548 Clouds 26 1024 61 10000 5.7 50 19:19 16.01.2020
4549 Clouds 25 1024 65 10000 5.1 50 18:55 16.01.2020
4550 Clouds 25 1024 65 10000 5.1 50 18:37 16.01.2020
4551 Clouds 25 1024 65 10000 5.1 50 18:18 16.01.2020
4552 Clouds 25 1025 61 10000 5.1 60 17:42 16.01.2020
4553 Clouds 25 1025 61 10000 5.1 60 17:23 16.01.2020
4554 Clouds 25 1025 61 10000 4.6 70 16:57 16.01.2020
4555 Clouds 25 1025 61 10000 4.6 70 16:39 16.01.2020
4556 Clouds 24 1025 61 10000 4.6 70 16:19 16.01.2020
4557 Clouds 24 1025 64 10000 3.1 80 15:44 16.01.2020
4558 Clouds 24 1025 64 10000 3.1 80 15:23 16.01.2020
4559 Clouds 22 1024 94 10000 2.1 80 14:57 16.01.2020
4560 Clouds 22 1024 94 10000 2.1 80 14:39 16.01.2020
4561 Clouds 22 1024 94 10000 2.1 80 14:20 16.01.2020
4562 Clouds 20 1024 88 10000 1.5 80 13:45 16.01.2020
4563 Clouds 20 1024 88 10000 1.5 80 13:26 16.01.2020
4564 Clouds 18 1023 82 10000 1 0 12:47 16.01.2020
4565 Clouds 18 1023 82 10000 1 0 12:28 16.01.2020
4566 Clouds 18 1023 82 10000 1 0 11:58 16.01.2020
4567 Clouds 18 1023 82 10000 1 0 11:39 16.01.2020
4568 Clouds 18 1023 82 10000 1 0 11:21 16.01.2020
4569 Clouds 21 1023 73 10000 2.1 70 10:40 16.01.2020
4570 Clouds 21 1023 73 10000 2.1 70 10:22 16.01.2020
4571 Clear 23 1022 73 0 6.1 70 09:58 16.01.2020
4572 Clear 23 1022 73 0 6.1 70 09:40 16.01.2020
4573 Clear 23 1022 73 0 6.1 70 09:22 16.01.2020
4574 Clear 23 1022 73 0 6.1 70 08:53 16.01.2020
4575 Clear 23 1022 73 0 6.1 70 08:35 16.01.2020
4576 Clouds 22 1024 64 10000 3.6 100 07:59 16.01.2020
4577 Clouds 22 1024 64 10000 3.6 100 07:39 16.01.2020
4578 Clouds 22 1024 64 10000 3.6 100 07:21 16.01.2020
4579 Clouds 21 1024 73 10000 2.1 100 06:43 16.01.2020
4580 Clouds 21 1024 73 10000 2.1 100 06:22 16.01.2020
4581 Clouds 21 1025 77 10000 3.1 90 05:46 16.01.2020
4582 Clouds 22 1025 73 10000 2.6 90 04:40 16.01.2020
4583 Clear 22 1024 68 10000 2.6 90 03:28 16.01.2020
4584 Clear 23 1023 78 0 1.79 88 02:43 16.01.2020
4585 Clear 23 1023 69 10000 3.1 100 01:24 16.01.2020
4586 Clouds 24 1023 60 10000 3.6 90 00:25 16.01.2020
4587 Clouds 24 1022 57 10000 5.1 110 23:56 15.01.2020
4588 Clouds 24 1022 57 10000 5.1 110 23:38 15.01.2020
4589 Clouds 24 1022 57 10000 5.1 110 23:18 15.01.2020
4590 Clouds 25 1022 50 0 5.1 100 22:42 15.01.2020
4591 Clouds 25 1022 50 0 5.1 100 22:20 15.01.2020
4592 Clear 24 1021 74 0 1.79 55 21:59 15.01.2020
4593 Clear 25 1021 70 0 1.34 115 21:40 15.01.2020
4594 Clouds 25 1022 57 10000 5.7 100 21:22 15.01.2020
4595 Clouds 25 1022 57 10000 5.7 100 20:58 15.01.2020
4596 Clouds 25 1022 57 10000 5.7 100 20:40 15.01.2020
4597 Clouds 25 1022 57 10000 5.7 100 20:22 15.01.2020
4598 Clouds 25 1023 50 10000 6.2 70 19:57 15.01.2020
4599 Clouds 25 1023 50 10000 6.2 70 19:38 15.01.2020
4600 Clouds 25 1023 50 10000 6.2 70 19:20 15.01.2020
4601 Clouds 25 1023 50 10000 6.2 70 19:20 15.01.2020
4602 Clouds 25 1023 73 10000 5.7 120 18:57 15.01.2020
4603 Clouds 25 1023 73 10000 5.7 120 18:57 15.01.2020
4604 Clouds 25 1023 73 10000 5.7 120 18:38 15.01.2020
4605 Clouds 25 1023 73 10000 5.7 120 18:20 15.01.2020
4606 Clouds 26 1024 44 10000 4.6 100 17:58 15.01.2020
4607 Clouds 26 1024 44 10000 4.6 100 17:40 15.01.2020
4608 Clouds 26 1024 44 10000 4.6 100 17:21 15.01.2020
4609 Clouds 25 1024 61 10000 4.6 110 16:55 15.01.2020
4610 Clouds 25 1024 61 10000 4.6 110 16:55 15.01.2020
4611 Clouds 25 1024 61 10000 4.6 110 16:36 15.01.2020
4612 Clouds 25 1024 61 10000 4.6 110 16:18 15.01.2020
4613 Clouds 24 1024 61 10000 2.6 110 15:42 15.01.2020
4614 Clouds 24 1024 61 10000 2.6 110 15:20 15.01.2020
4615 Clouds 23 1024 78 10000 1.5 90 14:45 15.01.2020
4616 Clouds 23 1024 78 10000 1.5 90 14:21 15.01.2020
4617 Clouds 23 1024 78 10000 2.1 90 13:56 15.01.2020
4618 Clouds 23 1023 78 0 6.38 85 13:38 15.01.2020
4619 Clouds 21 1023 82 10000 2.1 90 13:20 15.01.2020
4620 Clouds 20 1023 82 10000 2.1 90 12:54 15.01.2020
4621 Clouds 20 1023 82 10000 2.1 90 12:36 15.01.2020
4622 Clouds 20 1023 82 10000 2.1 90 12:18 15.01.2020
4623 Clouds 19 1023 82 10000 1.5 80 11:38 15.01.2020
4624 Clouds 19 1023 82 10000 1.5 80 11:38 15.01.2020
4625 Clouds 19 1023 82 10000 1.5 80 11:19 15.01.2020
4626 Clouds 22 1023 68 10000 2.1 80 10:46 15.01.2020
4627 Clouds 22 1023 68 10000 2.1 80 10:28 15.01.2020
4628 Clouds 23 1022 71 0 6.51 75 09:55 15.01.2020
4629 Clouds 23 1022 71 0 6.51 75 09:37 15.01.2020
4630 Clouds 23 1022 71 0 6.51 75 09:19 15.01.2020
4631 Clouds 23 1022 71 0 6.51 75 08:41 15.01.2020
4632 Clouds 23 1022 71 0 6.51 75 08:41 15.01.2020
4633 Clouds 23 1024 64 10000 2.6 80 08:23 15.01.2020
4634 Clouds 23 1024 64 10000 2.6 80 07:53 15.01.2020
4635 Clouds 22 1024 64 10000 2.6 80 07:32 15.01.2020
4636 Clouds 22 1024 73 10000 1.5 70 06:47 15.01.2020
4637 Clouds 22 1024 73 10000 1.5 70 06:21 15.01.2020
4638 Clouds 23 1024 73 10000 3.1 90 04:45 15.01.2020
4639 Clouds 23 1024 78 10000 3.1 90 02:39 15.01.2020
4640 Clouds 23 1024 78 10000 4.1 90 01:28 15.01.2020
4641 Clouds 24 1024 69 10000 3.1 100 00:47 15.01.2020
4642 Clouds 24 1024 69 10000 3.1 100 00:27 15.01.2020
4643 Clouds 24 1023 61 10000 6.2 130 23:57 14.01.2020
4644 Clouds 24 1023 61 10000 6.2 130 23:38 14.01.2020
4645 Clouds 24 1023 61 10000 6.2 130 23:19 14.01.2020
4646 Clouds 26 1023 57 10000 5.7 130 22:41 14.01.2020
4647 Clouds 25 1023 57 10000 5.7 130 22:19 14.01.2020
4648 Clouds 26 1023 57 10000 7.2 130 21:58 14.01.2020
4649 Clear 26 1022 66 0 1.79 170 21:40 14.01.2020
4650 Clouds 26 1023 54 10000 7.7 130 21:21 14.01.2020
4651 Clouds 26 1023 54 10000 7.7 130 21:21 14.01.2020
4652 Clouds 26 1023 54 10000 7.7 130 20:59 14.01.2020
4653 Clear 26 1022 68 0 1.79 70 20:40 14.01.2020
4654 Clear 26 1022 67 0 1.79 53 20:20 14.01.2020
4655 Clear 26 1022 65 0 2.24 123 19:56 14.01.2020
4656 Clear 26 1022 64 0 1.79 123 19:37 14.01.2020
4657 Clouds 26 1025 65 10000 7.7 130 19:18 14.01.2020
4658 Clouds 26 1025 65 10000 7.7 130 18:55 14.01.2020
4659 Clear 26 1023 68 0 1.79 74 18:37 14.01.2020
4660 Clouds 26 1026 61 10000 7.7 120 18:18 14.01.2020
4661 Clouds 26 1026 61 10000 7.7 120 17:38 14.01.2020
4662 Clouds 26 1026 61 10000 7.7 120 17:19 14.01.2020
4663 Clouds 26 1026 57 10000 8.2 120 16:55 14.01.2020
4664 Clouds 26 1026 57 10000 8.2 120 16:37 14.01.2020
4665 Clouds 26 1026 57 10000 8.2 120 16:18 14.01.2020
4666 Clear 25 1026 69 10000 7.2 120 15:42 14.01.2020
4667 Clear 25 1026 69 10000 7.2 120 15:19 14.01.2020
4668 Clear 24 1026 73 10000 5.1 110 14:46 14.01.2020
4669 Clear 24 1026 73 10000 5.1 110 14:23 14.01.2020
4670 Clouds 23 1026 78 10000 4.6 110 13:59 14.01.2020
4671 Clouds 23 1026 78 10000 4.6 110 13:40 14.01.2020
4672 Clouds 23 1026 78 10000 4.6 110 13:19 14.01.2020
4673 Clouds 23 1026 78 10000 4.6 110 13:19 14.01.2020
4674 Clouds 23 1025 73 10000 4.1 110 12:42 14.01.2020
4675 Clouds 23 1025 73 10000 4.1 110 12:22 14.01.2020
4676 Clouds 23 1022 73 10000 4.6 120 11:56 14.01.2020
4677 Clouds 23 1022 73 10000 4.6 120 11:37 14.01.2020
4678 Clouds 23 1022 73 10000 4.6 120 11:37 14.01.2020
4679 Clouds 23 1022 73 10000 4.6 120 11:19 14.01.2020
4680 Clouds 24 1025 78 10000 4.6 120 10:41 14.01.2020
4681 Clouds 24 1025 78 10000 4.6 120 10:20 14.01.2020
4682 Clouds 23 1025 83 10000 5.1 120 09:59 14.01.2020
4683 Clouds 23 1025 83 10000 5.1 120 09:40 14.01.2020
4684 Clouds 23 1025 83 10000 5.1 120 09:21 14.01.2020
4685 Clouds 24 1026 78 10000 4.6 120 08:56 14.01.2020
4686 Clouds 24 1026 78 10000 4.6 120 08:38 14.01.2020
4687 Clouds 24 1026 78 10000 4.6 120 08:19 14.01.2020
4688 Clouds 24 1026 83 10000 4.6 110 07:37 14.01.2020
4689 Clouds 24 1026 83 10000 3.6 110 06:57 14.01.2020
4690 Clouds 23 1026 83 10000 3.6 110 06:39 14.01.2020
4691 Clouds 24 1027 83 10000 4.1 100 05:33 14.01.2020
4692 Rain 24 1027 88 10000 5.1 110 04:22 14.01.2020
4693 Clouds 24 1026 83 10000 5.1 110 03:35 14.01.2020
4694 Clouds 24 1026 83 10000 5.1 100 02:26 14.01.2020
4695 Clouds 25 1026 78 10000 6.7 110 01:18 14.01.2020
4696 Clouds 24 1026 78 10000 6.7 110 00:38 14.01.2020
4697 Clouds 25 1025 74 10000 6.7 110 23:56 13.01.2020
4698 Clouds 25 1025 74 10000 6.7 110 23:37 13.01.2020
4699 Clouds 25 1025 74 10000 6.7 110 23:18 13.01.2020
4700 Clouds 25 1025 74 10000 6.7 110 23:18 13.01.2020
4701 Clouds 25 1025 74 10000 8.7 120 22:43 13.01.2020
4702 Clouds 26 1025 74 10000 7.7 120 22:22 13.01.2020
4703 Clouds 26 1025 74 10000 7.7 120 21:57 13.01.2020
4704 Clouds 26 1025 74 10000 7.7 120 21:38 13.01.2020
4705 Clouds 26 1025 74 10000 7.7 120 21:19 13.01.2020
4706 Clouds 26 1025 74 10000 8.2 120 20:59 13.01.2020
4707 Clouds 26 1025 74 10000 8.2 120 20:59 13.01.2020
4708 Clouds 26 1025 74 10000 8.2 120 20:41 13.01.2020
4709 Clouds 26 1025 74 10000 8.2 120 20:22 13.01.2020
4710 -273 0 0 0 0 0 20:22 13.01.2020
4711 Rain 26 1026 78 10000 6.7 120 19:59 13.01.2020
4712 Rain 26 1026 78 10000 6.7 120 19:39 13.01.2020
4713 Rain 25 1026 78 10000 6.7 120 19:20 13.01.2020
4714 Rain 25 1026 78 10000 6.7 120 19:20 13.01.2020
4715 Clouds 26 1027 74 10000 5.7 100 18:56 13.01.2020
4716 Clouds 25 1027 74 10000 5.7 100 18:37 13.01.2020
4717 Clouds 25 1027 74 10000 5.7 100 18:18 13.01.2020
4718 Clouds 25 1028 74 10000 6.2 110 17:43 13.01.2020
4719 Clouds 25 1028 74 10000 6.2 110 17:24 13.01.2020
4720 Clouds 25 1028 74 10000 6.2 110 17:24 13.01.2020
4721 Clouds 25 1028 73 10000 5.7 100 16:57 13.01.2020
4722 Clouds 25 1027 78 0 2.24 33 16:38 13.01.2020
4723 Clouds 25 1027 77 0 1.79 87 16:20 13.01.2020
4724 Clouds 24 1027 78 0 2.68 39 15:44 13.01.2020
4725 Clouds 25 1027 79 0 8.51 85 15:23 13.01.2020
4726 Clouds 24 1027 78 0 1.34 73 14:58 13.01.2020
4727 Clouds 24 1026 78 0 1.79 87 14:38 13.01.2020
4728 Clear 24 1026 78 0 1.79 83 14:19 13.01.2020
4729 Clear 23 1026 78 0 1.34 77 13:42 13.01.2020
4730 Clear 23 1026 78 0 1.79 68 13:24 13.01.2020
4731 Clear 25 1026 73 0 9.62 102 12:59 13.01.2020
4732 Clear 25 1026 73 0 9.62 102 12:40 13.01.2020
4733 Clouds 23 1025 83 10000 4.6 110 12:22 13.01.2020
4734 Clouds 23 1025 83 10000 4.6 110 11:57 13.01.2020
4735 Clouds 23 1025 83 10000 4.6 110 11:37 13.01.2020
4736 Clouds 23 1025 83 10000 4.6 110 11:18 13.01.2020
4737 Clouds 23 1025 83 10000 4.1 100 10:55 13.01.2020
4738 Clouds 23 1025 83 10000 4.1 100 10:36 13.01.2020
4739 Clouds 23 1025 83 10000 4.1 100 10:18 13.01.2020
4740 Clouds 23 1025 83 10000 4.1 100 10:18 13.01.2020
4741 Clouds 24 1025 83 10000 4.6 90 09:40 13.01.2020
4742 Clouds 24 1025 83 10000 4.6 90 09:22 13.01.2020
4743 Clouds 23 1025 88 10000 4.1 90 08:42 13.01.2020
4744 Clouds 23 1025 88 10000 4.1 90 08:21 13.01.2020
4745 Clouds 23 1026 88 10000 3.6 100 07:57 13.01.2020
4746 Clouds 23 1026 88 10000 3.6 100 07:38 13.01.2020
4747 Rain 25 1025 78 0 9.95 97 06:55 13.01.2020
4748 Rain 25 1025 78 0 9.95 97 06:36 13.01.2020
4749 Clouds 23 1026 88 10000 4.1 100 05:36 13.01.2020
4750 Clouds 23 1026 83 10000 4.6 100 04:25 13.01.2020
4751 Clouds 24 1026 83 10000 4.6 90 03:26 13.01.2020
4752 Clouds 24 1026 78 10000 3.6 90 02:47 13.01.2020
4753 Clouds 24 1026 78 10000 3.6 90 02:29 13.01.2020
4754 Clear 25 1025 69 10000 6.2 120 01:22 13.01.2020
4755 Clouds 25 1025 69 10000 6.2 120 01:22 13.01.2020
4756 Clear 24 1025 69 10000 6.2 120 00:41 13.01.2020
4757 Clear 24 1025 69 10000 6.2 120 00:23 13.01.2020
4758 Clouds 25 1024 69 10000 7.7 120 23:54 12.01.2020
4759 Clouds 25 1024 69 10000 7.7 120 23:36 12.01.2020
4760 Clouds 25 1024 69 10000 7.7 120 23:18 12.01.2020
4761 Clouds 26 1024 69 10000 7.2 130 22:42 12.01.2020
4762 Clouds 26 1024 69 10000 7.2 130 22:23 12.01.2020
4763 Clouds 26 1025 65 10000 7.7 120 21:57 12.01.2020
4764 Clouds 26 1025 65 10000 7.7 120 21:38 12.01.2020
4765 Clouds 26 1025 65 10000 7.7 120 21:19 12.01.2020
4766 Clouds 26 1025 65 10000 7.7 130 20:56 12.01.2020
4767 Clouds 26 1025 65 10000 7.7 130 20:38 12.01.2020
4768 Clouds 27 1025 65 10000 7.7 130 20:20 12.01.2020
4769 Clouds 27 1025 69 10000 7.7 120 19:56 12.01.2020
4770 Rain 26 1024 78 0 1.79 164 19:37 12.01.2020
4771 Clouds 27 1026 69 10000 8.7 120 19:18 12.01.2020
4772 Clouds 27 1026 69 10000 8.7 120 18:57 12.01.2020
4773 Clouds 27 1026 69 10000 8.7 120 18:39 12.01.2020
4774 Clouds 27 1026 69 10000 8.7 120 18:21 12.01.2020
4775 Clouds 27 1027 69 10000 7.7 120 17:42 12.01.2020
4776 Clouds 27 1027 69 10000 7.7 120 17:23 12.01.2020
4777 Clouds 26 1027 74 10000 9.3 110 16:59 12.01.2020
4778 Clouds 26 1027 74 10000 9.3 110 16:39 12.01.2020
4779 Clouds 26 1027 74 10000 9.3 110 16:20 12.01.2020
4780 Clouds 25 1027 78 10000 7.2 120 15:56 12.01.2020
4781 Clouds 25 1027 78 10000 7.2 120 15:38 12.01.2020
4782 Clouds 25 1027 78 10000 7.2 120 15:20 12.01.2020
4783 Clouds 25 1026 83 10000 6.7 110 14:42 12.01.2020
4784 Clouds 24 1026 83 10000 6.7 110 14:23 12.01.2020
4785 Clouds 24 1026 88 10000 5.7 120 13:57 12.01.2020
4786 Clouds 24 1026 88 10000 5.7 120 13:57 12.01.2020
4787 Clouds 24 1026 88 10000 5.7 120 13:39 12.01.2020
4788 Clouds 24 1026 88 10000 5.7 120 13:20 12.01.2020
4789 Clouds 24 1026 88 10000 5.7 120 13:20 12.01.2020
4790 Rain 25 1025 82 0 10.73 103 12:56 12.01.2020
4791 Rain 25 1025 82 0 10.73 103 12:37 12.01.2020
4792 Rain 25 1025 82 0 10.73 103 12:19 12.01.2020
4793 Rain 25 1025 82 0 10.73 103 11:42 12.01.2020
4794 Rain 25 1025 82 0 10.73 103 11:22 12.01.2020
4795 Rain 25 1023 83 0 9.57 113 10:56 12.01.2020
4796 Rain 25 1023 83 0 9.57 113 10:37 12.01.2020
4797 Rain 25 1023 83 0 9.57 113 10:19 12.01.2020
4798 Rain 25 1023 83 0 9.57 113 09:42 12.01.2020
4799 Clouds 24 1025 88 10000 5.1 140 09:23 12.01.2020
4800 Clouds 24 1025 88 10000 5.1 140 08:48 12.01.2020
4801 Clouds 24 1025 88 10000 5.1 140 08:24 12.01.2020
4802 Clouds 24 1024 88 10000 6.2 140 07:47 12.01.2020
4803 Clouds 24 1024 88 10000 6.2 140 07:26 12.01.2020
4804 Clouds 24 1024 88 10000 6.2 140 07:26 12.01.2020
4805 Clouds 24 1025 88 10000 6.7 130 06:59 12.01.2020
4806 Clouds 24 1025 88 10000 6.7 130 06:59 12.01.2020
4807 Clouds 24 1025 88 10000 6.7 130 06:59 12.01.2020
4808 Clouds 24 1025 88 10000 6.7 130 06:36 12.01.2020
4809 Clouds 25 1025 83 10000 7.2 140 05:52 12.01.2020
4810 Clouds 25 1025 83 10000 5.1 130 04:56 12.01.2020
4811 Rain 25 1025 83 10000 5.7 120 03:43 12.01.2020
4812 Clouds 25 1025 83 10000 6.2 140 02:46 12.01.2020
4813 Clouds 25 1025 83 10000 6.2 140 02:24 12.01.2020
4814 Clouds 25 1024 83 10000 5.1 140 01:34 12.01.2020
4815 Rain 25 1024 83 10000 6.2 130 00:46 12.01.2020
4816 Rain 25 1024 83 10000 6.2 130 00:22 12.01.2020
4817 Clouds 26 1023 78 10000 7.7 130 23:56 11.01.2020
4818 Clouds 26 1023 78 10000 7.7 130 23:38 11.01.2020
4819 Clouds 26 1023 78 10000 7.7 130 23:18 11.01.2020
4820 Clouds 27 1023 69 10000 9.8 140 22:56 11.01.2020
4821 Clouds 27 1023 69 10000 9.8 140 22:37 11.01.2020
4822 Clouds 27 1023 69 10000 9.8 140 22:19 11.01.2020
4823 Clouds 27 1023 74 10000 10.3 130 21:44 11.01.2020
4824 Clouds 27 1023 74 10000 10.3 130 21:19 11.01.2020
4825 Clouds 27 1023 74 10000 10.8 140 20:56 11.01.2020
4826 Clouds 27 1023 74 10000 10.8 140 20:37 11.01.2020
4827 Clouds 27 1023 74 10000 10.8 140 20:19 11.01.2020
4828 Clouds 27 1024 74 10000 9.8 130 19:55 11.01.2020
4829 Rain 25 1023 81 0 12.04 114 19:37 11.01.2020
4830 Clouds 27 1025 74 10000 10.8 130 19:19 11.01.2020
4831 Clouds 27 1025 74 10000 10.8 130 19:19 11.01.2020
4832 Clouds 27 1025 74 10000 10.8 130 18:55 11.01.2020
4833 Clouds 27 1025 74 10000 10.8 130 18:36 11.01.2020
4834 Clouds 27 1025 74 10000 10.8 130 18:18 11.01.2020
4835 Clouds 27 1025 74 10000 10.8 130 18:18 11.01.2020
4836 Clouds 27 1026 74 10000 8.7 130 17:55 11.01.2020
4837 Clouds 27 1026 74 10000 8.7 130 17:36 11.01.2020
4838 Clouds 27 1026 74 10000 8.7 130 17:18 11.01.2020
4839 Clouds 26 1026 74 10000 9.3 120 16:43 11.01.2020
4840 Clouds 26 1026 74 10000 9.3 120 16:22 11.01.2020
4841 Clouds 25 1026 78 10000 7.2 130 15:42 11.01.2020
4842 Clouds 25 1026 78 10000 7.2 130 15:24 11.01.2020
4843 Clouds 24 1025 83 10000 6.7 120 14:58 11.01.2020
4844 Clouds 24 1025 83 10000 6.7 120 14:40 11.01.2020
4845 Clouds 24 1025 83 10000 6.7 120 14:22 11.01.2020
4846 Rain 23 1025 88 10000 7.2 120 13:55 11.01.2020
4847 Rain 23 1025 88 10000 7.2 120 13:55 11.01.2020
4848 Clear 25 1024 80 0 12.73 104 13:36 11.01.2020
4849 Clouds 24 1024 83 10000 7.2 120 13:18 11.01.2020
4850 Clouds 24 1024 83 10000 7.2 120 12:42 11.01.2020
4851 Clouds 24 1024 83 10000 7.2 120 12:24 11.01.2020
4852 Clouds 24 1024 83 10000 7.2 120 11:49 11.01.2020
4853 Clouds 24 1024 83 10000 7.2 120 11:28 11.01.2020
4854 Clouds 24 1024 83 10000 7.2 120 10:59 11.01.2020
4855 Clouds 24 1024 83 10000 7.2 120 10:40 11.01.2020
4856 Clouds 24 1024 83 10000 7.2 120 10:40 11.01.2020
4857 Clouds 24 1024 83 10000 7.2 120 10:22 11.01.2020
4858 Rain 25 1023 81 0 12.9 104 09:39 11.01.2020
4859 Rain 25 1023 81 0 12.9 104 09:21 11.01.2020
4860 Rain 25 1023 81 0 12.9 104 08:42 11.01.2020
4861 Clouds 24 1025 83 10000 7.7 110 08:22 11.01.2020
4862 Clouds 24 1025 83 10000 7.7 110 07:44 11.01.2020
4863 Clouds 24 1025 83 10000 7.7 110 07:26 11.01.2020
4864 Clouds 24 1025 83 10000 7.7 110 06:52 11.01.2020
4865 Clouds 24 1025 83 10000 7.7 110 06:52 11.01.2020
4866 Clouds 23 1024 88 10000 7.2 110 05:50 11.01.2020
4867 Clouds 24 1026 83 10000 7.7 100 04:47 11.01.2020
4868 Clouds 24 1026 83 10000 7.7 100 04:29 11.01.2020
4869 Rain 23 1025 71 0 3.13 86 02:58 11.01.2020
4870 Rain 23 1025 70 0 3.13 72 02:38 11.01.2020
4871 Clouds 24 1025 83 10000 7.2 110 01:43 11.01.2020
4872 Clouds 24 1025 83 10000 7.2 110 01:20 11.01.2020
4873 Clouds 24 1025 83 10000 8.2 100 00:40 11.01.2020
4874 Clouds 24 1025 78 10000 7.2 100 23:59 10.01.2020
4875 Clouds 24 1025 78 10000 7.2 100 23:40 10.01.2020
4876 Clouds 24 1025 78 10000 7.2 100 23:21 10.01.2020
4877 Clouds 24 1024 73 10000 8.2 100 22:57 10.01.2020
4878 Rain 23 1024 75 0 3.58 116 22:39 10.01.2020
4879 Clouds 24 1024 73 10000 8.7 110 22:20 10.01.2020
4880 Clouds 24 1024 73 10000 8.7 110 21:56 10.01.2020
4881 Clouds 24 1024 73 10000 8.7 110 21:36 10.01.2020
4882 Clouds 24 1024 73 10000 8.7 110 21:18 10.01.2020
4883 Clouds 25 1024 69 10000 10.3 110 20:43 10.01.2020
4884 Clouds 25 1024 69 10000 10.3 110 20:24 10.01.2020
4885 Clouds 25 1024 69 10000 10.3 110 20:24 10.01.2020
4886 Clouds 25 1025 73 10000 9.3 110 19:55 10.01.2020
4887 Clouds 25 1025 73 10000 9.3 110 19:37 10.01.2020
4888 Clouds 25 1025 73 10000 9.3 110 19:19 10.01.2020
4889 Clouds 24 1026 73 10000 10.3 100 18:41 10.01.2020
4890 Clouds 25 1026 73 10000 10.3 100 18:19 10.01.2020
4891 Clouds 25 1026 73 10000 10.3 100 18:19 10.01.2020
4892 Clouds 24 1027 69 10000 8.7 100 17:57 10.01.2020
4893 Clouds 25 1027 69 10000 8.7 100 17:38 10.01.2020
4894 Clouds 25 1027 69 10000 8.7 100 17:20 10.01.2020
4895 Clouds 25 1027 69 10000 8.7 100 17:20 10.01.2020
4896 Clouds 25 1027 69 10000 8.7 100 17:20 10.01.2020
4897 Clouds 24 1028 69 10000 8.7 100 16:55 10.01.2020
4898 Clouds 24 1028 69 10000 8.7 100 16:37 10.01.2020
4899 Clouds 24 1028 69 10000 8.7 100 16:19 10.01.2020
4900 Clouds 24 1027 73 10000 8.2 100 15:55 10.01.2020
4901 Clouds 24 1027 73 10000 8.2 100 15:36 10.01.2020
4902 Clouds 24 1027 73 10000 8.2 100 15:36 10.01.2020
4903 Clouds 24 1027 73 10000 8.2 100 15:18 10.01.2020
4904 Clouds 24 1027 73 10000 8.2 100 15:18 10.01.2020
4905 Clouds 24 1027 69 10000 8.2 100 14:42 10.01.2020
4906 Clouds 23 1026 73 10000 4.6 100 14:20 10.01.2020
4907 Clouds 23 1026 73 10000 4.6 100 13:59 10.01.2020
4908 Clouds 23 1026 73 10000 4.6 100 13:41 10.01.2020
4909 Clouds 23 1026 73 10000 8.2 100 13:23 10.01.2020
4910 Clouds 23 1026 73 10000 8.2 100 12:58 10.01.2020
4911 Clouds 23 1026 73 10000 8.2 100 12:38 10.01.2020
4912 Clouds 23 1026 73 10000 8.2 100 12:19 10.01.2020
4913 Clouds 23 1026 73 10000 9.3 100 11:54 10.01.2020
4914 Clouds 24 1026 77 0 14 84 11:36 10.01.2020
4915 Clouds 23 1026 78 10000 7.2 90 11:18 10.01.2020
4916 Clouds 23 1026 78 10000 7.2 90 10:42 10.01.2020
4917 Clouds 23 1026 78 10000 7.2 90 10:24 10.01.2020
4918 Clouds 24 1025 79 0 13.66 82 09:56 10.01.2020
4919 Clouds 24 1025 79 0 13.66 82 09:37 10.01.2020
4920 Clouds 23 1027 73 10000 7.7 100 09:19 10.01.2020
4921 Clouds 23 1027 73 10000 7.7 100 08:41 10.01.2020
4922 Clouds 23 1027 73 10000 7.7 100 08:22 10.01.2020
4923 Clouds 23 1027 73 10000 8.2 90 07:44 10.01.2020
4924 Clouds 23 1027 73 10000 8.2 90 07:23 10.01.2020
4925 Clouds 23 1027 78 10000 7.2 100 06:45 10.01.2020
4926 Clouds 23 1027 78 10000 7.2 100 06:25 10.01.2020
4927 Clouds 23 1028 78 10000 7.2 90 05:46 10.01.2020
4928 Clouds 23 1028 73 10000 8.2 100 03:35 10.01.2020
4929 Clouds 23 1028 73 10000 9.3 90 02:59 10.01.2020
4930 Clouds 23 1028 73 10000 9.3 90 02:38 10.01.2020
4931 Clouds 23 1027 73 10000 8.2 100 01:38 10.01.2020
4932 Clouds 23 1027 69 10000 8.2 100 00:58 10.01.2020
4933 Clouds 23 1027 69 10000 8.2 100 00:38 10.01.2020
4934 Clouds 23 1027 73 10000 9.3 100 23:57 09.01.2020
4935 Clouds 23 1027 73 10000 9.3 100 23:38 09.01.2020
4936 Clouds 23 1027 73 10000 9.3 100 23:38 09.01.2020
4937 Clouds 23 1027 73 10000 9.3 100 23:38 09.01.2020
4938 Clouds 23 1027 73 10000 9.3 100 23:19 09.01.2020
4939 Clouds 23 1027 69 10000 8.7 90 22:57 09.01.2020
4940 Clouds 23 1027 69 10000 8.7 90 22:37 09.01.2020
4941 Clouds 23 1027 69 10000 8.7 90 22:18 09.01.2020
4942 Clouds 23 1027 64 10000 9.3 100 21:56 09.01.2020
4943 Clouds 23 1027 64 10000 9.3 100 21:37 09.01.2020
4944 Clouds 23 1027 64 10000 9.3 100 21:37 09.01.2020
4945 Clouds 23 1027 64 10000 9.3 100 21:37 09.01.2020
4946 Clouds 23 1027 64 10000 9.3 100 21:37 09.01.2020
4947 Clouds 23 1027 64 10000 9.3 100 21:18 09.01.2020
4948 Clouds 23 1027 60 10000 10.8 100 20:55 09.01.2020
4949 Clouds 24 1027 60 10000 10.8 100 20:37 09.01.2020
4950 Clouds 24 1027 60 10000 10.3 100 20:19 09.01.2020
4951 Clouds 24 1027 60 10000 10.3 100 19:39 09.01.2020
4952 Clouds 24 1028 60 10000 9.3 90 19:21 09.01.2020
4953 Clouds 24 1028 60 10000 9.3 90 18:59 09.01.2020
4954 Clouds 24 1028 60 10000 9.3 90 18:40 09.01.2020
4955 Clouds 24 1028 60 10000 9.3 90 18:21 09.01.2020
4956 Clouds 24 1028 57 10000 9.3 90 17:57 09.01.2020
4957 Clouds 24 1028 57 10000 9.3 90 17:39 09.01.2020
4958 Clouds 24 1029 60 10000 8.7 90 17:18 09.01.2020
4959 Clouds 24 1029 60 10000 8.7 90 16:42 09.01.2020
4960 Clouds 24 1029 60 10000 8.7 90 16:21 09.01.2020
4961 Clouds 24 1028 57 10000 8.7 100 15:43 09.01.2020
4962 Clouds 24 1028 57 10000 8.7 100 15:23 09.01.2020
4963 Clouds 23 1028 60 10000 7.2 100 14:59 09.01.2020
4964 Clouds 23 1028 60 10000 7.2 100 14:41 09.01.2020
4965 Clouds 23 1028 60 10000 7.2 100 14:19 09.01.2020
4966 Clouds 23 1027 60 10000 6.2 90 13:55 09.01.2020
4967 Clouds 23 1027 60 10000 6.2 90 13:37 09.01.2020
4968 Clouds 23 1027 60 10000 6.2 90 13:19 09.01.2020
4969 Clouds 23 1027 56 10000 6.7 90 12:56 09.01.2020
4970 Clouds 23 1027 56 10000 6.7 90 12:56 09.01.2020
4971 Clouds 23 1027 56 10000 6.7 90 12:38 09.01.2020
4972 Clouds 23 1027 56 10000 6.7 90 12:18 09.01.2020
4973 Rain 23 1027 73 0 12.87 75 11:42 09.01.2020
4974 Clouds 23 1026 64 10000 6.7 90 11:24 09.01.2020
4975 Clouds 23 1026 64 10000 6.7 90 11:24 09.01.2020
4976 Clouds 23 1026 64 10000 6.7 90 10:58 09.01.2020
4977 Clouds 23 1026 64 10000 6.7 90 10:39 09.01.2020
4978 Clouds 23 1026 64 10000 6.7 90 10:21 09.01.2020
4979 Clouds 23 1026 64 10000 7.2 80 09:45 09.01.2020
4980 Rain 23 1025 73 0 11.78 75 09:23 09.01.2020
4981 Rain 23 1025 73 0 11.78 75 09:23 09.01.2020
4982 Rain 23 1025 73 0 11.78 75 08:57 09.01.2020
4983 Rain 23 1025 73 0 11.78 75 08:38 09.01.2020
4984 Clouds 22 1026 64 10000 4.1 110 08:20 09.01.2020
4985 Clouds 22 1026 64 10000 4.1 110 07:46 09.01.2020
4986 Clouds 22 1027 64 10000 4.1 110 07:28 09.01.2020
4987 Clouds 22 1027 64 10000 4.1 110 06:40 09.01.2020
4988 Clouds 22 1027 64 10000 4.1 110 06:21 09.01.2020
4989 Clouds 22 1027 64 10000 3.6 110 05:51 09.01.2020
4990 Clouds 22 1027 60 10000 3.6 100 04:54 09.01.2020
4991 Clouds 22 1027 60 10000 3.6 100 04:36 09.01.2020
4992 Clouds 23 1027 53 10000 4.6 80 03:26 09.01.2020
4993 Clouds 23 1026 53 10000 4.6 80 02:46 09.01.2020
4994 Clouds 23 1026 53 10000 4.1 80 01:41 09.01.2020
4995 Clouds 23 1025 56 10000 4.1 80 00:56 09.01.2020
4996 Clouds 23 1025 56 10000 4.1 80 00:36 09.01.2020
4997 Clouds 23 1025 56 10000 4.1 80 00:18 09.01.2020
4998 Clouds 23 1025 50 10000 5.1 70 23:39 08.01.2020
4999 Clouds 23 1025 50 10000 5.1 70 23:20 08.01.2020
5000 Clouds 24 1024 47 10000 5.7 60 22:40 08.01.2020
5001 Clouds 24 1024 50 10000 6.2 70 22:21 08.01.2020
5002 Clouds 24 1024 50 10000 6.2 70 21:58 08.01.2020
5003 Clouds 24 1024 50 10000 6.2 70 21:40 08.01.2020
5004 Clouds 24 1024 50 10000 6.2 70 21:20 08.01.2020
5005 Clouds 24 1024 50 10000 6.2 60 20:58 08.01.2020
5006 Clouds 24 1024 50 10000 6.2 60 20:40 08.01.2020
5007 Clouds 24 1024 50 10000 6.2 60 20:20 08.01.2020
5008 Clouds 24 1024 50 10000 6.2 60 20:20 08.01.2020
5009 Clouds 24 1025 47 10000 6.2 60 19:57 08.01.2020
5010 Clouds 24 1025 47 10000 6.2 60 19:37 08.01.2020
5011 Clouds 24 1025 47 10000 6.2 60 19:19 08.01.2020
5012 Clouds 24 1025 47 10000 6.2 60 18:56 08.01.2020
5013 Clouds 24 1025 47 10000 6.2 60 18:37 08.01.2020
5014 Clouds 24 1025 47 10000 6.2 60 18:18 08.01.2020
5015 Clouds 24 1026 50 10000 5.7 50 17:56 08.01.2020
5016 Clouds 24 1026 50 10000 5.7 50 17:37 08.01.2020
5017 Clouds 24 1026 50 10000 5.7 50 17:18 08.01.2020
5018 Clouds 24 1026 50 10000 5.7 50 17:18 08.01.2020
5019 Clouds 23 1026 49 10000 6.2 40 16:54 08.01.2020
5020 Clouds 23 1026 49 10000 6.2 40 16:36 08.01.2020
5021 Clear 23 1025 66 0 4.47 50 16:18 08.01.2020
5022 Clear 22 1025 65 0 5.36 43 15:40 08.01.2020
5023 Clouds 22 1025 56 10000 6.7 10 15:20 08.01.2020
5024 Clouds 22 1025 56 10000 6.7 10 14:56 08.01.2020
5025 Clouds 22 1025 56 10000 6.7 10 14:38 08.01.2020
5026 Clouds 22 1025 56 10000 6.7 10 14:19 08.01.2020
5027 Clouds 22 1024 60 10000 5.1 30 13:40 08.01.2020
5028 Clouds 22 1024 60 10000 5.1 30 13:19 08.01.2020
5029 Clouds 22 1024 64 10000 4.6 20 12:42 08.01.2020
5030 Clouds 22 1024 64 10000 4.6 20 12:19 08.01.2020
5031 Clouds 22 1023 64 10000 4.1 40 11:55 08.01.2020
5032 Clouds 22 1023 64 10000 4.1 40 11:55 08.01.2020
5033 Clouds 22 1023 64 10000 4.1 40 11:37 08.01.2020
5034 Clouds 22 1023 64 10000 4.1 40 11:19 08.01.2020
5035 Clouds 22 1023 64 10000 3.6 40 10:55 08.01.2020
5036 Clouds 22 1023 64 10000 3.6 40 10:37 08.01.2020
5037 Clouds 22 1023 64 10000 3.6 40 10:18 08.01.2020
5038 Clouds 22 1023 64 10000 4.6 30 09:41 08.01.2020
5039 Clouds 22 1023 64 10000 4.6 30 09:19 08.01.2020
5040 Clouds 22 1023 64 10000 3.6 30 08:56 08.01.2020
5041 Clouds 22 1023 64 10000 3.6 30 08:37 08.01.2020
5042 Clouds 22 1023 64 10000 3.6 30 08:18 08.01.2020
5043 Clouds 22 1023 64 10000 3.6 30 07:47 08.01.2020
5044 Clouds 22 1023 64 10000 3.6 30 07:29 08.01.2020
5045 Clouds 22 1023 68 10000 3.1 20 06:44 08.01.2020
5046 Clouds 22 1023 64 10000 2.6 20 05:59 08.01.2020
5047 Clouds 22 1023 64 10000 2.6 20 05:38 08.01.2020
5048 Clouds 22 1023 60 10000 2.1 30 04:54 08.01.2020
5049 Clouds 22 1022 60 10000 1.5 40 03:33 08.01.2020
5050 Clouds 22 1022 60 10000 2.1 10 02:44 08.01.2020
5051 Clouds 22 1022 60 10000 2.1 10 02:19 08.01.2020
5052 Clouds 22 1022 60 10000 2.6 360 01:40 08.01.2020
5053 Clouds 23 1021 56 10000 2.1 20 00:54 08.01.2020
5054 Clouds 23 1021 56 10000 2.1 20 00:26 08.01.2020
5055 Clouds 23 1021 56 10000 2.6 30 23:47 07.01.2020
5056 Clouds 23 1021 56 10000 2.6 30 23:22 07.01.2020
5057 Clouds 23 1021 53 10000 3.1 20 22:58 07.01.2020
5058 Clouds 24 1021 53 10000 3.1 20 22:39 07.01.2020
5059 Clouds 24 1021 53 10000 3.1 20 22:19 07.01.2020
5060 Clouds 24 1020 53 10000 4.1 11 21:54 07.01.2020
5061 Clouds 24 1020 53 10000 4.1 11 21:36 07.01.2020
5062 Clouds 24 1020 53 10000 4.1 11 21:36 07.01.2020
5063 Clouds 24 1020 53 10000 4.1 11 21:18 07.01.2020
5064 Clouds 24 1020 53 10000 3.6 30 20:42 07.01.2020
5065 Clouds 24 1020 53 10000 3.6 30 20:23 07.01.2020
5066 Clouds 24 1021 53 10000 3.6 60 19:59 07.01.2020
5067 Clouds 24 1021 53 10000 3.6 60 19:38 07.01.2020
5068 Clouds 24 1021 53 10000 3.6 110 19:19 07.01.2020
5069 Clouds 24 1021 53 10000 3.6 110 18:57 07.01.2020
5070 Clouds 24 1021 53 10000 3.6 110 18:38 07.01.2020
5071 Clouds 24 1023 53 10000 2.6 70 18:18 07.01.2020
5072 Clouds 24 1023 53 10000 2.6 70 17:57 07.01.2020
5073 Clouds 24 1023 53 10000 2.6 70 17:37 07.01.2020
5074 Clouds 24 1023 53 10000 2.6 70 17:19 07.01.2020
5075 Clouds 23 1023 56 10000 2.6 100 16:55 07.01.2020
5076 Clouds 23 1023 56 10000 2.6 100 16:37 07.01.2020
5077 Clouds 22 1022 64 10000 1.5 100 16:18 07.01.2020
5078 Clouds 22 1022 64 10000 1.5 100 15:43 07.01.2020
5079 Clouds 20 1022 82 10000 0.5 0 15:24 07.01.2020
5080 Clouds 20 1022 82 10000 0.5 0 14:58 07.01.2020
5081 Clouds 20 1022 82 10000 0.5 0 14:40 07.01.2020
5082 Clouds 20 1022 82 10000 0.5 0 14:21 07.01.2020
5083 Clouds 20 1021 77 10000 1 0 13:46 07.01.2020
5084 Clouds 18 1021 77 10000 1 0 13:21 07.01.2020
5085 Clouds 21 1020 64 10000 2.1 100 12:56 07.01.2020
5086 Clouds 21 1020 64 10000 2.1 100 12:38 07.01.2020
5087 Clouds 19 1020 77 10000 1 0 12:19 07.01.2020
5088 Clouds 19 1020 77 10000 1 0 11:42 07.01.2020
5089 Clouds 22 1020 60 0 3.72 90 11:23 07.01.2020
5090 Clouds 22 1020 62 0 5.84 86 10:57 07.01.2020
5091 Clouds 22 1020 62 0 5.84 86 10:39 07.01.2020
5092 Clouds 22 1020 62 0 5.84 86 10:39 07.01.2020
5093 Clouds 22 1020 62 0 5.84 86 10:21 07.01.2020
5094 Clouds 22 1020 62 0 5.84 86 09:39 07.01.2020
5095 Clouds 22 1020 62 0 5.84 86 09:21 07.01.2020
5096 Clouds 22 1020 62 0 5.84 86 09:21 07.01.2020
5097 Clouds 22 1020 62 0 5.84 86 08:57 07.01.2020
5098 Clouds 22 1020 62 0 5.84 86 08:38 07.01.2020
5099 Clouds 22 1021 61 0 5.48 81 08:18 07.01.2020
5100 Clouds 22 1021 61 0 5.48 81 07:42 07.01.2020
5101 Clouds 20 1021 60 10000 2.6 90 07:18 07.01.2020
5102 Clouds 20 1021 60 10000 2.6 90 06:36 07.01.2020
5103 Clouds 21 1022 60 10000 3.1 120 05:59 07.01.2020
5104 Clouds 21 1022 60 10000 3.1 120 05:40 07.01.2020
5105 Clouds 21 1022 56 10000 2.1 80 03:46 07.01.2020
5106 Clouds 21 1022 56 10000 2.1 80 03:24 07.01.2020
5107 Clouds 22 1022 56 10000 3.6 90 02:18 07.01.2020
5108 Clouds 22 1021 60 10000 3.6 90 01:36 07.01.2020
5109 Clouds 22 1021 53 10000 2.6 90 00:55 07.01.2020
5110 Clouds 22 1021 53 10000 2.6 90 00:20 07.01.2020
5111 Clouds 22 1021 49 10000 4.1 70 23:56 06.01.2020
5112 Clouds 22 1021 49 10000 4.1 70 23:37 06.01.2020
5113 Clouds 22 1021 49 10000 4.1 70 23:19 06.01.2020
5114 Clouds 22 1021 53 10000 4.1 60 22:43 06.01.2020
5115 Clouds 22 1021 53 10000 4.1 60 22:24 06.01.2020
5116 Clouds 22 1021 53 10000 4.1 60 22:24 06.01.2020
5117 Clouds 22 1020 53 10000 4.1 50 21:58 06.01.2020
5118 Clouds 22 1020 53 10000 4.1 50 21:39 06.01.2020
5119 Clouds 22 1020 53 10000 4.1 50 21:20 06.01.2020
5120 Clouds 22 1020 53 10000 4.1 50 21:20 06.01.2020
5121 Clouds 22 1020 53 10000 4.1 50 21:20 06.01.2020
5122 Clouds 22 1021 49 10000 4.1 40 20:57 06.01.2020
5123 Clouds 22 1021 49 10000 4.1 40 20:38 06.01.2020
5124 Clouds 22 1021 49 10000 4.1 40 20:38 06.01.2020
5125 Clouds 22 1021 49 10000 4.1 40 20:20 06.01.2020
5126 Clouds 23 1021 49 10000 4.6 50 19:56 06.01.2020
5127 Clouds 22 1021 49 10000 4.6 50 19:38 06.01.2020
5128 Clouds 23 1021 49 10000 4.6 50 19:20 06.01.2020
5129 Clouds 22 1022 53 10000 4.6 40 18:48 06.01.2020
5130 Clouds 22 1022 53 10000 4.6 40 18:22 06.01.2020
5131 Clouds 22 1023 46 10000 5.1 60 17:58 06.01.2020
5132 Clouds 22 1023 46 10000 5.1 60 17:38 06.01.2020
5133 Clouds 22 1023 46 10000 5.1 60 17:18 06.01.2020
5134 Clouds 22 1023 49 10000 4.6 100 16:44 06.01.2020
5135 Clouds 22 1023 49 10000 4.6 100 16:25 06.01.2020
5136 Clouds 22 1023 53 10000 3.1 90 15:59 06.01.2020
5137 Clouds 22 1023 53 10000 3.1 90 15:39 06.01.2020
5138 Clouds 21 1022 56 10000 3.6 90 15:18 06.01.2020
5139 Clouds 21 1022 56 10000 3.6 90 14:56 06.01.2020
5140 Clouds 21 1022 56 10000 3.6 90 14:37 06.01.2020
5141 Clouds 20 1022 60 10000 2.6 60 14:18 06.01.2020
5142 Clouds 20 1022 60 10000 2.6 60 14:18 06.01.2020
5143 Clouds 20 1022 60 10000 2.6 60 13:41 06.01.2020
5144 Clouds 20 1022 60 10000 2.6 60 13:22 06.01.2020
5145 Clouds 20 1021 64 10000 3.6 50 12:59 06.01.2020
5146 Clouds 20 1021 64 10000 3.6 50 12:41 06.01.2020
5147 Clouds 20 1021 64 10000 3.6 50 12:20 06.01.2020
5148 Clouds 20 1021 64 10000 3.6 50 12:20 06.01.2020
5149 Clouds 20 1021 64 10000 3.6 50 12:20 06.01.2020
5150 Clouds 20 1021 64 10000 5.1 40 11:55 06.01.2020
5151 Clouds 20 1021 64 10000 5.1 40 11:37 06.01.2020
5152 Clouds 20 1021 64 10000 5.1 40 11:19 06.01.2020
5153 Clouds 20 1021 60 10000 4.6 50 10:42 06.01.2020
5154 Rain 21 1021 68 0 7.2 30 10:21 06.01.2020
5155 Rain 21 1021 68 0 7.2 30 09:42 06.01.2020
5156 Rain 21 1021 68 0 7.2 30 09:24 06.01.2020
5157 Rain 21 1021 68 0 7.2 30 08:58 06.01.2020
5158 Rain 21 1021 68 0 7.2 30 08:38 06.01.2020
5159 Clouds 20 1022 64 10000 6.7 40 08:19 06.01.2020
5160 Clouds 20 1022 64 10000 6.7 40 07:44 06.01.2020
5161 Clouds 20 1022 64 10000 6.2 50 06:53 06.01.2020
5162 Clouds 20 1022 64 10000 6.2 50 06:35 06.01.2020
5163 Clouds 20 1023 60 10000 7.2 60 05:48 06.01.2020
5164 Clouds 20 1023 60 10000 7.2 60 05:23 06.01.2020
5165 Clouds 20 1023 56 10000 6.7 30 04:23 06.01.2020
5166 Clouds 20 1022 67 0 4.47 23 03:30 06.01.2020
5167 Clouds 21 1021 67 0 5.81 12 02:27 06.01.2020
5168 Clouds 21 1021 68 0 5.81 28 01:53 06.01.2020
5169 Clouds 20 1022 56 10000 5.7 30 01:30 06.01.2020
5170 Clouds 20 1022 56 10000 5.7 30 00:46 06.01.2020
5171 Clouds 20 1021 60 10000 6.2 30 00:27 06.01.2020
5172 Clouds 20 1021 60 10000 6.2 30 23:57 05.01.2020
5173 Clouds 20 1021 60 10000 6.2 30 23:38 05.01.2020
5174 Clouds 21 1021 56 10000 7.2 20 23:19 05.01.2020
5175 Clouds 21 1021 56 10000 7.2 20 22:40 05.01.2020
5176 Clouds 21 1021 53 10000 7.2 20 22:20 05.01.2020
5177 Clouds 21 1021 53 10000 7.2 20 22:20 05.01.2020
5178 Clouds 22 1021 53 10000 7.2 20 21:56 05.01.2020
5179 Clouds 22 1021 53 10000 7.2 20 21:38 05.01.2020
5180 Clouds 22 1021 53 10000 7.2 20 21:20 05.01.2020
5181 Clouds 22 1021 49 10000 9.3 10 20:56 05.01.2020
5182 Clouds 22 1021 49 10000 9.3 10 20:38 05.01.2020
5183 Clouds 22 1021 49 10000 9.3 10 20:19 05.01.2020
5184 Clouds 22 1021 53 10000 9.8 10 19:57 05.01.2020
5185 Clouds 22 1021 53 10000 9.8 10 19:38 05.01.2020
5186 Clouds 22 1021 53 10000 9.8 10 19:19 05.01.2020
5187 Clouds 22 1022 49 10000 9.8 10 18:55 05.01.2020
5188 Clouds 22 1022 49 10000 9.8 10 18:36 05.01.2020
5189 Clouds 22 1022 49 10000 9.8 10 18:18 05.01.2020
5190 Clouds 22 1023 53 10000 8.7 10 17:57 05.01.2020
5191 Clouds 22 1023 53 10000 8.7 10 17:37 05.01.2020
5192 Clouds 22 1023 53 10000 8.7 10 17:19 05.01.2020
5193 Clouds 22 1023 56 10000 7.7 360 16:55 05.01.2020
5194 Clouds 22 1023 56 10000 7.7 360 16:36 05.01.2020
5195 Clouds 22 1022 60 10000 8.2 360 16:18 05.01.2020
5196 Clouds 22 1022 60 10000 8.2 360 15:36 05.01.2020
5197 Clouds 22 1022 60 10000 8.2 360 15:36 05.01.2020
5198 Clouds 22 1022 60 10000 8.2 360 15:18 05.01.2020
5199 Clouds 22 1022 64 10000 7.7 360 14:54 05.01.2020
5200 Clouds 22 1022 64 10000 7.7 360 14:36 05.01.2020
5201 Clouds 22 1022 64 10000 7.7 360 14:18 05.01.2020
5202 Clouds 22 1021 64 10000 8.2 340 13:39 05.01.2020
5203 Clouds 22 1021 64 10000 8.2 340 13:21 05.01.2020
5204 Clouds 23 1021 64 10000 8.2 340 12:57 05.01.2020
5205 Clouds 23 1021 64 10000 8.2 340 12:39 05.01.2020
5206 Clouds 23 1021 64 10000 8.2 340 12:39 05.01.2020
5207 Clouds 23 1021 64 10000 8.2 340 12:39 05.01.2020
5208 Clouds 23 1021 64 10000 8.2 340 12:21 05.01.2020
5209 Clouds 23 1021 64 10000 8.2 340 12:21 05.01.2020
5210 Clouds 23 1020 69 10000 9.8 340 11:55 05.01.2020
5211 Clouds 23 1020 69 10000 9.8 340 11:37 05.01.2020
5212 Clouds 23 1020 69 10000 9.8 340 11:19 05.01.2020
5213 Rain 23 1019 80 0 12.8 329 10:42 05.01.2020
5214 Rain 23 1019 80 0 12.8 329 10:20 05.01.2020
5215 Rain 23 1019 80 0 12.8 329 09:59 05.01.2020
5216 Rain 23 1019 80 0 12.8 329 09:41 05.01.2020
5217 Rain 23 1019 80 0 12.8 329 09:41 05.01.2020
5218 Rain 23 1019 80 0 12.8 329 09:41 05.01.2020
5219 Clouds 25 1020 83 10000 5.7 290 09:21 05.01.2020
5220 Clouds 25 1020 83 10000 5.7 290 08:45 05.01.2020
5221 Clouds 25 1020 83 10000 5.7 290 08:26 05.01.2020
5222 Clouds 24 1020 88 10000 3.6 260 07:55 05.01.2020
5223 Clouds 24 1020 88 10000 3.6 260 07:32 05.01.2020
5224 Clouds 24 1020 94 10000 3.1 240 06:57 05.01.2020
5225 Clouds 24 1020 94 10000 3.1 230 05:53 05.01.2020
5226 Clouds 24 1020 88 10000 2.6 240 04:57 05.01.2020
5227 Clouds 24 1020 88 10000 2.6 240 04:19 05.01.2020
5228 Clouds 24 1019 88 10000 2.6 230 03:45 05.01.2020
5229 Clouds 24 1019 57 0 0.45 222 02:41 05.01.2020
5230 Clouds 25 1019 83 10000 2.1 260 02:19 05.01.2020
5231 Clouds 25 1019 83 10000 2.1 260 01:36 05.01.2020
5232 Clouds 25 1019 83 10000 2.1 260 01:18 05.01.2020
5233 Clouds 25 1019 83 10000 2.1 230 00:39 05.01.2020
5234 Clouds 25 1019 83 10000 2.1 230 00:20 05.01.2020
5235 Clouds 26 1018 74 10000 4.1 210 23:57 04.01.2020
5236 Clouds 26 1018 74 10000 4.1 210 23:38 04.01.2020
5237 Clouds 26 1018 74 10000 4.1 210 23:18 04.01.2020
5238 Clouds 27 1018 74 10000 5.7 190 22:39 04.01.2020
5239 Clouds 28 1018 74 10000 5.7 190 22:20 04.01.2020
5240 Clouds 28 1018 74 10000 5.1 200 21:56 04.01.2020
5241 Clouds 28 1018 74 10000 5.1 200 21:37 04.01.2020
5242 Clouds 28 1018 74 10000 5.1 200 21:19 04.01.2020
5243 Clouds 28 1018 69 10000 5.1 210 20:55 04.01.2020
5244 Clouds 28 1018 69 10000 5.1 210 20:36 04.01.2020
5245 Clouds 28 1018 69 10000 5.1 210 20:18 04.01.2020
5246 Clouds 27 1019 78 10000 6.2 210 19:41 04.01.2020
5247 Clouds 28 1020 69 10000 5.7 220 19:23 04.01.2020
5248 Clouds 28 1020 69 10000 5.7 220 18:58 04.01.2020
5249 Clouds 28 1020 69 10000 5.7 220 18:38 04.01.2020
5250 Clouds 28 1021 74 10000 6.2 200 18:20 04.01.2020
5251 Clouds 28 1021 74 10000 6.2 200 17:55 04.01.2020
5252 Clouds 28 1021 74 10000 6.2 200 17:37 04.01.2020
5253 Clouds 28 1021 74 10000 6.2 200 17:18 04.01.2020
5254 Clouds 27 1021 78 10000 5.1 190 16:41 04.01.2020
5255 Clouds 26 1021 78 10000 5.1 190 16:23 04.01.2020
5256 Clouds 26 1021 83 10000 5.1 180 15:57 04.01.2020
5257 Clouds 26 1021 83 10000 5.1 180 15:38 04.01.2020
5258 Clouds 25 1020 94 10000 3.6 170 15:19 04.01.2020
5259 Clouds 25 1020 94 10000 3.6 170 14:55 04.01.2020
5260 Clouds 25 1020 94 10000 3.6 170 14:55 04.01.2020
5261 Clouds 25 1020 94 10000 3.6 170 14:36 04.01.2020
5262 Clouds 23 1020 100 10000 3.1 160 14:18 04.01.2020
5263 Clouds 23 1020 100 10000 3.1 160 13:39 04.01.2020
5264 Clouds 22 1020 94 10000 3.1 150 13:20 04.01.2020
5265 Clouds 22 1020 94 10000 3.1 150 12:59 04.01.2020
5266 Clouds 22 1020 94 10000 3.1 150 12:41 04.01.2020
5267 Clouds 22 1020 94 10000 3.1 150 12:19 04.01.2020
5268 Clouds 22 1020 100 10000 2.1 140 11:57 04.01.2020
5269 Clouds 22 1020 100 10000 2.1 140 11:38 04.01.2020
5270 Clouds 22 1020 100 10000 2.1 140 11:19 04.01.2020
5271 Clouds 22 1020 94 10000 1.5 150 10:41 04.01.2020
5272 Clouds 22 1020 94 10000 1.5 150 10:22 04.01.2020
5273 Clouds 23 1020 94 10000 1.5 200 09:50 04.01.2020
5274 Clouds 23 1020 94 10000 1.5 200 09:26 04.01.2020
5275 Clouds 23 1020 94 10000 2.6 170 08:58 04.01.2020
5276 Clouds 23 1020 94 10000 2.6 170 08:39 04.01.2020
5277 Clouds 23 1020 94 10000 2.6 170 08:20 04.01.2020
5278 Clouds 23 1021 94 10000 2.6 170 07:42 04.01.2020
5279 Clouds 23 1021 94 10000 2.6 170 06:52 04.01.2020
5280 Clouds 23 1021 94 10000 2.6 170 06:33 04.01.2020
5281 Clouds 23 1022 94 10000 2.1 150 05:18 04.01.2020
5282 Clouds 23 1022 94 10000 1.5 150 04:33 04.01.2020
5283 Clouds 23 1021 88 10000 2.6 130 03:43 04.01.2020
5284 Clouds 23 1021 88 10000 2.6 130 03:18 04.01.2020
5285 Clouds 23 1021 94 10000 2.6 150 02:21 04.01.2020
5286 Clouds 24 1020 88 10000 3.1 150 01:53 04.01.2020
5287 Clouds 24 1020 88 10000 4.1 150 01:30 04.01.2020
5288 Clouds 24 1020 88 10000 4.1 150 00:41 04.01.2020
5289 Clouds 23 1019 67 0 5.76 132 00:22 04.01.2020
5290 Clouds 24 1019 73 0 5.76 132 23:42 03.01.2020
5291 Clouds 25 1019 74 10000 5.1 170 23:23 03.01.2020
5292 Clouds 26 1019 74 10000 5.1 170 22:41 03.01.2020
5293 Clouds 26 1019 74 10000 5.1 170 22:20 03.01.2020
5294 Clouds 26 1019 74 10000 5.1 170 21:58 03.01.2020
5295 Clouds 27 1019 74 10000 5.1 170 21:38 03.01.2020
5296 Clouds 27 1019 74 10000 6.7 170 21:19 03.01.2020
5297 Clouds 27 1019 74 10000 6.7 170 20:58 03.01.2020
5298 Clouds 27 1019 74 10000 6.7 170 20:40 03.01.2020
5299 Clouds 27 1019 74 10000 6.7 170 20:18 03.01.2020
5300 Clouds 27 1019 74 10000 7.2 170 19:55 03.01.2020
5301 Clouds 27 1019 74 10000 7.2 170 19:55 03.01.2020
5302 Clouds 27 1019 74 10000 7.2 170 19:37 03.01.2020
5303 Clouds 27 1019 74 10000 7.2 170 19:18 03.01.2020
5304 Clouds 27 1020 74 10000 7.7 170 18:43 03.01.2020
5305 Clouds 27 1021 74 10000 7.7 160 18:24 03.01.2020
5306 Clouds 27 1021 74 10000 7.7 160 17:55 03.01.2020
5307 Clouds 27 1021 74 10000 7.7 160 17:36 03.01.2020
5308 Clouds 27 1021 74 10000 7.7 160 17:18 03.01.2020
5309 Clouds 26 1021 78 10000 7.2 160 16:42 03.01.2020
5310 Clouds 26 1021 78 10000 7.2 160 16:22 03.01.2020
5311 Clouds 26 1021 78 10000 7.2 160 16:22 03.01.2020
5312 Clouds 26 1021 78 10000 6.2 150 15:43 03.01.2020
5313 Clouds 24 1021 94 10000 2.6 120 15:19 03.01.2020
5314 Clouds 24 1021 94 10000 2.6 120 14:57 03.01.2020
5315 Clouds 24 1021 94 10000 2.6 120 14:38 03.01.2020
5316 Clouds 23 1020 94 10000 2.6 140 14:19 03.01.2020
5317 Clouds 23 1020 94 10000 2.6 140 13:43 03.01.2020
5318 Clouds 23 1020 94 10000 2.6 140 13:23 03.01.2020
5319 Clouds 23 1020 88 10000 2.1 130 12:57 03.01.2020
5320 Clouds 23 1020 88 10000 2.1 130 12:38 03.01.2020
5321 Clouds 23 1020 88 10000 2.1 130 12:20 03.01.2020
5322 Clouds 22 1020 94 10000 2.1 150 11:44 03.01.2020
5323 Clouds 22 1020 94 10000 2.1 150 11:19 03.01.2020
5324 Clouds 22 1019 94 10000 3.1 150 10:44 03.01.2020
5325 Clouds 22 1019 94 10000 3.1 150 10:25 03.01.2020
5326 Clouds 23 1019 88 10000 4.1 140 09:57 03.01.2020
5327 Clouds 23 1019 88 10000 4.1 140 09:38 03.01.2020
5328 Clouds 23 1019 88 10000 4.1 140 09:20 03.01.2020
5329 Clouds 23 1019 88 10000 4.1 140 08:54 03.01.2020
5330 Clouds 23 1019 88 10000 4.1 140 08:36 03.01.2020
5331 Clouds 23 1019 88 10000 4.1 140 08:18 03.01.2020
5332 Clouds 23 1019 88 10000 3.6 130 07:39 03.01.2020
5333 Clouds 23 1019 88 10000 3.6 130 07:18 03.01.2020
5334 Clouds 23 1019 88 10000 3.6 130 07:18 03.01.2020
5335 Clouds 23 1020 88 10000 3.1 130 06:42 03.01.2020
5336 Clouds 23 1020 88 10000 3.1 130 06:23 03.01.2020
5337 Clouds 23 1020 88 10000 3.1 120 05:20 03.01.2020
5338 Clouds 23 1020 88 10000 4.1 120 03:45 03.01.2020
5339 Clouds 23 1020 88 10000 3.6 110 02:55 03.01.2020
5340 Clouds 23 1019 68 0 0.45 124 01:54 03.01.2020
5341 Clouds 23 1019 69 0 0.89 155 01:36 03.01.2020
5342 Clouds 23 1019 69 0 0.89 155 01:36 03.01.2020
5343 Clouds 24 1019 78 10000 4.1 110 00:46 03.01.2020
5344 Clouds 24 1019 73 10000 4.1 90 00:26 03.01.2020
5345 Clouds 24 1019 73 10000 4.1 90 23:39 02.01.2020
5346 Clouds 24 1019 73 10000 4.1 90 23:21 02.01.2020
5347 Clouds 25 1018 65 10000 4.6 130 22:59 02.01.2020
5348 Clouds 25 1018 65 10000 4.6 130 22:41 02.01.2020
5349 Clouds 25 1018 65 10000 4.6 130 22:20 02.01.2020
5350 Clouds 25 1018 61 10000 4.1 150 21:57 02.01.2020
5351 Clouds 25 1018 61 10000 4.1 150 21:38 02.01.2020
5352 Clouds 25 1018 61 10000 4.1 150 21:19 02.01.2020
5353 Clouds 26 1018 51 10000 3.1 130 20:56 02.01.2020
5354 Clouds 26 1018 51 10000 3.1 130 20:37 02.01.2020
5355 Clouds 27 1019 51 10000 4.75 119 20:19 02.01.2020
5356 Clouds 25 1017 77 0 1.34 77 19:54 02.01.2020
5357 Clouds 25 1017 76 0 0.89 67 19:36 02.01.2020
5358 Clouds 26 1019 61 10000 3.1 140 19:18 02.01.2020
5359 Clouds 26 1019 61 10000 3.1 140 18:43 02.01.2020
5360 Clouds 25 1018 77 0 1.34 61 18:24 02.01.2020
5361 Clouds 26 1020 65 10000 4.6 140 17:58 02.01.2020
5362 Clouds 25 1020 65 10000 4.6 140 17:39 02.01.2020
5363 Clouds 25 1020 65 10000 4.6 140 17:20 02.01.2020
5364 Clouds 24 1020 73 10000 4.6 130 16:58 02.01.2020
5365 Clouds 25 1020 73 10000 4.6 130 16:40 02.01.2020
5366 Clouds 24 1020 73 10000 4.1 130 16:20 02.01.2020
5367 Clouds 24 1020 73 10000 4.1 130 16:20 02.01.2020
5368 Clouds 24 1020 73 10000 4.1 130 15:57 02.01.2020
5369 Clouds 24 1020 73 10000 4.1 130 15:39 02.01.2020
5370 Clouds 23 1019 83 10000 2.6 120 15:20 02.01.2020
5371 Clouds 23 1019 83 10000 2.6 120 14:56 02.01.2020
5372 Clear 23 1019 78 0 0.45 119 14:36 02.01.2020
5373 Clouds 22 1019 88 10000 2.1 110 14:18 02.01.2020
5374 Clouds 22 1019 88 10000 2.1 110 13:47 02.01.2020
5375 Clouds 22 1019 88 10000 2.1 110 13:29 02.01.2020
5376 Clouds 20 1019 88 10000 2.1 90 12:45 02.01.2020
5377 Clouds 21 1018 83 10000 2.1 100 12:25 02.01.2020
5378 Clouds 21 1018 83 10000 2.1 100 12:25 02.01.2020
5379 Clouds 21 1018 83 10000 2.1 100 11:57 02.01.2020
5380 Clouds 21 1018 83 10000 2.1 100 11:37 02.01.2020
5381 Clouds 21 1018 83 10000 2.1 100 11:19 02.01.2020
5382 Clouds 24 1017 68 0 5.46 82 10:43 02.01.2020
5383 Clouds 24 1017 68 0 5.46 82 10:25 02.01.2020
5384 Clouds 24 1017 68 0 5.46 82 09:46 02.01.2020
5385 Clouds 24 1017 68 0 5.46 82 09:28 02.01.2020
5386 Clouds 24 1017 68 0 5.46 82 08:45 02.01.2020
5387 Clouds 23 1017 71 0 5.64 80 08:27 02.01.2020
5388 Clouds 24 1017 68 0 4.91 61 07:51 02.01.2020
5389 Clouds 18 1018 93 10000 1 0 07:30 02.01.2020
5390 Clouds 18 1018 93 10000 1 0 06:45 02.01.2020
5391 Clouds 18 1018 93 10000 1 0 06:26 02.01.2020
5392 Clear 23 1019 69 10000 1.5 70 04:53 02.01.2020
5393 Clear 23 1019 69 10000 1.5 70 04:30 02.01.2020
5394 Clear 23 1018 69 10000 2.6 30 02:32 02.01.2020
5395 Clear 23 1018 73 10000 2.1 20 01:58 02.01.2020
5396 Clear 23 1018 73 10000 2.1 20 01:33 02.01.2020
5397 Clear 23 1018 73 10000 2.1 20 01:33 02.01.2020
5398 Clouds 23 1017 73 10000 2.1 20 00:57 02.01.2020
5399 Clouds 23 1017 73 10000 2.1 20 00:33 02.01.2020
5400 Clouds 23 1017 73 10000 2.6 30 23:49 01.01.2020
5401 Clouds 23 1017 73 10000 2.6 30 23:27 01.01.2020
5402 Clouds 24 1017 73 10000 2.6 50 22:56 01.01.2020
5403 Clouds 24 1017 73 10000 2.6 50 22:37 01.01.2020
5404 Clouds 24 1017 73 10000 2.6 50 22:19 01.01.2020
5405 Clouds 24 1017 69 10000 4.6 10 21:42 01.01.2020
5406 Clouds 24 1017 69 10000 4.6 10 21:21 01.01.2020
5407 Clouds 24 1017 69 10000 4.1 20 20:59 01.01.2020
5408 Clouds 25 1017 69 10000 4.1 20 20:39 01.01.2020
5409 Clouds 25 1017 69 10000 4.1 20 20:39 01.01.2020
5410 Clouds 24 1017 69 10000 4.1 20 20:21 01.01.2020
5411 Clouds 25 1017 69 10000 3.6 30 19:58 01.01.2020
5412 Clouds 25 1017 69 10000 3.6 30 19:39 01.01.2020
5413 Clouds 24 1017 69 10000 3.6 30 19:20 01.01.2020
5414 Clouds 24 1017 69 10000 3.6 30 19:20 01.01.2020
5415 Clouds 24 1018 73 10000 5.1 20 18:57 01.01.2020
5416 Clouds 24 1018 73 10000 5.1 20 18:57 01.01.2020
5417 Clouds 24 1018 73 10000 5.1 20 18:39 01.01.2020
5418 Clouds 24 1018 73 10000 5.1 20 18:20 01.01.2020
5419 Clouds 24 1019 73 10000 4.1 20 17:59 01.01.2020
5420 Clouds 24 1019 73 10000 4.1 20 17:40 01.01.2020
5421 Clouds 24 1019 73 10000 4.1 20 17:40 01.01.2020
5422 Clouds 24 1019 73 10000 4.1 20 17:20 01.01.2020
5423 Clouds 24 1019 83 10000 3.6 10 16:59 01.01.2020
5424 Clouds 25 1019 83 10000 3.6 10 16:38 01.01.2020
5425 Clouds 25 1019 83 10000 3.6 10 16:38 01.01.2020
5426 Clouds 25 1019 83 10000 3.6 10 16:19 01.01.2020
5427 Clouds 24 1018 83 10000 2.1 40 15:57 01.01.2020
5428 Clouds 24 1018 83 10000 2.1 40 15:57 01.01.2020
5429 Clouds 24 1018 83 10000 2.1 40 15:37 01.01.2020
5430 Clouds 24 1018 83 10000 2.1 40 15:19 01.01.2020
5431 Clouds 23 1018 94 10000 0.5 0 14:55 01.01.2020
5432 Clouds 23 1018 94 10000 0.5 0 14:37 01.01.2020
5433 Clouds 23 1018 94 10000 0.5 0 14:19 01.01.2020
5434 Clouds 22 1017 100 10000 3.19 9 13:55 01.01.2020
5435 Clouds 22 1017 100 10000 3.19 9 13:55 01.01.2020
5436 Clouds 22 1017 100 10000 3.19 9 13:55 01.01.2020
5437 Clouds 22 1017 100 10000 3.19 9 13:36 01.01.2020
5438 Clouds 21 1016 94 10000 3.19 9 13:18 01.01.2020
5439 Clouds 20 1016 94 10000 2.56 9 12:40 01.01.2020
5440 Clouds 20 1016 94 10000 2.56 9 12:19 01.01.2020
5441 Clouds 20 1016 94 10000 0.5 0 11:57 01.01.2020
5442 Clouds 20 1016 94 10000 0.5 0 11:38 01.01.2020
5443 Clouds 20 1016 94 10000 0.5 0 11:19 01.01.2020
5444 Clouds 21 1016 94 10000 0.5 0 10:55 01.01.2020
5445 Clouds 21 1016 94 10000 0.5 0 10:36 01.01.2020
5446 Clouds 21 1016 94 10000 0.5 0 10:18 01.01.2020
5447 Clouds 22 1017 88 10000 1 0 09:40 01.01.2020
5448 Clouds 22 1017 88 10000 1 0 09:20 01.01.2020
5449 Clouds 23 1017 88 10000 1.5 30 08:57 01.01.2020
5450 Clouds 23 1017 88 10000 1.5 30 08:57 01.01.2020
5451 Clouds 23 1017 88 10000 1.5 30 08:38 01.01.2020
5452 Clouds 23 1017 88 10000 1.5 30 08:19 01.01.2020
5453 Clouds 24 1017 83 10000 2.1 30 07:57 01.01.2020
5454 Clouds 24 1017 83 10000 2.1 30 07:38 01.01.2020
5455 Clouds 24 1017 83 10000 2.6 40 06:50 01.01.2020
5456 Clouds 24 1017 83 10000 2.6 40 06:32 01.01.2020
5457 Clouds 24 1018 83 10000 2.6 30 05:46 01.01.2020
5458 Rain 24 1017 85 0 5.95 30 03:48 01.01.2020
5459 Clouds 24 1017 88 10000 3.6 40 03:28 01.01.2020
5460 Clouds 24 1017 88 10000 3.6 40 02:59 01.01.2020
5461 Clouds 24 1017 88 10000 3.6 40 02:41 01.01.2020
5462 Clouds 24 1017 88 10000 3.6 40 02:21 01.01.2020
5463 Clear 24 1016 67 0 1.79 11 01:39 01.01.2020
5464 Clouds 25 1016 88 10000 3.1 10 01:21 01.01.2020
5465 Clouds 24 1016 88 10000 3.1 10 00:44 01.01.2020
5466 Clouds 24 1016 88 10000 3.1 10 00:44 01.01.2020
5467 Clouds 25 1016 88 10000 3.1 10 00:26 01.01.2020
5468 Clouds 25 1016 83 10000 3.6 360 23:42 31.12.2019
5469 Clouds 25 1016 83 10000 3.6 360 23:22 31.12.2019
5470 Clouds 26 1016 83 10000 4.6 350 22:59 31.12.2019
5471 Clouds 26 1016 83 10000 4.6 350 22:39 31.12.2019
5472 Clouds 25 1016 83 10000 4.6 350 22:20 31.12.2019
5473 Clouds 26 1016 78 10000 4.1 340 21:58 31.12.2019
5474 Clouds 26 1016 78 10000 4.1 340 21:40 31.12.2019
5475 Rain 26 1016 78 10000 4.6 330 21:21 31.12.2019
5476 Rain 26 1016 78 10000 4.6 330 20:56 31.12.2019
5477 Rain 26 1016 78 10000 4.6 330 20:37 31.12.2019
5478 Rain 26 1016 78 10000 4.6 330 20:18 31.12.2019
5479 Rain 26 1016 78 10000 4.6 310 19:43 31.12.2019
5480 Rain 27 1017 78 10000 3.6 220 19:24 31.12.2019
5481 Rain 28 1017 78 10000 3.6 220 18:59 31.12.2019
5482 Rain 28 1017 78 10000 3.6 220 18:40 31.12.2019
5483 Rain 28 1017 78 10000 3.6 220 18:21 31.12.2019
5484 Rain 27 1018 83 10000 4.6 220 17:57 31.12.2019
5485 Rain 26 1018 83 10000 4.6 220 17:39 31.12.2019
5486 Rain 26 1018 83 10000 4.6 220 17:19 31.12.2019
5487 Rain 26 1018 83 10000 4.6 220 17:19 31.12.2019
5488 Rain 26 1018 88 10000 3.1 190 16:57 31.12.2019
5489 Rain 26 1018 88 10000 3.1 190 16:57 31.12.2019
5490 Rain 26 1018 88 10000 3.1 190 16:39 31.12.2019
5491 Rain 25 1017 88 10000 2.1 160 16:19 31.12.2019
5492 Rain 25 1017 88 10000 2.1 160 15:57 31.12.2019
5493 Rain 24 1017 88 10000 2.1 160 15:39 31.12.2019
5494 Rain 24 1017 88 10000 2.1 160 15:21 31.12.2019
5495 Clouds 24 1017 94 10000 1 0 14:58 31.12.2019
5496 Clouds 24 1017 94 10000 1 0 14:39 31.12.2019
5497 Clouds 23 1016 100 10000 1.5 190 14:19 31.12.2019
5498 Clouds 23 1016 100 10000 1.5 190 13:58 31.12.2019
5499 Clouds 23 1016 100 10000 1.5 190 13:40 31.12.2019
5500 Rain 24 1016 41 0 4.42 264 13:21 31.12.2019
5501 Rain 25 1015 83 0 4.42 264 12:58 31.12.2019
5502 Rain 25 1015 83 0 4.42 264 12:40 31.12.2019
5503 Clouds 24 1015 88 10000 3.1 170 12:20 31.12.2019
5504 Clouds 24 1015 88 10000 3.1 170 11:56 31.12.2019
5505 Clouds 24 1015 88 10000 3.1 170 11:38 31.12.2019
5506 Clouds 24 1015 88 10000 3.1 170 11:38 31.12.2019
5507 Clouds 24 1015 88 10000 3.1 170 11:20 31.12.2019
5508 Clouds 24 1015 88 10000 4.1 170 10:58 31.12.2019
5509 Clouds 24 1015 88 10000 4.1 170 10:38 31.12.2019
5510 Clouds 24 1016 88 10000 3.6 170 10:20 31.12.2019
5511 Clouds 24 1016 88 10000 3.6 170 09:59 31.12.2019
5512 Clouds 24 1016 88 10000 3.6 170 09:39 31.12.2019
5513 Clouds 24 1016 88 10000 3.6 170 09:20 31.12.2019
5514 Clouds 24 1016 88 10000 4.6 180 08:57 31.12.2019
5515 Clouds 24 1016 88 10000 4.6 180 08:37 31.12.2019
5516 Clouds 24 1016 88 10000 4.6 180 08:19 31.12.2019
5517 Clouds 24 1015 88 10000 5.7 160 07:42 31.12.2019
5518 Clouds 24 1016 88 10000 3.6 170 07:20 31.12.2019
5519 Clouds 24 1016 88 10000 3.6 170 06:49 31.12.2019
5520 Clouds 24 1017 88 10000 2.6 160 05:57 31.12.2019
5521 Clouds 25 1017 88 10000 3.6 150 04:28 31.12.2019
5522 Clouds 24 1017 88 10000 3.6 140 03:27 31.12.2019
5523 Clouds 24 1016 88 10000 3.6 140 02:54 31.12.2019
5524 Clouds 24 1016 88 10000 3.6 150 01:55 31.12.2019
5525 Clouds 24 1016 88 10000 3.6 150 01:35 31.12.2019
5526 Clouds 24 1015 83 10000 3.6 150 00:59 31.12.2019
5527 Clouds 24 1015 83 10000 3.6 150 00:41 31.12.2019
5528 Clouds 25 1015 83 10000 4.6 170 00:21 31.12.2019
5529 Clouds 24 1015 83 10000 4.6 170 23:56 30.12.2019
5530 Clouds 25 1015 83 10000 4.6 170 23:37 30.12.2019
5531 Clouds 25 1015 83 10000 4.6 170 23:19 30.12.2019
5532 Clouds 26 1015 78 10000 5.1 170 22:56 30.12.2019
5533 Clouds 27 1015 78 10000 5.1 170 22:37 30.12.2019
5534 Clouds 27 1015 78 10000 5.1 170 22:37 30.12.2019
5535 Clouds 27 1015 78 10000 5.1 170 22:37 30.12.2019
5536 Clouds 27 1015 74 10000 6.7 170 22:18 30.12.2019
5537 Clouds 27 1015 74 10000 6.7 170 21:56 30.12.2019
5538 Clouds 27 1015 74 10000 6.7 170 21:38 30.12.2019
5539 Clouds 27 1015 74 10000 6.7 170 21:18 30.12.2019
5540 Clouds 27 1015 74 10000 7.2 170 20:56 30.12.2019
5541 Clouds 27 1015 74 10000 7.2 170 20:37 30.12.2019
5542 Clouds 27 1013 77 0 1.34 238 20:19 30.12.2019
5543 Clouds 27 1014 77 0 0.45 231 19:55 30.12.2019
5544 Clouds 26 1014 78 0 0.45 172 19:37 30.12.2019
5545 Clouds 26 1016 74 10000 7.2 160 19:18 30.12.2019
5546 Clouds 27 1016 74 10000 7.2 160 18:42 30.12.2019
5547 Clouds 26 1016 74 10000 7.2 160 18:21 30.12.2019
5548 Clouds 26 1015 77 0 1.34 240 17:59 30.12.2019
5549 Clouds 26 1015 77 0 1.34 240 17:59 30.12.2019
5550 Clouds 27 1016 76 0 0.89 197 17:41 30.12.2019
5551 Clouds 26 1018 78 10000 7.7 160 17:20 30.12.2019
5552 Clouds 26 1018 78 10000 7.7 160 17:00 30.12.2019
5553 Clouds 26 1018 78 10000 7.7 160 17:00 30.12.2019
5554 Clouds 26 1018 78 10000 7.7 160 16:40 30.12.2019
5555 Clouds 26 1018 78 10000 7.7 160 16:20 30.12.2019
5556 Clouds 26 1017 74 10000 6.2 150 15:57 30.12.2019
5557 Clouds 26 1017 74 10000 6.2 150 15:38 30.12.2019
5558 Clouds 25 1017 88 10000 3.6 150 15:19 30.12.2019
5559 Clouds 25 1017 88 10000 3.6 150 14:54 30.12.2019
5560 Clouds 25 1017 88 10000 3.6 150 14:36 30.12.2019
5561 Clouds 24 1016 74 0 7.65 130 14:18 30.12.2019
5562 Clouds 24 1016 69 0 7.65 130 13:41 30.12.2019
5563 Clouds 24 1016 80 0 7.86 124 13:23 30.12.2019
5564 Clouds 24 1016 80 0 7.86 124 13:23 30.12.2019
5565 Clouds 24 1016 80 0 7.86 124 12:58 30.12.2019
5566 Clouds 24 1016 80 0 7.86 124 12:39 30.12.2019
5567 Clouds 22 1017 94 10000 1 0 12:19 30.12.2019
5568 Clouds 22 1017 94 10000 1 0 11:56 30.12.2019
5569 Clouds 22 1017 94 10000 1 0 11:37 30.12.2019
5570 Clouds 22 1017 94 10000 1 0 11:18 30.12.2019
5571 Clouds 23 1016 88 10000 5.1 110 10:42 30.12.2019
5572 Clouds 23 1016 88 10000 5.1 110 10:42 30.12.2019
5573 Clouds 23 1016 88 10000 5.1 110 10:20 30.12.2019
5574 Clouds 25 1016 78 0 6.66 117 09:44 30.12.2019
5575 Clouds 23 1017 88 10000 2.1 100 09:21 30.12.2019
5576 Clouds 23 1017 88 10000 2.1 100 08:57 30.12.2019
5577 Clouds 23 1017 88 10000 2.1 100 08:39 30.12.2019
5578 Clouds 23 1017 88 10000 2.1 100 08:20 30.12.2019
5579 Clouds 23 1017 88 10000 2.6 120 07:48 30.12.2019
5580 Clouds 23 1017 88 10000 2.6 120 07:23 30.12.2019
5581 Clouds 24 1018 83 10000 2.6 120 06:32 30.12.2019
5582 Clouds 24 1018 73 10000 3.6 120 04:31 30.12.2019
5583 Clouds 24 1018 73 10000 3.6 120 03:50 30.12.2019
5584 Clouds 24 1018 73 10000 4.1 120 02:47 30.12.2019
5585 Clouds 24 1017 73 10000 4.6 120 02:26 30.12.2019
5586 Clouds 24 1017 69 10000 4.1 120 01:29 30.12.2019
5587 Clouds 24 1017 69 10000 4.1 120 00:59 30.12.2019
5588 Clouds 24 1017 69 10000 4.1 120 00:39 30.12.2019
5589 Clouds 24 1017 65 10000 5.1 120 23:55 29.12.2019
5590 Clouds 24 1017 65 10000 5.1 120 23:36 29.12.2019
5591 Clouds 24 1017 65 10000 5.1 120 23:18 29.12.2019
5592 Clouds 25 1017 65 10000 7.2 120 22:40 29.12.2019
5593 Clouds 25 1017 65 10000 7.2 130 22:21 29.12.2019
5594 Clouds 26 1017 65 10000 7.2 130 21:56 29.12.2019
5595 Clouds 25 1017 65 10000 7.2 130 21:38 29.12.2019
5596 Clouds 25 1017 65 10000 7.2 130 21:19 29.12.2019
5597 Clouds 26 1017 65 10000 7.7 130 20:55 29.12.2019
5598 Clouds 25 1017 65 10000 7.7 130 20:37 29.12.2019
5599 Clouds 25 1017 65 10000 7.7 130 20:18 29.12.2019
5600 Clouds 26 1017 61 10000 7.2 120 19:55 29.12.2019
5601 Clouds 26 1017 61 10000 7.2 120 19:37 29.12.2019
5602 Clouds 26 1018 69 10000 8.2 110 19:19 29.12.2019
5603 Clouds 26 1018 69 10000 8.2 110 18:54 29.12.2019
5604 Clouds 25 1018 69 10000 8.2 110 18:36 29.12.2019
5605 Clouds 25 1018 69 10000 8.2 110 18:18 29.12.2019
5606 Clouds 26 1019 69 10000 8.2 120 17:55 29.12.2019
5607 Clouds 25 1019 69 10000 8.2 120 17:36 29.12.2019
5608 Clouds 26 1020 74 10000 6.7 120 17:18 29.12.2019
5609 Clouds 26 1020 74 10000 6.7 120 16:54 29.12.2019
5610 Clouds 26 1020 74 10000 6.7 120 16:54 29.12.2019
5611 Clouds 25 1020 74 10000 6.7 120 16:36 29.12.2019
5612 Clouds 25 1019 78 10000 6.2 110 16:18 29.12.2019
5613 Clouds 25 1019 78 10000 6.2 110 15:54 29.12.2019
5614 Clouds 25 1019 78 10000 6.2 110 15:36 29.12.2019
5615 Clouds 25 1019 78 10000 6.2 110 15:18 29.12.2019
5616 Clouds 24 1019 88 10000 5.1 100 14:46 29.12.2019
5617 Rain 23 1018 88 10000 3.1 110 14:19 29.12.2019
5618 Rain 23 1018 88 10000 3.1 110 13:59 29.12.2019
5619 Rain 23 1018 88 10000 3.1 110 13:40 29.12.2019
5620 Rain 23 1018 88 10000 3.1 110 13:22 29.12.2019
5621 Rain 23 1018 88 10000 3.1 110 13:22 29.12.2019
5622 Clouds 23 1018 88 10000 4.1 100 12:57 29.12.2019
5623 Clouds 23 1018 88 10000 4.1 100 12:38 29.12.2019
5624 Clouds 23 1018 88 10000 4.1 100 12:20 29.12.2019
5625 Clouds 23 1017 88 10000 3.6 100 11:41 29.12.2019
5626 Clouds 23 1017 88 10000 3.6 100 11:21 29.12.2019
5627 Clouds 23 1017 83 10000 4.1 110 10:57 29.12.2019
5628 Clouds 23 1017 83 10000 4.1 110 10:38 29.12.2019
5629 Clouds 23 1017 83 10000 4.1 110 10:18 29.12.2019
5630 Clouds 24 1017 83 10000 4.1 110 09:45 29.12.2019
5631 Clouds 24 1017 83 10000 4.1 110 09:27 29.12.2019
5632 Clouds 23 1017 88 10000 4.1 110 08:55 29.12.2019
5633 Clouds 23 1017 88 10000 4.1 110 08:37 29.12.2019
5634 Clouds 23 1017 88 10000 4.1 110 08:18 29.12.2019
5635 Clouds 24 1018 83 10000 4.1 110 07:33 29.12.2019
5636 Clouds 23 1018 88 10000 3.6 100 06:59 29.12.2019
5637 Clouds 23 1018 88 10000 3.6 100 06:27 29.12.2019
5638 Clouds 24 1019 78 10000 4.6 100 05:55 29.12.2019
5639 Clouds 24 1019 78 10000 4.6 100 04:59 29.12.2019
5640 Clouds 24 1019 78 10000 4.6 100 04:30 29.12.2019
5641 Clouds 24 1019 78 10000 5.7 100 03:32 29.12.2019
5642 Clouds 24 1019 83 10000 6.2 90 02:27 29.12.2019
5643 Clouds 24 1018 83 10000 5.7 110 01:47 29.12.2019
5644 Clouds 24 1018 83 10000 6.2 100 01:28 29.12.2019
5645 Clouds 24 1018 83 10000 6.2 100 00:45 29.12.2019
5646 Clouds 24 1018 83 10000 6.2 100 00:24 29.12.2019
5647 Clouds 24 1018 78 10000 6.7 110 23:45 28.12.2019
5648 Clouds 24 1018 78 10000 6.7 110 23:19 28.12.2019
5649 Clouds 24 1018 78 10000 6.7 110 23:19 28.12.2019
5650 Clouds 24 1018 78 10000 6.7 110 23:19 28.12.2019
5651 Clouds 24 1017 83 10000 5.1 100 22:54 28.12.2019
5652 Clouds 24 1017 83 10000 5.1 100 22:36 28.12.2019
5653 Clouds 25 1017 83 10000 5.1 100 22:18 28.12.2019
5654 Clouds 25 1017 78 10000 4.6 100 21:55 28.12.2019
5655 Clouds 25 1017 78 10000 4.6 100 21:36 28.12.2019
5656 Clouds 25 1017 78 10000 4.6 100 21:18 28.12.2019
5657 Rain 23 1018 100 9000 5.1 110 20:38 28.12.2019
5658 Rain 23 1018 100 9000 5.1 110 20:20 28.12.2019
5659 Rain 23 1018 94 9000 6.7 120 19:59 28.12.2019
5660 Rain 23 1018 94 9000 6.7 120 19:39 28.12.2019
5661 Rain 23 1019 94 9000 6.7 110 19:21 28.12.2019
5662 Rain 23 1019 94 9000 6.7 110 18:58 28.12.2019
5663 Rain 23 1019 94 9000 6.7 110 18:40 28.12.2019
5664 Rain 23 1019 94 9000 6.7 110 18:19 28.12.2019
5665 Rain 22 1020 81 4000 6.7 140 17:55 28.12.2019
5666 Rain 23 1020 81 4000 6.7 140 17:37 28.12.2019
5667 Clouds 24 1020 78 10000 8.2 110 17:18 28.12.2019
5668 Clouds 24 1020 78 10000 8.2 110 16:46 28.12.2019
5669 Clouds 24 1019 88 10000 5.7 100 16:26 28.12.2019
5670 Clouds 24 1019 88 10000 5.7 100 15:47 28.12.2019
5671 Clouds 24 1019 88 10000 5.7 100 15:24 28.12.2019
5672 Clouds 23 1019 88 10000 5.7 110 14:59 28.12.2019
5673 Clouds 23 1019 88 10000 5.7 110 14:39 28.12.2019
5674 Clouds 23 1018 88 10000 4.6 100 14:20 28.12.2019
5675 Clouds 23 1018 88 10000 4.6 100 13:56 28.12.2019
5676 -273 0 0 0 0 0 13:36 28.12.2019
5677 Clouds 23 1018 88 10000 5.7 110 13:18 28.12.2019
5678 Clouds 23 1018 88 10000 5.7 110 12:42 28.12.2019
5679 Clouds 23 1018 88 10000 5.7 110 12:23 28.12.2019
5680 Clouds 23 1017 88 10000 6.2 110 11:56 28.12.2019
5681 Clouds 23 1017 88 10000 6.2 110 11:37 28.12.2019
5682 Clouds 23 1017 88 10000 6.2 110 11:18 28.12.2019
5683 Rain 25 1017 82 0 10.88 97 10:43 28.12.2019
5684 Rain 22 1018 94 10000 7.7 110 10:21 28.12.2019
5685 Rain 22 1018 94 10000 7.7 110 09:57 28.12.2019
5686 Rain 22 1018 94 10000 7.7 110 09:39 28.12.2019
5687 Rain 22 1018 94 10000 7.7 110 09:19 28.12.2019
5688 Clouds 22 1018 94 10000 6.2 120 08:43 28.12.2019
5689 Clouds 22 1018 94 10000 6.2 120 08:25 28.12.2019
5690 Rain 23 1018 94 10000 5.7 110 07:49 28.12.2019
5691 Clouds 24 1018 83 10000 5.7 90 07:27 28.12.2019
5692 Clouds 24 1019 83 10000 7.2 100 05:53 28.12.2019
5693 Clouds 24 1019 83 10000 6.7 100 03:52 28.12.2019
5694 Clouds 24 1019 83 10000 6.7 100 03:33 28.12.2019
5695 Clouds 24 1018 83 10000 7.2 100 02:43 28.12.2019
5696 Clouds 24 1018 83 10000 6.7 100 01:59 28.12.2019
5697 Rain 24 1018 83 10000 6.2 90 01:25 28.12.2019
5698 Rain 24 1018 83 10000 6.2 90 00:51 28.12.2019
5699 Rain 24 1018 83 10000 6.2 90 00:32 28.12.2019
5700 Rain 24 1018 88 10000 6.2 100 23:59 27.12.2019
5701 Rain 24 1018 88 10000 6.2 100 23:41 27.12.2019
5702 Rain 24 1018 88 10000 6.2 100 23:19 27.12.2019
5703 Rain 24 1017 83 10000 5.7 90 22:57 27.12.2019
5704 Rain 24 1017 83 10000 5.7 90 22:57 27.12.2019
5705 Rain 24 1017 83 10000 5.7 90 22:38 27.12.2019
5706 Rain 24 1017 83 10000 5.7 90 22:20 27.12.2019
5707 Rain 23 1017 83 10000 5.1 110 21:44 27.12.2019
5708 Rain 23 1017 83 10000 5.1 110 21:25 27.12.2019
5709 Clouds 24 1017 83 10000 5.1 110 20:58 27.12.2019
5710 Clouds 24 1017 83 10000 5.1 110 20:40 27.12.2019
5711 Clouds 23 1017 83 10000 5.1 110 20:21 27.12.2019
5712 Rain 23 1018 94 9000 7.2 100 19:42 27.12.2019
5713 Rain 23 1018 94 9000 7.2 100 19:20 27.12.2019
5714 Rain 23 1019 83 10000 7.2 110 18:57 27.12.2019
5715 Rain 24 1019 83 10000 7.2 110 18:37 27.12.2019
5716 Clouds 25 1019 78 10000 5.7 100 18:19 27.12.2019
5717 Clouds 25 1019 78 10000 5.7 100 17:55 27.12.2019
5718 Clouds 25 1019 78 10000 5.7 100 17:37 27.12.2019
5719 Clouds 25 1019 78 10000 5.7 100 17:18 27.12.2019
5720 Clouds 25 1020 83 10000 6.7 110 16:44 27.12.2019
5721 Clouds 25 1019 78 10000 7.2 110 16:26 27.12.2019
5722 Clouds 25 1019 78 10000 7.2 110 15:59 27.12.2019
5723 Clouds 25 1019 78 10000 7.2 110 15:40 27.12.2019
5724 Clouds 25 1019 78 10000 7.2 110 15:19 27.12.2019
5725 Rain 24 1019 83 10000 4.6 100 14:56 27.12.2019
5726 Rain 24 1019 83 10000 4.6 100 14:38 27.12.2019
5727 Rain 24 1019 83 10000 4.6 100 14:20 27.12.2019
5728 Clouds 24 1018 83 10000 3.1 100 13:47 27.12.2019
5729 Clouds 24 1018 83 10000 3.1 100 13:24 27.12.2019
5730 Clouds 23 1017 88 10000 4.6 110 12:56 27.12.2019
5731 Clouds 23 1017 88 10000 4.6 110 12:37 27.12.2019
5732 Clouds 23 1017 88 10000 4.6 110 12:18 27.12.2019
5733 Clouds 23 1017 88 10000 4.6 110 12:18 27.12.2019
5734 Clouds 23 1017 88 10000 3.6 110 11:42 27.12.2019
5735 Clouds 23 1017 88 10000 3.6 110 11:20 27.12.2019
5736 Clouds 24 1016 83 10000 5.1 110 10:47 27.12.2019
5737 Clouds 24 1016 83 10000 5.1 110 10:24 27.12.2019
5738 Clouds 23 1016 88 10000 4.1 110 09:59 27.12.2019
5739 Clouds 23 1016 88 10000 4.1 110 09:39 27.12.2019
5740 Clouds 23 1016 88 10000 4.1 110 09:21 27.12.2019
5741 Clouds 23 1017 88 10000 4.6 100 08:49 27.12.2019
5742 Clouds 23 1017 88 10000 4.6 100 08:30 27.12.2019
5743 Clear 23 1016 72 0 2.68 71 07:48 27.12.2019
5744 Clear 23 1016 72 0 2.68 71 07:25 27.12.2019
5745 Clear 23 1016 71 0 3.13 96 06:33 27.12.2019
5746 Clouds 24 1018 83 10000 4.6 90 04:48 27.12.2019
5747 Clear 25 1016 78 10000 4.6 90 02:29 27.12.2019
5748 Clear 24 1016 78 10000 4.6 90 01:48 27.12.2019
5749 Clouds 24 1016 78 10000 6.2 90 01:23 27.12.2019
5750 Clouds 24 1016 78 10000 6.2 90 00:51 27.12.2019
5751 Clouds 24 1016 78 10000 6.2 90 00:33 27.12.2019
5752 Clouds 25 1015 69 10000 5.1 90 23:56 26.12.2019
5753 Clouds 25 1015 69 10000 5.1 90 23:38 26.12.2019
5754 Clouds 25 1015 69 10000 5.1 90 23:20 26.12.2019
5755 Clear 24 1014 78 0 3.58 70 22:41 26.12.2019
5756 Clouds 25 1015 74 10000 6.7 90 22:19 26.12.2019
5757 Clouds 25 1015 74 10000 6.7 90 21:40 26.12.2019
5758 Clouds 25 1014 74 10000 8.2 70 21:22 26.12.2019
5759 Clouds 25 1014 74 10000 8.2 70 20:59 26.12.2019
5760 Clouds 25 1014 74 10000 8.2 70 20:40 26.12.2019
5761 Clouds 25 1014 74 10000 8.2 70 20:22 26.12.2019
5762 Clouds 25 1015 74 10000 6.7 80 19:56 26.12.2019
5763 Clouds 25 1015 74 10000 6.7 80 19:38 26.12.2019
5764 Clouds 25 1015 74 10000 6.7 80 19:20 26.12.2019
5765 Clouds 26 1016 74 10000 7.2 80 18:57 26.12.2019
5766 Clouds 25 1016 74 10000 7.2 80 18:36 26.12.2019
5767 Clouds 25 1016 74 10000 7.2 80 18:18 26.12.2019
5768 Clouds 25 1017 78 10000 6.7 70 17:41 26.12.2019
5769 Clouds 25 1017 78 10000 6.7 70 17:22 26.12.2019
5770 Clouds 25 1016 78 10000 5.7 80 16:50 26.12.2019
5771 Clouds 25 1016 78 10000 5.7 80 16:28 26.12.2019
5772 Clouds 25 1016 73 10000 4.6 90 15:58 26.12.2019
5773 Clouds 25 1016 73 10000 4.6 90 15:39 26.12.2019
5774 Clouds 25 1016 73 10000 4.6 90 15:19 26.12.2019
5775 Clouds 24 1015 78 10000 2.6 90 14:41 26.12.2019
5776 Clouds 23 1015 78 10000 2.6 90 14:23 26.12.2019
5777 Clouds 23 1015 78 10000 2.6 90 14:23 26.12.2019
5778 Clouds 23 1014 83 10000 3.6 110 13:55 26.12.2019
5779 Clouds 23 1014 83 10000 3.6 110 13:36 26.12.2019
5780 Clouds 23 1013 83 10000 3.6 90 13:18 26.12.2019
5781 Clouds 23 1013 83 10000 3.6 90 12:45 26.12.2019
5782 Clouds 23 1013 83 10000 3.6 90 12:25 26.12.2019
5783 Clouds 25 1014 73 0 7.94 75 11:59 26.12.2019
5784 Clouds 25 1014 73 0 7.94 75 11:40 26.12.2019
5785 Clouds 25 1014 73 0 7.94 75 11:40 26.12.2019
5786 Clouds 23 1013 83 10000 3.6 90 11:21 26.12.2019
5787 Clouds 23 1013 83 10000 3.6 90 10:50 26.12.2019
5788 Rain 25 1012 76 0 8.16 66 10:26 26.12.2019
5789 Rain 25 1012 76 0 8.16 66 09:55 26.12.2019
5790 Rain 25 1012 76 0 8.16 66 09:36 26.12.2019
5791 Clouds 23 1013 83 10000 3.1 80 09:18 26.12.2019
5792 Clouds 23 1013 83 10000 3.1 80 08:39 26.12.2019
5793 Clouds 23 1013 83 10000 3.1 80 08:20 26.12.2019
5794 Clouds 23 1013 77 10000 3.1 80 07:41 26.12.2019
5795 Clouds 23 1013 77 10000 3.1 80 07:19 26.12.2019
5796 Rain 23 1012 76 0 3.13 70 06:37 26.12.2019
5797 Rain 24 1013 83 10000 4.1 70 06:19 26.12.2019
5798 Rain 24 1013 83 10000 4.1 70 05:41 26.12.2019
5799 Rain 24 1013 78 10000 4.6 70 04:33 26.12.2019
5800 Clouds 24 1013 78 10000 6.7 70 03:31 26.12.2019
5801 Clouds 24 1012 83 10000 6.7 70 02:46 26.12.2019
5802 Clouds 24 1012 83 10000 6.7 70 02:25 26.12.2019
5803 Clouds 23 1012 88 10000 5.7 70 01:44 26.12.2019
5804 Clouds 23 1012 88 10000 5.7 70 01:44 26.12.2019
5805 Clouds 23 1012 88 10000 5.7 70 01:24 26.12.2019
5806 Rain 23 1012 88 10000 5.7 50 00:43 26.12.2019
5807 Rain 23 1012 88 10000 5.7 50 00:23 26.12.2019
5808 Rain 24 1011 83 10000 4.6 50 23:57 25.12.2019
5809 Rain 24 1011 83 10000 4.6 50 23:36 25.12.2019
5810 Clouds 24 1011 73 10000 5.1 20 23:18 25.12.2019
5811 Clouds 24 1011 73 10000 5.1 20 22:55 25.12.2019
5812 Clouds 24 1011 73 10000 5.1 20 22:55 25.12.2019
5813 Clouds 24 1011 73 10000 5.1 20 22:36 25.12.2019
5814 Clouds 25 1011 69 10000 7.7 30 22:18 25.12.2019
5815 Clouds 25 1011 69 10000 7.7 30 21:40 25.12.2019
5816 Clouds 25 1011 65 10000 6.2 30 21:22 25.12.2019
5817 Clouds 25 1011 65 10000 6.2 30 20:59 25.12.2019
5818 Clouds 25 1011 65 10000 6.2 30 20:40 25.12.2019
5819 Clouds 25 1011 65 10000 6.2 30 20:19 25.12.2019
5820 Clouds 25 1011 61 10000 6.2 30 19:57 25.12.2019
5821 Clouds 25 1011 61 10000 6.2 30 19:39 25.12.2019
5822 Clouds 25 1011 61 10000 6.2 30 19:21 25.12.2019
5823 Clouds 25 1012 61 10000 5.7 30 18:39 25.12.2019
5824 Clouds 24 1012 64 10000 5.1 10 18:20 25.12.2019
5825 Clouds 24 1012 64 10000 5.1 10 17:43 25.12.2019
5826 Clouds 24 1012 64 10000 5.1 10 17:21 25.12.2019
5827 Clouds 24 1013 60 10000 5.1 20 16:59 25.12.2019
5828 Clouds 24 1013 60 10000 5.1 20 16:39 25.12.2019
5829 Clouds 24 1013 60 10000 5.1 20 16:19 25.12.2019
5830 Clouds 24 1012 64 10000 5.1 20 15:57 25.12.2019
5831 Clouds 24 1012 64 10000 5.1 20 15:57 25.12.2019
5832 Clouds 24 1012 64 10000 5.1 20 15:39 25.12.2019
5833 Clouds 23 1011 73 10000 3.6 10 15:21 25.12.2019
5834 Clouds 23 1011 73 10000 3.6 10 14:58 25.12.2019
5835 Clouds 23 1011 73 10000 3.6 10 14:39 25.12.2019
5836 Clouds 23 1011 78 10000 5.1 340 14:21 25.12.2019
5837 Clouds 22 1011 78 10000 5.1 340 13:55 25.12.2019
5838 Clouds 22 1011 78 10000 5.1 340 13:36 25.12.2019
5839 Clouds 22 1011 78 10000 5.1 340 13:18 25.12.2019
5840 Clouds 22 1010 73 10000 5.7 360 12:38 25.12.2019
5841 Clouds 22 1010 73 10000 5.7 360 12:20 25.12.2019
5842 Clouds 22 1009 78 10000 5.7 330 11:54 25.12.2019
5843 Clouds 22 1009 78 10000 5.7 330 11:36 25.12.2019
5844 Clouds 22 1009 78 10000 5.7 330 11:18 25.12.2019
5845 Clouds 22 1009 73 10000 5.1 320 10:37 25.12.2019
5846 Clouds 22 1009 73 10000 5.1 320 10:37 25.12.2019
5847 Clouds 22 1009 73 10000 5.1 320 10:19 25.12.2019
5848 Clouds 22 1009 73 10000 5.7 320 09:49 25.12.2019
5849 Clouds 22 1009 68 10000 5.7 330 09:30 25.12.2019
5850 Clouds 22 1009 68 10000 5.7 330 08:47 25.12.2019
5851 Clouds 22 1009 68 10000 5.7 330 08:29 25.12.2019
5852 Clouds 21 1009 68 10000 6.2 320 07:49 25.12.2019
5853 Clouds 21 1009 68 10000 6.2 320 07:31 25.12.2019
5854 Clouds 21 1009 68 10000 6.7 320 06:49 25.12.2019
5855 Clouds 22 1009 68 10000 6.7 320 06:22 25.12.2019
5856 Clouds 22 1010 73 10000 6.7 310 05:18 25.12.2019
5857 Clouds 22 1010 68 10000 6.7 320 04:38 25.12.2019
5858 Clouds 22 1010 68 10000 6.7 320 04:18 25.12.2019
5859 Rain 22 1009 75 0 0.45 8 03:40 25.12.2019
5860 Rain 21 1009 75 0 9.83 298 02:39 25.12.2019
5861 Clouds 22 1009 64 10000 7.2 310 01:59 25.12.2019
5862 Clouds 21 1008 64 10000 6.7 300 01:25 25.12.2019
5863 Clouds 21 1008 64 10000 6.7 300 00:52 25.12.2019
5864 Clouds 21 1008 68 10000 7.7 300 00:29 25.12.2019
5865 Clouds 21 1008 68 10000 7.7 300 23:56 24.12.2019
5866 Clouds 21 1008 68 10000 7.7 300 23:37 24.12.2019
5867 Clouds 22 1008 64 10000 8.2 300 23:19 24.12.2019
5868 Clouds 22 1008 64 10000 8.2 300 22:40 24.12.2019
5869 Clouds 22 1007 64 10000 9.3 310 22:21 24.12.2019
5870 Clouds 22 1007 64 10000 9.3 310 21:43 24.12.2019
5871 Clouds 22 1007 60 10000 7.2 280 21:22 24.12.2019
5872 Clouds 22 1007 60 10000 7.2 280 20:54 24.12.2019
5873 Clouds 22 1007 60 10000 7.2 280 20:36 24.12.2019
5874 Clouds 22 1007 60 10000 7.2 280 20:18 24.12.2019
5875 Clouds 23 1008 64 10000 8.2 300 19:43 24.12.2019
5876 Clouds 22 1008 64 10000 8.2 300 19:19 24.12.2019
5877 Clouds 23 1009 64 10000 7.2 300 18:42 24.12.2019
5878 Clouds 23 1009 64 10000 7.2 300 18:23 24.12.2019
5879 Clouds 22 1010 64 10000 8.2 310 17:50 24.12.2019
5880 Clouds 22 1010 64 10000 8.2 310 17:24 24.12.2019
5881 Clouds 22 1010 64 10000 7.2 290 16:59 24.12.2019
5882 Clouds 22 1010 64 10000 7.2 290 16:41 24.12.2019
5883 Clouds 22 1010 64 10000 7.2 290 16:22 24.12.2019
5884 -273 0 0 0 0 0 16:22 24.12.2019
5885 Clouds 22 1010 68 10000 6.2 290 15:58 24.12.2019
5886 Clouds 22 1010 68 10000 6.2 290 15:38 24.12.2019
5887 Clouds 22 1010 68 10000 6.2 290 15:20 24.12.2019
5888 Clouds 22 1009 68 10000 8.2 310 14:59 24.12.2019
5889 Clouds 22 1009 68 10000 8.2 310 14:40 24.12.2019
5890 Clouds 22 1009 68 10000 8.2 310 14:22 24.12.2019
5891 Clouds 22 1009 68 10000 7.7 310 13:56 24.12.2019
5892 Clouds 22 1009 68 10000 7.7 310 13:38 24.12.2019
5893 Clouds 22 1009 68 10000 7.7 310 13:20 24.12.2019
5894 Clouds 22 1009 68 10000 6.7 300 12:57 24.12.2019
5895 Clouds 22 1009 68 10000 6.7 300 12:38 24.12.2019
5896 Clouds 22 1009 68 10000 6.7 300 12:38 24.12.2019
5897 Clouds 22 1009 68 10000 6.7 300 12:19 24.12.2019
5898 Clouds 22 1008 68 10000 8.2 300 11:57 24.12.2019
5899 Clouds 22 1008 68 10000 8.2 300 11:37 24.12.2019
5900 Clouds 22 1008 68 10000 8.2 300 11:19 24.12.2019
5901 Clouds 22 1008 73 10000 8.2 300 10:56 24.12.2019
5902 Clouds 22 1008 73 10000 8.2 300 10:38 24.12.2019
5903 Clouds 22 1008 73 10000 8.2 300 10:19 24.12.2019
5904 Clouds 22 1008 73 10000 8.2 300 10:19 24.12.2019
5905 Clouds 23 1008 64 10000 6.7 290 09:55 24.12.2019
5906 Clouds 23 1008 64 10000 6.7 290 09:37 24.12.2019
5907 Clouds 23 1008 64 10000 6.7 290 09:19 24.12.2019
5908 Clouds 23 1009 64 10000 6.7 290 08:46 24.12.2019
5909 Clouds 23 1009 64 10000 6.7 290 08:24 24.12.2019
5910 Clouds 23 1009 69 10000 6.7 290 07:54 24.12.2019
5911 Clouds 22 1009 69 10000 6.7 290 07:36 24.12.2019
5912 Clouds 22 1009 69 10000 6.7 290 07:18 24.12.2019
5913 Clouds 22 1010 78 10000 6.2 290 06:39 24.12.2019
5914 Clouds 22 1010 78 10000 6.2 290 06:19 24.12.2019
5915 Clouds 22 1011 83 10000 6.2 290 05:49 24.12.2019
5916 Clouds 22 1011 83 10000 6.2 290 05:18 24.12.2019
5917 Rain 23 1011 88 10000 4.1 280 03:55 24.12.2019
5918 Rain 23 1011 88 10000 4.1 280 03:33 24.12.2019
5919 Clouds 23 1010 94 10000 4.6 280 02:25 24.12.2019
5920 Rain 22 1010 100 10000 5.7 260 01:52 24.12.2019
5921 Rain 22 1010 100 10000 5.7 260 01:23 24.12.2019
5922 Rain 23 1010 94 10000 4.1 260 00:47 24.12.2019
5923 Rain 22 1009 100 800 7.7 260 00:27 24.12.2019
5924 Rain 25 1009 78 10000 6.2 210 23:59 23.12.2019
5925 Rain 26 1009 78 10000 6.2 210 23:41 23.12.2019
5926 Rain 25 1009 78 10000 6.2 210 23:23 23.12.2019
5927 Rain 25 1009 78 10000 6.2 210 23:23 23.12.2019
5928 Rain 26 1009 74 10000 7.2 210 22:56 23.12.2019
5929 Rain 26 1009 74 10000 7.2 210 22:56 23.12.2019
5930 Rain 26 1009 74 10000 7.2 210 22:37 23.12.2019
5931 Rain 27 1009 74 10000 7.2 210 22:19 23.12.2019
5932 Rain 27 1009 74 10000 7.2 210 21:55 23.12.2019
5933 Rain 27 1009 74 10000 7.2 210 21:36 23.12.2019
5934 Rain 27 1009 74 10000 7.2 210 21:36 23.12.2019
5935 Rain 27 1009 74 10000 7.2 210 21:36 23.12.2019
5936 Rain 27 1009 74 10000 7.2 210 21:18 23.12.2019
5937 Clouds 27 1010 78 10000 7.2 200 20:57 23.12.2019
5938 Clouds 27 1010 78 10000 7.2 200 20:39 23.12.2019
5939 Clouds 26 1011 83 10000 7.2 200 20:18 23.12.2019
5940 Clouds 26 1011 83 10000 7.2 200 19:56 23.12.2019
5941 Clouds 26 1011 83 10000 7.2 200 19:56 23.12.2019
5942 Clouds 25 1011 83 10000 7.2 200 19:38 23.12.2019
5943 Clouds 26 1012 83 10000 7.7 200 19:19 23.12.2019
5944 Clouds 25 1012 83 10000 7.7 200 18:57 23.12.2019
5945 Clouds 25 1012 83 10000 7.7 200 18:38 23.12.2019
5946 Clouds 25 1012 83 10000 7.7 200 18:20 23.12.2019
5947 Clouds 24 1014 88 10000 6.7 210 17:56 23.12.2019
5948 Clouds 24 1014 88 10000 6.7 210 17:37 23.12.2019
5949 Clouds 24 1014 88 10000 6.7 210 17:19 23.12.2019
5950 Clouds 24 1014 88 10000 7.2 210 16:42 23.12.2019
5951 Clouds 24 1014 88 10000 7.2 210 16:42 23.12.2019
5952 Clouds 24 1014 88 10000 6.7 190 16:19 23.12.2019
5953 Clouds 24 1014 88 10000 6.7 190 15:59 23.12.2019
5954 Clouds 24 1014 88 10000 6.7 190 15:39 23.12.2019
5955 Rain 24 1013 94 10000 8.2 170 15:20 23.12.2019
5956 Rain 24 1013 94 10000 8.2 170 14:59 23.12.2019
5957 Rain 24 1013 94 10000 8.2 170 14:41 23.12.2019
5958 Rain 24 1013 94 10000 7.7 170 14:23 23.12.2019
5959 Rain 24 1013 94 10000 7.7 170 13:58 23.12.2019
5960 Rain 24 1013 94 10000 7.7 170 13:40 23.12.2019
5961 Rain 25 1013 86 0 9.96 163 13:22 23.12.2019
5962 Rain 25 1013 86 0 9.96 163 12:57 23.12.2019
5963 Rain 25 1013 86 0 9.96 163 12:39 23.12.2019
5964 Rain 25 1013 86 0 9.96 163 12:19 23.12.2019
5965 Rain 25 1013 86 0 9.96 163 11:44 23.12.2019
5966 Clouds 24 1013 94 10000 6.7 170 11:26 23.12.2019
5967 Rain 25 1012 86 0 10.81 147 10:59 23.12.2019
5968 Rain 25 1012 86 0 10.81 147 10:40 23.12.2019
5969 Rain 25 1012 86 0 10.81 147 10:20 23.12.2019
5970 Rain 25 1012 86 0 10.81 147 09:59 23.12.2019
5971 Rain 25 1012 86 0 10.81 147 09:39 23.12.2019
5972 Rain 25 1012 86 0 10.81 147 09:21 23.12.2019
5973 Rain 25 1012 86 0 10.81 147 08:56 23.12.2019
5974 Rain 25 1012 86 0 10.81 147 08:38 23.12.2019
5975 Rain 24 1014 85 0 10.92 135 08:19 23.12.2019
5976 Rain 22 1014 52 0 11.03 133 07:43 23.12.2019
5977 Rain 22 1014 52 0 11.03 133 07:20 23.12.2019
5978 Rain 22 1014 52 0 11.03 133 06:52 23.12.2019
5979 Rain 22 1014 52 0 11.03 133 06:25 23.12.2019
5980 Rain 22 1015 56 0 11.03 133 05:50 23.12.2019
5981 Rain 23 1017 94 10000 5.7 120 05:26 23.12.2019
5982 Rain 23 1017 94 10000 5.7 120 04:27 23.12.2019
5983 Clouds 24 1017 78 10000 7.2 110 02:56 23.12.2019
5984 Clouds 24 1017 78 10000 7.2 110 02:28 23.12.2019
5985 Clouds 24 1017 78 10000 6.2 100 01:56 23.12.2019
5986 Clouds 24 1017 78 10000 6.2 100 01:38 23.12.2019
5987 Clouds 24 1017 78 10000 6.2 100 01:19 23.12.2019
5988 Rain 24 1017 78 10000 6.7 110 00:36 23.12.2019
5989 Rain 24 1017 78 10000 6.7 110 23:58 22.12.2019
5990 Rain 24 1017 78 10000 6.7 110 23:39 22.12.2019
5991 Rain 24 1017 78 10000 6.7 110 23:20 22.12.2019
5992 Clouds 24 1017 78 10000 7.2 110 22:58 22.12.2019
5993 Clouds 24 1017 78 10000 7.2 110 22:38 22.12.2019
5994 Clouds 25 1017 69 10000 7.2 100 22:19 22.12.2019
5995 Clouds 24 1017 69 10000 7.2 100 21:57 22.12.2019
5996 Clouds 24 1017 69 10000 7.2 100 21:39 22.12.2019
5997 Clouds 24 1017 69 10000 7.2 100 21:20 22.12.2019
5998 Clouds 24 1018 69 10000 7.7 100 20:55 22.12.2019
5999 Clouds 24 1018 69 10000 7.7 100 20:37 22.12.2019
6000 Clouds 24 1018 69 10000 7.7 100 20:37 22.12.2019
6001 Clouds 24 1018 69 10000 7.7 100 20:18 22.12.2019
6002 Clouds 25 1018 69 10000 6.7 110 19:40 22.12.2019
6003 Clouds 25 1018 69 10000 6.7 110 19:21 22.12.2019
6004 Clouds 25 1019 65 10000 7.2 100 18:58 22.12.2019
6005 Clouds 25 1019 65 10000 7.2 100 18:38 22.12.2019
6006 Clouds 25 1019 65 10000 7.2 100 18:19 22.12.2019
6007 Clouds 25 1020 69 10000 6.7 100 17:55 22.12.2019
6008 Clouds 24 1020 69 10000 6.7 100 17:37 22.12.2019
6009 Clouds 24 1020 69 10000 6.7 100 17:18 22.12.2019
6010 Clouds 24 1021 73 10000 5.1 100 16:42 22.12.2019
6011 Clouds 24 1021 73 10000 5.1 100 16:23 22.12.2019
6012 Clouds 24 1021 73 10000 5.7 100 15:58 22.12.2019
6013 Clouds 24 1021 73 10000 5.7 100 15:39 22.12.2019
6014 Clouds 24 1021 73 10000 5.7 100 15:21 22.12.2019
6015 Clouds 23 1020 78 10000 3.6 100 14:59 22.12.2019
6016 Clouds 23 1020 78 10000 3.6 100 14:38 22.12.2019
6017 Clouds 23 1020 78 10000 3.6 100 14:19 22.12.2019
6018 Clouds 23 1020 83 10000 3.1 100 13:56 22.12.2019
6019 Clouds 23 1020 83 10000 3.1 100 13:38 22.12.2019
6020 Clouds 22 1020 83 10000 3.1 100 13:19 22.12.2019
6021 Clouds 21 1019 83 10000 4.1 100 12:57 22.12.2019
6022 Clouds 21 1019 83 10000 4.1 100 12:38 22.12.2019
6023 Clouds 21 1019 83 10000 3.1 100 12:19 22.12.2019
6024 Clouds 21 1019 83 10000 3.1 100 11:56 22.12.2019
6025 Clouds 21 1019 83 10000 3.1 100 11:38 22.12.2019
6026 Clouds 21 1019 83 10000 3.1 100 11:19 22.12.2019
6027 Clouds 22 1019 78 10000 3.1 100 10:56 22.12.2019
6028 Clouds 22 1019 78 10000 3.1 100 10:38 22.12.2019
6029 Clouds 22 1019 78 10000 3.1 100 10:19 22.12.2019
6030 Clouds 22 1019 78 10000 3.1 100 10:19 22.12.2019
6031 Clouds 24 1019 76 0 7.14 86 09:57 22.12.2019
6032 Clouds 24 1019 76 0 7.14 86 09:39 22.12.2019
6033 Clouds 24 1019 76 0 7.14 86 09:20 22.12.2019
6034 Clouds 24 1019 76 0 7.14 86 08:42 22.12.2019
6035 Clouds 22 1021 78 10000 3.1 90 08:22 22.12.2019
6036 Clouds 23 1021 78 10000 3.1 90 07:42 22.12.2019
6037 Clouds 22 1021 73 10000 4.6 110 07:21 22.12.2019
6038 Clouds 22 1021 73 10000 4.6 110 06:52 22.12.2019
6039 Clouds 22 1021 73 10000 4.6 110 06:22 22.12.2019
6040 Clouds 23 1022 69 10000 6.2 110 05:29 22.12.2019
6041 Clouds 23 1021 76 0 2.68 90 04:46 22.12.2019
6042 Clouds 23 1021 76 0 2.68 96 04:24 22.12.2019
6043 Clouds 23 1021 76 0 2.68 110 02:43 22.12.2019
6044 Clouds 23 1021 76 0 2.68 110 02:43 22.12.2019
6045 Clouds 23 1021 76 0 2.68 110 02:43 22.12.2019
6046 Clouds 23 1021 76 0 2.68 110 02:43 22.12.2019
6047 Clouds 23 1021 73 10000 5.7 100 01:59 22.12.2019
6048 Clouds 23 1021 73 10000 5.7 100 01:31 22.12.2019
6049 Clouds 23 1021 73 10000 5.7 110 00:48 22.12.2019
6050 Clouds 23 1020 77 0 3.58 88 00:28 22.12.2019
6051 Clouds 23 1020 77 0 4.02 44 23:57 21.12.2019
6052 Clouds 23 1020 77 0 4.02 44 23:57 21.12.2019
6053 Clouds 23 1019 77 0 3.13 55 23:39 21.12.2019
6054 Clouds 23 1019 78 0 3.58 20 23:20 21.12.2019
6055 Clouds 23 1019 78 0 3.58 45 22:46 21.12.2019
6056 Clouds 23 1019 76 0 4.02 78 22:20 21.12.2019
6057 Clouds 23 1019 77 0 3.13 165 21:58 21.12.2019
6058 Clouds 23 1018 77 0 3.13 70 21:39 21.12.2019
6059 Clouds 25 1020 65 10000 8.7 100 21:20 21.12.2019
6060 Clouds 25 1020 65 10000 8.7 100 20:59 21.12.2019
6061 Clouds 25 1020 65 10000 8.7 100 20:40 21.12.2019
6062 Clouds 25 1020 65 10000 8.7 100 20:22 21.12.2019
6063 Clouds 25 1021 65 10000 9.8 90 19:58 21.12.2019
6064 Clouds 25 1021 65 10000 9.8 90 19:40 21.12.2019
6065 Clouds 25 1021 65 10000 9.8 90 19:19 21.12.2019
6066 Clouds 25 1022 65 10000 8.7 100 18:55 21.12.2019
6067 Clouds 25 1022 65 10000 8.7 100 18:37 21.12.2019
6068 Clouds 25 1022 65 10000 8.7 100 18:19 21.12.2019
6069 Clouds 24 1024 73 10000 9.3 90 17:43 21.12.2019
6070 Clouds 24 1024 73 10000 9.3 90 17:25 21.12.2019
6071 Clouds 24 1024 69 10000 8.7 100 16:59 21.12.2019
6072 Clouds 24 1024 69 10000 8.7 100 16:41 21.12.2019
6073 Clouds 24 1024 69 10000 8.7 100 16:41 21.12.2019
6074 Clouds 24 1023 73 10000 8.2 100 16:19 21.12.2019
6075 Clouds 24 1023 73 10000 8.2 100 16:19 21.12.2019
6076 Clouds 24 1023 73 10000 8.2 100 15:57 21.12.2019
6077 Clouds 24 1023 73 10000 8.2 100 15:38 21.12.2019
6078 Clouds 24 1023 73 10000 8.2 100 15:38 21.12.2019
6079 Clouds 24 1023 73 10000 8.2 100 15:38 21.12.2019
6080 Clouds 23 1023 78 10000 7.2 100 15:19 21.12.2019
6081 Clouds 23 1023 78 10000 7.2 100 14:57 21.12.2019
6082 Clouds 23 1023 78 10000 7.2 100 14:38 21.12.2019
6083 Rain 24 1022 80 0 12.7 70 14:18 21.12.2019
6084 Clouds 23 1023 78 10000 7.2 100 13:55 21.12.2019
6085 Clouds 23 1023 78 10000 7.2 100 13:37 21.12.2019
6086 Clouds 23 1021 73 10000 7.2 90 13:18 21.12.2019
6087 Clouds 23 1021 73 10000 7.2 90 12:54 21.12.2019
6088 Clouds 23 1021 73 10000 7.2 90 12:36 21.12.2019
6089 Clouds 23 1021 73 10000 7.2 90 12:18 21.12.2019
6090 Clouds 23 1021 73 10000 7.2 90 11:42 21.12.2019
6091 Clouds 23 1021 73 10000 7.2 90 11:24 21.12.2019
6092 Rain 23 1021 78 10000 5.7 90 10:56 21.12.2019
6093 Rain 23 1021 78 10000 5.7 90 10:37 21.12.2019
6094 Rain 24 1020 77 0 11.4 79 10:19 21.12.2019
6095 Rain 24 1020 77 0 11.4 79 10:19 21.12.2019
6096 Rain 24 1020 77 0 11.4 79 09:42 21.12.2019
6097 Rain 24 1020 77 0 11.4 79 09:21 21.12.2019
6098 Rain 24 1020 77 0 11.4 79 08:57 21.12.2019
6099 Rain 24 1020 77 0 11.4 79 08:37 21.12.2019
6100 Clouds 23 1022 78 10000 6.7 100 08:18 21.12.2019
6101 Clouds 23 1022 78 10000 6.7 100 07:41 21.12.2019
6102 Clouds 24 1021 76 0 11.97 76 07:22 21.12.2019
6103 Clouds 24 1021 76 0 11.97 76 06:44 21.12.2019
6104 Clouds 23 1022 78 10000 6.7 100 06:25 21.12.2019
6105 Clouds 23 1022 78 10000 6.7 100 05:47 21.12.2019
6106 Clouds 23 1022 78 10000 8.2 90 04:58 21.12.2019
6107 Clouds 23 1022 78 10000 7.2 100 03:57 21.12.2019
6108 Clouds 23 1022 78 10000 8.2 90 02:51 21.12.2019
6109 Clouds 23 1021 78 10000 8.2 100 01:55 21.12.2019
6110 Clouds 24 1021 73 10000 7.7 90 01:27 21.12.2019
6111 Clouds 24 1021 73 10000 7.7 90 00:52 21.12.2019
6112 Clouds 24 1021 73 10000 7.7 90 00:31 21.12.2019
6113 Clouds 24 1021 73 10000 7.2 80 23:56 20.12.2019
6114 Clouds 24 1021 73 10000 7.2 80 23:37 20.12.2019
6115 Clouds 24 1021 73 10000 7.2 80 23:18 20.12.2019
6116 Clouds 24 1020 73 10000 7.2 90 22:40 20.12.2019
6117 Clouds 24 1020 73 10000 7.2 90 22:21 20.12.2019
6118 Clouds 24 1020 73 10000 7.7 80 21:57 20.12.2019
6119 Clouds 24 1020 73 10000 7.7 80 21:39 20.12.2019
6120 Clouds 24 1020 73 10000 7.7 80 21:39 20.12.2019
6121 Clouds 24 1020 73 10000 7.7 80 21:18 20.12.2019
6122 Clouds 24 1020 73 10000 7.2 80 20:39 20.12.2019
6123 Clouds 24 1020 73 10000 7.2 80 20:19 20.12.2019
6124 Clouds 26 1020 74 10000 8.2 80 19:57 20.12.2019
6125 Clouds 26 1020 74 10000 8.2 80 19:39 20.12.2019
6126 Clouds 24 1021 73 10000 8.7 70 19:19 20.12.2019
6127 Clouds 24 1021 73 10000 8.7 70 18:42 20.12.2019
6128 Clouds 24 1021 73 10000 8.7 70 18:24 20.12.2019
6129 Clouds 24 1022 78 10000 8.2 90 17:58 20.12.2019
6130 Clouds 24 1022 78 10000 8.2 90 17:40 20.12.2019
6131 Clouds 24 1022 78 10000 8.2 90 17:21 20.12.2019
6132 Rain 24 1022 83 10000 7.7 80 16:59 20.12.2019
6133 Rain 24 1022 83 10000 7.7 80 16:59 20.12.2019
6134 Rain 24 1022 83 10000 7.7 80 16:38 20.12.2019
6135 Rain 24 1022 83 10000 7.7 80 16:20 20.12.2019
6136 Rain 24 1022 83 10000 7.7 80 16:20 20.12.2019
6137 Clouds 23 1022 83 10000 8.2 90 15:56 20.12.2019
6138 Clouds 23 1022 83 10000 8.2 90 15:38 20.12.2019
6139 Clouds 23 1022 83 10000 8.2 90 15:19 20.12.2019
6140 Clouds 23 1021 83 10000 8.7 90 14:43 20.12.2019
6141 Clouds 23 1021 83 10000 8.7 90 14:24 20.12.2019
6142 Rain 23 1020 83 10000 8.7 90 13:58 20.12.2019
6143 Rain 23 1020 83 10000 8.7 90 13:38 20.12.2019
6144 Rain 23 1020 83 10000 8.7 90 13:19 20.12.2019
6145 Rain 23 1019 83 10000 6.2 90 12:57 20.12.2019
6146 Rain 23 1019 83 10000 6.2 90 12:37 20.12.2019
6147 Rain 23 1019 83 10000 6.2 90 12:18 20.12.2019
6148 Rain 24 1020 80 0 11.98 64 11:57 20.12.2019
6149 Rain 24 1020 80 0 11.98 64 11:39 20.12.2019
6150 Rain 22 1019 88 10000 7.2 80 11:18 20.12.2019
6151 Rain 22 1019 88 10000 7.2 80 11:18 20.12.2019
6152 Rain 22 1019 88 10000 7.2 80 10:56 20.12.2019
6153 Rain 22 1019 88 10000 7.2 80 10:37 20.12.2019
6154 Rain 22 1019 88 10000 7.2 80 10:19 20.12.2019
6155 Rain 22 1019 88 10000 8.2 70 09:43 20.12.2019
6156 Rain 22 1019 88 10000 8.2 70 09:21 20.12.2019
6157 Rain 22 1019 94 10000 8.2 80 08:55 20.12.2019
6158 Rain 22 1019 94 10000 8.2 80 08:37 20.12.2019
6159 Rain 22 1019 94 10000 8.2 80 08:19 20.12.2019
6160 Clouds 23 1019 83 10000 7.2 90 07:55 20.12.2019
6161 Clouds 23 1019 83 10000 7.2 90 07:36 20.12.2019
6162 Clouds 23 1019 83 10000 7.2 90 07:18 20.12.2019
6163 Clouds 23 1019 83 10000 7.7 100 06:43 20.12.2019
6164 Clouds 23 1019 83 10000 7.7 100 06:25 20.12.2019
6165 Rain 22 1020 83 10000 7.2 110 05:47 20.12.2019
6166 Rain 22 1020 94 9000 6.2 100 04:57 20.12.2019
6167 Rain 22 1020 94 9000 5.7 90 03:48 20.12.2019
6168 Rain 22 1019 88 9000 7.2 90 02:46 20.12.2019
6169 Rain 22 1018 94 9000 8.2 80 01:55 20.12.2019
6170 Rain 22 1018 94 9000 8.2 80 01:35 20.12.2019
6171 Rain 22 1018 94 9000 7.7 70 00:53 20.12.2019
6172 Rain 22 1018 94 9000 7.7 70 00:34 20.12.2019
6173 Rain 22 1018 94 9000 8.2 70 23:57 19.12.2019
6174 Rain 22 1018 94 9000 8.2 70 23:39 19.12.2019
6175 Rain 22 1018 94 9000 8.2 70 23:19 19.12.2019
6176 Rain 22 1018 94 9000 8.2 70 23:19 19.12.2019
6177 Rain 21 1017 57 0 12.7 59 22:38 19.12.2019
6178 Rain 21 1017 58 0 12.7 59 22:20 19.12.2019
6179 Rain 22 1017 94 9000 8.7 60 21:56 19.12.2019
6180 Rain 22 1017 94 9000 8.7 60 21:38 19.12.2019
6181 Rain 22 1017 94 9000 8.7 60 21:19 19.12.2019
6182 Rain 22 1017 94 9000 7.7 60 20:56 19.12.2019
6183 Rain 22 1017 94 10000 8.2 60 20:37 19.12.2019
6184 Rain 22 1017 94 10000 8.2 60 20:18 19.12.2019
6185 Rain 22 1018 83 10000 8.2 60 19:57 19.12.2019
6186 Rain 22 1018 83 10000 8.2 60 19:57 19.12.2019
6187 Rain 22 1018 83 10000 8.2 60 19:39 19.12.2019
6188 Rain 22 1018 83 10000 8.2 60 19:39 19.12.2019
6189 Rain 22 1018 83 10000 8.2 60 19:19 19.12.2019
6190 Rain 23 1018 83 10000 9.3 60 18:41 19.12.2019
6191 Rain 23 1018 83 10000 9.3 60 18:23 19.12.2019
6192 Rain 22 1019 88 10000 9.3 60 17:58 19.12.2019
6193 Rain 23 1019 88 10000 9.3 60 17:39 19.12.2019
6194 Rain 23 1019 88 10000 9.3 60 17:19 19.12.2019
6195 Rain 22 1019 94 10000 8.7 60 16:58 19.12.2019
6196 Rain 22 1019 94 10000 8.7 60 16:40 19.12.2019
6197 Rain 22 1019 94 10000 8.7 60 16:22 19.12.2019
6198 Rain 22 1018 94 10000 8.7 50 15:59 19.12.2019
6199 Rain 22 1018 94 10000 8.7 50 15:39 19.12.2019
6200 Rain 22 1018 94 10000 8.7 50 15:20 19.12.2019
6201 Rain 22 1018 94 10000 8.7 50 15:20 19.12.2019
6202 Rain 23 1017 94 10000 7.7 60 14:59 19.12.2019
6203 Rain 23 1017 94 10000 7.7 60 14:40 19.12.2019
6204 Rain 23 1017 94 10000 7.7 60 14:19 19.12.2019
6205 Rain 23 1017 94 10000 6.2 50 13:56 19.12.2019
6206 Rain 23 1017 94 10000 6.2 50 13:37 19.12.2019
6207 Rain 23 1017 94 10000 6.2 50 13:18 19.12.2019
6208 Clouds 24 1016 83 10000 5.1 60 12:54 19.12.2019
6209 Clouds 24 1016 83 10000 5.1 60 12:36 19.12.2019
6210 Clouds 24 1016 83 10000 5.1 60 12:18 19.12.2019
6211 Clouds 24 1016 83 10000 5.1 60 12:18 19.12.2019
6212 Clouds 24 1015 83 10000 5.7 50 11:42 19.12.2019
6213 Clouds 24 1015 83 10000 5.7 50 11:20 19.12.2019
6214 Clouds 24 1015 83 10000 5.7 50 11:20 19.12.2019
6215 Clouds 24 1015 83 10000 5.1 40 10:59 19.12.2019
6216 Clouds 24 1015 83 10000 5.1 40 10:39 19.12.2019
6217 Clouds 24 1015 83 10000 5.1 40 10:20 19.12.2019
6218 Clouds 24 1015 83 10000 4.6 40 09:59 19.12.2019
6219 Clouds 24 1015 83 10000 4.6 40 09:38 19.12.2019
6220 Clouds 24 1015 83 10000 4.6 40 09:20 19.12.2019
6221 Clouds 24 1015 83 10000 4.1 40 08:55 19.12.2019
6222 Clouds 24 1015 83 10000 4.1 40 08:37 19.12.2019
6223 Clouds 24 1015 83 10000 4.1 40 08:18 19.12.2019
6224 Clouds 24 1015 83 10000 4.6 50 07:54 19.12.2019
6225 Clouds 24 1015 83 10000 4.6 50 07:36 19.12.2019
6226 Clouds 24 1015 83 10000 4.6 50 07:18 19.12.2019
6227 Clouds 24 1015 83 10000 5.1 40 06:42 19.12.2019
6228 Clouds 24 1015 83 10000 5.1 40 06:24 19.12.2019
6229 Clouds 25 1015 83 10000 4.1 40 05:45 19.12.2019
6230 Clouds 25 1015 83 10000 4.1 40 05:20 19.12.2019
6231 Clouds 25 1015 88 10000 4.6 30 03:54 19.12.2019
6232 Rain 25 1015 88 10000 5.7 10 02:29 19.12.2019
6233 Rain 25 1014 78 10000 4.1 310 01:26 19.12.2019
6234 Rain 26 1013 78 10000 4.6 300 00:59 19.12.2019
6235 Rain 26 1013 78 10000 4.6 300 00:39 19.12.2019
6236 Rain 26 1013 78 10000 4.6 300 00:19 19.12.2019
6237 Rain 27 1013 78 10000 2.6 280 23:45 18.12.2019
6238 Rain 27 1013 78 10000 2.6 280 23:19 18.12.2019
6239 Clouds 27 1012 74 10000 4.1 210 22:58 18.12.2019
6240 Clouds 28 1012 74 10000 4.1 210 22:39 18.12.2019
6241 Clouds 28 1012 74 10000 4.1 210 22:39 18.12.2019
6242 Clouds 28 1012 74 10000 4.1 210 22:21 18.12.2019
6243 Clouds 28 1011 79 0 1.34 215 21:58 18.12.2019
6244 Clouds 28 1011 79 0 0.45 249 21:40 18.12.2019
6245 Clouds 29 1012 70 10000 5.1 210 21:20 18.12.2019
6246 Clouds 29 1012 70 10000 5.1 210 21:20 18.12.2019
6247 Clouds 29 1012 70 10000 5.1 210 20:57 18.12.2019
6248 Clouds 29 1012 70 10000 5.1 210 20:38 18.12.2019
6249 Clouds 29 1012 70 10000 5.1 210 20:20 18.12.2019
6250 Clouds 29 1012 70 10000 5.7 210 19:56 18.12.2019
6251 Clear 29 1011 78 0 1.79 231 19:38 18.12.2019
6252 Clouds 29 1014 74 10000 6.7 220 19:18 18.12.2019
6253 Clouds 29 1014 74 10000 6.7 220 18:45 18.12.2019
6254 Clouds 29 1014 74 10000 6.7 220 18:45 18.12.2019
6255 Clouds 29 1014 74 10000 6.7 220 18:26 18.12.2019
6256 Clouds 29 1015 74 10000 6.7 210 17:58 18.12.2019
6257 Clouds 29 1015 74 10000 6.7 210 17:40 18.12.2019
6258 Clouds 28 1015 74 10000 6.7 210 17:20 18.12.2019
6259 Clouds 28 1015 74 10000 6.7 210 17:20 18.12.2019
6260 Clouds 27 1015 83 10000 5.7 210 16:58 18.12.2019
6261 Clouds 28 1015 83 10000 5.7 210 16:40 18.12.2019
6262 Clouds 27 1015 78 10000 5.1 200 16:22 18.12.2019
6263 Clouds 27 1015 78 10000 5.1 200 15:57 18.12.2019
6264 Clouds 27 1015 78 10000 5.1 200 15:38 18.12.2019
6265 Clouds 27 1015 78 10000 5.1 200 15:20 18.12.2019
6266 Clouds 26 1014 88 10000 4.1 170 14:43 18.12.2019
6267 Clouds 25 1014 94 10000 3.6 160 14:22 18.12.2019
6268 Clouds 24 1014 94 10000 3.6 160 13:58 18.12.2019
6269 Clouds 25 1014 94 10000 3.6 160 13:39 18.12.2019
6270 Clouds 24 1014 94 10000 3.6 160 13:21 18.12.2019
6271 Clouds 24 1013 94 10000 3.1 170 12:59 18.12.2019
6272 Clouds 24 1013 94 10000 3.1 170 12:40 18.12.2019
6273 Clouds 24 1013 94 10000 3.1 170 12:20 18.12.2019
6274 Clouds 24 1013 88 10000 4.1 170 11:56 18.12.2019
6275 Clouds 24 1013 88 10000 4.1 170 11:38 18.12.2019
6276 Clouds 24 1013 88 10000 4.1 170 11:19 18.12.2019
6277 Clouds 24 1013 88 10000 4.1 170 10:57 18.12.2019
6278 Clouds 24 1013 88 10000 4.1 170 10:39 18.12.2019
6279 Clouds 24 1013 88 10000 4.1 170 10:20 18.12.2019
6280 Clouds 24 1013 94 10000 4.6 170 09:52 18.12.2019
6281 Clouds 24 1013 94 10000 4.6 170 09:19 18.12.2019
6282 Clouds 24 1013 94 10000 3.1 170 08:41 18.12.2019
6283 Clouds 24 1013 94 10000 3.1 170 08:41 18.12.2019
6284 Clouds 24 1013 94 10000 3.1 170 08:23 18.12.2019
6285 Clear 24 1013 94 10000 4.1 170 07:55 18.12.2019
6286 Clear 24 1013 94 10000 4.1 170 07:36 18.12.2019
6287 Clear 24 1013 94 10000 4.1 170 07:18 18.12.2019
6288 Clouds 24 1014 94 10000 3.1 170 06:49 18.12.2019
6289 Clouds 24 1014 94 10000 3.1 170 06:22 18.12.2019
6290 Clouds 24 1014 94 10000 4.1 160 05:22 18.12.2019
6291 Clouds 25 1015 88 10000 4.1 160 03:31 18.12.2019
6292 Clear 25 1014 76 0 0.45 136 02:38 18.12.2019
6293 Clouds 25 1015 88 10000 3.1 150 02:20 18.12.2019
6294 Clouds 25 1015 88 10000 3.1 150 01:42 18.12.2019
6295 Clouds 25 1015 88 10000 3.1 150 01:23 18.12.2019
6296 Clear 25 1014 77 0 7.19 135 00:41 18.12.2019
6297 Clouds 26 1015 83 10000 5.7 160 00:23 18.12.2019
6298 Clouds 26 1015 83 10000 5.7 160 23:57 17.12.2019
6299 Clouds 26 1015 83 10000 5.7 160 23:39 17.12.2019
6300 Clouds 26 1015 83 10000 5.7 160 23:19 17.12.2019
6301 Clouds 27 1015 78 10000 7.2 160 22:56 17.12.2019
6302 Clouds 27 1015 78 10000 7.2 160 22:38 17.12.2019
6303 Clouds 27 1015 78 10000 7.2 160 22:19 17.12.2019
6304 Clouds 27 1015 74 10000 7.7 160 21:55 17.12.2019
6305 Clouds 27 1015 74 10000 7.7 160 21:55 17.12.2019
6306 Clouds 27 1015 74 10000 7.7 160 21:55 17.12.2019
6307 Clouds 27 1015 74 10000 7.7 160 21:37 17.12.2019
6308 Clouds 27 1015 74 10000 7.7 160 21:37 17.12.2019
6309 Clouds 27 1015 74 10000 7.7 160 21:19 17.12.2019
6310 Clouds 28 1015 69 10000 7.7 140 20:56 17.12.2019
6311 Clouds 28 1015 69 10000 7.7 140 20:38 17.12.2019
6312 Clouds 28 1015 69 10000 7.7 140 20:18 17.12.2019
6313 Clouds 28 1016 66 10000 7.2 140 19:55 17.12.2019
6314 Clouds 28 1016 66 10000 7.2 140 19:37 17.12.2019
6315 Clouds 28 1016 66 10000 7.2 140 19:18 17.12.2019
6316 Clouds 28 1017 69 10000 6.7 140 18:42 17.12.2019
6317 Clouds 28 1017 69 10000 6.7 140 18:42 17.12.2019
6318 Clouds 28 1017 69 10000 6.7 140 18:22 17.12.2019
6319 Clouds 28 1018 69 10000 6.7 140 17:59 17.12.2019
6320 Clouds 28 1018 69 10000 6.7 140 17:41 17.12.2019
6321 Clouds 28 1018 69 10000 6.7 140 17:19 17.12.2019
6322 Clouds 27 1018 74 10000 5.7 140 16:56 17.12.2019
6323 Clouds 27 1018 74 10000 5.7 140 16:37 17.12.2019
6324 Clouds 27 1018 74 10000 5.7 140 16:37 17.12.2019
6325 Clouds 27 1018 74 10000 5.7 140 16:19 17.12.2019
6326 Clouds 27 1018 78 10000 5.7 130 15:56 17.12.2019
6327 Clouds 27 1018 78 10000 5.7 130 15:37 17.12.2019
6328 Clouds 26 1018 78 10000 5.7 130 15:19 17.12.2019
6329 Clouds 26 1018 78 10000 5.7 130 15:19 17.12.2019
6330 Clouds 26 1018 83 10000 3.6 140 14:55 17.12.2019
6331 Clouds 26 1018 83 10000 3.6 140 14:36 17.12.2019
6332 Clouds 25 1018 83 10000 3.6 140 14:18 17.12.2019
6333 Clouds 25 1018 94 10000 2.6 130 13:55 17.12.2019
6334 Clouds 25 1018 94 10000 2.6 130 13:55 17.12.2019
6335 Clouds 25 1018 94 10000 2.6 130 13:37 17.12.2019
6336 Clouds 25 1018 94 10000 2.6 130 13:18 17.12.2019
6337 Clouds 24 1018 94 10000 2.6 110 12:41 17.12.2019
6338 Clouds 24 1018 94 10000 2.6 110 12:19 17.12.2019
6339 Clouds 24 1018 94 10000 2.6 110 12:19 17.12.2019
6340 Clouds 24 1018 94 10000 2.6 110 12:19 17.12.2019
6341 Clouds 24 1018 94 10000 2.6 110 12:19 17.12.2019
6342 Clouds 24 1018 94 10000 3.1 110 11:59 17.12.2019
6343 Clouds 24 1018 94 10000 3.1 110 11:37 17.12.2019
6344 Clouds 24 1018 94 10000 3.1 110 11:19 17.12.2019
6345 Clouds 24 1018 94 10000 2.6 120 10:59 17.12.2019
6346 Clouds 24 1018 94 10000 2.6 120 10:40 17.12.2019
6347 Clouds 24 1018 94 10000 2.6 120 10:21 17.12.2019
6348 Clear 25 1017 84 0 8.23 109 09:59 17.12.2019
6349 Clear 25 1017 84 0 8.23 109 09:41 17.12.2019
6350 Clear 25 1017 84 0 8.23 109 09:20 17.12.2019
6351 Clear 25 1017 84 0 8.23 109 08:56 17.12.2019
6352 Clear 25 1017 84 0 8.23 109 08:38 17.12.2019
6353 Clouds 25 1019 83 10000 3.6 120 08:19 17.12.2019
6354 Clouds 25 1019 83 10000 3.6 120 07:45 17.12.2019
6355 Clouds 25 1019 83 10000 3.6 120 07:26 17.12.2019
6356 Clouds 25 1019 88 10000 4.1 110 06:56 17.12.2019
6357 Rain 25 1019 75 0 1.34 82 06:34 17.12.2019
6358 Clouds 25 1020 88 10000 4.6 120 05:52 17.12.2019
6359 Clouds 25 1020 88 10000 4.6 120 05:34 17.12.2019
6360 Clouds 25 1020 88 10000 5.1 110 04:25 17.12.2019
6361 Clouds 25 1020 88 10000 4.6 110 02:33 17.12.2019
6362 Clouds 25 1020 88 10000 4.6 110 02:33 17.12.2019
6363 Clouds 25 1020 88 10000 5.1 100 01:50 17.12.2019
6364 Clouds 25 1019 88 10000 5.1 100 00:56 17.12.2019
6365 Clouds 25 1019 88 10000 5.1 100 00:36 17.12.2019
6366 Clouds 25 1019 88 10000 5.1 100 00:18 17.12.2019
6367 Clouds 26 1019 83 0 5.1 110 23:40 16.12.2019
6368 Clouds 25 1019 83 0 5.1 110 23:19 16.12.2019
6369 Clouds 26 1019 78 10000 7.2 120 22:55 16.12.2019
6370 Clouds 26 1019 78 10000 7.2 120 22:37 16.12.2019
6371 Clouds 26 1019 78 10000 7.2 120 22:19 16.12.2019
6372 Clouds 26 1019 78 10000 5.7 110 21:54 16.12.2019
6373 Clouds 26 1019 78 10000 5.7 110 21:36 16.12.2019
6374 Clouds 27 1019 78 10000 5.7 110 21:18 16.12.2019
6375 Rain 27 1019 74 10000 6.7 110 20:56 16.12.2019
6376 Rain 27 1019 74 10000 6.7 110 20:37 16.12.2019
6377 Rain 27 1019 74 10000 6.7 110 20:18 16.12.2019
6378 Clouds 27 1020 74 10000 6.2 110 19:55 16.12.2019
6379 Clouds 27 1020 74 10000 6.2 110 19:36 16.12.2019
6380 Clouds 27 1020 74 10000 6.2 110 19:18 16.12.2019
6381 Clouds 27 1020 74 10000 6.2 110 19:18 16.12.2019
6382 Rain 27 1021 74 10000 6.2 110 18:42 16.12.2019
6383 Rain 27 1021 74 10000 6.2 110 18:20 16.12.2019
6384 Rain 27 1022 74 10000 6.7 110 17:59 16.12.2019
6385 Rain 27 1022 74 10000 6.7 110 17:41 16.12.2019
6386 Rain 27 1022 74 10000 6.7 110 17:22 16.12.2019
6387 Clouds 26 1022 74 10000 6.7 110 16:59 16.12.2019
6388 Clouds 27 1022 74 10000 6.7 110 16:39 16.12.2019
6389 Clouds 27 1022 74 10000 6.7 110 16:39 16.12.2019
6390 Clouds 26 1022 74 10000 6.7 110 16:20 16.12.2019
6391 Clouds 26 1022 78 10000 6.2 110 15:59 16.12.2019
6392 Clouds 26 1022 78 10000 6.2 110 15:59 16.12.2019
6393 Clouds 26 1022 78 10000 6.2 110 15:39 16.12.2019
6394 Clouds 26 1022 78 10000 6.2 110 15:21 16.12.2019
6395 Clouds 25 1021 83 10000 4.6 100 14:58 16.12.2019
6396 Clouds 25 1021 83 10000 4.6 100 14:38 16.12.2019
6397 Clouds 25 1021 83 10000 4.6 100 14:20 16.12.2019
6398 Clouds 24 1021 83 10000 4.1 100 13:58 16.12.2019
6399 Clouds 24 1021 83 10000 4.1 100 13:38 16.12.2019
6400 Clouds 24 1020 80 0 2.68 86 13:20 16.12.2019
6401 Clouds 25 1020 79 0 9.82 95 12:58 16.12.2019
6402 Clouds 25 1020 79 0 9.82 95 12:40 16.12.2019
6403 Clouds 24 1020 88 10000 4.6 100 12:20 16.12.2019
6404 Clouds 24 1020 88 10000 4.6 100 11:59 16.12.2019
6405 Clouds 24 1020 88 10000 4.6 100 11:41 16.12.2019
6406 Clouds 24 1020 88 10000 4.6 100 11:21 16.12.2019
6407 Clouds 24 1020 88 10000 4.1 100 10:58 16.12.2019
6408 Clouds 24 1020 88 10000 4.1 100 10:40 16.12.2019
6409 Clouds 24 1020 88 10000 4.1 100 10:20 16.12.2019
6410 Clouds 25 1019 81 0 9.81 86 09:45 16.12.2019
6411 Clouds 24 1021 83 10000 5.1 100 09:27 16.12.2019
6412 Clouds 24 1021 83 10000 5.1 100 08:57 16.12.2019
6413 Clouds 24 1021 83 10000 5.1 100 08:38 16.12.2019
6414 Clouds 24 1021 83 10000 5.1 100 08:18 16.12.2019
6415 Clouds 24 1021 83 10000 5.1 100 08:18 16.12.2019
6416 Rain 25 1020 78 0 9.72 78 07:44 16.12.2019
6417 Clouds 24 1021 88 10000 5.1 100 07:22 16.12.2019
6418 Clouds 24 1021 88 10000 5.1 100 06:45 16.12.2019
6419 Clouds 24 1021 88 10000 5.1 100 06:25 16.12.2019
6420 Clouds 24 1022 88 10000 5.1 100 05:50 16.12.2019
6421 Clouds 24 1022 88 10000 5.1 100 05:31 16.12.2019
6422 Clouds 24 1022 88 10000 5.1 100 04:22 16.12.2019
6423 Clouds 24 1021 83 10000 4.6 80 02:19 16.12.2019
6424 Clouds 24 1020 83 10000 4.6 90 01:44 16.12.2019
6425 Clouds 25 1020 83 10000 4.1 80 00:42 16.12.2019
6426 Clouds 25 1020 83 10000 4.1 80 00:24 16.12.2019
6427 Clouds 25 1019 83 10000 4.6 90 23:58 15.12.2019
6428 Clouds 25 1019 83 10000 4.6 90 23:38 15.12.2019
6429 Clouds 25 1019 83 10000 4.6 90 23:19 15.12.2019
6430 Clouds 25 1019 74 10000 5.7 90 22:55 15.12.2019
6431 Clouds 25 1019 74 10000 5.7 90 22:37 15.12.2019
6432 Clouds 25 1019 74 10000 5.7 90 22:18 15.12.2019
6433 Clouds 26 1019 74 10000 5.7 80 21:55 15.12.2019
6434 Clouds 25 1019 74 10000 5.7 80 21:37 15.12.2019
6435 Clouds 25 1019 74 10000 5.7 80 21:18 15.12.2019
6436 Clouds 26 1019 69 10000 5.7 70 20:55 15.12.2019
6437 Clouds 26 1019 69 10000 5.7 70 20:36 15.12.2019
6438 Clouds 26 1019 74 10000 5.1 80 20:18 15.12.2019
6439 Clouds 26 1019 74 10000 5.1 80 20:18 15.12.2019
6440 Clouds 26 1019 74 10000 5.1 80 19:55 15.12.2019
6441 Clouds 26 1019 74 10000 5.1 80 19:37 15.12.2019
6442 Clouds 26 1019 74 10000 5.1 80 19:18 15.12.2019
6443 Clear 26 1020 74 10000 5.1 60 18:54 15.12.2019
6444 Clear 26 1018 79 0 1.79 79 18:36 15.12.2019
6445 Clouds 26 1020 74 10000 5.7 60 18:18 15.12.2019
6446 Clouds 26 1020 74 10000 5.7 60 17:55 15.12.2019
6447 Clouds 26 1020 74 10000 5.7 60 17:36 15.12.2019
6448 Clouds 26 1020 74 10000 5.7 60 17:18 15.12.2019
6449 Clouds 26 1020 74 10000 5.1 60 16:42 15.12.2019
6450 Clouds 26 1020 74 10000 5.1 60 16:22 15.12.2019
6451 Clouds 26 1020 78 10000 3.1 60 15:57 15.12.2019
6452 Clouds 26 1020 78 10000 3.1 60 15:39 15.12.2019
6453 Clouds 26 1020 78 10000 3.1 60 15:19 15.12.2019
6454 Clouds 24 1019 94 10000 0.5 0 14:56 15.12.2019
6455 Clouds 24 1019 94 10000 0.5 0 14:37 15.12.2019
6456 Clouds 24 1019 94 10000 0.5 0 14:19 15.12.2019
6457 Clouds 22 1018 100 10000 3.64 20 13:58 15.12.2019
6458 Clouds 22 1018 100 10000 3.37 23 13:38 15.12.2019
6459 Clouds 22 1018 100 10000 3.37 23 13:19 15.12.2019
6460 Clouds 20 1017 100 10000 3.37 23 12:57 15.12.2019
6461 Clouds 20 1017 100 10000 3.37 23 12:39 15.12.2019
6462 Clouds 20 1017 100 10000 3.37 23 12:20 15.12.2019
6463 Clouds 20 1017 100 10000 3.37 23 12:20 15.12.2019
6464 Clouds 20 1016 100 10000 1 0 11:56 15.12.2019
6465 Clouds 20 1016 100 10000 1 0 11:37 15.12.2019
6466 Clouds 20 1016 100 10000 1 0 11:18 15.12.2019
6467 Clouds 21 1016 100 10000 2.92 317 10:55 15.12.2019
6468 Clouds 21 1016 100 10000 2.92 317 10:37 15.12.2019
6469 Clouds 21 1016 100 10000 2.92 317 10:18 15.12.2019
6470 Clouds 22 1016 88 10000 1.5 270 09:40 15.12.2019
6471 Clouds 22 1016 88 10000 1.5 270 09:20 15.12.2019
6472 Clouds 23 1016 88 10000 1.5 250 08:58 15.12.2019
6473 Clouds 23 1016 88 10000 1.5 250 08:39 15.12.2019
6474 Clouds 23 1016 88 10000 1.5 250 08:20 15.12.2019
6475 Clouds 23 1016 88 10000 1.5 250 07:56 15.12.2019
6476 Clouds 23 1016 88 10000 1.5 250 07:34 15.12.2019
6477 Clouds 23 1016 88 10000 2.1 240 06:44 15.12.2019
6478 Clouds 23 1016 88 10000 2.1 240 06:19 15.12.2019
6479 Clouds 23 1016 88 10000 2.1 230 05:26 15.12.2019
6480 Clouds 23 1016 88 10000 2.1 230 04:47 15.12.2019
6481 Clouds 24 1015 83 10000 2.1 230 03:22 15.12.2019
6482 Clouds 24 1015 83 10000 2.1 260 02:33 15.12.2019
6483 Clouds 24 1014 83 10000 2.1 240 01:46 15.12.2019
6484 Clouds 24 1014 78 10000 2.1 260 01:28 15.12.2019
6485 Clouds 24 1014 78 10000 2.1 260 00:54 15.12.2019
6486 Clouds 24 1014 78 10000 2.1 260 00:35 15.12.2019
6487 Clouds 25 1013 74 10000 3.6 280 23:58 14.12.2019
6488 Clouds 25 1013 74 10000 3.6 280 23:58 14.12.2019
6489 Clouds 25 1013 74 10000 3.6 280 23:39 14.12.2019
6490 Clouds 26 1013 74 10000 3.6 280 23:19 14.12.2019
6491 Clouds 27 1012 65 10000 4.1 280 22:57 14.12.2019
6492 Clouds 27 1012 65 10000 4.1 280 22:39 14.12.2019
6493 Clouds 28 1012 61 10000 5.1 290 22:20 14.12.2019
6494 Clouds 28 1012 61 10000 5.1 290 21:55 14.12.2019
6495 Clouds 28 1012 61 10000 5.1 290 21:55 14.12.2019
6496 Clouds 28 1012 61 10000 5.1 290 21:37 14.12.2019
6497 Clouds 28 1013 61 10000 4.6 300 21:18 14.12.2019
6498 Clouds 28 1013 61 10000 4.6 300 20:54 14.12.2019
6499 Clouds 28 1013 61 10000 4.6 300 20:36 14.12.2019
6500 Clouds 28 1013 61 10000 4.6 300 20:18 14.12.2019
6501 Clouds 28 1013 74 10000 4.1 230 19:40 14.12.2019
6502 Clouds 28 1013 74 10000 4.1 230 19:21 14.12.2019
6503 Clouds 28 1013 74 10000 4.1 230 19:21 14.12.2019
6504 Clouds 28 1013 69 10000 4.6 240 18:57 14.12.2019
6505 Clouds 28 1013 69 10000 4.6 240 18:39 14.12.2019
6506 Clouds 28 1013 69 10000 4.6 240 18:21 14.12.2019
6507 Clouds 27 1014 74 10000 4.6 230 17:58 14.12.2019
6508 Clouds 27 1014 74 10000 4.6 230 17:40 14.12.2019
6509 Clouds 27 1014 74 10000 4.6 230 17:21 14.12.2019
6510 Thunderstorm 26 1014 78 10000 4.6 230 16:41 14.12.2019
6511 Thunderstorm 26 1014 78 10000 4.6 230 16:19 14.12.2019
6512 Clouds 26 1013 78 10000 5.1 230 15:55 14.12.2019
6513 Clouds 25 1013 78 10000 5.1 230 15:37 14.12.2019
6514 Clouds 25 1013 78 10000 5.1 230 15:19 14.12.2019
6515 Thunderstorm 25 1013 83 10000 2.1 250 14:54 14.12.2019
6516 Thunderstorm 25 1013 83 10000 2.1 250 14:36 14.12.2019
6517 Thunderstorm 24 1013 83 10000 2.1 250 14:18 14.12.2019
6518 Clouds 24 1012 88 10000 4.6 250 13:42 14.12.2019
6519 Clouds 24 1012 88 10000 4.6 250 13:19 14.12.2019
6520 Clouds 24 1012 88 10000 4.6 250 13:19 14.12.2019
6521 Rain 25 1012 88 10000 3.6 230 12:57 14.12.2019
6522 Rain 25 1012 88 10000 3.6 230 12:38 14.12.2019
6523 Rain 25 1012 88 10000 3.6 230 12:20 14.12.2019
6524 Rain 25 1012 88 10000 3.6 230 12:20 14.12.2019
6525 Clouds 25 1012 88 10000 6.2 200 11:56 14.12.2019
6526 Clouds 25 1012 88 10000 6.2 200 11:38 14.12.2019
6527 Clouds 25 1012 88 10000 6.2 200 11:19 14.12.2019
6528 Rain 25 1011 88 10000 6.7 180 10:56 14.12.2019
6529 Rain 25 1011 88 10000 6.7 180 10:38 14.12.2019
6530 Rain 25 1011 88 10000 6.7 180 10:19 14.12.2019
6531 Clouds 25 1011 88 10000 6.2 170 09:43 14.12.2019
6532 Clouds 25 1011 88 10000 6.2 170 09:21 14.12.2019
6533 Clouds 24 1012 94 10000 4.6 180 08:57 14.12.2019
6534 Clouds 24 1012 94 10000 4.6 180 08:38 14.12.2019
6535 Clouds 24 1012 94 10000 4.6 180 08:19 14.12.2019
6536 Thunderstorm 24 1013 94 10000 4.6 180 07:40 14.12.2019
6537 Thunderstorm 24 1013 94 10000 4.6 180 07:40 14.12.2019
6538 Thunderstorm 24 1013 94 10000 4.6 180 07:20 14.12.2019
6539 Clouds 24 1014 94 10000 4.1 190 06:42 14.12.2019
6540 Clouds 24 1014 94 10000 4.1 190 06:22 14.12.2019
6541 Thunderstorm 24 1014 94 10000 3.1 190 05:25 14.12.2019
6542 Clouds 25 1014 83 10000 5.1 170 02:51 14.12.2019
6543 Clouds 25 1014 83 10000 5.1 170 02:23 14.12.2019
6544 Clouds 25 1014 88 10000 4.6 180 01:43 14.12.2019
6545 Clouds 25 1014 83 10000 4.6 170 00:55 14.12.2019
6546 Clouds 25 1014 83 10000 4.6 170 00:37 14.12.2019
6547 Clouds 25 1014 83 10000 4.6 170 00:18 14.12.2019
6548 Clouds 25 1013 88 10000 5.7 170 23:39 13.12.2019
6549 Clouds 25 1013 88 10000 5.7 170 23:19 13.12.2019
6550 Clouds 25 1013 88 10000 5.7 170 23:19 13.12.2019
6551 Clouds 26 1013 83 10000 6.2 170 22:55 13.12.2019
6552 Clouds 26 1013 83 10000 6.2 170 22:36 13.12.2019
6553 Clouds 27 1014 78 10000 6.7 170 22:18 13.12.2019
6554 Clouds 27 1014 78 10000 6.7 170 21:40 13.12.2019
6555 Clouds 27 1014 78 10000 6.7 170 21:21 13.12.2019
6556 Clouds 27 1014 78 10000 7.7 160 20:57 13.12.2019
6557 Clouds 27 1014 78 10000 7.7 160 20:38 13.12.2019
6558 Clouds 27 1014 78 10000 7.2 170 20:19 13.12.2019
6559 Clouds 27 1014 78 10000 7.2 170 19:56 13.12.2019
6560 Clouds 27 1014 78 10000 7.2 170 19:36 13.12.2019
6561 Clouds 27 1014 78 10000 7.2 170 19:18 13.12.2019
6562 Clouds 28 1016 74 10000 7.7 160 18:41 13.12.2019
6563 Clouds 28 1016 74 10000 7.7 160 18:19 13.12.2019
6564 Clouds 28 1016 69 10000 8.7 150 17:58 13.12.2019
6565 Clouds 28 1016 69 10000 8.7 150 17:39 13.12.2019
6566 Clouds 28 1016 69 10000 8.7 150 17:18 13.12.2019
6567 Clouds 28 1016 69 10000 8.7 150 17:18 13.12.2019
6568 Clouds 27 1017 74 10000 7.7 150 16:54 13.12.2019
6569 Clouds 27 1017 74 10000 7.7 150 16:54 13.12.2019
6570 Clouds 27 1017 74 10000 7.7 150 16:36 13.12.2019
6571 Clouds 27 1017 74 10000 7.7 150 16:18 13.12.2019
6572 Clouds 26 1017 83 10000 5.7 130 15:40 13.12.2019
6573 Clouds 26 1017 83 10000 5.7 130 15:20 13.12.2019
6574 Clouds 25 1017 88 10000 4.6 120 14:55 13.12.2019
6575 Clouds 25 1017 88 10000 4.6 120 14:36 13.12.2019
6576 Clouds 25 1017 88 10000 4.6 120 14:18 13.12.2019
6577 Clouds 24 1016 94 10000 4.6 120 13:41 13.12.2019
6578 Clouds 24 1016 94 10000 4.6 120 13:21 13.12.2019
6579 Clouds 24 1016 94 10000 3.6 130 12:45 13.12.2019
6580 Clouds 24 1016 94 10000 3.6 130 12:24 13.12.2019
6581 Clouds 23 1016 94 10000 3.1 110 11:59 13.12.2019
6582 Clouds 23 1016 94 10000 3.1 110 11:41 13.12.2019
6583 Clouds 23 1016 94 10000 3.1 110 11:23 13.12.2019
6584 Clouds 23 1017 88 10000 2.1 100 10:56 13.12.2019
6585 Clouds 23 1017 88 10000 2.1 100 10:38 13.12.2019
6586 Clouds 23 1017 88 10000 2.1 100 10:19 13.12.2019
6587 Clouds 23 1017 94 10000 2.6 110 09:41 13.12.2019
6588 Clouds 23 1017 94 10000 2.6 110 09:20 13.12.2019
6589 Clouds 22 1018 100 10000 1 0 08:44 13.12.2019
6590 Clouds 22 1018 100 10000 1 0 08:25 13.12.2019
6591 Rain 22 1018 94 9000 1 0 07:47 13.12.2019
6592 Rain 22 1018 94 9000 1 0 07:24 13.12.2019
6593 Rain 22 1019 94 3000 5.1 140 06:55 13.12.2019
6594 Rain 23 1019 94 3000 5.1 140 06:29 13.12.2019
6595 Clouds 24 1019 88 10000 3.6 100 05:47 13.12.2019
6596 Clouds 24 1019 88 10000 3.6 100 05:28 13.12.2019
6597 Rain 24 1020 83 10000 4.1 100 04:46 13.12.2019
6598 Rain 25 1019 78 10000 5.1 100 03:47 13.12.2019
6599 Rain 25 1019 78 10000 5.7 100 02:34 13.12.2019
6600 Rain 25 1019 78 10000 5.1 80 01:47 13.12.2019
6601 Rain 24 1019 78 10000 4.6 70 00:57 13.12.2019
6602 Rain 24 1019 78 10000 4.6 70 00:37 13.12.2019
6603 Clouds 25 1019 69 10000 4.6 80 23:59 12.12.2019
6604 Clouds 25 1019 69 10000 4.6 80 23:59 12.12.2019
6605 Clouds 25 1019 69 10000 4.6 80 23:39 12.12.2019
6606 Clouds 24 1019 69 10000 4.6 80 23:21 12.12.2019
6607 Clouds 25 1019 61 10000 6.2 90 22:56 12.12.2019
6608 Clouds 25 1019 61 10000 6.2 90 22:37 12.12.2019
6609 Clouds 25 1019 61 10000 6.2 90 22:18 12.12.2019
6610 Clouds 26 1020 65 10000 6.2 90 21:54 12.12.2019
6611 Clouds 25 1020 65 10000 6.2 90 21:36 12.12.2019
6612 Clouds 25 1020 65 10000 6.2 90 21:18 12.12.2019
6613 Clouds 26 1020 57 10000 7.2 90 20:55 12.12.2019
6614 Clouds 26 1020 57 10000 7.2 90 20:55 12.12.2019
6615 Clouds 26 1020 57 10000 7.2 90 20:55 12.12.2019
6616 Clouds 26 1020 57 10000 7.2 90 20:37 12.12.2019
6617 Clouds 26 1020 57 10000 7.2 90 20:19 12.12.2019
6618 Clouds 26 1019 73 0 3.58 47 19:42 12.12.2019
6619 Clouds 26 1022 65 10000 6.2 80 19:22 12.12.2019
6620 Clouds 26 1022 65 10000 6.2 80 18:58 12.12.2019
6621 Clouds 26 1022 65 10000 6.2 80 18:39 12.12.2019
6622 Clouds 26 1022 65 10000 6.2 80 18:20 12.12.2019
6623 Clouds 26 1022 65 10000 6.7 80 17:57 12.12.2019
6624 Clouds 26 1022 65 10000 6.7 80 17:39 12.12.2019
6625 Clouds 26 1022 65 10000 6.7 80 17:20 12.12.2019
6626 Clouds 26 1023 65 10000 6.2 90 16:57 12.12.2019
6627 Clouds 26 1023 65 10000 6.2 90 16:39 12.12.2019
6628 Clouds 26 1023 65 10000 6.2 90 16:20 12.12.2019
6629 Clouds 26 1022 69 10000 5.7 100 15:56 12.12.2019
6630 Clouds 26 1022 69 10000 5.7 100 15:37 12.12.2019
6631 Clouds 25 1022 69 10000 5.7 100 15:18 12.12.2019
6632 Clouds 25 1022 78 10000 3.6 100 14:38 12.12.2019
6633 Clouds 25 1022 78 10000 3.6 100 14:20 12.12.2019
6634 Clouds 23 1022 94 10000 3.1 100 13:58 12.12.2019
6635 Clouds 23 1022 94 10000 3.1 100 13:39 12.12.2019
6636 Clouds 23 1022 94 10000 3.1 100 13:21 12.12.2019
6637 Clouds 22 1021 94 10000 2.1 90 12:58 12.12.2019
6638 Clouds 22 1021 94 10000 2.1 90 12:40 12.12.2019
6639 Clouds 22 1021 94 10000 2.1 90 12:21 12.12.2019
6640 Clouds 23 1021 94 10000 3.6 110 11:56 12.12.2019
6641 Clouds 23 1021 94 10000 3.6 110 11:37 12.12.2019
6642 Clouds 23 1021 94 10000 3.6 110 11:19 12.12.2019
6643 Clear 25 1020 78 0 6.78 81 10:55 12.12.2019
6644 Clear 25 1020 78 0 6.78 81 10:37 12.12.2019
6645 Clear 25 1020 78 0 6.78 81 10:19 12.12.2019
6646 Clear 25 1020 78 0 6.78 81 09:42 12.12.2019
6647 Clear 25 1020 78 0 6.78 81 09:23 12.12.2019
6648 Clear 25 1020 78 0 6.78 81 08:56 12.12.2019
6649 Clear 25 1020 78 0 6.78 81 08:38 12.12.2019
6650 Clouds 23 1022 94 10000 2.6 90 08:20 12.12.2019
6651 Clouds 23 1022 94 10000 2.6 90 07:43 12.12.2019
6652 Clouds 23 1022 94 10000 2.6 90 07:24 12.12.2019
6653 Rain 24 1022 94 10000 2.6 90 06:50 12.12.2019
6654 Rain 24 1022 94 10000 2.6 90 06:32 12.12.2019
6655 Rain 24 1023 88 10000 2.1 90 05:39 12.12.2019
6656 Rain 24 1022 81 0 7.24 88 04:51 12.12.2019
6657 Rain 24 1023 88 10000 2.6 100 03:24 12.12.2019
6658 Rain 25 1022 83 10000 3.6 90 02:38 12.12.2019
6659 Rain 25 1022 83 10000 3.6 90 02:19 12.12.2019
6660 Rain 25 1022 83 10000 3.1 90 01:37 12.12.2019
6661 Rain 25 1022 83 10000 3.1 90 01:18 12.12.2019
6662 Clouds 25 1021 83 10000 2.6 100 00:40 12.12.2019
6663 Clouds 25 1021 83 10000 2.6 100 00:19 12.12.2019
6664 Clouds 25 1021 83 10000 4.1 100 23:44 11.12.2019
6665 Clouds 25 1021 83 10000 4.1 100 23:20 11.12.2019
6666 Clouds 26 1021 78 10000 4.6 100 22:57 11.12.2019
6667 Clear 26 1020 82 0 5.78 99 22:38 11.12.2019
6668 Clear 25 1020 84 0 5.78 99 22:19 11.12.2019
6669 Clear 26 1020 82 0 0.45 82 21:57 11.12.2019
6670 Clear 26 1020 82 0 5.78 99 21:37 11.12.2019
6671 Clouds 27 1021 69 10000 5.7 130 21:19 11.12.2019
6672 Clouds 27 1021 69 10000 5.7 130 20:56 11.12.2019
6673 Clouds 27 1021 69 10000 5.7 130 20:37 11.12.2019
6674 Clouds 27 1021 69 10000 5.7 130 20:19 11.12.2019
6675 Clouds 27 1021 69 10000 6.7 140 19:57 11.12.2019
6676 Clouds 27 1021 69 10000 6.7 140 19:38 11.12.2019
6677 Clouds 28 1021 69 10000 6.7 140 19:18 11.12.2019
6678 Rain 27 1022 69 10000 6.7 140 18:40 11.12.2019
6679 Rain 27 1022 69 10000 6.7 140 18:21 11.12.2019